<?xml version="1.0" encoding="UTF-8" standalone="no" ?>
<gpx xmlns="http://www.topografix.com/GPX/1/1" xmlns:xsi="http://www.w3.org/2001/XMLSchema-instance" xsi:schemaLocation="http://www.topografix.com/GPX/1/1 http://www.topografix.com/GPX/1/1/gpx.xsd" version="1.1" creator="VisuGPX - https://www.visugpx.com">
  <metadata>
    <name>turon du neouvielle</name>
    <desc><![CDATA[turon depuis le refuge de la glère en skis de randonnées
]]></desc>
  </metadata>
  <trk>
    <name><![CDATA[4 mai 2017]]></name>
    <cmt><![CDATA[08:02:21]]></cmt>
    <desc><![CDATA[comment ...]]></desc>
    <trkseg>
      <trkpt lat="42.86005" lon="0.09118">
        <ele>2102</ele>
        <time>2017-05-04T06:02:18Z</time>
      </trkpt>
      <trkpt lat="42.86005" lon="0.09118">
        <ele>2102</ele>
        <time>2017-05-04T06:02:19Z</time>
      </trkpt>
      <trkpt lat="42.85997" lon="0.09131">
        <ele>2103</ele>
        <time>2017-05-04T06:02:42Z</time>
      </trkpt>
      <trkpt lat="42.85995" lon="0.09129">
        <ele>2108</ele>
        <time>2017-05-04T06:03:21Z</time>
      </trkpt>
      <trkpt lat="42.85989" lon="0.0913">
        <ele>2111</ele>
        <time>2017-05-04T06:03:27Z</time>
      </trkpt>
      <trkpt lat="42.85985" lon="0.09135">
        <ele>2112</ele>
        <time>2017-05-04T06:03:33Z</time>
      </trkpt>
      <trkpt lat="42.8598" lon="0.09145">
        <ele>2112</ele>
        <time>2017-05-04T06:04:10Z</time>
      </trkpt>
      <trkpt lat="42.85959" lon="0.09174">
        <ele>2108</ele>
        <time>2017-05-04T06:04:35Z</time>
      </trkpt>
      <trkpt lat="42.85956" lon="0.09188">
        <ele>2107</ele>
        <time>2017-05-04T06:04:44Z</time>
      </trkpt>
      <trkpt lat="42.85958" lon="0.09196">
        <ele>2104</ele>
        <time>2017-05-04T06:04:51Z</time>
      </trkpt>
      <trkpt lat="42.85958" lon="0.09205">
        <ele>2105</ele>
        <time>2017-05-04T06:04:58Z</time>
      </trkpt>
      <trkpt lat="42.85971" lon="0.09238">
        <ele>2107</ele>
        <time>2017-05-04T06:05:28Z</time>
      </trkpt>
      <trkpt lat="42.85978" lon="0.09253">
        <ele>2107</ele>
        <time>2017-05-04T06:05:43Z</time>
      </trkpt>
      <trkpt lat="42.85977" lon="0.09266">
        <ele>2105</ele>
        <time>2017-05-04T06:05:53Z</time>
      </trkpt>
      <trkpt lat="42.85972" lon="0.09308">
        <ele>2104</ele>
        <time>2017-05-04T06:06:25Z</time>
      </trkpt>
      <trkpt lat="42.85971" lon="0.09324">
        <ele>2104</ele>
        <time>2017-05-04T06:06:38Z</time>
      </trkpt>
      <trkpt lat="42.85971" lon="0.09328">
        <ele>2107</ele>
        <time>2017-05-04T06:08:02Z</time>
      </trkpt>
      <trkpt lat="42.85969" lon="0.09358">
        <ele>2104</ele>
        <time>2017-05-04T06:08:28Z</time>
      </trkpt>
      <trkpt lat="42.85967" lon="0.09367">
        <ele>2104</ele>
        <time>2017-05-04T06:08:38Z</time>
      </trkpt>
      <trkpt lat="42.85966" lon="0.09371">
        <ele>2105</ele>
        <time>2017-05-04T06:08:43Z</time>
      </trkpt>
      <trkpt lat="42.85961" lon="0.09386">
        <ele>2110</ele>
        <time>2017-05-04T06:09:13Z</time>
      </trkpt>
      <trkpt lat="42.85951" lon="0.0941">
        <ele>2114</ele>
        <time>2017-05-04T06:09:45Z</time>
      </trkpt>
      <trkpt lat="42.85947" lon="0.09422">
        <ele>2119</ele>
        <time>2017-05-04T06:10:04Z</time>
      </trkpt>
      <trkpt lat="42.85945" lon="0.09424">
        <ele>2119</ele>
        <time>2017-05-04T06:10:08Z</time>
      </trkpt>
      <trkpt lat="42.85942" lon="0.09426">
        <ele>2116</ele>
        <time>2017-05-04T06:10:19Z</time>
      </trkpt>
      <trkpt lat="42.85934" lon="0.09447">
        <ele>2120</ele>
        <time>2017-05-04T06:10:50Z</time>
      </trkpt>
      <trkpt lat="42.85934" lon="0.09456">
        <ele>2123</ele>
        <time>2017-05-04T06:11:02Z</time>
      </trkpt>
      <trkpt lat="42.85927" lon="0.09474">
        <ele>2130</ele>
        <time>2017-05-04T06:11:32Z</time>
      </trkpt>
      <trkpt lat="42.85923" lon="0.09498">
        <ele>2133</ele>
        <time>2017-05-04T06:11:59Z</time>
      </trkpt>
      <trkpt lat="42.85927" lon="0.09505">
        <ele>2135</ele>
        <time>2017-05-04T06:12:10Z</time>
      </trkpt>
      <trkpt lat="42.85926" lon="0.09509">
        <ele>2135</ele>
        <time>2017-05-04T06:12:16Z</time>
      </trkpt>
      <trkpt lat="42.85923" lon="0.09515">
        <ele>2137</ele>
        <time>2017-05-04T06:12:28Z</time>
      </trkpt>
      <trkpt lat="42.85927" lon="0.09522">
        <ele>2139</ele>
        <time>2017-05-04T06:12:40Z</time>
      </trkpt>
      <trkpt lat="42.85929" lon="0.09524">
        <ele>2140</ele>
        <time>2017-05-04T06:12:44Z</time>
      </trkpt>
      <trkpt lat="42.85942" lon="0.09533">
        <ele>2143</ele>
        <time>2017-05-04T06:13:10Z</time>
      </trkpt>
      <trkpt lat="42.85945" lon="0.09535">
        <ele>2144</ele>
        <time>2017-05-04T06:13:15Z</time>
      </trkpt>
      <trkpt lat="42.85945" lon="0.09539">
        <ele>2144</ele>
        <time>2017-05-04T06:13:22Z</time>
      </trkpt>
      <trkpt lat="42.85943" lon="0.09543">
        <ele>2144</ele>
        <time>2017-05-04T06:13:28Z</time>
      </trkpt>
      <trkpt lat="42.85938" lon="0.09549">
        <ele>2146</ele>
        <time>2017-05-04T06:13:44Z</time>
      </trkpt>
      <trkpt lat="42.85935" lon="0.09555">
        <ele>2147</ele>
        <time>2017-05-04T06:13:55Z</time>
      </trkpt>
      <trkpt lat="42.85939" lon="0.09562">
        <ele>2147</ele>
        <time>2017-05-04T06:14:09Z</time>
      </trkpt>
      <trkpt lat="42.85939" lon="0.09566">
        <ele>2148</ele>
        <time>2017-05-04T06:14:13Z</time>
      </trkpt>
      <trkpt lat="42.85937" lon="0.09568">
        <ele>2149</ele>
        <time>2017-05-04T06:14:18Z</time>
      </trkpt>
      <trkpt lat="42.85935" lon="0.09572">
        <ele>2150</ele>
        <time>2017-05-04T06:14:24Z</time>
      </trkpt>
      <trkpt lat="42.85933" lon="0.09579">
        <ele>2151</ele>
        <time>2017-05-04T06:14:34Z</time>
      </trkpt>
      <trkpt lat="42.85929" lon="0.09585">
        <ele>2153</ele>
        <time>2017-05-04T06:14:45Z</time>
      </trkpt>
      <trkpt lat="42.85927" lon="0.09587">
        <ele>2154</ele>
        <time>2017-05-04T06:14:51Z</time>
      </trkpt>
      <trkpt lat="42.85926" lon="0.09591">
        <ele>2154</ele>
        <time>2017-05-04T06:14:57Z</time>
      </trkpt>
      <trkpt lat="42.85927" lon="0.09603">
        <ele>2156</ele>
        <time>2017-05-04T06:15:12Z</time>
      </trkpt>
      <trkpt lat="42.85929" lon="0.09607">
        <ele>2157</ele>
        <time>2017-05-04T06:15:19Z</time>
      </trkpt>
      <trkpt lat="42.85937" lon="0.09612">
        <ele>2161</ele>
        <time>2017-05-04T06:15:38Z</time>
      </trkpt>
      <trkpt lat="42.8594" lon="0.09614">
        <ele>2162</ele>
        <time>2017-05-04T06:15:45Z</time>
      </trkpt>
      <trkpt lat="42.85941" lon="0.09619">
        <ele>2162</ele>
        <time>2017-05-04T06:15:51Z</time>
      </trkpt>
      <trkpt lat="42.8594" lon="0.09622">
        <ele>2163</ele>
        <time>2017-05-04T06:15:56Z</time>
      </trkpt>
      <trkpt lat="42.85936" lon="0.09628">
        <ele>2165</ele>
        <time>2017-05-04T06:16:07Z</time>
      </trkpt>
      <trkpt lat="42.85937" lon="0.09635">
        <ele>2165</ele>
        <time>2017-05-04T06:16:20Z</time>
      </trkpt>
      <trkpt lat="42.85938" lon="0.09639">
        <ele>2165</ele>
        <time>2017-05-04T06:16:25Z</time>
      </trkpt>
      <trkpt lat="42.85938" lon="0.09643">
        <ele>2167</ele>
        <time>2017-05-04T06:18:35Z</time>
      </trkpt>
      <trkpt lat="42.85935" lon="0.09645">
        <ele>2168</ele>
        <time>2017-05-04T06:18:40Z</time>
      </trkpt>
      <trkpt lat="42.85932" lon="0.09652">
        <ele>2169</ele>
        <time>2017-05-04T06:18:48Z</time>
      </trkpt>
      <trkpt lat="42.85927" lon="0.09659">
        <ele>2170</ele>
        <time>2017-05-04T06:22:49Z</time>
      </trkpt>
      <trkpt lat="42.85923" lon="0.09679">
        <ele>2174</ele>
        <time>2017-05-04T06:23:29Z</time>
      </trkpt>
      <trkpt lat="42.85922" lon="0.09683">
        <ele>2175</ele>
        <time>2017-05-04T06:23:33Z</time>
      </trkpt>
      <trkpt lat="42.85923" lon="0.09688">
        <ele>2175</ele>
        <time>2017-05-04T06:23:39Z</time>
      </trkpt>
      <trkpt lat="42.8592" lon="0.09691">
        <ele>2175</ele>
        <time>2017-05-04T06:23:44Z</time>
      </trkpt>
      <trkpt lat="42.85918" lon="0.09693">
        <ele>2175</ele>
        <time>2017-05-04T06:23:49Z</time>
      </trkpt>
      <trkpt lat="42.85915" lon="0.09692">
        <ele>2176</ele>
        <time>2017-05-04T06:23:55Z</time>
      </trkpt>
      <trkpt lat="42.85913" lon="0.09695">
        <ele>2177</ele>
        <time>2017-05-04T06:24:03Z</time>
      </trkpt>
      <trkpt lat="42.85913" lon="0.09704">
        <ele>2179</ele>
        <time>2017-05-04T06:24:15Z</time>
      </trkpt>
      <trkpt lat="42.85918" lon="0.09708">
        <ele>2182</ele>
        <time>2017-05-04T06:24:26Z</time>
      </trkpt>
      <trkpt lat="42.85921" lon="0.09709">
        <ele>2183</ele>
        <time>2017-05-04T06:24:31Z</time>
      </trkpt>
      <trkpt lat="42.85925" lon="0.09715">
        <ele>2185</ele>
        <time>2017-05-04T06:24:43Z</time>
      </trkpt>
      <trkpt lat="42.85928" lon="0.09717">
        <ele>2186</ele>
        <time>2017-05-04T06:25:04Z</time>
      </trkpt>
      <trkpt lat="42.8593" lon="0.09717">
        <ele>2188</ele>
        <time>2017-05-04T06:25:39Z</time>
      </trkpt>
      <trkpt lat="42.85933" lon="0.09717">
        <ele>2187</ele>
        <time>2017-05-04T06:25:59Z</time>
      </trkpt>
      <trkpt lat="42.85935" lon="0.0972">
        <ele>2187</ele>
        <time>2017-05-04T06:26:51Z</time>
      </trkpt>
      <trkpt lat="42.85945" lon="0.09728">
        <ele>2190</ele>
        <time>2017-05-04T06:27:10Z</time>
      </trkpt>
      <trkpt lat="42.85957" lon="0.09741">
        <ele>2192</ele>
        <time>2017-05-04T06:27:34Z</time>
      </trkpt>
      <trkpt lat="42.85959" lon="0.09749">
        <ele>2194</ele>
        <time>2017-05-04T06:27:43Z</time>
      </trkpt>
      <trkpt lat="42.85964" lon="0.09773">
        <ele>2198</ele>
        <time>2017-05-04T06:28:14Z</time>
      </trkpt>
      <trkpt lat="42.85973" lon="0.09799">
        <ele>2201</ele>
        <time>2017-05-04T06:28:47Z</time>
      </trkpt>
      <trkpt lat="42.85981" lon="0.09828">
        <ele>2202</ele>
        <time>2017-05-04T06:29:21Z</time>
      </trkpt>
      <trkpt lat="42.85986" lon="0.09855">
        <ele>2206</ele>
        <time>2017-05-04T06:29:52Z</time>
      </trkpt>
      <trkpt lat="42.85987" lon="0.09867">
        <ele>2207</ele>
        <time>2017-05-04T06:30:05Z</time>
      </trkpt>
      <trkpt lat="42.85985" lon="0.09875">
        <ele>2208</ele>
        <time>2017-05-04T06:30:15Z</time>
      </trkpt>
      <trkpt lat="42.8598" lon="0.0988">
        <ele>2208</ele>
        <time>2017-05-04T06:30:23Z</time>
      </trkpt>
      <trkpt lat="42.85964" lon="0.09898">
        <ele>2209</ele>
        <time>2017-05-04T06:30:53Z</time>
      </trkpt>
      <trkpt lat="42.85961" lon="0.099">
        <ele>2209</ele>
        <time>2017-05-04T06:30:57Z</time>
      </trkpt>
      <trkpt lat="42.8596" lon="0.09903">
        <ele>2211</ele>
        <time>2017-05-04T06:31:05Z</time>
      </trkpt>
      <trkpt lat="42.85961" lon="0.09907">
        <ele>2211</ele>
        <time>2017-05-04T06:31:11Z</time>
      </trkpt>
      <trkpt lat="42.85962" lon="0.0992">
        <ele>2215</ele>
        <time>2017-05-04T06:31:27Z</time>
      </trkpt>
      <trkpt lat="42.85958" lon="0.09931">
        <ele>2217</ele>
        <time>2017-05-04T06:31:41Z</time>
      </trkpt>
      <trkpt lat="42.85956" lon="0.09934">
        <ele>2217</ele>
        <time>2017-05-04T06:31:46Z</time>
      </trkpt>
      <trkpt lat="42.85954" lon="0.09934">
        <ele>2218</ele>
        <time>2017-05-04T06:31:51Z</time>
      </trkpt>
      <trkpt lat="42.85948" lon="0.09931">
        <ele>2218</ele>
        <time>2017-05-04T06:32:03Z</time>
      </trkpt>
      <trkpt lat="42.85946" lon="0.09928">
        <ele>2220</ele>
        <time>2017-05-04T06:32:09Z</time>
      </trkpt>
      <trkpt lat="42.85944" lon="0.09927">
        <ele>2220</ele>
        <time>2017-05-04T06:32:13Z</time>
      </trkpt>
      <trkpt lat="42.85927" lon="0.09924">
        <ele>2224</ele>
        <time>2017-05-04T06:32:41Z</time>
      </trkpt>
      <trkpt lat="42.85908" lon="0.09928">
        <ele>2229</ele>
        <time>2017-05-04T06:33:08Z</time>
      </trkpt>
      <trkpt lat="42.85888" lon="0.09941">
        <ele>2231</ele>
        <time>2017-05-04T06:33:42Z</time>
      </trkpt>
      <trkpt lat="42.85878" lon="0.09948">
        <ele>2236</ele>
        <time>2017-05-04T06:34:21Z</time>
      </trkpt>
      <trkpt lat="42.85875" lon="0.09947">
        <ele>2237</ele>
        <time>2017-05-04T06:34:26Z</time>
      </trkpt>
      <trkpt lat="42.85847" lon="0.09947">
        <ele>2238</ele>
        <time>2017-05-04T06:34:58Z</time>
      </trkpt>
      <trkpt lat="42.85835" lon="0.09951">
        <ele>2239</ele>
        <time>2017-05-04T06:35:12Z</time>
      </trkpt>
      <trkpt lat="42.85809" lon="0.09964">
        <ele>2236</ele>
        <time>2017-05-04T06:35:42Z</time>
      </trkpt>
      <trkpt lat="42.85784" lon="0.09979">
        <ele>2240</ele>
        <time>2017-05-04T06:36:15Z</time>
      </trkpt>
      <trkpt lat="42.85782" lon="0.09981">
        <ele>2240</ele>
        <time>2017-05-04T06:36:18Z</time>
      </trkpt>
      <trkpt lat="42.8578" lon="0.09984">
        <ele>2241</ele>
        <time>2017-05-04T06:36:24Z</time>
      </trkpt>
      <trkpt lat="42.85774" lon="0.09986">
        <ele>2243</ele>
        <time>2017-05-04T06:37:00Z</time>
      </trkpt>
      <trkpt lat="42.85742" lon="0.10002">
        <ele>2240</ele>
        <time>2017-05-04T06:37:32Z</time>
      </trkpt>
      <trkpt lat="42.85732" lon="0.10012">
        <ele>2241</ele>
        <time>2017-05-04T06:37:51Z</time>
      </trkpt>
      <trkpt lat="42.85714" lon="0.10026">
        <ele>2241</ele>
        <time>2017-05-04T06:38:21Z</time>
      </trkpt>
      <trkpt lat="42.85712" lon="0.10027">
        <ele>2242</ele>
        <time>2017-05-04T06:38:25Z</time>
      </trkpt>
      <trkpt lat="42.85709" lon="0.1003">
        <ele>2242</ele>
        <time>2017-05-04T06:38:30Z</time>
      </trkpt>
      <trkpt lat="42.85708" lon="0.10034">
        <ele>2244</ele>
        <time>2017-05-04T06:38:37Z</time>
      </trkpt>
      <trkpt lat="42.85705" lon="0.10036">
        <ele>2244</ele>
        <time>2017-05-04T06:38:42Z</time>
      </trkpt>
      <trkpt lat="42.85703" lon="0.10035">
        <ele>2245</ele>
        <time>2017-05-04T06:38:48Z</time>
      </trkpt>
      <trkpt lat="42.857" lon="0.10033">
        <ele>2246</ele>
        <time>2017-05-04T06:38:52Z</time>
      </trkpt>
      <trkpt lat="42.85692" lon="0.1003">
        <ele>2248</ele>
        <time>2017-05-04T06:39:08Z</time>
      </trkpt>
      <trkpt lat="42.85689" lon="0.10031">
        <ele>2248</ele>
        <time>2017-05-04T06:39:12Z</time>
      </trkpt>
      <trkpt lat="42.8568" lon="0.10038">
        <ele>2246</ele>
        <time>2017-05-04T06:39:26Z</time>
      </trkpt>
      <trkpt lat="42.85675" lon="0.10046">
        <ele>2247</ele>
        <time>2017-05-04T06:39:37Z</time>
      </trkpt>
      <trkpt lat="42.85671" lon="0.10056">
        <ele>2253</ele>
        <time>2017-05-04T06:39:51Z</time>
      </trkpt>
      <trkpt lat="42.85667" lon="0.10058">
        <ele>2252</ele>
        <time>2017-05-04T06:39:55Z</time>
      </trkpt>
      <trkpt lat="42.85656" lon="0.1007">
        <ele>2253</ele>
        <time>2017-05-04T06:40:13Z</time>
      </trkpt>
      <trkpt lat="42.85632" lon="0.10082">
        <ele>2251</ele>
        <time>2017-05-04T06:40:43Z</time>
      </trkpt>
      <trkpt lat="42.85606" lon="0.10099">
        <ele>2254</ele>
        <time>2017-05-04T06:41:16Z</time>
      </trkpt>
      <trkpt lat="42.856" lon="0.10102">
        <ele>2254</ele>
        <time>2017-05-04T06:41:27Z</time>
      </trkpt>
      <trkpt lat="42.85597" lon="0.10103">
        <ele>2256</ele>
        <time>2017-05-04T06:41:33Z</time>
      </trkpt>
      <trkpt lat="42.85594" lon="0.10105">
        <ele>2258</ele>
        <time>2017-05-04T06:41:40Z</time>
      </trkpt>
      <trkpt lat="42.85581" lon="0.1011">
        <ele>2261</ele>
        <time>2017-05-04T06:41:59Z</time>
      </trkpt>
      <trkpt lat="42.85579" lon="0.10109">
        <ele>2262</ele>
        <time>2017-05-04T06:42:07Z</time>
      </trkpt>
      <trkpt lat="42.85576" lon="0.10108">
        <ele>2262</ele>
        <time>2017-05-04T06:42:12Z</time>
      </trkpt>
      <trkpt lat="42.85573" lon="0.1011">
        <ele>2263</ele>
        <time>2017-05-04T06:42:17Z</time>
      </trkpt>
      <trkpt lat="42.85571" lon="0.10113">
        <ele>2263</ele>
        <time>2017-05-04T06:42:21Z</time>
      </trkpt>
      <trkpt lat="42.8557" lon="0.10118">
        <ele>2263</ele>
        <time>2017-05-04T06:42:27Z</time>
      </trkpt>
      <trkpt lat="42.85564" lon="0.10119">
        <ele>2264</ele>
        <time>2017-05-04T06:42:39Z</time>
      </trkpt>
      <trkpt lat="42.8555" lon="0.10118">
        <ele>2267</ele>
        <time>2017-05-04T06:43:06Z</time>
      </trkpt>
      <trkpt lat="42.85547" lon="0.10119">
        <ele>2267</ele>
        <time>2017-05-04T06:43:11Z</time>
      </trkpt>
      <trkpt lat="42.85534" lon="0.10126">
        <ele>2269</ele>
        <time>2017-05-04T06:43:36Z</time>
      </trkpt>
      <trkpt lat="42.8553" lon="0.10125">
        <ele>2269</ele>
        <time>2017-05-04T06:43:42Z</time>
      </trkpt>
      <trkpt lat="42.85527" lon="0.10126">
        <ele>2271</ele>
        <time>2017-05-04T06:43:49Z</time>
      </trkpt>
      <trkpt lat="42.85524" lon="0.10125">
        <ele>2271</ele>
        <time>2017-05-04T06:43:53Z</time>
      </trkpt>
      <trkpt lat="42.8552" lon="0.10131">
        <ele>2275</ele>
        <time>2017-05-04T06:44:07Z</time>
      </trkpt>
      <trkpt lat="42.85514" lon="0.10133">
        <ele>2277</ele>
        <time>2017-05-04T06:44:15Z</time>
      </trkpt>
      <trkpt lat="42.85511" lon="0.10142">
        <ele>2277</ele>
        <time>2017-05-04T06:44:33Z</time>
      </trkpt>
      <trkpt lat="42.85514" lon="0.10147">
        <ele>2280</ele>
        <time>2017-05-04T06:44:38Z</time>
      </trkpt>
      <trkpt lat="42.85515" lon="0.10151">
        <ele>2282</ele>
        <time>2017-05-04T06:44:44Z</time>
      </trkpt>
      <trkpt lat="42.85518" lon="0.10154">
        <ele>2283</ele>
        <time>2017-05-04T06:44:49Z</time>
      </trkpt>
      <trkpt lat="42.85518" lon="0.10158">
        <ele>2283</ele>
        <time>2017-05-04T06:44:56Z</time>
      </trkpt>
      <trkpt lat="42.8552" lon="0.1016">
        <ele>2282</ele>
        <time>2017-05-04T06:45:03Z</time>
      </trkpt>
      <trkpt lat="42.85519" lon="0.10163">
        <ele>2282</ele>
        <time>2017-05-04T06:45:13Z</time>
      </trkpt>
      <trkpt lat="42.85516" lon="0.10166">
        <ele>2282</ele>
        <time>2017-05-04T06:45:18Z</time>
      </trkpt>
      <trkpt lat="42.85504" lon="0.10168">
        <ele>2282</ele>
        <time>2017-05-04T06:45:38Z</time>
      </trkpt>
      <trkpt lat="42.855" lon="0.10167">
        <ele>2283</ele>
        <time>2017-05-04T06:45:46Z</time>
      </trkpt>
      <trkpt lat="42.85498" lon="0.10169">
        <ele>2283</ele>
        <time>2017-05-04T06:46:13Z</time>
      </trkpt>
      <trkpt lat="42.85491" lon="0.1017">
        <ele>2285</ele>
        <time>2017-05-04T06:46:21Z</time>
      </trkpt>
      <trkpt lat="42.85482" lon="0.10163">
        <ele>2288</ele>
        <time>2017-05-04T06:46:44Z</time>
      </trkpt>
      <trkpt lat="42.85481" lon="0.10157">
        <ele>2288</ele>
        <time>2017-05-04T06:46:54Z</time>
      </trkpt>
      <trkpt lat="42.85478" lon="0.10153">
        <ele>2291</ele>
        <time>2017-05-04T06:47:06Z</time>
      </trkpt>
      <trkpt lat="42.85475" lon="0.10151">
        <ele>2291</ele>
        <time>2017-05-04T06:47:09Z</time>
      </trkpt>
      <trkpt lat="42.85473" lon="0.10147">
        <ele>2296</ele>
        <time>2017-05-04T06:47:20Z</time>
      </trkpt>
      <trkpt lat="42.8547" lon="0.10139">
        <ele>2299</ele>
        <time>2017-05-04T06:47:42Z</time>
      </trkpt>
      <trkpt lat="42.85468" lon="0.1014">
        <ele>2299</ele>
        <time>2017-05-04T06:47:48Z</time>
      </trkpt>
      <trkpt lat="42.8546" lon="0.10145">
        <ele>2300</ele>
        <time>2017-05-04T06:48:01Z</time>
      </trkpt>
      <trkpt lat="42.85457" lon="0.10143">
        <ele>2303</ele>
        <time>2017-05-04T06:48:21Z</time>
      </trkpt>
      <trkpt lat="42.85452" lon="0.10144">
        <ele>2303</ele>
        <time>2017-05-04T06:48:46Z</time>
      </trkpt>
      <trkpt lat="42.85446" lon="0.1015">
        <ele>2303</ele>
        <time>2017-05-04T06:48:56Z</time>
      </trkpt>
      <trkpt lat="42.85444" lon="0.10154">
        <ele>2304</ele>
        <time>2017-05-04T06:49:01Z</time>
      </trkpt>
      <trkpt lat="42.85439" lon="0.10157">
        <ele>2307</ele>
        <time>2017-05-04T06:49:08Z</time>
      </trkpt>
      <trkpt lat="42.85437" lon="0.10156">
        <ele>2308</ele>
        <time>2017-05-04T06:50:00Z</time>
      </trkpt>
      <trkpt lat="42.85434" lon="0.10159">
        <ele>2308</ele>
        <time>2017-05-04T06:50:05Z</time>
      </trkpt>
      <trkpt lat="42.85432" lon="0.10161">
        <ele>2307</ele>
        <time>2017-05-04T06:50:09Z</time>
      </trkpt>
      <trkpt lat="42.85426" lon="0.10164">
        <ele>2305</ele>
        <time>2017-05-04T06:50:18Z</time>
      </trkpt>
      <trkpt lat="42.85423" lon="0.10164">
        <ele>2305</ele>
        <time>2017-05-04T06:50:48Z</time>
      </trkpt>
      <trkpt lat="42.85396" lon="0.1016">
        <ele>2304</ele>
        <time>2017-05-04T06:51:41Z</time>
      </trkpt>
      <trkpt lat="42.85386" lon="0.10162">
        <ele>2302</ele>
        <time>2017-05-04T06:51:50Z</time>
      </trkpt>
      <trkpt lat="42.85383" lon="0.10163">
        <ele>2302</ele>
        <time>2017-05-04T06:51:55Z</time>
      </trkpt>
      <trkpt lat="42.8538" lon="0.10163">
        <ele>2301</ele>
        <time>2017-05-04T06:51:58Z</time>
      </trkpt>
      <trkpt lat="42.85354" lon="0.1018">
        <ele>2306</ele>
        <time>2017-05-04T06:52:30Z</time>
      </trkpt>
      <trkpt lat="42.85344" lon="0.10184">
        <ele>2304</ele>
        <time>2017-05-04T06:52:39Z</time>
      </trkpt>
      <trkpt lat="42.85317" lon="0.10199">
        <ele>2299</ele>
        <time>2017-05-04T06:53:10Z</time>
      </trkpt>
      <trkpt lat="42.85308" lon="0.10202">
        <ele>2298</ele>
        <time>2017-05-04T06:53:21Z</time>
      </trkpt>
      <trkpt lat="42.85294" lon="0.10206">
        <ele>2303</ele>
        <time>2017-05-04T06:53:41Z</time>
      </trkpt>
      <trkpt lat="42.8529" lon="0.10208">
        <ele>2303</ele>
        <time>2017-05-04T06:53:45Z</time>
      </trkpt>
      <trkpt lat="42.85281" lon="0.10218">
        <ele>2301</ele>
        <time>2017-05-04T06:53:59Z</time>
      </trkpt>
      <trkpt lat="42.8528" lon="0.10225">
        <ele>2302</ele>
        <time>2017-05-04T06:54:06Z</time>
      </trkpt>
      <trkpt lat="42.85271" lon="0.10257">
        <ele>2302</ele>
        <time>2017-05-04T06:54:36Z</time>
      </trkpt>
      <trkpt lat="42.85257" lon="0.1029">
        <ele>2299</ele>
        <time>2017-05-04T06:55:10Z</time>
      </trkpt>
      <trkpt lat="42.85249" lon="0.10302">
        <ele>2300</ele>
        <time>2017-05-04T06:55:23Z</time>
      </trkpt>
      <trkpt lat="42.85231" lon="0.10325">
        <ele>2299</ele>
        <time>2017-05-04T06:55:54Z</time>
      </trkpt>
      <trkpt lat="42.85224" lon="0.10333">
        <ele>2302</ele>
        <time>2017-05-04T06:56:09Z</time>
      </trkpt>
      <trkpt lat="42.85207" lon="0.10341">
        <ele>2304</ele>
        <time>2017-05-04T06:56:31Z</time>
      </trkpt>
      <trkpt lat="42.85204" lon="0.1034">
        <ele>2309</ele>
        <time>2017-05-04T06:57:01Z</time>
      </trkpt>
      <trkpt lat="42.85195" lon="0.10343">
        <ele>2310</ele>
        <time>2017-05-04T06:57:25Z</time>
      </trkpt>
      <trkpt lat="42.85177" lon="0.10349">
        <ele>2313</ele>
        <time>2017-05-04T06:57:57Z</time>
      </trkpt>
      <trkpt lat="42.85165" lon="0.10352">
        <ele>2318</ele>
        <time>2017-05-04T06:58:24Z</time>
      </trkpt>
      <trkpt lat="42.85162" lon="0.10355">
        <ele>2319</ele>
        <time>2017-05-04T06:58:33Z</time>
      </trkpt>
      <trkpt lat="42.85154" lon="0.10362">
        <ele>2320</ele>
        <time>2017-05-04T06:58:54Z</time>
      </trkpt>
      <trkpt lat="42.85151" lon="0.10363">
        <ele>2320</ele>
        <time>2017-05-04T06:58:58Z</time>
      </trkpt>
      <trkpt lat="42.85145" lon="0.10369">
        <ele>2321</ele>
        <time>2017-05-04T06:59:11Z</time>
      </trkpt>
      <trkpt lat="42.85144" lon="0.10373">
        <ele>2321</ele>
        <time>2017-05-04T06:59:25Z</time>
      </trkpt>
      <trkpt lat="42.85145" lon="0.10368">
        <ele>2328</ele>
        <time>2017-05-04T07:02:36Z</time>
      </trkpt>
      <trkpt lat="42.85144" lon="0.10363">
        <ele>2328</ele>
        <time>2017-05-04T07:02:41Z</time>
      </trkpt>
      <trkpt lat="42.85149" lon="0.1035">
        <ele>2336</ele>
        <time>2017-05-04T07:03:04Z</time>
      </trkpt>
      <trkpt lat="42.85152" lon="0.10345">
        <ele>2337</ele>
        <time>2017-05-04T07:03:21Z</time>
      </trkpt>
      <trkpt lat="42.85151" lon="0.1034">
        <ele>2344</ele>
        <time>2017-05-04T07:04:06Z</time>
      </trkpt>
      <trkpt lat="42.85148" lon="0.10342">
        <ele>2344</ele>
        <time>2017-05-04T07:04:29Z</time>
      </trkpt>
      <trkpt lat="42.85131" lon="0.10349">
        <ele>2343</ele>
        <time>2017-05-04T07:05:02Z</time>
      </trkpt>
      <trkpt lat="42.85123" lon="0.10355">
        <ele>2345</ele>
        <time>2017-05-04T07:05:21Z</time>
      </trkpt>
      <trkpt lat="42.85118" lon="0.10358">
        <ele>2346</ele>
        <time>2017-05-04T07:05:33Z</time>
      </trkpt>
      <trkpt lat="42.85107" lon="0.10371">
        <ele>2348</ele>
        <time>2017-05-04T07:06:02Z</time>
      </trkpt>
      <trkpt lat="42.85097" lon="0.10381">
        <ele>2350</ele>
        <time>2017-05-04T07:06:24Z</time>
      </trkpt>
      <trkpt lat="42.85095" lon="0.10383">
        <ele>2350</ele>
        <time>2017-05-04T07:06:29Z</time>
      </trkpt>
      <trkpt lat="42.85094" lon="0.10387">
        <ele>2352</ele>
        <time>2017-05-04T07:06:34Z</time>
      </trkpt>
      <trkpt lat="42.85091" lon="0.10389">
        <ele>2353</ele>
        <time>2017-05-04T07:06:45Z</time>
      </trkpt>
      <trkpt lat="42.85089" lon="0.10389">
        <ele>2354</ele>
        <time>2017-05-04T07:06:50Z</time>
      </trkpt>
      <trkpt lat="42.85087" lon="0.10393">
        <ele>2354</ele>
        <time>2017-05-04T07:06:57Z</time>
      </trkpt>
      <trkpt lat="42.85084" lon="0.10394">
        <ele>2355</ele>
        <time>2017-05-04T07:07:02Z</time>
      </trkpt>
      <trkpt lat="42.85081" lon="0.10394">
        <ele>2356</ele>
        <time>2017-05-04T07:07:06Z</time>
      </trkpt>
      <trkpt lat="42.85078" lon="0.10395">
        <ele>2357</ele>
        <time>2017-05-04T07:07:11Z</time>
      </trkpt>
      <trkpt lat="42.85077" lon="0.10399">
        <ele>2358</ele>
        <time>2017-05-04T07:07:17Z</time>
      </trkpt>
      <trkpt lat="42.85063" lon="0.10412">
        <ele>2360</ele>
        <time>2017-05-04T07:08:15Z</time>
      </trkpt>
      <trkpt lat="42.8504" lon="0.10416">
        <ele>2364</ele>
        <time>2017-05-04T07:09:08Z</time>
      </trkpt>
      <trkpt lat="42.85035" lon="0.10418">
        <ele>2365</ele>
        <time>2017-05-04T07:09:15Z</time>
      </trkpt>
      <trkpt lat="42.85022" lon="0.10428">
        <ele>2364</ele>
        <time>2017-05-04T07:09:32Z</time>
      </trkpt>
      <trkpt lat="42.85019" lon="0.1043">
        <ele>2364</ele>
        <time>2017-05-04T07:09:35Z</time>
      </trkpt>
      <trkpt lat="42.84996" lon="0.10451">
        <ele>2363</ele>
        <time>2017-05-04T07:10:07Z</time>
      </trkpt>
      <trkpt lat="42.84977" lon="0.10474">
        <ele>2369</ele>
        <time>2017-05-04T07:10:48Z</time>
      </trkpt>
      <trkpt lat="42.84975" lon="0.10479">
        <ele>2372</ele>
        <time>2017-05-04T07:10:58Z</time>
      </trkpt>
      <trkpt lat="42.84953" lon="0.10497">
        <ele>2376</ele>
        <time>2017-05-04T07:11:29Z</time>
      </trkpt>
      <trkpt lat="42.84932" lon="0.10515">
        <ele>2377</ele>
        <time>2017-05-04T07:12:02Z</time>
      </trkpt>
      <trkpt lat="42.84912" lon="0.10537">
        <ele>2377</ele>
        <time>2017-05-04T07:12:33Z</time>
      </trkpt>
      <trkpt lat="42.84903" lon="0.1055">
        <ele>2378</ele>
        <time>2017-05-04T07:12:51Z</time>
      </trkpt>
      <trkpt lat="42.84895" lon="0.10555">
        <ele>2380</ele>
        <time>2017-05-04T07:13:03Z</time>
      </trkpt>
      <trkpt lat="42.84894" lon="0.10558">
        <ele>2382</ele>
        <time>2017-05-04T07:13:12Z</time>
      </trkpt>
      <trkpt lat="42.84885" lon="0.10563">
        <ele>2384</ele>
        <time>2017-05-04T07:13:24Z</time>
      </trkpt>
      <trkpt lat="42.84884" lon="0.10567">
        <ele>2383</ele>
        <time>2017-05-04T07:13:35Z</time>
      </trkpt>
      <trkpt lat="42.84881" lon="0.10569">
        <ele>2384</ele>
        <time>2017-05-04T07:15:14Z</time>
      </trkpt>
      <trkpt lat="42.84858" lon="0.1058">
        <ele>2386</ele>
        <time>2017-05-04T07:15:40Z</time>
      </trkpt>
      <trkpt lat="42.84844" lon="0.10583">
        <ele>2386</ele>
        <time>2017-05-04T07:15:56Z</time>
      </trkpt>
      <trkpt lat="42.84831" lon="0.10592">
        <ele>2385</ele>
        <time>2017-05-04T07:16:10Z</time>
      </trkpt>
      <trkpt lat="42.84826" lon="0.106">
        <ele>2384</ele>
        <time>2017-05-04T07:16:18Z</time>
      </trkpt>
      <trkpt lat="42.84821" lon="0.10609">
        <ele>2383</ele>
        <time>2017-05-04T07:16:30Z</time>
      </trkpt>
      <trkpt lat="42.84821" lon="0.10617">
        <ele>2384</ele>
        <time>2017-05-04T07:16:39Z</time>
      </trkpt>
      <trkpt lat="42.84818" lon="0.10624">
        <ele>2385</ele>
        <time>2017-05-04T07:16:49Z</time>
      </trkpt>
      <trkpt lat="42.84813" lon="0.10635">
        <ele>2387</ele>
        <time>2017-05-04T07:17:05Z</time>
      </trkpt>
      <trkpt lat="42.84811" lon="0.10642">
        <ele>2389</ele>
        <time>2017-05-04T07:17:17Z</time>
      </trkpt>
      <trkpt lat="42.84803" lon="0.10648">
        <ele>2391</ele>
        <time>2017-05-04T07:17:33Z</time>
      </trkpt>
      <trkpt lat="42.84801" lon="0.10651">
        <ele>2392</ele>
        <time>2017-05-04T07:17:38Z</time>
      </trkpt>
      <trkpt lat="42.84788" lon="0.10655">
        <ele>2393</ele>
        <time>2017-05-04T07:18:00Z</time>
      </trkpt>
      <trkpt lat="42.84786" lon="0.1066">
        <ele>2396</ele>
        <time>2017-05-04T07:18:26Z</time>
      </trkpt>
      <trkpt lat="42.84779" lon="0.10674">
        <ele>2395</ele>
        <time>2017-05-04T07:18:45Z</time>
      </trkpt>
      <trkpt lat="42.84779" lon="0.10678">
        <ele>2394</ele>
        <time>2017-05-04T07:18:50Z</time>
      </trkpt>
      <trkpt lat="42.84776" lon="0.10681">
        <ele>2394</ele>
        <time>2017-05-04T07:18:56Z</time>
      </trkpt>
      <trkpt lat="42.84772" lon="0.10694">
        <ele>2400</ele>
        <time>2017-05-04T07:19:31Z</time>
      </trkpt>
      <trkpt lat="42.84759" lon="0.10706">
        <ele>2403</ele>
        <time>2017-05-04T07:19:58Z</time>
      </trkpt>
      <trkpt lat="42.84751" lon="0.10728">
        <ele>2408</ele>
        <time>2017-05-04T07:20:33Z</time>
      </trkpt>
      <trkpt lat="42.84748" lon="0.10731">
        <ele>2408</ele>
        <time>2017-05-04T07:20:39Z</time>
      </trkpt>
      <trkpt lat="42.84738" lon="0.10752">
        <ele>2412</ele>
        <time>2017-05-04T07:21:13Z</time>
      </trkpt>
      <trkpt lat="42.84738" lon="0.10756">
        <ele>2412</ele>
        <time>2017-05-04T07:21:19Z</time>
      </trkpt>
      <trkpt lat="42.84734" lon="0.10763">
        <ele>2412</ele>
        <time>2017-05-04T07:21:29Z</time>
      </trkpt>
      <trkpt lat="42.84726" lon="0.10774">
        <ele>2416</ele>
        <time>2017-05-04T07:21:53Z</time>
      </trkpt>
      <trkpt lat="42.84723" lon="0.1078">
        <ele>2419</ele>
        <time>2017-05-04T07:22:07Z</time>
      </trkpt>
      <trkpt lat="42.84722" lon="0.10784">
        <ele>2421</ele>
        <time>2017-05-04T07:22:12Z</time>
      </trkpt>
      <trkpt lat="42.84721" lon="0.10787">
        <ele>2421</ele>
        <time>2017-05-04T07:22:17Z</time>
      </trkpt>
      <trkpt lat="42.84719" lon="0.10785">
        <ele>2422</ele>
        <time>2017-05-04T07:22:23Z</time>
      </trkpt>
      <trkpt lat="42.84717" lon="0.10781">
        <ele>2424</ele>
        <time>2017-05-04T07:22:27Z</time>
      </trkpt>
      <trkpt lat="42.8471" lon="0.10774">
        <ele>2429</ele>
        <time>2017-05-04T07:22:42Z</time>
      </trkpt>
      <trkpt lat="42.84708" lon="0.10777">
        <ele>2430</ele>
        <time>2017-05-04T07:22:48Z</time>
      </trkpt>
      <trkpt lat="42.84708" lon="0.10781">
        <ele>2431</ele>
        <time>2017-05-04T07:22:53Z</time>
      </trkpt>
      <trkpt lat="42.84703" lon="0.10796">
        <ele>2433</ele>
        <time>2017-05-04T07:23:12Z</time>
      </trkpt>
      <trkpt lat="42.84702" lon="0.10822">
        <ele>2434</ele>
        <time>2017-05-04T07:23:50Z</time>
      </trkpt>
      <trkpt lat="42.84701" lon="0.10838">
        <ele>2437</ele>
        <time>2017-05-04T07:24:14Z</time>
      </trkpt>
      <trkpt lat="42.84698" lon="0.10853">
        <ele>2438</ele>
        <time>2017-05-04T07:24:39Z</time>
      </trkpt>
      <trkpt lat="42.847" lon="0.10857">
        <ele>2437</ele>
        <time>2017-05-04T07:24:44Z</time>
      </trkpt>
      <trkpt lat="42.84698" lon="0.1086">
        <ele>2439</ele>
        <time>2017-05-04T07:24:51Z</time>
      </trkpt>
      <trkpt lat="42.84696" lon="0.10861">
        <ele>2445</ele>
        <time>2017-05-04T07:25:04Z</time>
      </trkpt>
      <trkpt lat="42.84678" lon="0.10864">
        <ele>2452</ele>
        <time>2017-05-04T07:25:35Z</time>
      </trkpt>
      <trkpt lat="42.84675" lon="0.10865">
        <ele>2453</ele>
        <time>2017-05-04T07:25:40Z</time>
      </trkpt>
      <trkpt lat="42.84674" lon="0.10866">
        <ele>2454</ele>
        <time>2017-05-04T07:26:06Z</time>
      </trkpt>
      <trkpt lat="42.84676" lon="0.10861">
        <ele>2457</ele>
        <time>2017-05-04T07:29:57Z</time>
      </trkpt>
      <trkpt lat="42.84673" lon="0.10861">
        <ele>2460</ele>
        <time>2017-05-04T07:34:13Z</time>
      </trkpt>
      <trkpt lat="42.84675" lon="0.10864">
        <ele>2461</ele>
        <time>2017-05-04T07:34:58Z</time>
      </trkpt>
      <trkpt lat="42.84672" lon="0.10865">
        <ele>2461</ele>
        <time>2017-05-04T07:35:41Z</time>
      </trkpt>
      <trkpt lat="42.84667" lon="0.10869">
        <ele>2461</ele>
        <time>2017-05-04T07:35:53Z</time>
      </trkpt>
      <trkpt lat="42.8465" lon="0.10878">
        <ele>2460</ele>
        <time>2017-05-04T07:36:22Z</time>
      </trkpt>
      <trkpt lat="42.84644" lon="0.1088">
        <ele>2460</ele>
        <time>2017-05-04T07:36:31Z</time>
      </trkpt>
      <trkpt lat="42.84642" lon="0.1088">
        <ele>2460</ele>
        <time>2017-05-04T07:36:35Z</time>
      </trkpt>
      <trkpt lat="42.84626" lon="0.10885">
        <ele>2461</ele>
        <time>2017-05-04T07:37:08Z</time>
      </trkpt>
      <trkpt lat="42.84609" lon="0.1089">
        <ele>2467</ele>
        <time>2017-05-04T07:37:40Z</time>
      </trkpt>
      <trkpt lat="42.84606" lon="0.10893">
        <ele>2469</ele>
        <time>2017-05-04T07:37:46Z</time>
      </trkpt>
      <trkpt lat="42.84602" lon="0.10893">
        <ele>2470</ele>
        <time>2017-05-04T07:37:51Z</time>
      </trkpt>
      <trkpt lat="42.84599" lon="0.10896">
        <ele>2469</ele>
        <time>2017-05-04T07:38:00Z</time>
      </trkpt>
      <trkpt lat="42.84587" lon="0.10895">
        <ele>2468</ele>
        <time>2017-05-04T07:38:20Z</time>
      </trkpt>
      <trkpt lat="42.84584" lon="0.10895">
        <ele>2468</ele>
        <time>2017-05-04T07:38:26Z</time>
      </trkpt>
      <trkpt lat="42.8458" lon="0.10896">
        <ele>2473</ele>
        <time>2017-05-04T07:38:39Z</time>
      </trkpt>
      <trkpt lat="42.84577" lon="0.10896">
        <ele>2472</ele>
        <time>2017-05-04T07:38:43Z</time>
      </trkpt>
      <trkpt lat="42.84574" lon="0.10895">
        <ele>2473</ele>
        <time>2017-05-04T07:38:59Z</time>
      </trkpt>
      <trkpt lat="42.84556" lon="0.10898">
        <ele>2471</ele>
        <time>2017-05-04T07:39:30Z</time>
      </trkpt>
      <trkpt lat="42.84555" lon="0.10894">
        <ele>2469</ele>
        <time>2017-05-04T07:39:53Z</time>
      </trkpt>
      <trkpt lat="42.84552" lon="0.10872">
        <ele>2473</ele>
        <time>2017-05-04T07:40:24Z</time>
      </trkpt>
      <trkpt lat="42.84548" lon="0.10862">
        <ele>2475</ele>
        <time>2017-05-04T07:40:43Z</time>
      </trkpt>
      <trkpt lat="42.84548" lon="0.10846">
        <ele>2479</ele>
        <time>2017-05-04T07:41:03Z</time>
      </trkpt>
      <trkpt lat="42.84545" lon="0.10845">
        <ele>2480</ele>
        <time>2017-05-04T07:41:14Z</time>
      </trkpt>
      <trkpt lat="42.84542" lon="0.10845">
        <ele>2479</ele>
        <time>2017-05-04T07:41:18Z</time>
      </trkpt>
      <trkpt lat="42.84537" lon="0.10841">
        <ele>2479</ele>
        <time>2017-05-04T07:41:30Z</time>
      </trkpt>
      <trkpt lat="42.84534" lon="0.10839">
        <ele>2480</ele>
        <time>2017-05-04T07:41:34Z</time>
      </trkpt>
      <trkpt lat="42.84523" lon="0.10824">
        <ele>2483</ele>
        <time>2017-05-04T07:42:08Z</time>
      </trkpt>
      <trkpt lat="42.84515" lon="0.10809">
        <ele>2488</ele>
        <time>2017-05-04T07:42:42Z</time>
      </trkpt>
      <trkpt lat="42.84511" lon="0.10803">
        <ele>2491</ele>
        <time>2017-05-04T07:42:56Z</time>
      </trkpt>
      <trkpt lat="42.84506" lon="0.10799">
        <ele>2490</ele>
        <time>2017-05-04T07:43:12Z</time>
      </trkpt>
      <trkpt lat="42.84505" lon="0.10796">
        <ele>2491</ele>
        <time>2017-05-04T07:43:16Z</time>
      </trkpt>
      <trkpt lat="42.84503" lon="0.10793">
        <ele>2493</ele>
        <time>2017-05-04T07:43:23Z</time>
      </trkpt>
      <trkpt lat="42.84491" lon="0.10782">
        <ele>2495</ele>
        <time>2017-05-04T07:43:53Z</time>
      </trkpt>
      <trkpt lat="42.84488" lon="0.10781">
        <ele>2493</ele>
        <time>2017-05-04T07:43:57Z</time>
      </trkpt>
      <trkpt lat="42.84476" lon="0.1077">
        <ele>2495</ele>
        <time>2017-05-04T07:44:28Z</time>
      </trkpt>
      <trkpt lat="42.8446" lon="0.10761">
        <ele>2498</ele>
        <time>2017-05-04T07:45:01Z</time>
      </trkpt>
      <trkpt lat="42.84455" lon="0.10758">
        <ele>2499</ele>
        <time>2017-05-04T07:45:12Z</time>
      </trkpt>
      <trkpt lat="42.84452" lon="0.10758">
        <ele>2501</ele>
        <time>2017-05-04T07:45:19Z</time>
      </trkpt>
      <trkpt lat="42.84438" lon="0.10751">
        <ele>2508</ele>
        <time>2017-05-04T07:45:52Z</time>
      </trkpt>
      <trkpt lat="42.84435" lon="0.10747">
        <ele>2508</ele>
        <time>2017-05-04T07:46:00Z</time>
      </trkpt>
      <trkpt lat="42.84438" lon="0.10744">
        <ele>2510</ele>
        <time>2017-05-04T07:46:29Z</time>
      </trkpt>
      <trkpt lat="42.84442" lon="0.10739">
        <ele>2510</ele>
        <time>2017-05-04T07:46:39Z</time>
      </trkpt>
      <trkpt lat="42.84444" lon="0.10728">
        <ele>2512</ele>
        <time>2017-05-04T07:46:52Z</time>
      </trkpt>
      <trkpt lat="42.8445" lon="0.10714">
        <ele>2515</ele>
        <time>2017-05-04T07:47:18Z</time>
      </trkpt>
      <trkpt lat="42.84452" lon="0.10692">
        <ele>2516</ele>
        <time>2017-05-04T07:47:46Z</time>
      </trkpt>
      <trkpt lat="42.84457" lon="0.10698">
        <ele>2516</ele>
        <time>2017-05-04T07:47:54Z</time>
      </trkpt>
      <trkpt lat="42.84455" lon="0.107">
        <ele>2517</ele>
        <time>2017-05-04T07:48:03Z</time>
      </trkpt>
      <trkpt lat="42.84452" lon="0.10701">
        <ele>2518</ele>
        <time>2017-05-04T07:48:12Z</time>
      </trkpt>
      <trkpt lat="42.84446" lon="0.10698">
        <ele>2520</ele>
        <time>2017-05-04T07:48:23Z</time>
      </trkpt>
      <trkpt lat="42.84442" lon="0.10692">
        <ele>2526</ele>
        <time>2017-05-04T07:48:32Z</time>
      </trkpt>
      <trkpt lat="42.84436" lon="0.10679">
        <ele>2527</ele>
        <time>2017-05-04T07:48:48Z</time>
      </trkpt>
      <trkpt lat="42.84433" lon="0.10679">
        <ele>2529</ele>
        <time>2017-05-04T07:49:51Z</time>
      </trkpt>
      <trkpt lat="42.8443" lon="0.10679">
        <ele>2530</ele>
        <time>2017-05-04T07:49:55Z</time>
      </trkpt>
      <trkpt lat="42.84428" lon="0.10681">
        <ele>2532</ele>
        <time>2017-05-04T07:50:12Z</time>
      </trkpt>
      <trkpt lat="42.84428" lon="0.10676">
        <ele>2532</ele>
        <time>2017-05-04T07:50:30Z</time>
      </trkpt>
      <trkpt lat="42.8443" lon="0.10665">
        <ele>2535</ele>
        <time>2017-05-04T07:50:42Z</time>
      </trkpt>
      <trkpt lat="42.84427" lon="0.10665">
        <ele>2536</ele>
        <time>2017-05-04T07:50:50Z</time>
      </trkpt>
      <trkpt lat="42.84421" lon="0.10666">
        <ele>2537</ele>
        <time>2017-05-04T07:50:59Z</time>
      </trkpt>
      <trkpt lat="42.84418" lon="0.10667">
        <ele>2540</ele>
        <time>2017-05-04T07:51:05Z</time>
      </trkpt>
      <trkpt lat="42.84415" lon="0.10666">
        <ele>2540</ele>
        <time>2017-05-04T07:51:09Z</time>
      </trkpt>
      <trkpt lat="42.84399" lon="0.10653">
        <ele>2544</ele>
        <time>2017-05-04T07:51:39Z</time>
      </trkpt>
      <trkpt lat="42.84388" lon="0.10647">
        <ele>2546</ele>
        <time>2017-05-04T07:52:02Z</time>
      </trkpt>
      <trkpt lat="42.84385" lon="0.10647">
        <ele>2546</ele>
        <time>2017-05-04T07:52:07Z</time>
      </trkpt>
      <trkpt lat="42.84381" lon="0.10646">
        <ele>2547</ele>
        <time>2017-05-04T07:52:12Z</time>
      </trkpt>
      <trkpt lat="42.8437" lon="0.10646">
        <ele>2556</ele>
        <time>2017-05-04T07:52:47Z</time>
      </trkpt>
      <trkpt lat="42.84364" lon="0.10646">
        <ele>2557</ele>
        <time>2017-05-04T07:52:59Z</time>
      </trkpt>
      <trkpt lat="42.84366" lon="0.10649">
        <ele>2556</ele>
        <time>2017-05-04T07:53:09Z</time>
      </trkpt>
      <trkpt lat="42.84363" lon="0.1065">
        <ele>2557</ele>
        <time>2017-05-04T07:53:26Z</time>
      </trkpt>
      <trkpt lat="42.84353" lon="0.10649">
        <ele>2565</ele>
        <time>2017-05-04T07:53:48Z</time>
      </trkpt>
      <trkpt lat="42.84349" lon="0.10648">
        <ele>2566</ele>
        <time>2017-05-04T07:54:40Z</time>
      </trkpt>
      <trkpt lat="42.84346" lon="0.1065">
        <ele>2561</ele>
        <time>2017-05-04T07:56:07Z</time>
      </trkpt>
      <trkpt lat="42.84331" lon="0.10646">
        <ele>2562</ele>
        <time>2017-05-04T07:56:36Z</time>
      </trkpt>
      <trkpt lat="42.84325" lon="0.10647">
        <ele>2565</ele>
        <time>2017-05-04T07:56:52Z</time>
      </trkpt>
      <trkpt lat="42.84322" lon="0.10646">
        <ele>2566</ele>
        <time>2017-05-04T07:56:59Z</time>
      </trkpt>
      <trkpt lat="42.8431" lon="0.10646">
        <ele>2569</ele>
        <time>2017-05-04T07:57:29Z</time>
      </trkpt>
      <trkpt lat="42.84304" lon="0.10646">
        <ele>2570</ele>
        <time>2017-05-04T07:57:43Z</time>
      </trkpt>
      <trkpt lat="42.84302" lon="0.10647">
        <ele>2570</ele>
        <time>2017-05-04T07:57:50Z</time>
      </trkpt>
      <trkpt lat="42.84291" lon="0.10652">
        <ele>2575</ele>
        <time>2017-05-04T07:58:31Z</time>
      </trkpt>
      <trkpt lat="42.84285" lon="0.10653">
        <ele>2579</ele>
        <time>2017-05-04T07:58:52Z</time>
      </trkpt>
      <trkpt lat="42.84286" lon="0.10649">
        <ele>2582</ele>
        <time>2017-05-04T07:59:05Z</time>
      </trkpt>
      <trkpt lat="42.84288" lon="0.10641">
        <ele>2585</ele>
        <time>2017-05-04T07:59:16Z</time>
      </trkpt>
      <trkpt lat="42.8429" lon="0.10636">
        <ele>2587</ele>
        <time>2017-05-04T07:59:22Z</time>
      </trkpt>
      <trkpt lat="42.84287" lon="0.10635">
        <ele>2586</ele>
        <time>2017-05-04T08:00:35Z</time>
      </trkpt>
      <trkpt lat="42.84273" lon="0.10638">
        <ele>2589</ele>
        <time>2017-05-04T08:00:55Z</time>
      </trkpt>
      <trkpt lat="42.8426" lon="0.10648">
        <ele>2593</ele>
        <time>2017-05-04T08:01:21Z</time>
      </trkpt>
      <trkpt lat="42.84249" lon="0.1066">
        <ele>2598</ele>
        <time>2017-05-04T08:01:52Z</time>
      </trkpt>
      <trkpt lat="42.84244" lon="0.10664">
        <ele>2600</ele>
        <time>2017-05-04T08:02:05Z</time>
      </trkpt>
      <trkpt lat="42.84233" lon="0.10669">
        <ele>2601</ele>
        <time>2017-05-04T08:03:06Z</time>
      </trkpt>
      <trkpt lat="42.8422" lon="0.10687">
        <ele>2607</ele>
        <time>2017-05-04T08:03:39Z</time>
      </trkpt>
      <trkpt lat="42.84215" lon="0.10697">
        <ele>2609</ele>
        <time>2017-05-04T08:03:58Z</time>
      </trkpt>
      <trkpt lat="42.84213" lon="0.10704">
        <ele>2610</ele>
        <time>2017-05-04T08:04:09Z</time>
      </trkpt>
      <trkpt lat="42.8421" lon="0.10704">
        <ele>2610</ele>
        <time>2017-05-04T08:04:21Z</time>
      </trkpt>
      <trkpt lat="42.84207" lon="0.10697">
        <ele>2613</ele>
        <time>2017-05-04T08:04:33Z</time>
      </trkpt>
      <trkpt lat="42.84205" lon="0.10694">
        <ele>2614</ele>
        <time>2017-05-04T08:04:40Z</time>
      </trkpt>
      <trkpt lat="42.84202" lon="0.10693">
        <ele>2616</ele>
        <time>2017-05-04T08:04:46Z</time>
      </trkpt>
      <trkpt lat="42.84201" lon="0.10697">
        <ele>2616</ele>
        <time>2017-05-04T08:04:52Z</time>
      </trkpt>
      <trkpt lat="42.84198" lon="0.10703">
        <ele>2618</ele>
        <time>2017-05-04T08:05:03Z</time>
      </trkpt>
      <trkpt lat="42.84198" lon="0.10707">
        <ele>2617</ele>
        <time>2017-05-04T08:05:33Z</time>
      </trkpt>
      <trkpt lat="42.84194" lon="0.10718">
        <ele>2619</ele>
        <time>2017-05-04T08:05:51Z</time>
      </trkpt>
      <trkpt lat="42.84192" lon="0.10721">
        <ele>2621</ele>
        <time>2017-05-04T08:06:08Z</time>
      </trkpt>
      <trkpt lat="42.84187" lon="0.10739">
        <ele>2623</ele>
        <time>2017-05-04T08:06:41Z</time>
      </trkpt>
      <trkpt lat="42.84186" lon="0.10747">
        <ele>2624</ele>
        <time>2017-05-04T08:06:51Z</time>
      </trkpt>
      <trkpt lat="42.84185" lon="0.10768">
        <ele>2627</ele>
        <time>2017-05-04T08:07:21Z</time>
      </trkpt>
      <trkpt lat="42.84183" lon="0.10787">
        <ele>2630</ele>
        <time>2017-05-04T08:07:55Z</time>
      </trkpt>
      <trkpt lat="42.84181" lon="0.10791">
        <ele>2631</ele>
        <time>2017-05-04T08:08:04Z</time>
      </trkpt>
      <trkpt lat="42.84178" lon="0.10791">
        <ele>2632</ele>
        <time>2017-05-04T08:08:10Z</time>
      </trkpt>
      <trkpt lat="42.84178" lon="0.10791">
        <ele>2634</ele>
        <time>2017-05-04T08:11:13Z</time>
      </trkpt>
      <trkpt lat="42.84175" lon="0.1079">
        <ele>2635</ele>
        <time>2017-05-04T08:12:13Z</time>
      </trkpt>
      <trkpt lat="42.84172" lon="0.10788">
        <ele>2639</ele>
        <time>2017-05-04T08:12:18Z</time>
      </trkpt>
      <trkpt lat="42.84171" lon="0.10785">
        <ele>2639</ele>
        <time>2017-05-04T08:12:22Z</time>
      </trkpt>
      <trkpt lat="42.84166" lon="0.1078">
        <ele>2640</ele>
        <time>2017-05-04T08:12:32Z</time>
      </trkpt>
      <trkpt lat="42.84158" lon="0.10767">
        <ele>2638</ele>
        <time>2017-05-04T08:12:46Z</time>
      </trkpt>
      <trkpt lat="42.84154" lon="0.1076">
        <ele>2638</ele>
        <time>2017-05-04T08:12:53Z</time>
      </trkpt>
      <trkpt lat="42.84141" lon="0.10742">
        <ele>2638</ele>
        <time>2017-05-04T08:13:20Z</time>
      </trkpt>
      <trkpt lat="42.84135" lon="0.10734">
        <ele>2640</ele>
        <time>2017-05-04T08:13:50Z</time>
      </trkpt>
      <trkpt lat="42.84132" lon="0.10732">
        <ele>2640</ele>
        <time>2017-05-04T08:14:02Z</time>
      </trkpt>
      <trkpt lat="42.8413" lon="0.1073">
        <ele>2640</ele>
        <time>2017-05-04T08:14:09Z</time>
      </trkpt>
      <trkpt lat="42.84127" lon="0.10728">
        <ele>2641</ele>
        <time>2017-05-04T08:14:21Z</time>
      </trkpt>
      <trkpt lat="42.84112" lon="0.10723">
        <ele>2640</ele>
        <time>2017-05-04T08:14:37Z</time>
      </trkpt>
      <trkpt lat="42.84103" lon="0.10722">
        <ele>2640</ele>
        <time>2017-05-04T08:14:47Z</time>
      </trkpt>
      <trkpt lat="42.84084" lon="0.10722">
        <ele>2641</ele>
        <time>2017-05-04T08:15:10Z</time>
      </trkpt>
      <trkpt lat="42.8407" lon="0.10721">
        <ele>2642</ele>
        <time>2017-05-04T08:16:12Z</time>
      </trkpt>
      <trkpt lat="42.84052" lon="0.10719">
        <ele>2643</ele>
        <time>2017-05-04T08:16:31Z</time>
      </trkpt>
      <trkpt lat="42.84027" lon="0.10721">
        <ele>2646</ele>
        <time>2017-05-04T08:17:01Z</time>
      </trkpt>
      <trkpt lat="42.84012" lon="0.10722">
        <ele>2647</ele>
        <time>2017-05-04T08:17:19Z</time>
      </trkpt>
      <trkpt lat="42.84007" lon="0.10722">
        <ele>2647</ele>
        <time>2017-05-04T08:17:27Z</time>
      </trkpt>
      <trkpt lat="42.83993" lon="0.10715">
        <ele>2647</ele>
        <time>2017-05-04T08:17:45Z</time>
      </trkpt>
      <trkpt lat="42.83971" lon="0.10705">
        <ele>2647</ele>
        <time>2017-05-04T08:18:17Z</time>
      </trkpt>
      <trkpt lat="42.83968" lon="0.10704">
        <ele>2648</ele>
        <time>2017-05-04T08:18:27Z</time>
      </trkpt>
      <trkpt lat="42.83966" lon="0.10702">
        <ele>2651</ele>
        <time>2017-05-04T08:18:52Z</time>
      </trkpt>
      <trkpt lat="42.83946" lon="0.10697">
        <ele>2652</ele>
        <time>2017-05-04T08:19:24Z</time>
      </trkpt>
      <trkpt lat="42.8394" lon="0.10694">
        <ele>2653</ele>
        <time>2017-05-04T08:19:33Z</time>
      </trkpt>
      <trkpt lat="42.83938" lon="0.10691">
        <ele>2655</ele>
        <time>2017-05-04T08:19:50Z</time>
      </trkpt>
      <trkpt lat="42.83934" lon="0.10692">
        <ele>2654</ele>
        <time>2017-05-04T08:23:21Z</time>
      </trkpt>
      <trkpt lat="42.83932" lon="0.10691">
        <ele>2653</ele>
        <time>2017-05-04T08:23:24Z</time>
      </trkpt>
      <trkpt lat="42.83929" lon="0.1069">
        <ele>2653</ele>
        <time>2017-05-04T08:23:27Z</time>
      </trkpt>
      <trkpt lat="42.83902" lon="0.10681">
        <ele>2652</ele>
        <time>2017-05-04T08:23:57Z</time>
      </trkpt>
      <trkpt lat="42.839" lon="0.1068">
        <ele>2653</ele>
        <time>2017-05-04T08:24:01Z</time>
      </trkpt>
      <trkpt lat="42.83884" lon="0.10676">
        <ele>2653</ele>
        <time>2017-05-04T08:24:20Z</time>
      </trkpt>
      <trkpt lat="42.83858" lon="0.10665">
        <ele>2652</ele>
        <time>2017-05-04T08:24:50Z</time>
      </trkpt>
      <trkpt lat="42.83836" lon="0.10646">
        <ele>2651</ele>
        <time>2017-05-04T08:25:21Z</time>
      </trkpt>
      <trkpt lat="42.83833" lon="0.10645">
        <ele>2651</ele>
        <time>2017-05-04T08:25:25Z</time>
      </trkpt>
      <trkpt lat="42.83832" lon="0.10641">
        <ele>2651</ele>
        <time>2017-05-04T08:25:31Z</time>
      </trkpt>
      <trkpt lat="42.83829" lon="0.10639">
        <ele>2651</ele>
        <time>2017-05-04T08:25:42Z</time>
      </trkpt>
      <trkpt lat="42.8382" lon="0.10636">
        <ele>2650</ele>
        <time>2017-05-04T08:25:50Z</time>
      </trkpt>
      <trkpt lat="42.83813" lon="0.10628">
        <ele>2652</ele>
        <time>2017-05-04T08:26:01Z</time>
      </trkpt>
      <trkpt lat="42.83806" lon="0.10619">
        <ele>2653</ele>
        <time>2017-05-04T08:26:13Z</time>
      </trkpt>
      <trkpt lat="42.83802" lon="0.10619">
        <ele>2654</ele>
        <time>2017-05-04T08:26:16Z</time>
      </trkpt>
      <trkpt lat="42.838" lon="0.10616">
        <ele>2654</ele>
        <time>2017-05-04T08:26:20Z</time>
      </trkpt>
      <trkpt lat="42.83777" lon="0.10602">
        <ele>2656</ele>
        <time>2017-05-04T08:26:52Z</time>
      </trkpt>
      <trkpt lat="42.83774" lon="0.10595">
        <ele>2656</ele>
        <time>2017-05-04T08:27:01Z</time>
      </trkpt>
      <trkpt lat="42.83771" lon="0.10592">
        <ele>2659</ele>
        <time>2017-05-04T08:27:18Z</time>
      </trkpt>
      <trkpt lat="42.83772" lon="0.10588">
        <ele>2658</ele>
        <time>2017-05-04T08:28:17Z</time>
      </trkpt>
      <trkpt lat="42.83769" lon="0.10587">
        <ele>2657</ele>
        <time>2017-05-04T08:28:23Z</time>
      </trkpt>
      <trkpt lat="42.83763" lon="0.10585">
        <ele>2655</ele>
        <time>2017-05-04T08:28:32Z</time>
      </trkpt>
      <trkpt lat="42.8376" lon="0.10581">
        <ele>2655</ele>
        <time>2017-05-04T08:28:37Z</time>
      </trkpt>
      <trkpt lat="42.83741" lon="0.10572">
        <ele>2652</ele>
        <time>2017-05-04T08:28:56Z</time>
      </trkpt>
      <trkpt lat="42.83737" lon="0.10572">
        <ele>2652</ele>
        <time>2017-05-04T08:28:58Z</time>
      </trkpt>
      <trkpt lat="42.83734" lon="0.10569">
        <ele>2652</ele>
        <time>2017-05-04T08:29:02Z</time>
      </trkpt>
      <trkpt lat="42.83727" lon="0.10566">
        <ele>2650</ele>
        <time>2017-05-04T08:29:09Z</time>
      </trkpt>
      <trkpt lat="42.83724" lon="0.10561">
        <ele>2649</ele>
        <time>2017-05-04T08:29:20Z</time>
      </trkpt>
      <trkpt lat="42.83713" lon="0.10559">
        <ele>2648</ele>
        <time>2017-05-04T08:29:30Z</time>
      </trkpt>
      <trkpt lat="42.83685" lon="0.10546">
        <ele>2647</ele>
        <time>2017-05-04T08:30:02Z</time>
      </trkpt>
      <trkpt lat="42.83669" lon="0.10538">
        <ele>2646</ele>
        <time>2017-05-04T08:30:21Z</time>
      </trkpt>
      <trkpt lat="42.83668" lon="0.10535">
        <ele>2649</ele>
        <time>2017-05-04T08:30:25Z</time>
      </trkpt>
      <trkpt lat="42.83664" lon="0.10534">
        <ele>2651</ele>
        <time>2017-05-04T08:30:28Z</time>
      </trkpt>
      <trkpt lat="42.83661" lon="0.10527">
        <ele>2655</ele>
        <time>2017-05-04T08:30:39Z</time>
      </trkpt>
      <trkpt lat="42.83658" lon="0.10525">
        <ele>2659</ele>
        <time>2017-05-04T08:31:24Z</time>
      </trkpt>
      <trkpt lat="42.83656" lon="0.10523">
        <ele>2659</ele>
        <time>2017-05-04T08:31:28Z</time>
      </trkpt>
      <trkpt lat="42.83644" lon="0.10523">
        <ele>2659</ele>
        <time>2017-05-04T08:31:45Z</time>
      </trkpt>
      <trkpt lat="42.83635" lon="0.10521">
        <ele>2659</ele>
        <time>2017-05-04T08:31:57Z</time>
      </trkpt>
      <trkpt lat="42.83629" lon="0.10517">
        <ele>2659</ele>
        <time>2017-05-04T08:32:05Z</time>
      </trkpt>
      <trkpt lat="42.83616" lon="0.10494">
        <ele>2661</ele>
        <time>2017-05-04T08:32:33Z</time>
      </trkpt>
      <trkpt lat="42.83612" lon="0.10493">
        <ele>2661</ele>
        <time>2017-05-04T08:32:39Z</time>
      </trkpt>
      <trkpt lat="42.83594" lon="0.10493">
        <ele>2667</ele>
        <time>2017-05-04T08:33:11Z</time>
      </trkpt>
      <trkpt lat="42.83582" lon="0.1049">
        <ele>2670</ele>
        <time>2017-05-04T08:33:38Z</time>
      </trkpt>
      <trkpt lat="42.83577" lon="0.10495">
        <ele>2672</ele>
        <time>2017-05-04T08:33:50Z</time>
      </trkpt>
      <trkpt lat="42.83571" lon="0.10497">
        <ele>2674</ele>
        <time>2017-05-04T08:34:01Z</time>
      </trkpt>
      <trkpt lat="42.83569" lon="0.10499">
        <ele>2676</ele>
        <time>2017-05-04T08:34:13Z</time>
      </trkpt>
      <trkpt lat="42.8356" lon="0.10503">
        <ele>2679</ele>
        <time>2017-05-04T08:34:47Z</time>
      </trkpt>
      <trkpt lat="42.8355" lon="0.10515">
        <ele>2686</ele>
        <time>2017-05-04T08:35:22Z</time>
      </trkpt>
      <trkpt lat="42.8355" lon="0.10519">
        <ele>2686</ele>
        <time>2017-05-04T08:35:25Z</time>
      </trkpt>
      <trkpt lat="42.83545" lon="0.10525">
        <ele>2686</ele>
        <time>2017-05-04T08:35:37Z</time>
      </trkpt>
      <trkpt lat="42.83542" lon="0.10525">
        <ele>2687</ele>
        <time>2017-05-04T08:35:43Z</time>
      </trkpt>
      <trkpt lat="42.83536" lon="0.10533">
        <ele>2691</ele>
        <time>2017-05-04T08:36:03Z</time>
      </trkpt>
      <trkpt lat="42.83535" lon="0.10536">
        <ele>2691</ele>
        <time>2017-05-04T08:36:08Z</time>
      </trkpt>
      <trkpt lat="42.83532" lon="0.10538">
        <ele>2691</ele>
        <time>2017-05-04T08:36:15Z</time>
      </trkpt>
      <trkpt lat="42.83529" lon="0.10546">
        <ele>2690</ele>
        <time>2017-05-04T08:36:30Z</time>
      </trkpt>
      <trkpt lat="42.83528" lon="0.10551">
        <ele>2689</ele>
        <time>2017-05-04T08:36:38Z</time>
      </trkpt>
      <trkpt lat="42.83521" lon="0.10567">
        <ele>2692</ele>
        <time>2017-05-04T08:37:14Z</time>
      </trkpt>
      <trkpt lat="42.83517" lon="0.10587">
        <ele>2694</ele>
        <time>2017-05-04T08:37:50Z</time>
      </trkpt>
      <trkpt lat="42.83515" lon="0.10602">
        <ele>2700</ele>
        <time>2017-05-04T08:38:21Z</time>
      </trkpt>
      <trkpt lat="42.83514" lon="0.1061">
        <ele>2702</ele>
        <time>2017-05-04T08:38:32Z</time>
      </trkpt>
      <trkpt lat="42.83511" lon="0.10617">
        <ele>2708</ele>
        <time>2017-05-04T08:39:03Z</time>
      </trkpt>
      <trkpt lat="42.83511" lon="0.10629">
        <ele>2716</ele>
        <time>2017-05-04T08:39:30Z</time>
      </trkpt>
      <trkpt lat="42.83508" lon="0.10629">
        <ele>2716</ele>
        <time>2017-05-04T08:39:38Z</time>
      </trkpt>
      <trkpt lat="42.83506" lon="0.10628">
        <ele>2717</ele>
        <time>2017-05-04T08:39:42Z</time>
      </trkpt>
      <trkpt lat="42.83498" lon="0.10616">
        <ele>2719</ele>
        <time>2017-05-04T08:40:16Z</time>
      </trkpt>
      <trkpt lat="42.83494" lon="0.10612">
        <ele>2720</ele>
        <time>2017-05-04T08:40:28Z</time>
      </trkpt>
      <trkpt lat="42.83489" lon="0.10603">
        <ele>2723</ele>
        <time>2017-05-04T08:40:51Z</time>
      </trkpt>
      <trkpt lat="42.83484" lon="0.10594">
        <ele>2725</ele>
        <time>2017-05-04T08:41:16Z</time>
      </trkpt>
      <trkpt lat="42.83479" lon="0.10586">
        <ele>2729</ele>
        <time>2017-05-04T08:41:38Z</time>
      </trkpt>
      <trkpt lat="42.83475" lon="0.10576">
        <ele>2730</ele>
        <time>2017-05-04T08:41:58Z</time>
      </trkpt>
      <trkpt lat="42.8347" lon="0.10555">
        <ele>2734</ele>
        <time>2017-05-04T08:42:51Z</time>
      </trkpt>
      <trkpt lat="42.8347" lon="0.10542">
        <ele>2736</ele>
        <time>2017-05-04T08:43:24Z</time>
      </trkpt>
      <trkpt lat="42.83466" lon="0.10529">
        <ele>2738</ele>
        <time>2017-05-04T08:43:56Z</time>
      </trkpt>
      <trkpt lat="42.83465" lon="0.10526">
        <ele>2738</ele>
        <time>2017-05-04T08:44:00Z</time>
      </trkpt>
      <trkpt lat="42.8346" lon="0.10516">
        <ele>2738</ele>
        <time>2017-05-04T08:44:20Z</time>
      </trkpt>
      <trkpt lat="42.83459" lon="0.10513">
        <ele>2738</ele>
        <time>2017-05-04T08:44:33Z</time>
      </trkpt>
      <trkpt lat="42.83457" lon="0.10509">
        <ele>2740</ele>
        <time>2017-05-04T08:44:41Z</time>
      </trkpt>
      <trkpt lat="42.83457" lon="0.10493">
        <ele>2744</ele>
        <time>2017-05-04T08:45:17Z</time>
      </trkpt>
      <trkpt lat="42.83458" lon="0.10489">
        <ele>2744</ele>
        <time>2017-05-04T08:45:26Z</time>
      </trkpt>
      <trkpt lat="42.83456" lon="0.10469">
        <ele>2747</ele>
        <time>2017-05-04T08:46:03Z</time>
      </trkpt>
      <trkpt lat="42.83453" lon="0.10458">
        <ele>2750</ele>
        <time>2017-05-04T08:46:20Z</time>
      </trkpt>
      <trkpt lat="42.8345" lon="0.10452">
        <ele>2751</ele>
        <time>2017-05-04T08:46:30Z</time>
      </trkpt>
      <trkpt lat="42.83436" lon="0.10439">
        <ele>2753</ele>
        <time>2017-05-04T08:46:58Z</time>
      </trkpt>
      <trkpt lat="42.83433" lon="0.10431">
        <ele>2753</ele>
        <time>2017-05-04T08:47:11Z</time>
      </trkpt>
      <trkpt lat="42.83431" lon="0.10428">
        <ele>2752</ele>
        <time>2017-05-04T08:53:55Z</time>
      </trkpt>
      <trkpt lat="42.83429" lon="0.10423">
        <ele>2752</ele>
        <time>2017-05-04T08:54:00Z</time>
      </trkpt>
      <trkpt lat="42.83422" lon="0.10384">
        <ele>2752</ele>
        <time>2017-05-04T08:54:31Z</time>
      </trkpt>
      <trkpt lat="42.83423" lon="0.10363">
        <ele>2754</ele>
        <time>2017-05-04T08:54:49Z</time>
      </trkpt>
      <trkpt lat="42.83425" lon="0.10339">
        <ele>2756</ele>
        <time>2017-05-04T08:55:19Z</time>
      </trkpt>
      <trkpt lat="42.83426" lon="0.10331">
        <ele>2756</ele>
        <time>2017-05-04T08:55:28Z</time>
      </trkpt>
      <trkpt lat="42.83431" lon="0.10313">
        <ele>2758</ele>
        <time>2017-05-04T08:55:51Z</time>
      </trkpt>
      <trkpt lat="42.83431" lon="0.10309">
        <ele>2759</ele>
        <time>2017-05-04T08:55:55Z</time>
      </trkpt>
      <trkpt lat="42.8343" lon="0.10306">
        <ele>2759</ele>
        <time>2017-05-04T08:55:59Z</time>
      </trkpt>
      <trkpt lat="42.83426" lon="0.10299">
        <ele>2760</ele>
        <time>2017-05-04T08:56:10Z</time>
      </trkpt>
      <trkpt lat="42.83417" lon="0.10289">
        <ele>2761</ele>
        <time>2017-05-04T08:56:29Z</time>
      </trkpt>
      <trkpt lat="42.83409" lon="0.10283">
        <ele>2762</ele>
        <time>2017-05-04T08:56:46Z</time>
      </trkpt>
      <trkpt lat="42.83407" lon="0.1028">
        <ele>2763</ele>
        <time>2017-05-04T08:56:52Z</time>
      </trkpt>
      <trkpt lat="42.83402" lon="0.10277">
        <ele>2764</ele>
        <time>2017-05-04T08:57:06Z</time>
      </trkpt>
      <trkpt lat="42.834" lon="0.10273">
        <ele>2765</ele>
        <time>2017-05-04T08:57:11Z</time>
      </trkpt>
      <trkpt lat="42.83397" lon="0.10266">
        <ele>2767</ele>
        <time>2017-05-04T08:57:25Z</time>
      </trkpt>
      <trkpt lat="42.83396" lon="0.10263">
        <ele>2767</ele>
        <time>2017-05-04T08:57:33Z</time>
      </trkpt>
      <trkpt lat="42.83386" lon="0.10255">
        <ele>2770</ele>
        <time>2017-05-04T08:57:59Z</time>
      </trkpt>
      <trkpt lat="42.83375" lon="0.10243">
        <ele>2774</ele>
        <time>2017-05-04T08:58:26Z</time>
      </trkpt>
      <trkpt lat="42.83372" lon="0.1024">
        <ele>2774</ele>
        <time>2017-05-04T08:58:32Z</time>
      </trkpt>
      <trkpt lat="42.8337" lon="0.10232">
        <ele>2776</ele>
        <time>2017-05-04T08:58:45Z</time>
      </trkpt>
      <trkpt lat="42.83367" lon="0.10221">
        <ele>2777</ele>
        <time>2017-05-04T08:59:15Z</time>
      </trkpt>
      <trkpt lat="42.83365" lon="0.10214">
        <ele>2778</ele>
        <time>2017-05-04T08:59:23Z</time>
      </trkpt>
      <trkpt lat="42.83363" lon="0.10211">
        <ele>2780</ele>
        <time>2017-05-04T08:59:58Z</time>
      </trkpt>
      <trkpt lat="42.8336" lon="0.10211">
        <ele>2781</ele>
        <time>2017-05-04T09:00:02Z</time>
      </trkpt>
      <trkpt lat="42.83343" lon="0.10218">
        <ele>2784</ele>
        <time>2017-05-04T09:00:32Z</time>
      </trkpt>
      <trkpt lat="42.8334" lon="0.10219">
        <ele>2785</ele>
        <time>2017-05-04T09:00:37Z</time>
      </trkpt>
      <trkpt lat="42.83338" lon="0.10216">
        <ele>2786</ele>
        <time>2017-05-04T09:00:44Z</time>
      </trkpt>
      <trkpt lat="42.83335" lon="0.10209">
        <ele>2787</ele>
        <time>2017-05-04T09:00:53Z</time>
      </trkpt>
      <trkpt lat="42.83329" lon="0.10202">
        <ele>2788</ele>
        <time>2017-05-04T09:01:09Z</time>
      </trkpt>
      <trkpt lat="42.83321" lon="0.10196">
        <ele>2790</ele>
        <time>2017-05-04T09:01:33Z</time>
      </trkpt>
      <trkpt lat="42.83319" lon="0.10195">
        <ele>2790</ele>
        <time>2017-05-04T09:01:40Z</time>
      </trkpt>
      <trkpt lat="42.83316" lon="0.10198">
        <ele>2791</ele>
        <time>2017-05-04T09:01:47Z</time>
      </trkpt>
      <trkpt lat="42.83311" lon="0.10203">
        <ele>2792</ele>
        <time>2017-05-04T09:03:02Z</time>
      </trkpt>
      <trkpt lat="42.83304" lon="0.1021">
        <ele>2794</ele>
        <time>2017-05-04T09:03:28Z</time>
      </trkpt>
      <trkpt lat="42.83293" lon="0.10216">
        <ele>2797</ele>
        <time>2017-05-04T09:03:45Z</time>
      </trkpt>
      <trkpt lat="42.83282" lon="0.1022">
        <ele>2800</ele>
        <time>2017-05-04T09:04:07Z</time>
      </trkpt>
      <trkpt lat="42.83279" lon="0.10218">
        <ele>2801</ele>
        <time>2017-05-04T09:04:12Z</time>
      </trkpt>
      <trkpt lat="42.83278" lon="0.10215">
        <ele>2803</ele>
        <time>2017-05-04T09:04:18Z</time>
      </trkpt>
      <trkpt lat="42.83275" lon="0.10216">
        <ele>2804</ele>
        <time>2017-05-04T09:04:25Z</time>
      </trkpt>
      <trkpt lat="42.83272" lon="0.10218">
        <ele>2805</ele>
        <time>2017-05-04T09:04:30Z</time>
      </trkpt>
      <trkpt lat="42.83258" lon="0.1023">
        <ele>2809</ele>
        <time>2017-05-04T09:05:01Z</time>
      </trkpt>
      <trkpt lat="42.83252" lon="0.10232">
        <ele>2810</ele>
        <time>2017-05-04T09:05:14Z</time>
      </trkpt>
      <trkpt lat="42.83249" lon="0.10231">
        <ele>2810</ele>
        <time>2017-05-04T09:05:20Z</time>
      </trkpt>
      <trkpt lat="42.83243" lon="0.1023">
        <ele>2811</ele>
        <time>2017-05-04T09:05:29Z</time>
      </trkpt>
      <trkpt lat="42.83238" lon="0.10233">
        <ele>2812</ele>
        <time>2017-05-04T09:05:41Z</time>
      </trkpt>
      <trkpt lat="42.83224" lon="0.10238">
        <ele>2816</ele>
        <time>2017-05-04T09:06:07Z</time>
      </trkpt>
      <trkpt lat="42.83213" lon="0.10244">
        <ele>2818</ele>
        <time>2017-05-04T09:06:27Z</time>
      </trkpt>
      <trkpt lat="42.83211" lon="0.10244">
        <ele>2818</ele>
        <time>2017-05-04T09:06:34Z</time>
      </trkpt>
      <trkpt lat="42.83208" lon="0.10246">
        <ele>2820</ele>
        <time>2017-05-04T09:06:42Z</time>
      </trkpt>
      <trkpt lat="42.83204" lon="0.10247">
        <ele>2821</ele>
        <time>2017-05-04T09:07:25Z</time>
      </trkpt>
      <trkpt lat="42.83203" lon="0.10243">
        <ele>2821</ele>
        <time>2017-05-04T09:07:30Z</time>
      </trkpt>
      <trkpt lat="42.83201" lon="0.10237">
        <ele>2821</ele>
        <time>2017-05-04T09:07:44Z</time>
      </trkpt>
      <trkpt lat="42.83198" lon="0.10234">
        <ele>2821</ele>
        <time>2017-05-04T09:07:50Z</time>
      </trkpt>
      <trkpt lat="42.83192" lon="0.10232">
        <ele>2823</ele>
        <time>2017-05-04T09:08:02Z</time>
      </trkpt>
      <trkpt lat="42.8319" lon="0.10233">
        <ele>2823</ele>
        <time>2017-05-04T09:08:09Z</time>
      </trkpt>
      <trkpt lat="42.83188" lon="0.10237">
        <ele>2825</ele>
        <time>2017-05-04T09:08:15Z</time>
      </trkpt>
      <trkpt lat="42.83187" lon="0.1024">
        <ele>2825</ele>
        <time>2017-05-04T09:08:23Z</time>
      </trkpt>
      <trkpt lat="42.83182" lon="0.10245">
        <ele>2827</ele>
        <time>2017-05-04T09:08:34Z</time>
      </trkpt>
      <trkpt lat="42.8318" lon="0.10244">
        <ele>2828</ele>
        <time>2017-05-04T09:08:40Z</time>
      </trkpt>
      <trkpt lat="42.83177" lon="0.10241">
        <ele>2828</ele>
        <time>2017-05-04T09:08:45Z</time>
      </trkpt>
      <trkpt lat="42.83168" lon="0.10233">
        <ele>2831</ele>
        <time>2017-05-04T09:09:17Z</time>
      </trkpt>
      <trkpt lat="42.83165" lon="0.10234">
        <ele>2831</ele>
        <time>2017-05-04T09:09:23Z</time>
      </trkpt>
      <trkpt lat="42.83164" lon="0.10237">
        <ele>2832</ele>
        <time>2017-05-04T09:09:29Z</time>
      </trkpt>
      <trkpt lat="42.83163" lon="0.10241">
        <ele>2833</ele>
        <time>2017-05-04T09:09:37Z</time>
      </trkpt>
      <trkpt lat="42.8316" lon="0.10247">
        <ele>2835</ele>
        <time>2017-05-04T09:09:53Z</time>
      </trkpt>
      <trkpt lat="42.83155" lon="0.10251">
        <ele>2838</ele>
        <time>2017-05-04T09:10:15Z</time>
      </trkpt>
      <trkpt lat="42.83153" lon="0.10247">
        <ele>2838</ele>
        <time>2017-05-04T09:11:19Z</time>
      </trkpt>
      <trkpt lat="42.83146" lon="0.10239">
        <ele>2840</ele>
        <time>2017-05-04T09:11:36Z</time>
      </trkpt>
      <trkpt lat="42.83143" lon="0.10237">
        <ele>2841</ele>
        <time>2017-05-04T09:11:42Z</time>
      </trkpt>
      <trkpt lat="42.83141" lon="0.10235">
        <ele>2844</ele>
        <time>2017-05-04T09:11:53Z</time>
      </trkpt>
      <trkpt lat="42.83138" lon="0.10233">
        <ele>2844</ele>
        <time>2017-05-04T09:12:02Z</time>
      </trkpt>
      <trkpt lat="42.83133" lon="0.10231">
        <ele>2846</ele>
        <time>2017-05-04T09:12:39Z</time>
      </trkpt>
      <trkpt lat="42.83132" lon="0.10235">
        <ele>2848</ele>
        <time>2017-05-04T09:12:45Z</time>
      </trkpt>
      <trkpt lat="42.83126" lon="0.10253">
        <ele>2851</ele>
        <time>2017-05-04T09:13:23Z</time>
      </trkpt>
      <trkpt lat="42.8312" lon="0.10261">
        <ele>2852</ele>
        <time>2017-05-04T09:13:54Z</time>
      </trkpt>
      <trkpt lat="42.83119" lon="0.10256">
        <ele>2853</ele>
        <time>2017-05-04T09:14:00Z</time>
      </trkpt>
      <trkpt lat="42.83118" lon="0.10248">
        <ele>2853</ele>
        <time>2017-05-04T09:14:14Z</time>
      </trkpt>
      <trkpt lat="42.83118" lon="0.10244">
        <ele>2856</ele>
        <time>2017-05-04T09:14:27Z</time>
      </trkpt>
      <trkpt lat="42.83115" lon="0.10244">
        <ele>2856</ele>
        <time>2017-05-04T09:14:43Z</time>
      </trkpt>
      <trkpt lat="42.83113" lon="0.10247">
        <ele>2856</ele>
        <time>2017-05-04T09:14:59Z</time>
      </trkpt>
      <trkpt lat="42.8311" lon="0.10253">
        <ele>2859</ele>
        <time>2017-05-04T09:15:30Z</time>
      </trkpt>
      <trkpt lat="42.83108" lon="0.10251">
        <ele>2861</ele>
        <time>2017-05-04T09:15:48Z</time>
      </trkpt>
      <trkpt lat="42.8311" lon="0.10247">
        <ele>2860</ele>
        <time>2017-05-04T09:15:54Z</time>
      </trkpt>
      <trkpt lat="42.83108" lon="0.10245">
        <ele>2861</ele>
        <time>2017-05-04T09:16:14Z</time>
      </trkpt>
      <trkpt lat="42.83105" lon="0.10242">
        <ele>2863</ele>
        <time>2017-05-04T09:16:40Z</time>
      </trkpt>
      <trkpt lat="42.83104" lon="0.10246">
        <ele>2863</ele>
        <time>2017-05-04T09:16:51Z</time>
      </trkpt>
      <trkpt lat="42.83102" lon="0.10249">
        <ele>2863</ele>
        <time>2017-05-04T09:17:13Z</time>
      </trkpt>
      <trkpt lat="42.83101" lon="0.10252">
        <ele>2866</ele>
        <time>2017-05-04T09:17:37Z</time>
      </trkpt>
      <trkpt lat="42.83099" lon="0.10249">
        <ele>2866</ele>
        <time>2017-05-04T09:18:23Z</time>
      </trkpt>
      <trkpt lat="42.83096" lon="0.1025">
        <ele>2869</ele>
        <time>2017-05-04T09:18:34Z</time>
      </trkpt>
      <trkpt lat="42.83095" lon="0.10254">
        <ele>2870</ele>
        <time>2017-05-04T09:18:40Z</time>
      </trkpt>
      <trkpt lat="42.83093" lon="0.10257">
        <ele>2872</ele>
        <time>2017-05-04T09:18:49Z</time>
      </trkpt>
      <trkpt lat="42.8309" lon="0.10257">
        <ele>2872</ele>
        <time>2017-05-04T09:18:56Z</time>
      </trkpt>
      <trkpt lat="42.83087" lon="0.10257">
        <ele>2873</ele>
        <time>2017-05-04T09:19:07Z</time>
      </trkpt>
      <trkpt lat="42.83086" lon="0.10261">
        <ele>2873</ele>
        <time>2017-05-04T09:19:15Z</time>
      </trkpt>
      <trkpt lat="42.83084" lon="0.10265">
        <ele>2876</ele>
        <time>2017-05-04T09:19:22Z</time>
      </trkpt>
      <trkpt lat="42.83082" lon="0.10267">
        <ele>2876</ele>
        <time>2017-05-04T09:19:30Z</time>
      </trkpt>
      <trkpt lat="42.83079" lon="0.10267">
        <ele>2876</ele>
        <time>2017-05-04T09:19:36Z</time>
      </trkpt>
      <trkpt lat="42.83076" lon="0.10266">
        <ele>2876</ele>
        <time>2017-05-04T09:19:43Z</time>
      </trkpt>
      <trkpt lat="42.83073" lon="0.10265">
        <ele>2878</ele>
        <time>2017-05-04T09:19:51Z</time>
      </trkpt>
      <trkpt lat="42.83071" lon="0.10269">
        <ele>2879</ele>
        <time>2017-05-04T09:19:57Z</time>
      </trkpt>
      <trkpt lat="42.83067" lon="0.10274">
        <ele>2881</ele>
        <time>2017-05-04T09:20:16Z</time>
      </trkpt>
      <trkpt lat="42.83061" lon="0.10274">
        <ele>2883</ele>
        <time>2017-05-04T09:20:30Z</time>
      </trkpt>
      <trkpt lat="42.83059" lon="0.10276">
        <ele>2885</ele>
        <time>2017-05-04T09:20:36Z</time>
      </trkpt>
      <trkpt lat="42.83056" lon="0.10283">
        <ele>2886</ele>
        <time>2017-05-04T09:20:53Z</time>
      </trkpt>
      <trkpt lat="42.8305" lon="0.10286">
        <ele>2887</ele>
        <time>2017-05-04T09:21:04Z</time>
      </trkpt>
      <trkpt lat="42.83047" lon="0.10287">
        <ele>2888</ele>
        <time>2017-05-04T09:21:10Z</time>
      </trkpt>
      <trkpt lat="42.83033" lon="0.10286">
        <ele>2889</ele>
        <time>2017-05-04T09:21:35Z</time>
      </trkpt>
      <trkpt lat="42.8303" lon="0.10287">
        <ele>2890</ele>
        <time>2017-05-04T09:21:40Z</time>
      </trkpt>
      <trkpt lat="42.83029" lon="0.10291">
        <ele>2891</ele>
        <time>2017-05-04T09:21:45Z</time>
      </trkpt>
      <trkpt lat="42.83017" lon="0.1031">
        <ele>2894</ele>
        <time>2017-05-04T09:22:18Z</time>
      </trkpt>
      <trkpt lat="42.83015" lon="0.10313">
        <ele>2895</ele>
        <time>2017-05-04T09:22:23Z</time>
      </trkpt>
      <trkpt lat="42.83" lon="0.10324">
        <ele>2900</ele>
        <time>2017-05-04T09:22:54Z</time>
      </trkpt>
      <trkpt lat="42.82989" lon="0.10331">
        <ele>2902</ele>
        <time>2017-05-04T09:23:15Z</time>
      </trkpt>
      <trkpt lat="42.82982" lon="0.10338">
        <ele>2903</ele>
        <time>2017-05-04T09:23:30Z</time>
      </trkpt>
      <trkpt lat="42.82974" lon="0.10349">
        <ele>2904</ele>
        <time>2017-05-04T09:23:48Z</time>
      </trkpt>
      <trkpt lat="42.82963" lon="0.10373">
        <ele>2907</ele>
        <time>2017-05-04T09:24:19Z</time>
      </trkpt>
      <trkpt lat="42.82955" lon="0.1039">
        <ele>2908</ele>
        <time>2017-05-04T09:24:42Z</time>
      </trkpt>
      <trkpt lat="42.82948" lon="0.10417">
        <ele>2911</ele>
        <time>2017-05-04T09:25:17Z</time>
      </trkpt>
      <trkpt lat="42.82945" lon="0.10445">
        <ele>2913</ele>
        <time>2017-05-04T09:25:51Z</time>
      </trkpt>
      <trkpt lat="42.82946" lon="0.10458">
        <ele>2915</ele>
        <time>2017-05-04T09:26:09Z</time>
      </trkpt>
      <trkpt lat="42.82948" lon="0.10469">
        <ele>2916</ele>
        <time>2017-05-04T09:26:25Z</time>
      </trkpt>
      <trkpt lat="42.82946" lon="0.10467">
        <ele>2917</ele>
        <time>2017-05-04T09:27:27Z</time>
      </trkpt>
      <trkpt lat="42.82945" lon="0.10463">
        <ele>2916</ele>
        <time>2017-05-04T09:27:59Z</time>
      </trkpt>
      <trkpt lat="42.82944" lon="0.10459">
        <ele>2916</ele>
        <time>2017-05-04T09:28:28Z</time>
      </trkpt>
      <trkpt lat="42.82947" lon="0.1046">
        <ele>2916</ele>
        <time>2017-05-04T09:33:15Z</time>
      </trkpt>
      <trkpt lat="42.82947" lon="0.10464">
        <ele>2916</ele>
        <time>2017-05-04T09:33:21Z</time>
      </trkpt>
      <trkpt lat="42.82948" lon="0.10468">
        <ele>2916</ele>
        <time>2017-05-04T09:33:27Z</time>
      </trkpt>
      <trkpt lat="42.82951" lon="0.10479">
        <ele>2920</ele>
        <time>2017-05-04T09:33:51Z</time>
      </trkpt>
      <trkpt lat="42.82955" lon="0.10494">
        <ele>2923</ele>
        <time>2017-05-04T09:34:22Z</time>
      </trkpt>
      <trkpt lat="42.8296" lon="0.10505">
        <ele>2926</ele>
        <time>2017-05-04T09:34:50Z</time>
      </trkpt>
      <trkpt lat="42.8296" lon="0.10509">
        <ele>2927</ele>
        <time>2017-05-04T09:34:56Z</time>
      </trkpt>
      <trkpt lat="42.82958" lon="0.10511">
        <ele>2929</ele>
        <time>2017-05-04T09:35:18Z</time>
      </trkpt>
      <trkpt lat="42.82955" lon="0.10509">
        <ele>2929</ele>
        <time>2017-05-04T09:35:24Z</time>
      </trkpt>
      <trkpt lat="42.82952" lon="0.10509">
        <ele>2931</ele>
        <time>2017-05-04T09:35:34Z</time>
      </trkpt>
      <trkpt lat="42.82952" lon="0.10513">
        <ele>2932</ele>
        <time>2017-05-04T09:35:53Z</time>
      </trkpt>
      <trkpt lat="42.82955" lon="0.1052">
        <ele>2934</ele>
        <time>2017-05-04T09:36:06Z</time>
      </trkpt>
      <trkpt lat="42.82956" lon="0.10537">
        <ele>2938</ele>
        <time>2017-05-04T09:36:32Z</time>
      </trkpt>
      <trkpt lat="42.82957" lon="0.1054">
        <ele>2938</ele>
        <time>2017-05-04T09:36:38Z</time>
      </trkpt>
      <trkpt lat="42.82954" lon="0.1054">
        <ele>2939</ele>
        <time>2017-05-04T09:37:00Z</time>
      </trkpt>
      <trkpt lat="42.82951" lon="0.10538">
        <ele>2940</ele>
        <time>2017-05-04T09:37:15Z</time>
      </trkpt>
      <trkpt lat="42.82944" lon="0.10533">
        <ele>2942</ele>
        <time>2017-05-04T09:37:32Z</time>
      </trkpt>
      <trkpt lat="42.82941" lon="0.10535">
        <ele>2944</ele>
        <time>2017-05-04T09:37:53Z</time>
      </trkpt>
      <trkpt lat="42.82941" lon="0.10538">
        <ele>2945</ele>
        <time>2017-05-04T09:37:59Z</time>
      </trkpt>
      <trkpt lat="42.82943" lon="0.10551">
        <ele>2947</ele>
        <time>2017-05-04T09:38:27Z</time>
      </trkpt>
      <trkpt lat="42.82946" lon="0.10563">
        <ele>2950</ele>
        <time>2017-05-04T09:38:43Z</time>
      </trkpt>
      <trkpt lat="42.82943" lon="0.10564">
        <ele>2950</ele>
        <time>2017-05-04T09:38:56Z</time>
      </trkpt>
      <trkpt lat="42.8294" lon="0.10564">
        <ele>2952</ele>
        <time>2017-05-04T09:39:01Z</time>
      </trkpt>
      <trkpt lat="42.82935" lon="0.10562">
        <ele>2954</ele>
        <time>2017-05-04T09:39:10Z</time>
      </trkpt>
      <trkpt lat="42.82933" lon="0.10567">
        <ele>2954</ele>
        <time>2017-05-04T09:39:19Z</time>
      </trkpt>
      <trkpt lat="42.82934" lon="0.10571">
        <ele>2956</ele>
        <time>2017-05-04T09:39:27Z</time>
      </trkpt>
      <trkpt lat="42.82932" lon="0.10573">
        <ele>2957</ele>
        <time>2017-05-04T09:39:39Z</time>
      </trkpt>
      <trkpt lat="42.82923" lon="0.10574">
        <ele>2959</ele>
        <time>2017-05-04T09:39:57Z</time>
      </trkpt>
      <trkpt lat="42.82922" lon="0.10578">
        <ele>2959</ele>
        <time>2017-05-04T09:40:02Z</time>
      </trkpt>
      <trkpt lat="42.82915" lon="0.10595">
        <ele>2964</ele>
        <time>2017-05-04T09:40:36Z</time>
      </trkpt>
      <trkpt lat="42.82914" lon="0.10598">
        <ele>2965</ele>
        <time>2017-05-04T09:40:41Z</time>
      </trkpt>
      <trkpt lat="42.82913" lon="0.10602">
        <ele>2967</ele>
        <time>2017-05-04T09:41:27Z</time>
      </trkpt>
      <trkpt lat="42.82914" lon="0.10606">
        <ele>2967</ele>
        <time>2017-05-04T09:41:33Z</time>
      </trkpt>
      <trkpt lat="42.8292" lon="0.10616">
        <ele>2970</ele>
        <time>2017-05-04T09:41:49Z</time>
      </trkpt>
      <trkpt lat="42.82921" lon="0.1062">
        <ele>2970</ele>
        <time>2017-05-04T09:41:54Z</time>
      </trkpt>
      <trkpt lat="42.82919" lon="0.10624">
        <ele>2972</ele>
        <time>2017-05-04T09:42:00Z</time>
      </trkpt>
      <trkpt lat="42.82917" lon="0.10625">
        <ele>2972</ele>
        <time>2017-05-04T09:42:05Z</time>
      </trkpt>
      <trkpt lat="42.82909" lon="0.10631">
        <ele>2973</ele>
        <time>2017-05-04T09:42:28Z</time>
      </trkpt>
      <trkpt lat="42.82907" lon="0.10634">
        <ele>2973</ele>
        <time>2017-05-04T09:42:32Z</time>
      </trkpt>
      <trkpt lat="42.82908" lon="0.10642">
        <ele>2975</ele>
        <time>2017-05-04T09:42:42Z</time>
      </trkpt>
      <trkpt lat="42.8291" lon="0.1065">
        <ele>2977</ele>
        <time>2017-05-04T09:42:54Z</time>
      </trkpt>
      <trkpt lat="42.82912" lon="0.10666">
        <ele>2980</ele>
        <time>2017-05-04T09:43:17Z</time>
      </trkpt>
      <trkpt lat="42.82912" lon="0.1067">
        <ele>2980</ele>
        <time>2017-05-04T09:43:22Z</time>
      </trkpt>
      <trkpt lat="42.8291" lon="0.10672">
        <ele>2981</ele>
        <time>2017-05-04T09:43:29Z</time>
      </trkpt>
      <trkpt lat="42.82908" lon="0.10673">
        <ele>2981</ele>
        <time>2017-05-04T09:43:37Z</time>
      </trkpt>
      <trkpt lat="42.82893" lon="0.10677">
        <ele>2985</ele>
        <time>2017-05-04T09:44:08Z</time>
      </trkpt>
      <trkpt lat="42.82883" lon="0.10683">
        <ele>2988</ele>
        <time>2017-05-04T09:44:33Z</time>
      </trkpt>
      <trkpt lat="42.82884" lon="0.10686">
        <ele>2988</ele>
        <time>2017-05-04T09:44:40Z</time>
      </trkpt>
      <trkpt lat="42.82888" lon="0.10697">
        <ele>2992</ele>
        <time>2017-05-04T09:44:59Z</time>
      </trkpt>
      <trkpt lat="42.82891" lon="0.10708">
        <ele>2994</ele>
        <time>2017-05-04T09:45:20Z</time>
      </trkpt>
      <trkpt lat="42.82888" lon="0.10711">
        <ele>2995</ele>
        <time>2017-05-04T09:45:25Z</time>
      </trkpt>
      <trkpt lat="42.82883" lon="0.10711">
        <ele>2996</ele>
        <time>2017-05-04T09:45:37Z</time>
      </trkpt>
      <trkpt lat="42.82874" lon="0.10715">
        <ele>2997</ele>
        <time>2017-05-04T09:45:57Z</time>
      </trkpt>
      <trkpt lat="42.82873" lon="0.10718">
        <ele>2998</ele>
        <time>2017-05-04T09:46:11Z</time>
      </trkpt>
      <trkpt lat="42.82873" lon="0.10722">
        <ele>2999</ele>
        <time>2017-05-04T09:46:20Z</time>
      </trkpt>
      <trkpt lat="42.82873" lon="0.10735">
        <ele>3002</ele>
        <time>2017-05-04T09:46:36Z</time>
      </trkpt>
      <trkpt lat="42.8287" lon="0.10736">
        <ele>3002</ele>
        <time>2017-05-04T09:46:45Z</time>
      </trkpt>
      <trkpt lat="42.82862" lon="0.1074">
        <ele>3005</ele>
        <time>2017-05-04T09:47:04Z</time>
      </trkpt>
      <trkpt lat="42.82859" lon="0.1074">
        <ele>3005</ele>
        <time>2017-05-04T09:47:10Z</time>
      </trkpt>
      <trkpt lat="42.82857" lon="0.10743">
        <ele>3006</ele>
        <time>2017-05-04T09:47:18Z</time>
      </trkpt>
      <trkpt lat="42.82857" lon="0.10747">
        <ele>3007</ele>
        <time>2017-05-04T09:47:24Z</time>
      </trkpt>
      <trkpt lat="42.82858" lon="0.10751">
        <ele>3008</ele>
        <time>2017-05-04T09:47:30Z</time>
      </trkpt>
      <trkpt lat="42.82861" lon="0.10766">
        <ele>3012</ele>
        <time>2017-05-04T09:47:57Z</time>
      </trkpt>
      <trkpt lat="42.82863" lon="0.10769">
        <ele>3014</ele>
        <time>2017-05-04T09:48:04Z</time>
      </trkpt>
      <trkpt lat="42.8286" lon="0.10771">
        <ele>3014</ele>
        <time>2017-05-04T09:48:19Z</time>
      </trkpt>
      <trkpt lat="42.82857" lon="0.10772">
        <ele>3014</ele>
        <time>2017-05-04T09:48:23Z</time>
      </trkpt>
      <trkpt lat="42.8284" lon="0.1077">
        <ele>3018</ele>
        <time>2017-05-04T09:48:58Z</time>
      </trkpt>
      <trkpt lat="42.82828" lon="0.10771">
        <ele>3021</ele>
        <time>2017-05-04T09:49:20Z</time>
      </trkpt>
      <trkpt lat="42.82828" lon="0.10775">
        <ele>3021</ele>
        <time>2017-05-04T09:49:27Z</time>
      </trkpt>
      <trkpt lat="42.82828" lon="0.10783">
        <ele>3022</ele>
        <time>2017-05-04T09:49:52Z</time>
      </trkpt>
      <trkpt lat="42.82826" lon="0.10792">
        <ele>3023</ele>
        <time>2017-05-04T09:50:01Z</time>
      </trkpt>
      <trkpt lat="42.82823" lon="0.10793">
        <ele>3025</ele>
        <time>2017-05-04T09:50:56Z</time>
      </trkpt>
      <trkpt lat="42.82818" lon="0.1079">
        <ele>3025</ele>
        <time>2017-05-04T09:51:05Z</time>
      </trkpt>
      <trkpt lat="42.82813" lon="0.10785">
        <ele>3027</ele>
        <time>2017-05-04T09:51:17Z</time>
      </trkpt>
      <trkpt lat="42.82807" lon="0.10785">
        <ele>3028</ele>
        <time>2017-05-04T09:51:27Z</time>
      </trkpt>
      <trkpt lat="42.82805" lon="0.10783">
        <ele>3029</ele>
        <time>2017-05-04T09:51:32Z</time>
      </trkpt>
      <trkpt lat="42.82792" lon="0.10776">
        <ele>3034</ele>
        <time>2017-05-04T09:52:02Z</time>
      </trkpt>
      <trkpt lat="42.82785" lon="0.10772">
        <ele>3037</ele>
        <time>2017-05-04T09:53:00Z</time>
      </trkpt>
      <trkpt lat="42.82787" lon="0.10774">
        <ele>3038</ele>
        <time>2017-05-04T10:18:22Z</time>
      </trkpt>
      <trkpt lat="42.82796" lon="0.10779">
        <ele>3030</ele>
        <time>2017-05-04T10:18:34Z</time>
      </trkpt>
      <trkpt lat="42.82799" lon="0.10781">
        <ele>3030</ele>
        <time>2017-05-04T10:18:36Z</time>
      </trkpt>
      <trkpt lat="42.828" lon="0.10777">
        <ele>3028</ele>
        <time>2017-05-04T10:18:38Z</time>
      </trkpt>
      <trkpt lat="42.82802" lon="0.10772">
        <ele>3027</ele>
        <time>2017-05-04T10:19:59Z</time>
      </trkpt>
      <trkpt lat="42.82805" lon="0.10773">
        <ele>3026</ele>
        <time>2017-05-04T10:20:01Z</time>
      </trkpt>
      <trkpt lat="42.8281" lon="0.10774">
        <ele>3024</ele>
        <time>2017-05-04T10:21:18Z</time>
      </trkpt>
      <trkpt lat="42.82823" lon="0.10782">
        <ele>3020</ele>
        <time>2017-05-04T10:21:24Z</time>
      </trkpt>
      <trkpt lat="42.82827" lon="0.10778">
        <ele>3019</ele>
        <time>2017-05-04T10:21:26Z</time>
      </trkpt>
      <trkpt lat="42.82827" lon="0.10771">
        <ele>3018</ele>
        <time>2017-05-04T10:21:28Z</time>
      </trkpt>
      <trkpt lat="42.82833" lon="0.10769">
        <ele>3017</ele>
        <time>2017-05-04T10:21:30Z</time>
      </trkpt>
      <trkpt lat="42.82847" lon="0.10774">
        <ele>3013</ele>
        <time>2017-05-04T10:21:36Z</time>
      </trkpt>
      <trkpt lat="42.82861" lon="0.10768">
        <ele>3009</ele>
        <time>2017-05-04T10:21:42Z</time>
      </trkpt>
      <trkpt lat="42.8286" lon="0.10765">
        <ele>3008</ele>
        <time>2017-05-04T10:21:43Z</time>
      </trkpt>
      <trkpt lat="42.82856" lon="0.10755">
        <ele>3006</ele>
        <time>2017-05-04T10:21:46Z</time>
      </trkpt>
      <trkpt lat="42.82855" lon="0.10749">
        <ele>3005</ele>
        <time>2017-05-04T10:21:48Z</time>
      </trkpt>
      <trkpt lat="42.8286" lon="0.10748">
        <ele>3004</ele>
        <time>2017-05-04T10:21:50Z</time>
      </trkpt>
      <trkpt lat="42.82863" lon="0.10747">
        <ele>3003</ele>
        <time>2017-05-04T10:21:51Z</time>
      </trkpt>
      <trkpt lat="42.82865" lon="0.10743">
        <ele>3002</ele>
        <time>2017-05-04T10:21:52Z</time>
      </trkpt>
      <trkpt lat="42.82865" lon="0.10732">
        <ele>3000</ele>
        <time>2017-05-04T10:21:55Z</time>
      </trkpt>
      <trkpt lat="42.8287" lon="0.10732">
        <ele>2999</ele>
        <time>2017-05-04T10:21:57Z</time>
      </trkpt>
      <trkpt lat="42.82874" lon="0.10733">
        <ele>2998</ele>
        <time>2017-05-04T10:21:59Z</time>
      </trkpt>
      <trkpt lat="42.82876" lon="0.10729">
        <ele>2998</ele>
        <time>2017-05-04T10:22:06Z</time>
      </trkpt>
      <trkpt lat="42.82875" lon="0.10725">
        <ele>2997</ele>
        <time>2017-05-04T10:23:22Z</time>
      </trkpt>
      <trkpt lat="42.82873" lon="0.10716">
        <ele>2996</ele>
        <time>2017-05-04T10:23:24Z</time>
      </trkpt>
      <trkpt lat="42.82876" lon="0.10714">
        <ele>2995</ele>
        <time>2017-05-04T10:23:25Z</time>
      </trkpt>
      <trkpt lat="42.82883" lon="0.10713">
        <ele>2994</ele>
        <time>2017-05-04T10:23:27Z</time>
      </trkpt>
      <trkpt lat="42.82886" lon="0.1071">
        <ele>2993</ele>
        <time>2017-05-04T10:23:28Z</time>
      </trkpt>
      <trkpt lat="42.82885" lon="0.10706">
        <ele>2992</ele>
        <time>2017-05-04T10:23:29Z</time>
      </trkpt>
      <trkpt lat="42.82882" lon="0.107">
        <ele>2991</ele>
        <time>2017-05-04T10:23:31Z</time>
      </trkpt>
      <trkpt lat="42.82882" lon="0.10696">
        <ele>2990</ele>
        <time>2017-05-04T10:23:32Z</time>
      </trkpt>
      <trkpt lat="42.82884" lon="0.10693">
        <ele>2990</ele>
        <time>2017-05-04T10:23:33Z</time>
      </trkpt>
      <trkpt lat="42.82889" lon="0.10692">
        <ele>2988</ele>
        <time>2017-05-04T10:23:35Z</time>
      </trkpt>
      <trkpt lat="42.82891" lon="0.10688">
        <ele>2987</ele>
        <time>2017-05-04T10:23:36Z</time>
      </trkpt>
      <trkpt lat="42.8289" lon="0.10684">
        <ele>2987</ele>
        <time>2017-05-04T10:23:37Z</time>
      </trkpt>
      <trkpt lat="42.82886" lon="0.10679">
        <ele>2985</ele>
        <time>2017-05-04T10:23:39Z</time>
      </trkpt>
      <trkpt lat="42.82886" lon="0.10674">
        <ele>2985</ele>
        <time>2017-05-04T10:23:40Z</time>
      </trkpt>
      <trkpt lat="42.82889" lon="0.10672">
        <ele>2984</ele>
        <time>2017-05-04T10:23:41Z</time>
      </trkpt>
      <trkpt lat="42.82897" lon="0.1067">
        <ele>2982</ele>
        <time>2017-05-04T10:23:44Z</time>
      </trkpt>
      <trkpt lat="42.82898" lon="0.10666">
        <ele>2981</ele>
        <time>2017-05-04T10:23:45Z</time>
      </trkpt>
      <trkpt lat="42.82896" lon="0.10659">
        <ele>2979</ele>
        <time>2017-05-04T10:23:47Z</time>
      </trkpt>
      <trkpt lat="42.82898" lon="0.10655">
        <ele>2979</ele>
        <time>2017-05-04T10:23:48Z</time>
      </trkpt>
      <trkpt lat="42.82904" lon="0.10652">
        <ele>2977</ele>
        <time>2017-05-04T10:23:50Z</time>
      </trkpt>
      <trkpt lat="42.82905" lon="0.10647">
        <ele>2975</ele>
        <time>2017-05-04T10:23:51Z</time>
      </trkpt>
      <trkpt lat="42.82903" lon="0.10637">
        <ele>2974</ele>
        <time>2017-05-04T10:23:53Z</time>
      </trkpt>
      <trkpt lat="42.82905" lon="0.10633">
        <ele>2973</ele>
        <time>2017-05-04T10:23:54Z</time>
      </trkpt>
      <trkpt lat="42.82909" lon="0.1063">
        <ele>2972</ele>
        <time>2017-05-04T10:23:56Z</time>
      </trkpt>
      <trkpt lat="42.82912" lon="0.1062">
        <ele>2970</ele>
        <time>2017-05-04T10:23:59Z</time>
      </trkpt>
      <trkpt lat="42.82917" lon="0.10616">
        <ele>2969</ele>
        <time>2017-05-04T10:24:01Z</time>
      </trkpt>
      <trkpt lat="42.82928" lon="0.1061">
        <ele>2967</ele>
        <time>2017-05-04T10:24:05Z</time>
      </trkpt>
      <trkpt lat="42.8293" lon="0.10606">
        <ele>2966</ele>
        <time>2017-05-04T10:24:06Z</time>
      </trkpt>
      <trkpt lat="42.82929" lon="0.10602">
        <ele>2965</ele>
        <time>2017-05-04T10:24:18Z</time>
      </trkpt>
      <trkpt lat="42.82927" lon="0.10597">
        <ele>2964</ele>
        <time>2017-05-04T10:24:20Z</time>
      </trkpt>
      <trkpt lat="42.82925" lon="0.10594">
        <ele>2964</ele>
        <time>2017-05-04T10:24:21Z</time>
      </trkpt>
      <trkpt lat="42.82924" lon="0.1059">
        <ele>2963</ele>
        <time>2017-05-04T10:24:22Z</time>
      </trkpt>
      <trkpt lat="42.82928" lon="0.10586">
        <ele>2962</ele>
        <time>2017-05-04T10:24:24Z</time>
      </trkpt>
      <trkpt lat="42.82929" lon="0.10582">
        <ele>2960</ele>
        <time>2017-05-04T10:24:25Z</time>
      </trkpt>
      <trkpt lat="42.82928" lon="0.10579">
        <ele>2959</ele>
        <time>2017-05-04T10:24:26Z</time>
      </trkpt>
      <trkpt lat="42.82927" lon="0.10573">
        <ele>2958</ele>
        <time>2017-05-04T10:24:28Z</time>
      </trkpt>
      <trkpt lat="42.82932" lon="0.10572">
        <ele>2957</ele>
        <time>2017-05-04T10:24:30Z</time>
      </trkpt>
      <trkpt lat="42.82933" lon="0.10567">
        <ele>2956</ele>
        <time>2017-05-04T10:24:32Z</time>
      </trkpt>
      <trkpt lat="42.82934" lon="0.10564">
        <ele>2955</ele>
        <time>2017-05-04T10:25:34Z</time>
      </trkpt>
      <trkpt lat="42.82934" lon="0.10558">
        <ele>2953</ele>
        <time>2017-05-04T10:25:36Z</time>
      </trkpt>
      <trkpt lat="42.82937" lon="0.10558">
        <ele>2953</ele>
        <time>2017-05-04T10:25:37Z</time>
      </trkpt>
      <trkpt lat="42.8294" lon="0.10559">
        <ele>2951</ele>
        <time>2017-05-04T10:25:39Z</time>
      </trkpt>
      <trkpt lat="42.8294" lon="0.10554">
        <ele>2950</ele>
        <time>2017-05-04T10:25:41Z</time>
      </trkpt>
      <trkpt lat="42.82942" lon="0.10551">
        <ele>2949</ele>
        <time>2017-05-04T10:25:43Z</time>
      </trkpt>
      <trkpt lat="42.82946" lon="0.10553">
        <ele>2947</ele>
        <time>2017-05-04T10:25:45Z</time>
      </trkpt>
      <trkpt lat="42.82948" lon="0.1055">
        <ele>2946</ele>
        <time>2017-05-04T10:25:47Z</time>
      </trkpt>
      <trkpt lat="42.82948" lon="0.10545">
        <ele>2944</ele>
        <time>2017-05-04T10:25:50Z</time>
      </trkpt>
      <trkpt lat="42.82951" lon="0.10548">
        <ele>2943</ele>
        <time>2017-05-04T10:26:00Z</time>
      </trkpt>
      <trkpt lat="42.82951" lon="0.10544">
        <ele>2943</ele>
        <time>2017-05-04T10:26:02Z</time>
      </trkpt>
      <trkpt lat="42.82953" lon="0.1054">
        <ele>2942</ele>
        <time>2017-05-04T10:26:18Z</time>
      </trkpt>
      <trkpt lat="42.82952" lon="0.10535">
        <ele>2941</ele>
        <time>2017-05-04T10:26:20Z</time>
      </trkpt>
      <trkpt lat="42.82954" lon="0.1053">
        <ele>2940</ele>
        <time>2017-05-04T10:26:23Z</time>
      </trkpt>
      <trkpt lat="42.82958" lon="0.10532">
        <ele>2938</ele>
        <time>2017-05-04T10:26:26Z</time>
      </trkpt>
      <trkpt lat="42.82959" lon="0.10528">
        <ele>2937</ele>
        <time>2017-05-04T10:26:27Z</time>
      </trkpt>
      <trkpt lat="42.82959" lon="0.10518">
        <ele>2934</ele>
        <time>2017-05-04T10:26:30Z</time>
      </trkpt>
      <trkpt lat="42.82959" lon="0.10515">
        <ele>2932</ele>
        <time>2017-05-04T10:28:00Z</time>
      </trkpt>
      <trkpt lat="42.82957" lon="0.10506">
        <ele>2930</ele>
        <time>2017-05-04T10:28:04Z</time>
      </trkpt>
      <trkpt lat="42.82958" lon="0.10502">
        <ele>2929</ele>
        <time>2017-05-04T10:28:19Z</time>
      </trkpt>
      <trkpt lat="42.82954" lon="0.10485">
        <ele>2923</ele>
        <time>2017-05-04T10:28:37Z</time>
      </trkpt>
      <trkpt lat="42.82945" lon="0.10418">
        <ele>2913</ele>
        <time>2017-05-04T10:29:06Z</time>
      </trkpt>
      <trkpt lat="42.82949" lon="0.10408">
        <ele>2911</ele>
        <time>2017-05-04T10:29:10Z</time>
      </trkpt>
      <trkpt lat="42.82968" lon="0.10364">
        <ele>2907</ele>
        <time>2017-05-04T10:29:24Z</time>
      </trkpt>
      <trkpt lat="42.82984" lon="0.10338">
        <ele>2903</ele>
        <time>2017-05-04T10:29:45Z</time>
      </trkpt>
      <trkpt lat="42.82987" lon="0.10339">
        <ele>2903</ele>
        <time>2017-05-04T10:31:10Z</time>
      </trkpt>
      <trkpt lat="42.82987" lon="0.10344">
        <ele>2903</ele>
        <time>2017-05-04T10:31:12Z</time>
      </trkpt>
      <trkpt lat="42.82987" lon="0.10356">
        <ele>2902</ele>
        <time>2017-05-04T10:31:59Z</time>
      </trkpt>
      <trkpt lat="42.82989" lon="0.10396">
        <ele>2896</ele>
        <time>2017-05-04T10:32:15Z</time>
      </trkpt>
      <trkpt lat="42.82992" lon="0.10395">
        <ele>2895</ele>
        <time>2017-05-04T10:32:17Z</time>
      </trkpt>
      <trkpt lat="42.82995" lon="0.10396">
        <ele>2893</ele>
        <time>2017-05-04T10:32:19Z</time>
      </trkpt>
      <trkpt lat="42.82998" lon="0.10399">
        <ele>2892</ele>
        <time>2017-05-04T10:32:21Z</time>
      </trkpt>
      <trkpt lat="42.83001" lon="0.10396">
        <ele>2890</ele>
        <time>2017-05-04T10:32:23Z</time>
      </trkpt>
      <trkpt lat="42.83004" lon="0.104">
        <ele>2889</ele>
        <time>2017-05-04T10:32:25Z</time>
      </trkpt>
      <trkpt lat="42.83007" lon="0.104">
        <ele>2886</ele>
        <time>2017-05-04T10:32:27Z</time>
      </trkpt>
      <trkpt lat="42.8301" lon="0.10399">
        <ele>2884</ele>
        <time>2017-05-04T10:32:29Z</time>
      </trkpt>
      <trkpt lat="42.83011" lon="0.10405">
        <ele>2883</ele>
        <time>2017-05-04T10:32:31Z</time>
      </trkpt>
      <trkpt lat="42.83014" lon="0.10404">
        <ele>2881</ele>
        <time>2017-05-04T10:32:33Z</time>
      </trkpt>
      <trkpt lat="42.83018" lon="0.10403">
        <ele>2879</ele>
        <time>2017-05-04T10:33:28Z</time>
      </trkpt>
      <trkpt lat="42.83021" lon="0.10402">
        <ele>2878</ele>
        <time>2017-05-04T10:33:30Z</time>
      </trkpt>
      <trkpt lat="42.83022" lon="0.10407">
        <ele>2877</ele>
        <time>2017-05-04T10:33:32Z</time>
      </trkpt>
      <trkpt lat="42.83025" lon="0.10408">
        <ele>2874</ele>
        <time>2017-05-04T10:33:34Z</time>
      </trkpt>
      <trkpt lat="42.83026" lon="0.10402">
        <ele>2873</ele>
        <time>2017-05-04T10:33:36Z</time>
      </trkpt>
      <trkpt lat="42.8303" lon="0.10405">
        <ele>2871</ele>
        <time>2017-05-04T10:33:38Z</time>
      </trkpt>
      <trkpt lat="42.83031" lon="0.1041">
        <ele>2869</ele>
        <time>2017-05-04T10:33:40Z</time>
      </trkpt>
      <trkpt lat="42.83034" lon="0.10411">
        <ele>2869</ele>
        <time>2017-05-04T10:33:41Z</time>
      </trkpt>
      <trkpt lat="42.83036" lon="0.10407">
        <ele>2868</ele>
        <time>2017-05-04T10:33:42Z</time>
      </trkpt>
      <trkpt lat="42.83037" lon="0.10404">
        <ele>2866</ele>
        <time>2017-05-04T10:33:44Z</time>
      </trkpt>
      <trkpt lat="42.83039" lon="0.10406">
        <ele>2865</ele>
        <time>2017-05-04T10:33:46Z</time>
      </trkpt>
      <trkpt lat="42.83043" lon="0.10406">
        <ele>2863</ele>
        <time>2017-05-04T10:33:48Z</time>
      </trkpt>
      <trkpt lat="42.83044" lon="0.10403">
        <ele>2862</ele>
        <time>2017-05-04T10:33:49Z</time>
      </trkpt>
      <trkpt lat="42.83047" lon="0.10401">
        <ele>2860</ele>
        <time>2017-05-04T10:34:34Z</time>
      </trkpt>
      <trkpt lat="42.8305" lon="0.10401">
        <ele>2860</ele>
        <time>2017-05-04T10:34:37Z</time>
      </trkpt>
      <trkpt lat="42.83052" lon="0.10405">
        <ele>2857</ele>
        <time>2017-05-04T10:34:39Z</time>
      </trkpt>
      <trkpt lat="42.83055" lon="0.10402">
        <ele>2856</ele>
        <time>2017-05-04T10:34:41Z</time>
      </trkpt>
      <trkpt lat="42.83058" lon="0.10403">
        <ele>2855</ele>
        <time>2017-05-04T10:34:43Z</time>
      </trkpt>
      <trkpt lat="42.83058" lon="0.10407">
        <ele>2854</ele>
        <time>2017-05-04T10:34:45Z</time>
      </trkpt>
      <trkpt lat="42.83058" lon="0.10412">
        <ele>2852</ele>
        <time>2017-05-04T10:34:47Z</time>
      </trkpt>
      <trkpt lat="42.8306" lon="0.10417">
        <ele>2851</ele>
        <time>2017-05-04T10:34:50Z</time>
      </trkpt>
      <trkpt lat="42.83062" lon="0.10416">
        <ele>2850</ele>
        <time>2017-05-04T10:34:51Z</time>
      </trkpt>
      <trkpt lat="42.83064" lon="0.10412">
        <ele>2848</ele>
        <time>2017-05-04T10:34:53Z</time>
      </trkpt>
      <trkpt lat="42.83067" lon="0.10412">
        <ele>2847</ele>
        <time>2017-05-04T10:34:56Z</time>
      </trkpt>
      <trkpt lat="42.83066" lon="0.10416">
        <ele>2846</ele>
        <time>2017-05-04T10:34:57Z</time>
      </trkpt>
      <trkpt lat="42.8307" lon="0.10418">
        <ele>2843</ele>
        <time>2017-05-04T10:35:00Z</time>
      </trkpt>
      <trkpt lat="42.83071" lon="0.10414">
        <ele>2842</ele>
        <time>2017-05-04T10:35:02Z</time>
      </trkpt>
      <trkpt lat="42.83074" lon="0.10417">
        <ele>2840</ele>
        <time>2017-05-04T10:35:04Z</time>
      </trkpt>
      <trkpt lat="42.83076" lon="0.10419">
        <ele>2838</ele>
        <time>2017-05-04T10:35:07Z</time>
      </trkpt>
      <trkpt lat="42.8308" lon="0.10417">
        <ele>2833</ele>
        <time>2017-05-04T10:35:26Z</time>
      </trkpt>
      <trkpt lat="42.83081" lon="0.10421">
        <ele>2832</ele>
        <time>2017-05-04T10:35:28Z</time>
      </trkpt>
      <trkpt lat="42.83084" lon="0.10422">
        <ele>2830</ele>
        <time>2017-05-04T10:35:30Z</time>
      </trkpt>
      <trkpt lat="42.83087" lon="0.10419">
        <ele>2830</ele>
        <time>2017-05-04T10:36:21Z</time>
      </trkpt>
      <trkpt lat="42.83091" lon="0.10419">
        <ele>2830</ele>
        <time>2017-05-04T10:37:00Z</time>
      </trkpt>
      <trkpt lat="42.83094" lon="0.10416">
        <ele>2830</ele>
        <time>2017-05-04T10:37:02Z</time>
      </trkpt>
      <trkpt lat="42.83096" lon="0.10415">
        <ele>2827</ele>
        <time>2017-05-04T10:38:16Z</time>
      </trkpt>
      <trkpt lat="42.83099" lon="0.10411">
        <ele>2825</ele>
        <time>2017-05-04T10:39:01Z</time>
      </trkpt>
      <trkpt lat="42.83109" lon="0.1039">
        <ele>2819</ele>
        <time>2017-05-04T10:39:12Z</time>
      </trkpt>
      <trkpt lat="42.83118" lon="0.10374">
        <ele>2815</ele>
        <time>2017-05-04T10:40:14Z</time>
      </trkpt>
      <trkpt lat="42.83136" lon="0.1035">
        <ele>2808</ele>
        <time>2017-05-04T10:40:36Z</time>
      </trkpt>
      <trkpt lat="42.83149" lon="0.10338">
        <ele>2804</ele>
        <time>2017-05-04T10:40:46Z</time>
      </trkpt>
      <trkpt lat="42.83163" lon="0.10328">
        <ele>2802</ele>
        <time>2017-05-04T10:40:54Z</time>
      </trkpt>
      <trkpt lat="42.83179" lon="0.1032">
        <ele>2799</ele>
        <time>2017-05-04T10:41:04Z</time>
      </trkpt>
      <trkpt lat="42.83222" lon="0.10301">
        <ele>2792</ele>
        <time>2017-05-04T10:41:31Z</time>
      </trkpt>
      <trkpt lat="42.83226" lon="0.10299">
        <ele>2791</ele>
        <time>2017-05-04T10:41:33Z</time>
      </trkpt>
      <trkpt lat="42.83229" lon="0.10296">
        <ele>2790</ele>
        <time>2017-05-04T10:41:35Z</time>
      </trkpt>
      <trkpt lat="42.83266" lon="0.10275">
        <ele>2787</ele>
        <time>2017-05-04T10:42:06Z</time>
      </trkpt>
      <trkpt lat="42.83292" lon="0.10268">
        <ele>2784</ele>
        <time>2017-05-04T10:42:30Z</time>
      </trkpt>
      <trkpt lat="42.83335" lon="0.10251">
        <ele>2777</ele>
        <time>2017-05-04T10:43:00Z</time>
      </trkpt>
      <trkpt lat="42.83338" lon="0.1025">
        <ele>2778</ele>
        <time>2017-05-04T10:43:12Z</time>
      </trkpt>
      <trkpt lat="42.83342" lon="0.10252">
        <ele>2777</ele>
        <time>2017-05-04T10:43:14Z</time>
      </trkpt>
      <trkpt lat="42.83342" lon="0.10256">
        <ele>2776</ele>
        <time>2017-05-04T10:43:16Z</time>
      </trkpt>
      <trkpt lat="42.83346" lon="0.10255">
        <ele>2775</ele>
        <time>2017-05-04T10:43:18Z</time>
      </trkpt>
      <trkpt lat="42.83395" lon="0.10257">
        <ele>2766</ele>
        <time>2017-05-04T10:43:49Z</time>
      </trkpt>
      <trkpt lat="42.83399" lon="0.10266">
        <ele>2765</ele>
        <time>2017-05-04T10:43:53Z</time>
      </trkpt>
      <trkpt lat="42.83403" lon="0.10279">
        <ele>2762</ele>
        <time>2017-05-04T10:43:59Z</time>
      </trkpt>
      <trkpt lat="42.83401" lon="0.10285">
        <ele>2761</ele>
        <time>2017-05-04T10:44:01Z</time>
      </trkpt>
      <trkpt lat="42.83408" lon="0.10296">
        <ele>2760</ele>
        <time>2017-05-04T10:44:05Z</time>
      </trkpt>
      <trkpt lat="42.8341" lon="0.10299">
        <ele>2759</ele>
        <time>2017-05-04T10:44:06Z</time>
      </trkpt>
      <trkpt lat="42.83414" lon="0.10309">
        <ele>2757</ele>
        <time>2017-05-04T10:44:09Z</time>
      </trkpt>
      <trkpt lat="42.83418" lon="0.10331">
        <ele>2754</ele>
        <time>2017-05-04T10:44:13Z</time>
      </trkpt>
      <trkpt lat="42.83422" lon="0.10366">
        <ele>2753</ele>
        <time>2017-05-04T10:45:49Z</time>
      </trkpt>
      <trkpt lat="42.83425" lon="0.10365">
        <ele>2753</ele>
        <time>2017-05-04T10:56:41Z</time>
      </trkpt>
      <trkpt lat="42.83426" lon="0.10369">
        <ele>2753</ele>
        <time>2017-05-04T11:02:31Z</time>
      </trkpt>
      <trkpt lat="42.8344" lon="0.10381">
        <ele>2750</ele>
        <time>2017-05-04T11:03:05Z</time>
      </trkpt>
      <trkpt lat="42.83459" lon="0.10398">
        <ele>2745</ele>
        <time>2017-05-04T11:03:15Z</time>
      </trkpt>
      <trkpt lat="42.83463" lon="0.10396">
        <ele>2744</ele>
        <time>2017-05-04T11:03:17Z</time>
      </trkpt>
      <trkpt lat="42.83476" lon="0.10399">
        <ele>2740</ele>
        <time>2017-05-04T11:03:23Z</time>
      </trkpt>
      <trkpt lat="42.83478" lon="0.10395">
        <ele>2741</ele>
        <time>2017-05-04T11:04:23Z</time>
      </trkpt>
      <trkpt lat="42.83482" lon="0.10396">
        <ele>2741</ele>
        <time>2017-05-04T11:04:25Z</time>
      </trkpt>
      <trkpt lat="42.83485" lon="0.10394">
        <ele>2739</ele>
        <time>2017-05-04T11:04:27Z</time>
      </trkpt>
      <trkpt lat="42.83489" lon="0.10396">
        <ele>2738</ele>
        <time>2017-05-04T11:04:29Z</time>
      </trkpt>
      <trkpt lat="42.83489" lon="0.10401">
        <ele>2738</ele>
        <time>2017-05-04T11:04:31Z</time>
      </trkpt>
      <trkpt lat="42.83492" lon="0.104">
        <ele>2737</ele>
        <time>2017-05-04T11:04:33Z</time>
      </trkpt>
      <trkpt lat="42.83496" lon="0.10398">
        <ele>2735</ele>
        <time>2017-05-04T11:04:35Z</time>
      </trkpt>
      <trkpt lat="42.83497" lon="0.10401">
        <ele>2734</ele>
        <time>2017-05-04T11:05:29Z</time>
      </trkpt>
      <trkpt lat="42.835" lon="0.10402">
        <ele>2731</ele>
        <time>2017-05-04T11:06:08Z</time>
      </trkpt>
      <trkpt lat="42.83499" lon="0.10407">
        <ele>2731</ele>
        <time>2017-05-04T11:06:10Z</time>
      </trkpt>
      <trkpt lat="42.83502" lon="0.10408">
        <ele>2730</ele>
        <time>2017-05-04T11:06:12Z</time>
      </trkpt>
      <trkpt lat="42.83505" lon="0.10405">
        <ele>2728</ele>
        <time>2017-05-04T11:06:14Z</time>
      </trkpt>
      <trkpt lat="42.83509" lon="0.10406">
        <ele>2727</ele>
        <time>2017-05-04T11:06:16Z</time>
      </trkpt>
      <trkpt lat="42.83509" lon="0.10411">
        <ele>2725</ele>
        <time>2017-05-04T11:06:17Z</time>
      </trkpt>
      <trkpt lat="42.8351" lon="0.10415">
        <ele>2724</ele>
        <time>2017-05-04T11:06:19Z</time>
      </trkpt>
      <trkpt lat="42.83514" lon="0.10412">
        <ele>2723</ele>
        <time>2017-05-04T11:06:21Z</time>
      </trkpt>
      <trkpt lat="42.83517" lon="0.1041">
        <ele>2723</ele>
        <time>2017-05-04T11:07:28Z</time>
      </trkpt>
      <trkpt lat="42.83523" lon="0.10419">
        <ele>2720</ele>
        <time>2017-05-04T11:07:33Z</time>
      </trkpt>
      <trkpt lat="42.83526" lon="0.10416">
        <ele>2718</ele>
        <time>2017-05-04T11:07:35Z</time>
      </trkpt>
      <trkpt lat="42.83528" lon="0.10421">
        <ele>2717</ele>
        <time>2017-05-04T11:07:37Z</time>
      </trkpt>
      <trkpt lat="42.83531" lon="0.10422">
        <ele>2715</ele>
        <time>2017-05-04T11:07:39Z</time>
      </trkpt>
      <trkpt lat="42.83534" lon="0.10419">
        <ele>2713</ele>
        <time>2017-05-04T11:07:41Z</time>
      </trkpt>
      <trkpt lat="42.83536" lon="0.10424">
        <ele>2712</ele>
        <time>2017-05-04T11:07:43Z</time>
      </trkpt>
      <trkpt lat="42.8354" lon="0.10423">
        <ele>2710</ele>
        <time>2017-05-04T11:07:45Z</time>
      </trkpt>
      <trkpt lat="42.83543" lon="0.10421">
        <ele>2710</ele>
        <time>2017-05-04T11:07:47Z</time>
      </trkpt>
      <trkpt lat="42.83546" lon="0.10421">
        <ele>2708</ele>
        <time>2017-05-04T11:07:49Z</time>
      </trkpt>
      <trkpt lat="42.83547" lon="0.10426">
        <ele>2707</ele>
        <time>2017-05-04T11:07:51Z</time>
      </trkpt>
      <trkpt lat="42.83551" lon="0.10425">
        <ele>2705</ele>
        <time>2017-05-04T11:07:53Z</time>
      </trkpt>
      <trkpt lat="42.83554" lon="0.10429">
        <ele>2705</ele>
        <time>2017-05-04T11:07:55Z</time>
      </trkpt>
      <trkpt lat="42.83555" lon="0.10433">
        <ele>2702</ele>
        <time>2017-05-04T11:07:57Z</time>
      </trkpt>
      <trkpt lat="42.83558" lon="0.10432">
        <ele>2701</ele>
        <time>2017-05-04T11:08:09Z</time>
      </trkpt>
      <trkpt lat="42.83562" lon="0.1043">
        <ele>2700</ele>
        <time>2017-05-04T11:08:11Z</time>
      </trkpt>
      <trkpt lat="42.83566" lon="0.10431">
        <ele>2699</ele>
        <time>2017-05-04T11:08:14Z</time>
      </trkpt>
      <trkpt lat="42.83565" lon="0.10434">
        <ele>2698</ele>
        <time>2017-05-04T11:08:15Z</time>
      </trkpt>
      <trkpt lat="42.83567" lon="0.10437">
        <ele>2697</ele>
        <time>2017-05-04T11:08:17Z</time>
      </trkpt>
      <trkpt lat="42.8357" lon="0.10439">
        <ele>2695</ele>
        <time>2017-05-04T11:08:31Z</time>
      </trkpt>
      <trkpt lat="42.83581" lon="0.10434">
        <ele>2693</ele>
        <time>2017-05-04T11:08:38Z</time>
      </trkpt>
      <trkpt lat="42.83582" lon="0.10439">
        <ele>2691</ele>
        <time>2017-05-04T11:08:40Z</time>
      </trkpt>
      <trkpt lat="42.83581" lon="0.10444">
        <ele>2690</ele>
        <time>2017-05-04T11:08:42Z</time>
      </trkpt>
      <trkpt lat="42.83586" lon="0.10444">
        <ele>2688</ele>
        <time>2017-05-04T11:08:44Z</time>
      </trkpt>
      <trkpt lat="42.83626" lon="0.10441">
        <ele>2681</ele>
        <time>2017-05-04T11:09:14Z</time>
      </trkpt>
      <trkpt lat="42.83691" lon="0.10429">
        <ele>2674</ele>
        <time>2017-05-04T11:09:44Z</time>
      </trkpt>
      <trkpt lat="42.83753" lon="0.10442">
        <ele>2668</ele>
        <time>2017-05-04T11:10:24Z</time>
      </trkpt>
      <trkpt lat="42.83804" lon="0.10479">
        <ele>2663</ele>
        <time>2017-05-04T11:10:53Z</time>
      </trkpt>
      <trkpt lat="42.83805" lon="0.10491">
        <ele>2662</ele>
        <time>2017-05-04T11:11:06Z</time>
      </trkpt>
      <trkpt lat="42.83809" lon="0.10515">
        <ele>2664</ele>
        <time>2017-05-04T11:11:38Z</time>
      </trkpt>
      <trkpt lat="42.83814" lon="0.10526">
        <ele>2665</ele>
        <time>2017-05-04T11:11:53Z</time>
      </trkpt>
      <trkpt lat="42.83824" lon="0.10543">
        <ele>2666</ele>
        <time>2017-05-04T11:12:18Z</time>
      </trkpt>
      <trkpt lat="42.83836" lon="0.10552">
        <ele>2665</ele>
        <time>2017-05-04T11:12:34Z</time>
      </trkpt>
      <trkpt lat="42.83842" lon="0.10556">
        <ele>2666</ele>
        <time>2017-05-04T11:12:43Z</time>
      </trkpt>
      <trkpt lat="42.83859" lon="0.1059">
        <ele>2663</ele>
        <time>2017-05-04T11:13:02Z</time>
      </trkpt>
      <trkpt lat="42.83866" lon="0.10604">
        <ele>2661</ele>
        <time>2017-05-04T11:13:06Z</time>
      </trkpt>
      <trkpt lat="42.83896" lon="0.10641">
        <ele>2659</ele>
        <time>2017-05-04T11:13:37Z</time>
      </trkpt>
      <trkpt lat="42.8391" lon="0.10662">
        <ele>2655</ele>
        <time>2017-05-04T11:14:11Z</time>
      </trkpt>
      <trkpt lat="42.83938" lon="0.10691">
        <ele>2650</ele>
        <time>2017-05-04T11:14:28Z</time>
      </trkpt>
      <trkpt lat="42.83951" lon="0.10695">
        <ele>2648</ele>
        <time>2017-05-04T11:14:34Z</time>
      </trkpt>
      <trkpt lat="42.84028" lon="0.10713">
        <ele>2640</ele>
        <time>2017-05-04T11:15:04Z</time>
      </trkpt>
      <trkpt lat="42.84116" lon="0.10722">
        <ele>2635</ele>
        <time>2017-05-04T11:15:34Z</time>
      </trkpt>
      <trkpt lat="42.84161" lon="0.10719">
        <ele>2632</ele>
        <time>2017-05-04T11:16:05Z</time>
      </trkpt>
      <trkpt lat="42.84162" lon="0.10715">
        <ele>2633</ele>
        <time>2017-05-04T11:16:20Z</time>
      </trkpt>
      <trkpt lat="42.8417" lon="0.10714">
        <ele>2632</ele>
        <time>2017-05-04T11:16:24Z</time>
      </trkpt>
      <trkpt lat="42.84172" lon="0.10711">
        <ele>2631</ele>
        <time>2017-05-04T11:16:25Z</time>
      </trkpt>
      <trkpt lat="42.84175" lon="0.1071">
        <ele>2630</ele>
        <time>2017-05-04T11:16:26Z</time>
      </trkpt>
      <trkpt lat="42.84178" lon="0.10711">
        <ele>2629</ele>
        <time>2017-05-04T11:16:27Z</time>
      </trkpt>
      <trkpt lat="42.8418" lon="0.10708">
        <ele>2628</ele>
        <time>2017-05-04T11:16:28Z</time>
      </trkpt>
      <trkpt lat="42.84181" lon="0.10704">
        <ele>2627</ele>
        <time>2017-05-04T11:16:29Z</time>
      </trkpt>
      <trkpt lat="42.84184" lon="0.10703">
        <ele>2626</ele>
        <time>2017-05-04T11:16:30Z</time>
      </trkpt>
      <trkpt lat="42.84189" lon="0.10704">
        <ele>2624</ele>
        <time>2017-05-04T11:16:32Z</time>
      </trkpt>
      <trkpt lat="42.8419" lon="0.10701">
        <ele>2623</ele>
        <time>2017-05-04T11:16:33Z</time>
      </trkpt>
      <trkpt lat="42.84191" lon="0.10696">
        <ele>2622</ele>
        <time>2017-05-04T11:16:35Z</time>
      </trkpt>
      <trkpt lat="42.84193" lon="0.10694">
        <ele>2621</ele>
        <time>2017-05-04T11:16:36Z</time>
      </trkpt>
      <trkpt lat="42.84195" lon="0.10695">
        <ele>2621</ele>
        <time>2017-05-04T11:16:37Z</time>
      </trkpt>
      <trkpt lat="42.84199" lon="0.10699">
        <ele>2619</ele>
        <time>2017-05-04T11:16:39Z</time>
      </trkpt>
      <trkpt lat="42.84202" lon="0.10697">
        <ele>2618</ele>
        <time>2017-05-04T11:16:40Z</time>
      </trkpt>
      <trkpt lat="42.84206" lon="0.10689">
        <ele>2616</ele>
        <time>2017-05-04T11:16:42Z</time>
      </trkpt>
      <trkpt lat="42.84211" lon="0.10681">
        <ele>2613</ele>
        <time>2017-05-04T11:16:44Z</time>
      </trkpt>
      <trkpt lat="42.84213" lon="0.10678">
        <ele>2611</ele>
        <time>2017-05-04T11:17:08Z</time>
      </trkpt>
      <trkpt lat="42.84216" lon="0.10677">
        <ele>2610</ele>
        <time>2017-05-04T11:17:09Z</time>
      </trkpt>
      <trkpt lat="42.84232" lon="0.10665">
        <ele>2605</ele>
        <time>2017-05-04T11:17:13Z</time>
      </trkpt>
      <trkpt lat="42.84248" lon="0.10651">
        <ele>2599</ele>
        <time>2017-05-04T11:17:19Z</time>
      </trkpt>
      <trkpt lat="42.8425" lon="0.10655">
        <ele>2598</ele>
        <time>2017-05-04T11:17:21Z</time>
      </trkpt>
      <trkpt lat="42.84253" lon="0.10656">
        <ele>2595</ele>
        <time>2017-05-04T11:17:23Z</time>
      </trkpt>
      <trkpt lat="42.84255" lon="0.10654">
        <ele>2595</ele>
        <time>2017-05-04T11:17:24Z</time>
      </trkpt>
      <trkpt lat="42.84258" lon="0.10649">
        <ele>2593</ele>
        <time>2017-05-04T11:17:26Z</time>
      </trkpt>
      <trkpt lat="42.84265" lon="0.10647">
        <ele>2590</ele>
        <time>2017-05-04T11:17:47Z</time>
      </trkpt>
      <trkpt lat="42.84274" lon="0.10638">
        <ele>2588</ele>
        <time>2017-05-04T11:17:51Z</time>
      </trkpt>
      <trkpt lat="42.84287" lon="0.10633">
        <ele>2585</ele>
        <time>2017-05-04T11:17:56Z</time>
      </trkpt>
      <trkpt lat="42.84291" lon="0.10634">
        <ele>2584</ele>
        <time>2017-05-04T11:17:58Z</time>
      </trkpt>
      <trkpt lat="42.84298" lon="0.1063">
        <ele>2582</ele>
        <time>2017-05-04T11:18:03Z</time>
      </trkpt>
      <trkpt lat="42.84299" lon="0.10635">
        <ele>2581</ele>
        <time>2017-05-04T11:18:07Z</time>
      </trkpt>
      <trkpt lat="42.84303" lon="0.10635">
        <ele>2579</ele>
        <time>2017-05-04T11:18:09Z</time>
      </trkpt>
      <trkpt lat="42.84352" lon="0.10632">
        <ele>2565</ele>
        <time>2017-05-04T11:18:42Z</time>
      </trkpt>
      <trkpt lat="42.84404" lon="0.10642">
        <ele>2552</ele>
        <time>2017-05-04T11:19:12Z</time>
      </trkpt>
      <trkpt lat="42.84427" lon="0.1065">
        <ele>2548</ele>
        <time>2017-05-04T11:19:26Z</time>
      </trkpt>
      <trkpt lat="42.84427" lon="0.10654">
        <ele>2548</ele>
        <time>2017-05-04T11:19:27Z</time>
      </trkpt>
      <trkpt lat="42.8442" lon="0.10661">
        <ele>2546</ele>
        <time>2017-05-04T11:19:31Z</time>
      </trkpt>
      <trkpt lat="42.84419" lon="0.10667">
        <ele>2545</ele>
        <time>2017-05-04T11:19:33Z</time>
      </trkpt>
      <trkpt lat="42.84422" lon="0.10668">
        <ele>2545</ele>
        <time>2017-05-04T11:19:35Z</time>
      </trkpt>
      <trkpt lat="42.84431" lon="0.10667">
        <ele>2541</ele>
        <time>2017-05-04T11:19:39Z</time>
      </trkpt>
      <trkpt lat="42.84434" lon="0.1067">
        <ele>2540</ele>
        <time>2017-05-04T11:19:40Z</time>
      </trkpt>
      <trkpt lat="42.84433" lon="0.10676">
        <ele>2538</ele>
        <time>2017-05-04T11:19:42Z</time>
      </trkpt>
      <trkpt lat="42.84437" lon="0.10681">
        <ele>2537</ele>
        <time>2017-05-04T11:19:44Z</time>
      </trkpt>
      <trkpt lat="42.8445" lon="0.10687">
        <ele>2534</ele>
        <time>2017-05-04T11:19:49Z</time>
      </trkpt>
      <trkpt lat="42.84449" lon="0.1069">
        <ele>2534</ele>
        <time>2017-05-04T11:20:00Z</time>
      </trkpt>
      <trkpt lat="42.84446" lon="0.10701">
        <ele>2533</ele>
        <time>2017-05-04T11:20:04Z</time>
      </trkpt>
      <trkpt lat="42.84451" lon="0.10704">
        <ele>2531</ele>
        <time>2017-05-04T11:20:06Z</time>
      </trkpt>
      <trkpt lat="42.84459" lon="0.10705">
        <ele>2530</ele>
        <time>2017-05-04T11:20:20Z</time>
      </trkpt>
      <trkpt lat="42.84466" lon="0.10704">
        <ele>2528</ele>
        <time>2017-05-04T11:20:24Z</time>
      </trkpt>
      <trkpt lat="42.84465" lon="0.10711">
        <ele>2528</ele>
        <time>2017-05-04T11:20:26Z</time>
      </trkpt>
      <trkpt lat="42.84463" lon="0.10714">
        <ele>2526</ele>
        <time>2017-05-04T11:20:28Z</time>
      </trkpt>
      <trkpt lat="42.84463" lon="0.10718">
        <ele>2525</ele>
        <time>2017-05-04T11:20:30Z</time>
      </trkpt>
      <trkpt lat="42.84467" lon="0.10718">
        <ele>2524</ele>
        <time>2017-05-04T11:20:32Z</time>
      </trkpt>
      <trkpt lat="42.8447" lon="0.10721">
        <ele>2522</ele>
        <time>2017-05-04T11:20:34Z</time>
      </trkpt>
      <trkpt lat="42.84468" lon="0.10725">
        <ele>2522</ele>
        <time>2017-05-04T11:20:35Z</time>
      </trkpt>
      <trkpt lat="42.84465" lon="0.10729">
        <ele>2520</ele>
        <time>2017-05-04T11:20:37Z</time>
      </trkpt>
      <trkpt lat="42.84468" lon="0.10733">
        <ele>2519</ele>
        <time>2017-05-04T11:20:39Z</time>
      </trkpt>
      <trkpt lat="42.84471" lon="0.10733">
        <ele>2517</ele>
        <time>2017-05-04T11:20:41Z</time>
      </trkpt>
      <trkpt lat="42.84474" lon="0.10735">
        <ele>2516</ele>
        <time>2017-05-04T11:20:42Z</time>
      </trkpt>
      <trkpt lat="42.84474" lon="0.1074">
        <ele>2514</ele>
        <time>2017-05-04T11:20:43Z</time>
      </trkpt>
      <trkpt lat="42.84472" lon="0.10744">
        <ele>2513</ele>
        <time>2017-05-04T11:20:45Z</time>
      </trkpt>
      <trkpt lat="42.84475" lon="0.10749">
        <ele>2511</ele>
        <time>2017-05-04T11:20:47Z</time>
      </trkpt>
      <trkpt lat="42.84478" lon="0.1075">
        <ele>2510</ele>
        <time>2017-05-04T11:20:48Z</time>
      </trkpt>
      <trkpt lat="42.84479" lon="0.10754">
        <ele>2509</ele>
        <time>2017-05-04T11:20:49Z</time>
      </trkpt>
      <trkpt lat="42.84478" lon="0.10759">
        <ele>2508</ele>
        <time>2017-05-04T11:20:51Z</time>
      </trkpt>
      <trkpt lat="42.8448" lon="0.10764">
        <ele>2507</ele>
        <time>2017-05-04T11:20:53Z</time>
      </trkpt>
      <trkpt lat="42.84483" lon="0.10763">
        <ele>2507</ele>
        <time>2017-05-04T11:21:01Z</time>
      </trkpt>
      <trkpt lat="42.84497" lon="0.10771">
        <ele>2506</ele>
        <time>2017-05-04T11:21:09Z</time>
      </trkpt>
      <trkpt lat="42.84497" lon="0.10783">
        <ele>2504</ele>
        <time>2017-05-04T11:21:13Z</time>
      </trkpt>
      <trkpt lat="42.84504" lon="0.1079">
        <ele>2502</ele>
        <time>2017-05-04T11:21:16Z</time>
      </trkpt>
      <trkpt lat="42.84524" lon="0.10812">
        <ele>2496</ele>
        <time>2017-05-04T11:21:22Z</time>
      </trkpt>
      <trkpt lat="42.84543" lon="0.10853">
        <ele>2490</ele>
        <time>2017-05-04T11:21:32Z</time>
      </trkpt>
      <trkpt lat="42.84546" lon="0.10862">
        <ele>2490</ele>
        <time>2017-05-04T11:21:46Z</time>
      </trkpt>
      <trkpt lat="42.84545" lon="0.10875">
        <ele>2487</ele>
        <time>2017-05-04T11:21:49Z</time>
      </trkpt>
      <trkpt lat="42.84549" lon="0.1088">
        <ele>2485</ele>
        <time>2017-05-04T11:21:51Z</time>
      </trkpt>
      <trkpt lat="42.84557" lon="0.10877">
        <ele>2483</ele>
        <time>2017-05-04T11:21:54Z</time>
      </trkpt>
      <trkpt lat="42.84558" lon="0.10881">
        <ele>2483</ele>
        <time>2017-05-04T11:21:55Z</time>
      </trkpt>
      <trkpt lat="42.8456" lon="0.10886">
        <ele>2481</ele>
        <time>2017-05-04T11:21:57Z</time>
      </trkpt>
      <trkpt lat="42.84565" lon="0.10884">
        <ele>2480</ele>
        <time>2017-05-04T11:21:59Z</time>
      </trkpt>
      <trkpt lat="42.84567" lon="0.10892">
        <ele>2476</ele>
        <time>2017-05-04T11:22:53Z</time>
      </trkpt>
      <trkpt lat="42.84567" lon="0.10899">
        <ele>2474</ele>
        <time>2017-05-04T11:22:55Z</time>
      </trkpt>
      <trkpt lat="42.8457" lon="0.109">
        <ele>2473</ele>
        <time>2017-05-04T11:22:56Z</time>
      </trkpt>
      <trkpt lat="42.84597" lon="0.10895">
        <ele>2466</ele>
        <time>2017-05-04T11:23:05Z</time>
      </trkpt>
      <trkpt lat="42.84603" lon="0.10888">
        <ele>2465</ele>
        <time>2017-05-04T11:23:11Z</time>
      </trkpt>
      <trkpt lat="42.84603" lon="0.10887">
        <ele>2468</ele>
        <time>2017-05-04T11:29:52Z</time>
      </trkpt>
      <trkpt lat="42.84611" lon="0.10882">
        <ele>2467</ele>
        <time>2017-05-04T11:29:56Z</time>
      </trkpt>
      <trkpt lat="42.84629" lon="0.1087">
        <ele>2461</ele>
        <time>2017-05-04T11:30:01Z</time>
      </trkpt>
      <trkpt lat="42.84633" lon="0.1087">
        <ele>2461</ele>
        <time>2017-05-04T11:30:02Z</time>
      </trkpt>
      <trkpt lat="42.84636" lon="0.10868">
        <ele>2459</ele>
        <time>2017-05-04T11:30:03Z</time>
      </trkpt>
      <trkpt lat="42.84638" lon="0.10865">
        <ele>2458</ele>
        <time>2017-05-04T11:30:04Z</time>
      </trkpt>
      <trkpt lat="42.84642" lon="0.10864">
        <ele>2457</ele>
        <time>2017-05-04T11:30:05Z</time>
      </trkpt>
      <trkpt lat="42.84649" lon="0.10864">
        <ele>2455</ele>
        <time>2017-05-04T11:30:07Z</time>
      </trkpt>
      <trkpt lat="42.84652" lon="0.1086">
        <ele>2454</ele>
        <time>2017-05-04T11:30:09Z</time>
      </trkpt>
      <trkpt lat="42.84654" lon="0.10856">
        <ele>2453</ele>
        <time>2017-05-04T11:30:10Z</time>
      </trkpt>
      <trkpt lat="42.84657" lon="0.10855">
        <ele>2452</ele>
        <time>2017-05-04T11:30:11Z</time>
      </trkpt>
      <trkpt lat="42.84682" lon="0.10844">
        <ele>2446</ele>
        <time>2017-05-04T11:30:19Z</time>
      </trkpt>
      <trkpt lat="42.84683" lon="0.1084">
        <ele>2445</ele>
        <time>2017-05-04T11:30:20Z</time>
      </trkpt>
      <trkpt lat="42.84682" lon="0.10836">
        <ele>2445</ele>
        <time>2017-05-04T11:30:21Z</time>
      </trkpt>
      <trkpt lat="42.84682" lon="0.10832">
        <ele>2443</ele>
        <time>2017-05-04T11:30:22Z</time>
      </trkpt>
      <trkpt lat="42.84684" lon="0.10827">
        <ele>2442</ele>
        <time>2017-05-04T11:30:23Z</time>
      </trkpt>
      <trkpt lat="42.84691" lon="0.10822">
        <ele>2440</ele>
        <time>2017-05-04T11:30:26Z</time>
      </trkpt>
      <trkpt lat="42.84692" lon="0.10812">
        <ele>2439</ele>
        <time>2017-05-04T11:30:28Z</time>
      </trkpt>
      <trkpt lat="42.84697" lon="0.10795">
        <ele>2436</ele>
        <time>2017-05-04T11:30:31Z</time>
      </trkpt>
      <trkpt lat="42.84703" lon="0.10778">
        <ele>2434</ele>
        <time>2017-05-04T11:30:45Z</time>
      </trkpt>
      <trkpt lat="42.84707" lon="0.10778">
        <ele>2432</ele>
        <time>2017-05-04T11:30:46Z</time>
      </trkpt>
      <trkpt lat="42.84712" lon="0.10783">
        <ele>2430</ele>
        <time>2017-05-04T11:30:48Z</time>
      </trkpt>
      <trkpt lat="42.84716" lon="0.10783">
        <ele>2429</ele>
        <time>2017-05-04T11:30:49Z</time>
      </trkpt>
      <trkpt lat="42.84718" lon="0.10779">
        <ele>2428</ele>
        <time>2017-05-04T11:30:50Z</time>
      </trkpt>
      <trkpt lat="42.84727" lon="0.10755">
        <ele>2424</ele>
        <time>2017-05-04T11:32:31Z</time>
      </trkpt>
      <trkpt lat="42.84748" lon="0.10705">
        <ele>2418</ele>
        <time>2017-05-04T11:32:50Z</time>
      </trkpt>
      <trkpt lat="42.84751" lon="0.10697">
        <ele>2417</ele>
        <time>2017-05-04T11:32:54Z</time>
      </trkpt>
      <trkpt lat="42.84751" lon="0.10693">
        <ele>2417</ele>
        <time>2017-05-04T11:33:05Z</time>
      </trkpt>
      <trkpt lat="42.84752" lon="0.1069">
        <ele>2416</ele>
        <time>2017-05-04T11:33:25Z</time>
      </trkpt>
      <trkpt lat="42.84756" lon="0.10688">
        <ele>2415</ele>
        <time>2017-05-04T11:33:27Z</time>
      </trkpt>
      <trkpt lat="42.8476" lon="0.10694">
        <ele>2414</ele>
        <time>2017-05-04T11:33:30Z</time>
      </trkpt>
      <trkpt lat="42.84763" lon="0.10691">
        <ele>2413</ele>
        <time>2017-05-04T11:33:32Z</time>
      </trkpt>
      <trkpt lat="42.84766" lon="0.10693">
        <ele>2411</ele>
        <time>2017-05-04T11:33:34Z</time>
      </trkpt>
      <trkpt lat="42.84769" lon="0.10697">
        <ele>2409</ele>
        <time>2017-05-04T11:33:36Z</time>
      </trkpt>
      <trkpt lat="42.84771" lon="0.10695">
        <ele>2408</ele>
        <time>2017-05-04T11:33:37Z</time>
      </trkpt>
      <trkpt lat="42.84777" lon="0.10687">
        <ele>2406</ele>
        <time>2017-05-04T11:33:40Z</time>
      </trkpt>
      <trkpt lat="42.84779" lon="0.10687">
        <ele>2405</ele>
        <time>2017-05-04T11:33:42Z</time>
      </trkpt>
      <trkpt lat="42.84781" lon="0.10692">
        <ele>2403</ele>
        <time>2017-05-04T11:33:44Z</time>
      </trkpt>
      <trkpt lat="42.84784" lon="0.1069">
        <ele>2402</ele>
        <time>2017-05-04T11:33:45Z</time>
      </trkpt>
      <trkpt lat="42.84789" lon="0.10684">
        <ele>2400</ele>
        <time>2017-05-04T11:33:51Z</time>
      </trkpt>
      <trkpt lat="42.8479" lon="0.10676">
        <ele>2399</ele>
        <time>2017-05-04T11:33:54Z</time>
      </trkpt>
      <trkpt lat="42.84795" lon="0.10659">
        <ele>2396</ele>
        <time>2017-05-04T11:33:57Z</time>
      </trkpt>
      <trkpt lat="42.84804" lon="0.10643">
        <ele>2392</ele>
        <time>2017-05-04T11:34:01Z</time>
      </trkpt>
      <trkpt lat="42.84821" lon="0.1061">
        <ele>2386</ele>
        <time>2017-05-04T11:34:10Z</time>
      </trkpt>
      <trkpt lat="42.84836" lon="0.10589">
        <ele>2381</ele>
        <time>2017-05-04T11:34:15Z</time>
      </trkpt>
      <trkpt lat="42.84851" lon="0.10582">
        <ele>2381</ele>
        <time>2017-05-04T11:34:37Z</time>
      </trkpt>
      <trkpt lat="42.84881" lon="0.10563">
        <ele>2380</ele>
        <time>2017-05-04T11:35:22Z</time>
      </trkpt>
      <trkpt lat="42.84891" lon="0.10556">
        <ele>2378</ele>
        <time>2017-05-04T11:35:31Z</time>
      </trkpt>
      <trkpt lat="42.84903" lon="0.10547">
        <ele>2375</ele>
        <time>2017-05-04T11:35:36Z</time>
      </trkpt>
      <trkpt lat="42.84903" lon="0.10543">
        <ele>2376</ele>
        <time>2017-05-04T11:35:43Z</time>
      </trkpt>
      <trkpt lat="42.84919" lon="0.10529">
        <ele>2373</ele>
        <time>2017-05-04T11:36:13Z</time>
      </trkpt>
      <trkpt lat="42.84953" lon="0.10487">
        <ele>2371</ele>
        <time>2017-05-04T11:36:44Z</time>
      </trkpt>
      <trkpt lat="42.84952" lon="0.10484">
        <ele>2372</ele>
        <time>2017-05-04T11:40:38Z</time>
      </trkpt>
      <trkpt lat="42.84954" lon="0.1048">
        <ele>2371</ele>
        <time>2017-05-04T11:42:43Z</time>
      </trkpt>
      <trkpt lat="42.84957" lon="0.10478">
        <ele>2370</ele>
        <time>2017-05-04T11:42:47Z</time>
      </trkpt>
      <trkpt lat="42.84958" lon="0.10474">
        <ele>2369</ele>
        <time>2017-05-04T11:43:19Z</time>
      </trkpt>
      <trkpt lat="42.84964" lon="0.10467">
        <ele>2369</ele>
        <time>2017-05-04T11:43:25Z</time>
      </trkpt>
      <trkpt lat="42.84997" lon="0.10438">
        <ele>2361</ele>
        <time>2017-05-04T11:43:44Z</time>
      </trkpt>
      <trkpt lat="42.85059" lon="0.10398">
        <ele>2354</ele>
        <time>2017-05-04T11:44:17Z</time>
      </trkpt>
      <trkpt lat="42.85069" lon="0.10389">
        <ele>2351</ele>
        <time>2017-05-04T11:44:54Z</time>
      </trkpt>
      <trkpt lat="42.85077" lon="0.1038">
        <ele>2351</ele>
        <time>2017-05-04T11:45:01Z</time>
      </trkpt>
      <trkpt lat="42.85102" lon="0.10344">
        <ele>2349</ele>
        <time>2017-05-04T11:45:34Z</time>
      </trkpt>
      <trkpt lat="42.85104" lon="0.10341">
        <ele>2351</ele>
        <time>2017-05-04T11:45:42Z</time>
      </trkpt>
      <trkpt lat="42.85104" lon="0.10337">
        <ele>2351</ele>
        <time>2017-05-04T11:45:58Z</time>
      </trkpt>
      <trkpt lat="42.85106" lon="0.10334">
        <ele>2352</ele>
        <time>2017-05-04T11:46:03Z</time>
      </trkpt>
      <trkpt lat="42.85107" lon="0.1033">
        <ele>2353</ele>
        <time>2017-05-04T11:46:17Z</time>
      </trkpt>
      <trkpt lat="42.85114" lon="0.10318">
        <ele>2354</ele>
        <time>2017-05-04T11:46:39Z</time>
      </trkpt>
      <trkpt lat="42.85116" lon="0.10299">
        <ele>2354</ele>
        <time>2017-05-04T11:46:53Z</time>
      </trkpt>
      <trkpt lat="42.85118" lon="0.10297">
        <ele>2354</ele>
        <time>2017-05-04T11:47:06Z</time>
      </trkpt>
      <trkpt lat="42.85119" lon="0.10292">
        <ele>2354</ele>
        <time>2017-05-04T11:47:19Z</time>
      </trkpt>
      <trkpt lat="42.85125" lon="0.1028">
        <ele>2353</ele>
        <time>2017-05-04T11:47:23Z</time>
      </trkpt>
      <trkpt lat="42.85125" lon="0.10277">
        <ele>2353</ele>
        <time>2017-05-04T11:47:27Z</time>
      </trkpt>
      <trkpt lat="42.85125" lon="0.10273">
        <ele>2354</ele>
        <time>2017-05-04T11:47:32Z</time>
      </trkpt>
      <trkpt lat="42.85128" lon="0.10271">
        <ele>2354</ele>
        <time>2017-05-04T11:47:37Z</time>
      </trkpt>
      <trkpt lat="42.8513" lon="0.10264">
        <ele>2354</ele>
        <time>2017-05-04T11:47:47Z</time>
      </trkpt>
      <trkpt lat="42.85139" lon="0.10236">
        <ele>2353</ele>
        <time>2017-05-04T11:48:18Z</time>
      </trkpt>
      <trkpt lat="42.85145" lon="0.10225">
        <ele>2354</ele>
        <time>2017-05-04T11:48:30Z</time>
      </trkpt>
      <trkpt lat="42.85161" lon="0.10183">
        <ele>2353</ele>
        <time>2017-05-04T11:49:02Z</time>
      </trkpt>
      <trkpt lat="42.8518" lon="0.10135">
        <ele>2352</ele>
        <time>2017-05-04T11:49:33Z</time>
      </trkpt>
      <trkpt lat="42.85191" lon="0.10102">
        <ele>2349</ele>
        <time>2017-05-04T11:49:54Z</time>
      </trkpt>
      <trkpt lat="42.85203" lon="0.1007">
        <ele>2347</ele>
        <time>2017-05-04T11:50:03Z</time>
      </trkpt>
      <trkpt lat="42.85213" lon="0.10054">
        <ele>2347</ele>
        <time>2017-05-04T11:50:23Z</time>
      </trkpt>
      <trkpt lat="42.85226" lon="0.10043">
        <ele>2347</ele>
        <time>2017-05-04T11:50:55Z</time>
      </trkpt>
      <trkpt lat="42.85238" lon="0.10033">
        <ele>2346</ele>
        <time>2017-05-04T11:51:07Z</time>
      </trkpt>
      <trkpt lat="42.85246" lon="0.10022">
        <ele>2346</ele>
        <time>2017-05-04T11:51:25Z</time>
      </trkpt>
      <trkpt lat="42.85254" lon="0.10014">
        <ele>2345</ele>
        <time>2017-05-04T11:51:34Z</time>
      </trkpt>
      <trkpt lat="42.8527" lon="0.09999">
        <ele>2345</ele>
        <time>2017-05-04T11:51:59Z</time>
      </trkpt>
      <trkpt lat="42.85281" lon="0.09981">
        <ele>2343</ele>
        <time>2017-05-04T11:52:07Z</time>
      </trkpt>
      <trkpt lat="42.85283" lon="0.09978">
        <ele>2342</ele>
        <time>2017-05-04T11:52:16Z</time>
      </trkpt>
      <trkpt lat="42.85288" lon="0.09955">
        <ele>2343</ele>
        <time>2017-05-04T11:52:49Z</time>
      </trkpt>
      <trkpt lat="42.85289" lon="0.09951">
        <ele>2344</ele>
        <time>2017-05-04T11:53:18Z</time>
      </trkpt>
      <trkpt lat="42.85288" lon="0.09947">
        <ele>2345</ele>
        <time>2017-05-04T11:53:29Z</time>
      </trkpt>
      <trkpt lat="42.8529" lon="0.09944">
        <ele>2347</ele>
        <time>2017-05-04T11:53:34Z</time>
      </trkpt>
      <trkpt lat="42.85294" lon="0.09938">
        <ele>2347</ele>
        <time>2017-05-04T11:53:44Z</time>
      </trkpt>
      <trkpt lat="42.85303" lon="0.09932">
        <ele>2347</ele>
        <time>2017-05-04T11:53:54Z</time>
      </trkpt>
      <trkpt lat="42.85308" lon="0.09928">
        <ele>2348</ele>
        <time>2017-05-04T11:54:07Z</time>
      </trkpt>
      <trkpt lat="42.85309" lon="0.09931">
        <ele>2346</ele>
        <time>2017-05-04T11:55:33Z</time>
      </trkpt>
      <trkpt lat="42.85314" lon="0.09936">
        <ele>2345</ele>
        <time>2017-05-04T11:55:37Z</time>
      </trkpt>
      <trkpt lat="42.85317" lon="0.09939">
        <ele>2344</ele>
        <time>2017-05-04T11:55:58Z</time>
      </trkpt>
      <trkpt lat="42.85324" lon="0.09956">
        <ele>2341</ele>
        <time>2017-05-04T11:56:05Z</time>
      </trkpt>
      <trkpt lat="42.85328" lon="0.09957">
        <ele>2340</ele>
        <time>2017-05-04T11:56:07Z</time>
      </trkpt>
      <trkpt lat="42.8534" lon="0.0996">
        <ele>2338</ele>
        <time>2017-05-04T11:56:13Z</time>
      </trkpt>
      <trkpt lat="42.85343" lon="0.09964">
        <ele>2336</ele>
        <time>2017-05-04T11:56:15Z</time>
      </trkpt>
      <trkpt lat="42.85346" lon="0.09962">
        <ele>2335</ele>
        <time>2017-05-04T11:56:17Z</time>
      </trkpt>
      <trkpt lat="42.85353" lon="0.09966">
        <ele>2332</ele>
        <time>2017-05-04T11:56:21Z</time>
      </trkpt>
      <trkpt lat="42.85358" lon="0.09963">
        <ele>2331</ele>
        <time>2017-05-04T11:56:23Z</time>
      </trkpt>
      <trkpt lat="42.8536" lon="0.09967">
        <ele>2329</ele>
        <time>2017-05-04T11:56:25Z</time>
      </trkpt>
      <trkpt lat="42.85363" lon="0.09968">
        <ele>2329</ele>
        <time>2017-05-04T11:56:26Z</time>
      </trkpt>
      <trkpt lat="42.85369" lon="0.09963">
        <ele>2327</ele>
        <time>2017-05-04T11:56:28Z</time>
      </trkpt>
      <trkpt lat="42.85372" lon="0.09956">
        <ele>2325</ele>
        <time>2017-05-04T11:56:31Z</time>
      </trkpt>
      <trkpt lat="42.85376" lon="0.09955">
        <ele>2324</ele>
        <time>2017-05-04T11:57:14Z</time>
      </trkpt>
      <trkpt lat="42.85379" lon="0.09954">
        <ele>2323</ele>
        <time>2017-05-04T11:57:15Z</time>
      </trkpt>
      <trkpt lat="42.85382" lon="0.09955">
        <ele>2323</ele>
        <time>2017-05-04T11:57:16Z</time>
      </trkpt>
      <trkpt lat="42.85385" lon="0.09957">
        <ele>2321</ele>
        <time>2017-05-04T11:57:18Z</time>
      </trkpt>
      <trkpt lat="42.85386" lon="0.09952">
        <ele>2321</ele>
        <time>2017-05-04T11:57:20Z</time>
      </trkpt>
      <trkpt lat="42.85389" lon="0.0995">
        <ele>2319</ele>
        <time>2017-05-04T11:57:21Z</time>
      </trkpt>
      <trkpt lat="42.85393" lon="0.09953">
        <ele>2318</ele>
        <time>2017-05-04T11:57:23Z</time>
      </trkpt>
      <trkpt lat="42.85395" lon="0.0995">
        <ele>2316</ele>
        <time>2017-05-04T11:57:24Z</time>
      </trkpt>
      <trkpt lat="42.85396" lon="0.09942">
        <ele>2314</ele>
        <time>2017-05-04T11:57:26Z</time>
      </trkpt>
      <trkpt lat="42.85399" lon="0.0994">
        <ele>2313</ele>
        <time>2017-05-04T11:57:27Z</time>
      </trkpt>
      <trkpt lat="42.85402" lon="0.09942">
        <ele>2311</ele>
        <time>2017-05-04T11:57:28Z</time>
      </trkpt>
      <trkpt lat="42.85408" lon="0.09941">
        <ele>2310</ele>
        <time>2017-05-04T11:57:30Z</time>
      </trkpt>
      <trkpt lat="42.85409" lon="0.09934">
        <ele>2309</ele>
        <time>2017-05-04T11:57:32Z</time>
      </trkpt>
      <trkpt lat="42.85413" lon="0.09933">
        <ele>2308</ele>
        <time>2017-05-04T11:57:34Z</time>
      </trkpt>
      <trkpt lat="42.85416" lon="0.09928">
        <ele>2307</ele>
        <time>2017-05-04T11:57:36Z</time>
      </trkpt>
      <trkpt lat="42.85417" lon="0.09923">
        <ele>2306</ele>
        <time>2017-05-04T11:57:37Z</time>
      </trkpt>
      <trkpt lat="42.85421" lon="0.09923">
        <ele>2306</ele>
        <time>2017-05-04T11:57:38Z</time>
      </trkpt>
      <trkpt lat="42.85424" lon="0.09921">
        <ele>2304</ele>
        <time>2017-05-04T11:57:40Z</time>
      </trkpt>
      <trkpt lat="42.85424" lon="0.09915">
        <ele>2302</ele>
        <time>2017-05-04T11:57:42Z</time>
      </trkpt>
      <trkpt lat="42.85425" lon="0.09911">
        <ele>2301</ele>
        <time>2017-05-04T11:57:43Z</time>
      </trkpt>
      <trkpt lat="42.85432" lon="0.09911">
        <ele>2299</ele>
        <time>2017-05-04T11:57:47Z</time>
      </trkpt>
      <trkpt lat="42.85437" lon="0.09902">
        <ele>2296</ele>
        <time>2017-05-04T11:57:49Z</time>
      </trkpt>
      <trkpt lat="42.85445" lon="0.09884">
        <ele>2291</ele>
        <time>2017-05-04T11:58:26Z</time>
      </trkpt>
      <trkpt lat="42.85447" lon="0.09881">
        <ele>2288</ele>
        <time>2017-05-04T11:58:43Z</time>
      </trkpt>
      <trkpt lat="42.8545" lon="0.09874">
        <ele>2286</ele>
        <time>2017-05-04T11:58:45Z</time>
      </trkpt>
      <trkpt lat="42.8545" lon="0.09869">
        <ele>2285</ele>
        <time>2017-05-04T11:58:47Z</time>
      </trkpt>
      <trkpt lat="42.85453" lon="0.09866">
        <ele>2283</ele>
        <time>2017-05-04T11:58:49Z</time>
      </trkpt>
      <trkpt lat="42.85456" lon="0.09869">
        <ele>2282</ele>
        <time>2017-05-04T11:58:52Z</time>
      </trkpt>
      <trkpt lat="42.85458" lon="0.09866">
        <ele>2281</ele>
        <time>2017-05-04T11:58:53Z</time>
      </trkpt>
      <trkpt lat="42.8546" lon="0.09857">
        <ele>2278</ele>
        <time>2017-05-04T11:58:57Z</time>
      </trkpt>
      <trkpt lat="42.85464" lon="0.09859">
        <ele>2276</ele>
        <time>2017-05-04T11:59:00Z</time>
      </trkpt>
      <trkpt lat="42.85466" lon="0.0985">
        <ele>2272</ele>
        <time>2017-05-04T11:59:14Z</time>
      </trkpt>
      <trkpt lat="42.8547" lon="0.09847">
        <ele>2273</ele>
        <time>2017-05-04T12:00:00Z</time>
      </trkpt>
      <trkpt lat="42.85474" lon="0.09853">
        <ele>2271</ele>
        <time>2017-05-04T12:00:46Z</time>
      </trkpt>
      <trkpt lat="42.85478" lon="0.09854">
        <ele>2268</ele>
        <time>2017-05-04T12:00:49Z</time>
      </trkpt>
      <trkpt lat="42.8548" lon="0.09858">
        <ele>2266</ele>
        <time>2017-05-04T12:00:52Z</time>
      </trkpt>
      <trkpt lat="42.85483" lon="0.09858">
        <ele>2264</ele>
        <time>2017-05-04T12:00:54Z</time>
      </trkpt>
      <trkpt lat="42.85486" lon="0.09853">
        <ele>2264</ele>
        <time>2017-05-04T12:00:55Z</time>
      </trkpt>
      <trkpt lat="42.85484" lon="0.0985">
        <ele>2262</ele>
        <time>2017-05-04T12:00:56Z</time>
      </trkpt>
      <trkpt lat="42.85485" lon="0.09842">
        <ele>2259</ele>
        <time>2017-05-04T12:01:24Z</time>
      </trkpt>
      <trkpt lat="42.85488" lon="0.09844">
        <ele>2258</ele>
        <time>2017-05-04T12:01:25Z</time>
      </trkpt>
      <trkpt lat="42.85491" lon="0.09847">
        <ele>2256</ele>
        <time>2017-05-04T12:01:29Z</time>
      </trkpt>
      <trkpt lat="42.85493" lon="0.09841">
        <ele>2255</ele>
        <time>2017-05-04T12:01:31Z</time>
      </trkpt>
      <trkpt lat="42.85496" lon="0.09832">
        <ele>2251</ele>
        <time>2017-05-04T12:01:34Z</time>
      </trkpt>
      <trkpt lat="42.85495" lon="0.09827">
        <ele>2250</ele>
        <time>2017-05-04T12:01:36Z</time>
      </trkpt>
      <trkpt lat="42.8549" lon="0.09814">
        <ele>2246</ele>
        <time>2017-05-04T12:01:39Z</time>
      </trkpt>
      <trkpt lat="42.85491" lon="0.09809">
        <ele>2245</ele>
        <time>2017-05-04T12:01:41Z</time>
      </trkpt>
      <trkpt lat="42.85494" lon="0.09811">
        <ele>2244</ele>
        <time>2017-05-04T12:01:43Z</time>
      </trkpt>
      <trkpt lat="42.85497" lon="0.09814">
        <ele>2242</ele>
        <time>2017-05-04T12:01:45Z</time>
      </trkpt>
      <trkpt lat="42.855" lon="0.09812">
        <ele>2241</ele>
        <time>2017-05-04T12:02:11Z</time>
      </trkpt>
      <trkpt lat="42.85502" lon="0.09807">
        <ele>2238</ele>
        <time>2017-05-04T12:02:13Z</time>
      </trkpt>
      <trkpt lat="42.85505" lon="0.09812">
        <ele>2237</ele>
        <time>2017-05-04T12:02:15Z</time>
      </trkpt>
      <trkpt lat="42.8551" lon="0.09815">
        <ele>2234</ele>
        <time>2017-05-04T12:02:17Z</time>
      </trkpt>
      <trkpt lat="42.85513" lon="0.09813">
        <ele>2232</ele>
        <time>2017-05-04T12:02:19Z</time>
      </trkpt>
      <trkpt lat="42.85516" lon="0.0981">
        <ele>2231</ele>
        <time>2017-05-04T12:02:36Z</time>
      </trkpt>
      <trkpt lat="42.85519" lon="0.0981">
        <ele>2231</ele>
        <time>2017-05-04T12:02:37Z</time>
      </trkpt>
      <trkpt lat="42.85529" lon="0.09812">
        <ele>2230</ele>
        <time>2017-05-04T12:02:40Z</time>
      </trkpt>
      <trkpt lat="42.85536" lon="0.09806">
        <ele>2227</ele>
        <time>2017-05-04T12:02:44Z</time>
      </trkpt>
      <trkpt lat="42.85541" lon="0.09799">
        <ele>2225</ele>
        <time>2017-05-04T12:02:47Z</time>
      </trkpt>
      <trkpt lat="42.85538" lon="0.09798">
        <ele>2224</ele>
        <time>2017-05-04T12:02:57Z</time>
      </trkpt>
      <trkpt lat="42.85535" lon="0.09798">
        <ele>2222</ele>
        <time>2017-05-04T12:03:49Z</time>
      </trkpt>
      <trkpt lat="42.85532" lon="0.09796">
        <ele>2222</ele>
        <time>2017-05-04T12:03:52Z</time>
      </trkpt>
      <trkpt lat="42.85524" lon="0.09793">
        <ele>2219</ele>
        <time>2017-05-04T12:03:57Z</time>
      </trkpt>
      <trkpt lat="42.85521" lon="0.09789">
        <ele>2219</ele>
        <time>2017-05-04T12:03:59Z</time>
      </trkpt>
      <trkpt lat="42.85518" lon="0.09787">
        <ele>2219</ele>
        <time>2017-05-04T12:04:05Z</time>
      </trkpt>
      <trkpt lat="42.85518" lon="0.09781">
        <ele>2218</ele>
        <time>2017-05-04T12:04:48Z</time>
      </trkpt>
      <trkpt lat="42.85519" lon="0.09777">
        <ele>2216</ele>
        <time>2017-05-04T12:04:49Z</time>
      </trkpt>
      <trkpt lat="42.85523" lon="0.09776">
        <ele>2216</ele>
        <time>2017-05-04T12:04:50Z</time>
      </trkpt>
      <trkpt lat="42.85528" lon="0.09776">
        <ele>2214</ele>
        <time>2017-05-04T12:04:52Z</time>
      </trkpt>
      <trkpt lat="42.85529" lon="0.09771">
        <ele>2214</ele>
        <time>2017-05-04T12:04:53Z</time>
      </trkpt>
      <trkpt lat="42.85527" lon="0.09768">
        <ele>2213</ele>
        <time>2017-05-04T12:04:54Z</time>
      </trkpt>
      <trkpt lat="42.85526" lon="0.09757">
        <ele>2210</ele>
        <time>2017-05-04T12:04:57Z</time>
      </trkpt>
      <trkpt lat="42.85529" lon="0.09755">
        <ele>2209</ele>
        <time>2017-05-04T12:04:58Z</time>
      </trkpt>
      <trkpt lat="42.85537" lon="0.09757">
        <ele>2207</ele>
        <time>2017-05-04T12:05:01Z</time>
      </trkpt>
      <trkpt lat="42.85538" lon="0.09753">
        <ele>2206</ele>
        <time>2017-05-04T12:05:02Z</time>
      </trkpt>
      <trkpt lat="42.85554" lon="0.09718">
        <ele>2196</ele>
        <time>2017-05-04T12:05:10Z</time>
      </trkpt>
      <trkpt lat="42.85576" lon="0.09692">
        <ele>2188</ele>
        <time>2017-05-04T12:05:29Z</time>
      </trkpt>
      <trkpt lat="42.85579" lon="0.09691">
        <ele>2188</ele>
        <time>2017-05-04T12:05:30Z</time>
      </trkpt>
      <trkpt lat="42.85584" lon="0.09682">
        <ele>2185</ele>
        <time>2017-05-04T12:05:33Z</time>
      </trkpt>
      <trkpt lat="42.8559" lon="0.09669">
        <ele>2183</ele>
        <time>2017-05-04T12:05:36Z</time>
      </trkpt>
      <trkpt lat="42.85598" lon="0.09653">
        <ele>2179</ele>
        <time>2017-05-04T12:05:40Z</time>
      </trkpt>
      <trkpt lat="42.85608" lon="0.09649">
        <ele>2177</ele>
        <time>2017-05-04T12:05:43Z</time>
      </trkpt>
      <trkpt lat="42.85609" lon="0.09645">
        <ele>2175</ele>
        <time>2017-05-04T12:05:49Z</time>
      </trkpt>
      <trkpt lat="42.8563" lon="0.0965">
        <ele>2173</ele>
        <time>2017-05-04T12:05:58Z</time>
      </trkpt>
      <trkpt lat="42.85641" lon="0.09654">
        <ele>2171</ele>
        <time>2017-05-04T12:06:01Z</time>
      </trkpt>
      <trkpt lat="42.85644" lon="0.09649">
        <ele>2172</ele>
        <time>2017-05-04T12:06:37Z</time>
      </trkpt>
      <trkpt lat="42.85645" lon="0.0964">
        <ele>2171</ele>
        <time>2017-05-04T12:06:39Z</time>
      </trkpt>
      <trkpt lat="42.85649" lon="0.09639">
        <ele>2170</ele>
        <time>2017-05-04T12:06:40Z</time>
      </trkpt>
      <trkpt lat="42.85652" lon="0.09638">
        <ele>2169</ele>
        <time>2017-05-04T12:06:41Z</time>
      </trkpt>
      <trkpt lat="42.85656" lon="0.09634">
        <ele>2166</ele>
        <time>2017-05-04T12:06:43Z</time>
      </trkpt>
      <trkpt lat="42.85669" lon="0.09617">
        <ele>2159</ele>
        <time>2017-05-04T12:06:48Z</time>
      </trkpt>
      <trkpt lat="42.85673" lon="0.09615">
        <ele>2159</ele>
        <time>2017-05-04T12:06:49Z</time>
      </trkpt>
      <trkpt lat="42.85681" lon="0.09621">
        <ele>2156</ele>
        <time>2017-05-04T12:09:20Z</time>
      </trkpt>
      <trkpt lat="42.8569" lon="0.0962">
        <ele>2143</ele>
        <time>2017-05-04T12:09:52Z</time>
      </trkpt>
      <trkpt lat="42.85697" lon="0.09622">
        <ele>2142</ele>
        <time>2017-05-04T12:10:03Z</time>
      </trkpt>
      <trkpt lat="42.85703" lon="0.09618">
        <ele>2150</ele>
        <time>2017-05-04T12:10:15Z</time>
      </trkpt>
      <trkpt lat="42.85711" lon="0.09621">
        <ele>2150</ele>
        <time>2017-05-04T12:10:27Z</time>
      </trkpt>
      <trkpt lat="42.85722" lon="0.09618">
        <ele>2154</ele>
        <time>2017-05-04T12:10:50Z</time>
      </trkpt>
      <trkpt lat="42.85726" lon="0.09613">
        <ele>2154</ele>
        <time>2017-05-04T12:10:54Z</time>
      </trkpt>
      <trkpt lat="42.85742" lon="0.09609">
        <ele>2150</ele>
        <time>2017-05-04T12:11:00Z</time>
      </trkpt>
      <trkpt lat="42.85749" lon="0.09598">
        <ele>2150</ele>
        <time>2017-05-04T12:11:05Z</time>
      </trkpt>
      <trkpt lat="42.85754" lon="0.09588">
        <ele>2149</ele>
        <time>2017-05-04T12:11:09Z</time>
      </trkpt>
      <trkpt lat="42.85759" lon="0.09586">
        <ele>2147</ele>
        <time>2017-05-04T12:11:12Z</time>
      </trkpt>
      <trkpt lat="42.85761" lon="0.09573">
        <ele>2144</ele>
        <time>2017-05-04T12:11:15Z</time>
      </trkpt>
      <trkpt lat="42.85761" lon="0.09562">
        <ele>2142</ele>
        <time>2017-05-04T12:11:16Z</time>
      </trkpt>
      <trkpt lat="42.85772" lon="0.09543">
        <ele>2139</ele>
        <time>2017-05-04T12:11:19Z</time>
      </trkpt>
      <trkpt lat="42.85798" lon="0.09511">
        <ele>2140</ele>
        <time>2017-05-04T12:11:30Z</time>
      </trkpt>
      <trkpt lat="42.85814" lon="0.09477">
        <ele>2138</ele>
        <time>2017-05-04T12:11:52Z</time>
      </trkpt>
      <trkpt lat="42.85824" lon="0.09471">
        <ele>2138</ele>
        <time>2017-05-04T12:11:58Z</time>
      </trkpt>
      <trkpt lat="42.85849" lon="0.09456">
        <ele>2138</ele>
        <time>2017-05-04T12:12:30Z</time>
      </trkpt>
      <trkpt lat="42.85852" lon="0.09454">
        <ele>2137</ele>
        <time>2017-05-04T12:12:36Z</time>
      </trkpt>
      <trkpt lat="42.85853" lon="0.09451">
        <ele>2137</ele>
        <time>2017-05-04T12:12:40Z</time>
      </trkpt>
      <trkpt lat="42.85877" lon="0.09432">
        <ele>2133</ele>
        <time>2017-05-04T12:13:06Z</time>
      </trkpt>
      <trkpt lat="42.85888" lon="0.0942">
        <ele>2132</ele>
        <time>2017-05-04T12:13:09Z</time>
      </trkpt>
      <trkpt lat="42.85894" lon="0.0942">
        <ele>2135</ele>
        <time>2017-05-04T12:13:30Z</time>
      </trkpt>
      <trkpt lat="42.85904" lon="0.09408">
        <ele>2136</ele>
        <time>2017-05-04T12:13:43Z</time>
      </trkpt>
      <trkpt lat="42.85906" lon="0.09407">
        <ele>2135</ele>
        <time>2017-05-04T12:13:45Z</time>
      </trkpt>
      <trkpt lat="42.85914" lon="0.09395">
        <ele>2134</ele>
        <time>2017-05-04T12:13:55Z</time>
      </trkpt>
      <trkpt lat="42.85922" lon="0.09373">
        <ele>2130</ele>
        <time>2017-05-04T12:14:07Z</time>
      </trkpt>
      <trkpt lat="42.85922" lon="0.09367">
        <ele>2130</ele>
        <time>2017-05-04T12:14:29Z</time>
      </trkpt>
      <trkpt lat="42.85923" lon="0.09362">
        <ele>2129</ele>
        <time>2017-05-04T12:14:33Z</time>
      </trkpt>
      <trkpt lat="42.85923" lon="0.09359">
        <ele>2128</ele>
        <time>2017-05-04T12:14:42Z</time>
      </trkpt>
      <trkpt lat="42.85922" lon="0.09355">
        <ele>2131</ele>
        <time>2017-05-04T12:15:31Z</time>
      </trkpt>
      <trkpt lat="42.85925" lon="0.0935">
        <ele>2132</ele>
        <time>2017-05-04T12:15:35Z</time>
      </trkpt>
      <trkpt lat="42.85927" lon="0.09348">
        <ele>2131</ele>
        <time>2017-05-04T12:15:38Z</time>
      </trkpt>
      <trkpt lat="42.85928" lon="0.09342">
        <ele>2131</ele>
        <time>2017-05-04T12:15:50Z</time>
      </trkpt>
      <trkpt lat="42.85931" lon="0.09342">
        <ele>2129</ele>
        <time>2017-05-04T12:15:57Z</time>
      </trkpt>
      <trkpt lat="42.85936" lon="0.09329">
        <ele>2127</ele>
        <time>2017-05-04T12:16:00Z</time>
      </trkpt>
      <trkpt lat="42.85946" lon="0.0931">
        <ele>2119</ele>
        <time>2017-05-04T12:16:39Z</time>
      </trkpt>
      <trkpt lat="42.85949" lon="0.09295">
        <ele>2116</ele>
        <time>2017-05-04T12:16:49Z</time>
      </trkpt>
      <trkpt lat="42.85951" lon="0.09289">
        <ele>2116</ele>
        <time>2017-05-04T12:16:59Z</time>
      </trkpt>
      <trkpt lat="42.85953" lon="0.09286">
        <ele>2118</ele>
        <time>2017-05-04T12:17:04Z</time>
      </trkpt>
      <trkpt lat="42.85954" lon="0.09281">
        <ele>2120</ele>
        <time>2017-05-04T12:17:09Z</time>
      </trkpt>
      <trkpt lat="42.85952" lon="0.09273">
        <ele>2117</ele>
        <time>2017-05-04T12:17:16Z</time>
      </trkpt>
      <trkpt lat="42.85953" lon="0.09263">
        <ele>2118</ele>
        <time>2017-05-04T12:17:25Z</time>
      </trkpt>
      <trkpt lat="42.85952" lon="0.0926">
        <ele>2118</ele>
        <time>2017-05-04T12:17:27Z</time>
      </trkpt>
      <trkpt lat="42.85951" lon="0.09237">
        <ele>2115</ele>
        <time>2017-05-04T12:17:48Z</time>
      </trkpt>
      <trkpt lat="42.85942" lon="0.0922">
        <ele>2113</ele>
        <time>2017-05-04T12:17:53Z</time>
      </trkpt>
      <trkpt lat="42.85933" lon="0.09208">
        <ele>2111</ele>
        <time>2017-05-04T12:17:57Z</time>
      </trkpt>
      <trkpt lat="42.85933" lon="0.09203">
        <ele>2111</ele>
        <time>2017-05-04T12:17:58Z</time>
      </trkpt>
      <trkpt lat="42.85934" lon="0.09199">
        <ele>2110</ele>
        <time>2017-05-04T12:17:59Z</time>
      </trkpt>
      <trkpt lat="42.85942" lon="0.09183">
        <ele>2108</ele>
        <time>2017-05-04T12:18:02Z</time>
      </trkpt>
      <trkpt lat="42.85964" lon="0.09153">
        <ele>2111</ele>
        <time>2017-05-04T12:18:33Z</time>
      </trkpt>
      <trkpt lat="42.85963" lon="0.09148">
        <ele>2111</ele>
        <time>2017-05-04T12:18:45Z</time>
      </trkpt>
      <trkpt lat="42.85966" lon="0.09146">
        <ele>2109</ele>
        <time>2017-05-04T12:19:13Z</time>
      </trkpt>
      <trkpt lat="42.85972" lon="0.09144">
        <ele>2105</ele>
        <time>2017-05-04T12:19:27Z</time>
      </trkpt>
      <trkpt lat="42.85975" lon="0.09143">
        <ele>2104</ele>
        <time>2017-05-04T12:19:42Z</time>
      </trkpt>
      <trkpt lat="42.85989" lon="0.09128">
        <ele>2101</ele>
        <time>2017-05-04T12:19:55Z</time>
      </trkpt>
      <trkpt lat="42.85993" lon="0.09126">
        <ele>2101</ele>
        <time>2017-05-04T12:20:10Z</time>
      </trkpt>
      <trkpt lat="42.85997" lon="0.09129">
        <ele>2100</ele>
        <time>2017-05-04T12:20:16Z</time>
      </trkpt>
      <trkpt lat="42.86001" lon="0.09131">
        <ele>2100</ele>
        <time>2017-05-04T12:20:19Z</time>
      </trkpt>
      <trkpt lat="42.86016" lon="0.09143">
        <ele>2094</ele>
        <time>2017-05-04T12:20:46Z</time>
      </trkpt>
      <trkpt lat="42.86022" lon="0.09141">
        <ele>2095</ele>
        <time>2017-05-04T12:20:59Z</time>
      </trkpt>
      <trkpt lat="42.86026" lon="0.09145">
        <ele>2096</ele>
        <time>2017-05-04T12:21:19Z</time>
      </trkpt>
      <trkpt lat="42.86029" lon="0.09146">
        <ele>2105</ele>
        <time>2017-05-04T12:22:46Z</time>
      </trkpt>
      <trkpt lat="42.86031" lon="0.09148">
        <ele>2109</ele>
        <time>2017-05-04T12:25:40Z</time>
      </trkpt>
      <trkpt lat="42.86034" lon="0.09148">
        <ele>2104</ele>
        <time>2017-05-04T12:25:57Z</time>
      </trkpt>
      <trkpt lat="42.86036" lon="0.09145">
        <ele>2103</ele>
        <time>2017-05-04T12:26:00Z</time>
      </trkpt>
      <trkpt lat="42.86038" lon="0.09142">
        <ele>2104</ele>
        <time>2017-05-04T12:26:07Z</time>
      </trkpt>
      <trkpt lat="42.86043" lon="0.0914">
        <ele>2106</ele>
        <time>2017-05-04T12:26:22Z</time>
      </trkpt>
      <trkpt lat="42.86046" lon="0.09142">
        <ele>2107</ele>
        <time>2017-05-04T12:26:28Z</time>
      </trkpt>
      <trkpt lat="42.86048" lon="0.09139">
        <ele>2110</ele>
        <time>2017-05-04T12:26:36Z</time>
      </trkpt>
      <trkpt lat="42.86047" lon="0.09134">
        <ele>2111</ele>
        <time>2017-05-04T12:26:42Z</time>
      </trkpt>
      <trkpt lat="42.86048" lon="0.0913">
        <ele>2112</ele>
        <time>2017-05-04T12:26:47Z</time>
      </trkpt>
      <trkpt lat="42.86046" lon="0.09127">
        <ele>2112</ele>
        <time>2017-05-04T12:26:51Z</time>
      </trkpt>
      <trkpt lat="42.86047" lon="0.09123">
        <ele>2113</ele>
        <time>2017-05-04T12:26:57Z</time>
      </trkpt>
      <trkpt lat="42.8605" lon="0.09123">
        <ele>2113</ele>
        <time>2017-05-04T12:27:04Z</time>
      </trkpt>
      <trkpt lat="42.86052" lon="0.09121">
        <ele>2114</ele>
        <time>2017-05-04T12:27:12Z</time>
      </trkpt>
      <trkpt lat="42.86054" lon="0.09118">
        <ele>2114</ele>
        <time>2017-05-04T12:27:20Z</time>
      </trkpt>
      <trkpt lat="42.86057" lon="0.09116">
        <ele>2117</ele>
        <time>2017-05-04T12:27:30Z</time>
      </trkpt>
      <trkpt lat="42.8606" lon="0.09116">
        <ele>2117</ele>
        <time>2017-05-04T12:27:39Z</time>
      </trkpt>
      <trkpt lat="42.86061" lon="0.09112">
        <ele>2119</ele>
        <time>2017-05-04T12:27:54Z</time>
      </trkpt>
      <trkpt lat="42.8606" lon="0.09108">
        <ele>2123</ele>
        <time>2017-05-04T12:28:09Z</time>
      </trkpt>
      <trkpt lat="42.8606" lon="0.09104">
        <ele>2123</ele>
        <time>2017-05-04T12:28:15Z</time>
      </trkpt>
      <trkpt lat="42.86061" lon="0.09101">
        <ele>2125</ele>
        <time>2017-05-04T12:28:22Z</time>
      </trkpt>
      <trkpt lat="42.86061" lon="0.09097">
        <ele>2126</ele>
        <time>2017-05-04T12:28:27Z</time>
      </trkpt>
      <trkpt lat="42.8606" lon="0.09093">
        <ele>2128</ele>
        <time>2017-05-04T12:28:40Z</time>
      </trkpt>
      <trkpt lat="42.86062" lon="0.09091">
        <ele>2130</ele>
        <time>2017-05-04T12:28:58Z</time>
      </trkpt>
      <trkpt lat="42.86065" lon="0.09092">
        <ele>2130</ele>
        <time>2017-05-04T12:29:02Z</time>
      </trkpt>
      <trkpt lat="42.86074" lon="0.09095">
        <ele>2133</ele>
        <time>2017-05-04T12:29:28Z</time>
      </trkpt>
      <trkpt lat="42.86072" lon="0.09092">
        <ele>2134</ele>
        <time>2017-05-04T12:29:38Z</time>
      </trkpt>
      <trkpt lat="42.86075" lon="0.0909">
        <ele>2134</ele>
        <time>2017-05-04T12:29:47Z</time>
      </trkpt>
      <trkpt lat="42.86078" lon="0.0909">
        <ele>2136</ele>
        <time>2017-05-04T12:29:54Z</time>
      </trkpt>
      <trkpt lat="42.86077" lon="0.09086">
        <ele>2137</ele>
        <time>2017-05-04T12:30:07Z</time>
      </trkpt>
      <trkpt lat="42.86076" lon="0.09082">
        <ele>2137</ele>
        <time>2017-05-04T12:30:14Z</time>
      </trkpt>
      <trkpt lat="42.86076" lon="0.09078">
        <ele>2140</ele>
        <time>2017-05-04T12:30:21Z</time>
      </trkpt>
      <trkpt lat="42.86079" lon="0.0908">
        <ele>2142</ele>
        <time>2017-05-04T12:30:49Z</time>
      </trkpt>
      <trkpt lat="42.86085" lon="0.0908">
        <ele>2144</ele>
        <time>2017-05-04T12:31:00Z</time>
      </trkpt>
      <trkpt lat="42.86088" lon="0.09078">
        <ele>2144</ele>
        <time>2017-05-04T12:31:09Z</time>
      </trkpt>
      <trkpt lat="42.86086" lon="0.09074">
        <ele>2144</ele>
        <time>2017-05-04T12:31:15Z</time>
      </trkpt>
      <trkpt lat="42.86085" lon="0.0907">
        <ele>2146</ele>
        <time>2017-05-04T12:31:21Z</time>
      </trkpt>
      <trkpt lat="42.86087" lon="0.09067">
        <ele>2146</ele>
        <time>2017-05-04T12:31:28Z</time>
      </trkpt>
      <trkpt lat="42.8609" lon="0.09069">
        <ele>2146</ele>
        <time>2017-05-04T12:31:33Z</time>
      </trkpt>
      <trkpt lat="42.86093" lon="0.09068">
        <ele>2148</ele>
        <time>2017-05-04T12:31:43Z</time>
      </trkpt>
      <trkpt lat="42.86093" lon="0.09064">
        <ele>2149</ele>
        <time>2017-05-04T12:31:47Z</time>
      </trkpt>
      <trkpt lat="42.86088" lon="0.09057">
        <ele>2150</ele>
        <time>2017-05-04T12:32:29Z</time>
      </trkpt>
      <trkpt lat="42.86088" lon="0.09053">
        <ele>2150</ele>
        <time>2017-05-04T12:32:34Z</time>
      </trkpt>
      <trkpt lat="42.86091" lon="0.09048">
        <ele>2161</ele>
        <time>2017-05-04T12:35:36Z</time>
      </trkpt>
    </trkseg>
  </trk>
  <trk>
    <name><![CDATA[4 mai 2017]]></name>
    <cmt><![CDATA[08:02:21]]></cmt>
    <desc><![CDATA[comment ...]]></desc>
    <trkseg>
      <trkpt lat="42.86005" lon="0.09118">
        <ele>2102</ele>
        <time>2017-05-04T06:02:18Z</time>
      </trkpt>
      <trkpt lat="42.86005" lon="0.09118">
        <ele>2102</ele>
        <time>2017-05-04T06:02:19Z</time>
      </trkpt>
      <trkpt lat="42.85997" lon="0.09131">
        <ele>2103</ele>
        <time>2017-05-04T06:02:42Z</time>
      </trkpt>
      <trkpt lat="42.85995" lon="0.09129">
        <ele>2108</ele>
        <time>2017-05-04T06:03:21Z</time>
      </trkpt>
      <trkpt lat="42.85989" lon="0.0913">
        <ele>2111</ele>
        <time>2017-05-04T06:03:27Z</time>
      </trkpt>
      <trkpt lat="42.85985" lon="0.09135">
        <ele>2112</ele>
        <time>2017-05-04T06:03:33Z</time>
      </trkpt>
      <trkpt lat="42.8598" lon="0.09145">
        <ele>2112</ele>
        <time>2017-05-04T06:04:10Z</time>
      </trkpt>
      <trkpt lat="42.85959" lon="0.09174">
        <ele>2108</ele>
        <time>2017-05-04T06:04:35Z</time>
      </trkpt>
      <trkpt lat="42.85956" lon="0.09188">
        <ele>2107</ele>
        <time>2017-05-04T06:04:44Z</time>
      </trkpt>
      <trkpt lat="42.85958" lon="0.09196">
        <ele>2104</ele>
        <time>2017-05-04T06:04:51Z</time>
      </trkpt>
      <trkpt lat="42.85958" lon="0.09205">
        <ele>2105</ele>
        <time>2017-05-04T06:04:58Z</time>
      </trkpt>
      <trkpt lat="42.85971" lon="0.09238">
        <ele>2107</ele>
        <time>2017-05-04T06:05:28Z</time>
      </trkpt>
      <trkpt lat="42.85978" lon="0.09253">
        <ele>2107</ele>
        <time>2017-05-04T06:05:43Z</time>
      </trkpt>
      <trkpt lat="42.85977" lon="0.09266">
        <ele>2105</ele>
        <time>2017-05-04T06:05:53Z</time>
      </trkpt>
      <trkpt lat="42.85972" lon="0.09308">
        <ele>2104</ele>
        <time>2017-05-04T06:06:25Z</time>
      </trkpt>
      <trkpt lat="42.85971" lon="0.09324">
        <ele>2104</ele>
        <time>2017-05-04T06:06:38Z</time>
      </trkpt>
      <trkpt lat="42.85971" lon="0.09328">
        <ele>2107</ele>
        <time>2017-05-04T06:08:02Z</time>
      </trkpt>
      <trkpt lat="42.85969" lon="0.09358">
        <ele>2104</ele>
        <time>2017-05-04T06:08:28Z</time>
      </trkpt>
      <trkpt lat="42.85967" lon="0.09367">
        <ele>2104</ele>
        <time>2017-05-04T06:08:38Z</time>
      </trkpt>
      <trkpt lat="42.85966" lon="0.09371">
        <ele>2105</ele>
        <time>2017-05-04T06:08:43Z</time>
      </trkpt>
      <trkpt lat="42.85961" lon="0.09386">
        <ele>2110</ele>
        <time>2017-05-04T06:09:13Z</time>
      </trkpt>
      <trkpt lat="42.85951" lon="0.0941">
        <ele>2114</ele>
        <time>2017-05-04T06:09:45Z</time>
      </trkpt>
      <trkpt lat="42.85947" lon="0.09422">
        <ele>2119</ele>
        <time>2017-05-04T06:10:04Z</time>
      </trkpt>
      <trkpt lat="42.85945" lon="0.09424">
        <ele>2119</ele>
        <time>2017-05-04T06:10:08Z</time>
      </trkpt>
      <trkpt lat="42.85942" lon="0.09426">
        <ele>2116</ele>
        <time>2017-05-04T06:10:19Z</time>
      </trkpt>
      <trkpt lat="42.85934" lon="0.09447">
        <ele>2120</ele>
        <time>2017-05-04T06:10:50Z</time>
      </trkpt>
      <trkpt lat="42.85934" lon="0.09456">
        <ele>2123</ele>
        <time>2017-05-04T06:11:02Z</time>
      </trkpt>
      <trkpt lat="42.85927" lon="0.09474">
        <ele>2130</ele>
        <time>2017-05-04T06:11:32Z</time>
      </trkpt>
      <trkpt lat="42.85923" lon="0.09498">
        <ele>2133</ele>
        <time>2017-05-04T06:11:59Z</time>
      </trkpt>
      <trkpt lat="42.85927" lon="0.09505">
        <ele>2135</ele>
        <time>2017-05-04T06:12:10Z</time>
      </trkpt>
      <trkpt lat="42.85926" lon="0.09509">
        <ele>2135</ele>
        <time>2017-05-04T06:12:16Z</time>
      </trkpt>
      <trkpt lat="42.85923" lon="0.09515">
        <ele>2137</ele>
        <time>2017-05-04T06:12:28Z</time>
      </trkpt>
      <trkpt lat="42.85927" lon="0.09522">
        <ele>2139</ele>
        <time>2017-05-04T06:12:40Z</time>
      </trkpt>
      <trkpt lat="42.85929" lon="0.09524">
        <ele>2140</ele>
        <time>2017-05-04T06:12:44Z</time>
      </trkpt>
      <trkpt lat="42.85942" lon="0.09533">
        <ele>2143</ele>
        <time>2017-05-04T06:13:10Z</time>
      </trkpt>
      <trkpt lat="42.85945" lon="0.09535">
        <ele>2144</ele>
        <time>2017-05-04T06:13:15Z</time>
      </trkpt>
      <trkpt lat="42.85945" lon="0.09539">
        <ele>2144</ele>
        <time>2017-05-04T06:13:22Z</time>
      </trkpt>
      <trkpt lat="42.85943" lon="0.09543">
        <ele>2144</ele>
        <time>2017-05-04T06:13:28Z</time>
      </trkpt>
      <trkpt lat="42.85938" lon="0.09549">
        <ele>2146</ele>
        <time>2017-05-04T06:13:44Z</time>
      </trkpt>
      <trkpt lat="42.85935" lon="0.09555">
        <ele>2147</ele>
        <time>2017-05-04T06:13:55Z</time>
      </trkpt>
      <trkpt lat="42.85939" lon="0.09562">
        <ele>2147</ele>
        <time>2017-05-04T06:14:09Z</time>
      </trkpt>
      <trkpt lat="42.85939" lon="0.09566">
        <ele>2148</ele>
        <time>2017-05-04T06:14:13Z</time>
      </trkpt>
      <trkpt lat="42.85937" lon="0.09568">
        <ele>2149</ele>
        <time>2017-05-04T06:14:18Z</time>
      </trkpt>
      <trkpt lat="42.85935" lon="0.09572">
        <ele>2150</ele>
        <time>2017-05-04T06:14:24Z</time>
      </trkpt>
      <trkpt lat="42.85933" lon="0.09579">
        <ele>2151</ele>
        <time>2017-05-04T06:14:34Z</time>
      </trkpt>
      <trkpt lat="42.85929" lon="0.09585">
        <ele>2153</ele>
        <time>2017-05-04T06:14:45Z</time>
      </trkpt>
      <trkpt lat="42.85927" lon="0.09587">
        <ele>2154</ele>
        <time>2017-05-04T06:14:51Z</time>
      </trkpt>
      <trkpt lat="42.85926" lon="0.09591">
        <ele>2154</ele>
        <time>2017-05-04T06:14:57Z</time>
      </trkpt>
      <trkpt lat="42.85927" lon="0.09603">
        <ele>2156</ele>
        <time>2017-05-04T06:15:12Z</time>
      </trkpt>
      <trkpt lat="42.85929" lon="0.09607">
        <ele>2157</ele>
        <time>2017-05-04T06:15:19Z</time>
      </trkpt>
      <trkpt lat="42.85937" lon="0.09612">
        <ele>2161</ele>
        <time>2017-05-04T06:15:38Z</time>
      </trkpt>
      <trkpt lat="42.8594" lon="0.09614">
        <ele>2162</ele>
        <time>2017-05-04T06:15:45Z</time>
      </trkpt>
      <trkpt lat="42.85941" lon="0.09619">
        <ele>2162</ele>
        <time>2017-05-04T06:15:51Z</time>
      </trkpt>
      <trkpt lat="42.8594" lon="0.09622">
        <ele>2163</ele>
        <time>2017-05-04T06:15:56Z</time>
      </trkpt>
      <trkpt lat="42.85936" lon="0.09628">
        <ele>2165</ele>
        <time>2017-05-04T06:16:07Z</time>
      </trkpt>
      <trkpt lat="42.85937" lon="0.09635">
        <ele>2165</ele>
        <time>2017-05-04T06:16:20Z</time>
      </trkpt>
      <trkpt lat="42.85938" lon="0.09639">
        <ele>2165</ele>
        <time>2017-05-04T06:16:25Z</time>
      </trkpt>
      <trkpt lat="42.85938" lon="0.09643">
        <ele>2167</ele>
        <time>2017-05-04T06:18:35Z</time>
      </trkpt>
      <trkpt lat="42.85935" lon="0.09645">
        <ele>2168</ele>
        <time>2017-05-04T06:18:40Z</time>
      </trkpt>
      <trkpt lat="42.85932" lon="0.09652">
        <ele>2169</ele>
        <time>2017-05-04T06:18:48Z</time>
      </trkpt>
      <trkpt lat="42.85927" lon="0.09659">
        <ele>2170</ele>
        <time>2017-05-04T06:22:49Z</time>
      </trkpt>
      <trkpt lat="42.85923" lon="0.09679">
        <ele>2174</ele>
        <time>2017-05-04T06:23:29Z</time>
      </trkpt>
      <trkpt lat="42.85922" lon="0.09683">
        <ele>2175</ele>
        <time>2017-05-04T06:23:33Z</time>
      </trkpt>
      <trkpt lat="42.85923" lon="0.09688">
        <ele>2175</ele>
        <time>2017-05-04T06:23:39Z</time>
      </trkpt>
      <trkpt lat="42.8592" lon="0.09691">
        <ele>2175</ele>
        <time>2017-05-04T06:23:44Z</time>
      </trkpt>
      <trkpt lat="42.85918" lon="0.09693">
        <ele>2175</ele>
        <time>2017-05-04T06:23:49Z</time>
      </trkpt>
      <trkpt lat="42.85915" lon="0.09692">
        <ele>2176</ele>
        <time>2017-05-04T06:23:55Z</time>
      </trkpt>
      <trkpt lat="42.85913" lon="0.09695">
        <ele>2177</ele>
        <time>2017-05-04T06:24:03Z</time>
      </trkpt>
      <trkpt lat="42.85913" lon="0.09704">
        <ele>2179</ele>
        <time>2017-05-04T06:24:15Z</time>
      </trkpt>
      <trkpt lat="42.85918" lon="0.09708">
        <ele>2182</ele>
        <time>2017-05-04T06:24:26Z</time>
      </trkpt>
      <trkpt lat="42.85921" lon="0.09709">
        <ele>2183</ele>
        <time>2017-05-04T06:24:31Z</time>
      </trkpt>
      <trkpt lat="42.85925" lon="0.09715">
        <ele>2185</ele>
        <time>2017-05-04T06:24:43Z</time>
      </trkpt>
      <trkpt lat="42.85928" lon="0.09717">
        <ele>2186</ele>
        <time>2017-05-04T06:25:04Z</time>
      </trkpt>
      <trkpt lat="42.8593" lon="0.09717">
        <ele>2188</ele>
        <time>2017-05-04T06:25:39Z</time>
      </trkpt>
      <trkpt lat="42.85933" lon="0.09717">
        <ele>2187</ele>
        <time>2017-05-04T06:25:59Z</time>
      </trkpt>
      <trkpt lat="42.85935" lon="0.0972">
        <ele>2187</ele>
        <time>2017-05-04T06:26:51Z</time>
      </trkpt>
      <trkpt lat="42.85945" lon="0.09728">
        <ele>2190</ele>
        <time>2017-05-04T06:27:10Z</time>
      </trkpt>
      <trkpt lat="42.85957" lon="0.09741">
        <ele>2192</ele>
        <time>2017-05-04T06:27:34Z</time>
      </trkpt>
      <trkpt lat="42.85959" lon="0.09749">
        <ele>2194</ele>
        <time>2017-05-04T06:27:43Z</time>
      </trkpt>
      <trkpt lat="42.85964" lon="0.09773">
        <ele>2198</ele>
        <time>2017-05-04T06:28:14Z</time>
      </trkpt>
      <trkpt lat="42.85973" lon="0.09799">
        <ele>2201</ele>
        <time>2017-05-04T06:28:47Z</time>
      </trkpt>
      <trkpt lat="42.85981" lon="0.09828">
        <ele>2202</ele>
        <time>2017-05-04T06:29:21Z</time>
      </trkpt>
      <trkpt lat="42.85986" lon="0.09855">
        <ele>2206</ele>
        <time>2017-05-04T06:29:52Z</time>
      </trkpt>
      <trkpt lat="42.85987" lon="0.09867">
        <ele>2207</ele>
        <time>2017-05-04T06:30:05Z</time>
      </trkpt>
      <trkpt lat="42.85985" lon="0.09875">
        <ele>2208</ele>
        <time>2017-05-04T06:30:15Z</time>
      </trkpt>
      <trkpt lat="42.8598" lon="0.0988">
        <ele>2208</ele>
        <time>2017-05-04T06:30:23Z</time>
      </trkpt>
      <trkpt lat="42.85964" lon="0.09898">
        <ele>2209</ele>
        <time>2017-05-04T06:30:53Z</time>
      </trkpt>
      <trkpt lat="42.85961" lon="0.099">
        <ele>2209</ele>
        <time>2017-05-04T06:30:57Z</time>
      </trkpt>
      <trkpt lat="42.8596" lon="0.09903">
        <ele>2211</ele>
        <time>2017-05-04T06:31:05Z</time>
      </trkpt>
      <trkpt lat="42.85961" lon="0.09907">
        <ele>2211</ele>
        <time>2017-05-04T06:31:11Z</time>
      </trkpt>
      <trkpt lat="42.85962" lon="0.0992">
        <ele>2215</ele>
        <time>2017-05-04T06:31:27Z</time>
      </trkpt>
      <trkpt lat="42.85958" lon="0.09931">
        <ele>2217</ele>
        <time>2017-05-04T06:31:41Z</time>
      </trkpt>
      <trkpt lat="42.85956" lon="0.09934">
        <ele>2217</ele>
        <time>2017-05-04T06:31:46Z</time>
      </trkpt>
      <trkpt lat="42.85954" lon="0.09934">
        <ele>2218</ele>
        <time>2017-05-04T06:31:51Z</time>
      </trkpt>
      <trkpt lat="42.85948" lon="0.09931">
        <ele>2218</ele>
        <time>2017-05-04T06:32:03Z</time>
      </trkpt>
      <trkpt lat="42.85946" lon="0.09928">
        <ele>2220</ele>
        <time>2017-05-04T06:32:09Z</time>
      </trkpt>
      <trkpt lat="42.85944" lon="0.09927">
        <ele>2220</ele>
        <time>2017-05-04T06:32:13Z</time>
      </trkpt>
      <trkpt lat="42.85927" lon="0.09924">
        <ele>2224</ele>
        <time>2017-05-04T06:32:41Z</time>
      </trkpt>
      <trkpt lat="42.85908" lon="0.09928">
        <ele>2229</ele>
        <time>2017-05-04T06:33:08Z</time>
      </trkpt>
      <trkpt lat="42.85888" lon="0.09941">
        <ele>2231</ele>
        <time>2017-05-04T06:33:42Z</time>
      </trkpt>
      <trkpt lat="42.85878" lon="0.09948">
        <ele>2236</ele>
        <time>2017-05-04T06:34:21Z</time>
      </trkpt>
      <trkpt lat="42.85875" lon="0.09947">
        <ele>2237</ele>
        <time>2017-05-04T06:34:26Z</time>
      </trkpt>
      <trkpt lat="42.85847" lon="0.09947">
        <ele>2238</ele>
        <time>2017-05-04T06:34:58Z</time>
      </trkpt>
      <trkpt lat="42.85835" lon="0.09951">
        <ele>2239</ele>
        <time>2017-05-04T06:35:12Z</time>
      </trkpt>
      <trkpt lat="42.85809" lon="0.09964">
        <ele>2236</ele>
        <time>2017-05-04T06:35:42Z</time>
      </trkpt>
      <trkpt lat="42.85784" lon="0.09979">
        <ele>2240</ele>
        <time>2017-05-04T06:36:15Z</time>
      </trkpt>
      <trkpt lat="42.85782" lon="0.09981">
        <ele>2240</ele>
        <time>2017-05-04T06:36:18Z</time>
      </trkpt>
      <trkpt lat="42.8578" lon="0.09984">
        <ele>2241</ele>
        <time>2017-05-04T06:36:24Z</time>
      </trkpt>
      <trkpt lat="42.85774" lon="0.09986">
        <ele>2243</ele>
        <time>2017-05-04T06:37:00Z</time>
      </trkpt>
      <trkpt lat="42.85742" lon="0.10002">
        <ele>2240</ele>
        <time>2017-05-04T06:37:32Z</time>
      </trkpt>
      <trkpt lat="42.85732" lon="0.10012">
        <ele>2241</ele>
        <time>2017-05-04T06:37:51Z</time>
      </trkpt>
      <trkpt lat="42.85714" lon="0.10026">
        <ele>2241</ele>
        <time>2017-05-04T06:38:21Z</time>
      </trkpt>
      <trkpt lat="42.85712" lon="0.10027">
        <ele>2242</ele>
        <time>2017-05-04T06:38:25Z</time>
      </trkpt>
      <trkpt lat="42.85709" lon="0.1003">
        <ele>2242</ele>
        <time>2017-05-04T06:38:30Z</time>
      </trkpt>
      <trkpt lat="42.85708" lon="0.10034">
        <ele>2244</ele>
        <time>2017-05-04T06:38:37Z</time>
      </trkpt>
      <trkpt lat="42.85705" lon="0.10036">
        <ele>2244</ele>
        <time>2017-05-04T06:38:42Z</time>
      </trkpt>
      <trkpt lat="42.85703" lon="0.10035">
        <ele>2245</ele>
        <time>2017-05-04T06:38:48Z</time>
      </trkpt>
      <trkpt lat="42.857" lon="0.10033">
        <ele>2246</ele>
        <time>2017-05-04T06:38:52Z</time>
      </trkpt>
      <trkpt lat="42.85692" lon="0.1003">
        <ele>2248</ele>
        <time>2017-05-04T06:39:08Z</time>
      </trkpt>
      <trkpt lat="42.85689" lon="0.10031">
        <ele>2248</ele>
        <time>2017-05-04T06:39:12Z</time>
      </trkpt>
      <trkpt lat="42.8568" lon="0.10038">
        <ele>2246</ele>
        <time>2017-05-04T06:39:26Z</time>
      </trkpt>
      <trkpt lat="42.85675" lon="0.10046">
        <ele>2247</ele>
        <time>2017-05-04T06:39:37Z</time>
      </trkpt>
      <trkpt lat="42.85671" lon="0.10056">
        <ele>2253</ele>
        <time>2017-05-04T06:39:51Z</time>
      </trkpt>
      <trkpt lat="42.85667" lon="0.10058">
        <ele>2252</ele>
        <time>2017-05-04T06:39:55Z</time>
      </trkpt>
      <trkpt lat="42.85656" lon="0.1007">
        <ele>2253</ele>
        <time>2017-05-04T06:40:13Z</time>
      </trkpt>
      <trkpt lat="42.85632" lon="0.10082">
        <ele>2251</ele>
        <time>2017-05-04T06:40:43Z</time>
      </trkpt>
      <trkpt lat="42.85606" lon="0.10099">
        <ele>2254</ele>
        <time>2017-05-04T06:41:16Z</time>
      </trkpt>
      <trkpt lat="42.856" lon="0.10102">
        <ele>2254</ele>
        <time>2017-05-04T06:41:27Z</time>
      </trkpt>
      <trkpt lat="42.85597" lon="0.10103">
        <ele>2256</ele>
        <time>2017-05-04T06:41:33Z</time>
      </trkpt>
      <trkpt lat="42.85594" lon="0.10105">
        <ele>2258</ele>
        <time>2017-05-04T06:41:40Z</time>
      </trkpt>
      <trkpt lat="42.85581" lon="0.1011">
        <ele>2261</ele>
        <time>2017-05-04T06:41:59Z</time>
      </trkpt>
      <trkpt lat="42.85579" lon="0.10109">
        <ele>2262</ele>
        <time>2017-05-04T06:42:07Z</time>
      </trkpt>
      <trkpt lat="42.85576" lon="0.10108">
        <ele>2262</ele>
        <time>2017-05-04T06:42:12Z</time>
      </trkpt>
      <trkpt lat="42.85573" lon="0.1011">
        <ele>2263</ele>
        <time>2017-05-04T06:42:17Z</time>
      </trkpt>
      <trkpt lat="42.85571" lon="0.10113">
        <ele>2263</ele>
        <time>2017-05-04T06:42:21Z</time>
      </trkpt>
      <trkpt lat="42.8557" lon="0.10118">
        <ele>2263</ele>
        <time>2017-05-04T06:42:27Z</time>
      </trkpt>
      <trkpt lat="42.85564" lon="0.10119">
        <ele>2264</ele>
        <time>2017-05-04T06:42:39Z</time>
      </trkpt>
      <trkpt lat="42.8555" lon="0.10118">
        <ele>2267</ele>
        <time>2017-05-04T06:43:06Z</time>
      </trkpt>
      <trkpt lat="42.85547" lon="0.10119">
        <ele>2267</ele>
        <time>2017-05-04T06:43:11Z</time>
      </trkpt>
      <trkpt lat="42.85534" lon="0.10126">
        <ele>2269</ele>
        <time>2017-05-04T06:43:36Z</time>
      </trkpt>
      <trkpt lat="42.8553" lon="0.10125">
        <ele>2269</ele>
        <time>2017-05-04T06:43:42Z</time>
      </trkpt>
      <trkpt lat="42.85527" lon="0.10126">
        <ele>2271</ele>
        <time>2017-05-04T06:43:49Z</time>
      </trkpt>
      <trkpt lat="42.85524" lon="0.10125">
        <ele>2271</ele>
        <time>2017-05-04T06:43:53Z</time>
      </trkpt>
      <trkpt lat="42.8552" lon="0.10131">
        <ele>2275</ele>
        <time>2017-05-04T06:44:07Z</time>
      </trkpt>
      <trkpt lat="42.85514" lon="0.10133">
        <ele>2277</ele>
        <time>2017-05-04T06:44:15Z</time>
      </trkpt>
      <trkpt lat="42.85511" lon="0.10142">
        <ele>2277</ele>
        <time>2017-05-04T06:44:33Z</time>
      </trkpt>
      <trkpt lat="42.85514" lon="0.10147">
        <ele>2280</ele>
        <time>2017-05-04T06:44:38Z</time>
      </trkpt>
      <trkpt lat="42.85515" lon="0.10151">
        <ele>2282</ele>
        <time>2017-05-04T06:44:44Z</time>
      </trkpt>
      <trkpt lat="42.85518" lon="0.10154">
        <ele>2283</ele>
        <time>2017-05-04T06:44:49Z</time>
      </trkpt>
      <trkpt lat="42.85518" lon="0.10158">
        <ele>2283</ele>
        <time>2017-05-04T06:44:56Z</time>
      </trkpt>
      <trkpt lat="42.8552" lon="0.1016">
        <ele>2282</ele>
        <time>2017-05-04T06:45:03Z</time>
      </trkpt>
      <trkpt lat="42.85519" lon="0.10163">
        <ele>2282</ele>
        <time>2017-05-04T06:45:13Z</time>
      </trkpt>
      <trkpt lat="42.85516" lon="0.10166">
        <ele>2282</ele>
        <time>2017-05-04T06:45:18Z</time>
      </trkpt>
      <trkpt lat="42.85504" lon="0.10168">
        <ele>2282</ele>
        <time>2017-05-04T06:45:38Z</time>
      </trkpt>
      <trkpt lat="42.855" lon="0.10167">
        <ele>2283</ele>
        <time>2017-05-04T06:45:46Z</time>
      </trkpt>
      <trkpt lat="42.85498" lon="0.10169">
        <ele>2283</ele>
        <time>2017-05-04T06:46:13Z</time>
      </trkpt>
      <trkpt lat="42.85491" lon="0.1017">
        <ele>2285</ele>
        <time>2017-05-04T06:46:21Z</time>
      </trkpt>
      <trkpt lat="42.85482" lon="0.10163">
        <ele>2288</ele>
        <time>2017-05-04T06:46:44Z</time>
      </trkpt>
      <trkpt lat="42.85481" lon="0.10157">
        <ele>2288</ele>
        <time>2017-05-04T06:46:54Z</time>
      </trkpt>
      <trkpt lat="42.85478" lon="0.10153">
        <ele>2291</ele>
        <time>2017-05-04T06:47:06Z</time>
      </trkpt>
      <trkpt lat="42.85475" lon="0.10151">
        <ele>2291</ele>
        <time>2017-05-04T06:47:09Z</time>
      </trkpt>
      <trkpt lat="42.85473" lon="0.10147">
        <ele>2296</ele>
        <time>2017-05-04T06:47:20Z</time>
      </trkpt>
      <trkpt lat="42.8547" lon="0.10139">
        <ele>2299</ele>
        <time>2017-05-04T06:47:42Z</time>
      </trkpt>
      <trkpt lat="42.85468" lon="0.1014">
        <ele>2299</ele>
        <time>2017-05-04T06:47:48Z</time>
      </trkpt>
      <trkpt lat="42.8546" lon="0.10145">
        <ele>2300</ele>
        <time>2017-05-04T06:48:01Z</time>
      </trkpt>
      <trkpt lat="42.85457" lon="0.10143">
        <ele>2303</ele>
        <time>2017-05-04T06:48:21Z</time>
      </trkpt>
      <trkpt lat="42.85452" lon="0.10144">
        <ele>2303</ele>
        <time>2017-05-04T06:48:46Z</time>
      </trkpt>
      <trkpt lat="42.85446" lon="0.1015">
        <ele>2303</ele>
        <time>2017-05-04T06:48:56Z</time>
      </trkpt>
      <trkpt lat="42.85444" lon="0.10154">
        <ele>2304</ele>
        <time>2017-05-04T06:49:01Z</time>
      </trkpt>
      <trkpt lat="42.85439" lon="0.10157">
        <ele>2307</ele>
        <time>2017-05-04T06:49:08Z</time>
      </trkpt>
      <trkpt lat="42.85437" lon="0.10156">
        <ele>2308</ele>
        <time>2017-05-04T06:50:00Z</time>
      </trkpt>
      <trkpt lat="42.85434" lon="0.10159">
        <ele>2308</ele>
        <time>2017-05-04T06:50:05Z</time>
      </trkpt>
      <trkpt lat="42.85432" lon="0.10161">
        <ele>2307</ele>
        <time>2017-05-04T06:50:09Z</time>
      </trkpt>
      <trkpt lat="42.85426" lon="0.10164">
        <ele>2305</ele>
        <time>2017-05-04T06:50:18Z</time>
      </trkpt>
      <trkpt lat="42.85423" lon="0.10164">
        <ele>2305</ele>
        <time>2017-05-04T06:50:48Z</time>
      </trkpt>
      <trkpt lat="42.85396" lon="0.1016">
        <ele>2304</ele>
        <time>2017-05-04T06:51:41Z</time>
      </trkpt>
      <trkpt lat="42.85386" lon="0.10162">
        <ele>2302</ele>
        <time>2017-05-04T06:51:50Z</time>
      </trkpt>
      <trkpt lat="42.85383" lon="0.10163">
        <ele>2302</ele>
        <time>2017-05-04T06:51:55Z</time>
      </trkpt>
      <trkpt lat="42.8538" lon="0.10163">
        <ele>2301</ele>
        <time>2017-05-04T06:51:58Z</time>
      </trkpt>
      <trkpt lat="42.85354" lon="0.1018">
        <ele>2306</ele>
        <time>2017-05-04T06:52:30Z</time>
      </trkpt>
      <trkpt lat="42.85344" lon="0.10184">
        <ele>2304</ele>
        <time>2017-05-04T06:52:39Z</time>
      </trkpt>
      <trkpt lat="42.85317" lon="0.10199">
        <ele>2299</ele>
        <time>2017-05-04T06:53:10Z</time>
      </trkpt>
      <trkpt lat="42.85308" lon="0.10202">
        <ele>2298</ele>
        <time>2017-05-04T06:53:21Z</time>
      </trkpt>
      <trkpt lat="42.85294" lon="0.10206">
        <ele>2303</ele>
        <time>2017-05-04T06:53:41Z</time>
      </trkpt>
      <trkpt lat="42.8529" lon="0.10208">
        <ele>2303</ele>
        <time>2017-05-04T06:53:45Z</time>
      </trkpt>
      <trkpt lat="42.85281" lon="0.10218">
        <ele>2301</ele>
        <time>2017-05-04T06:53:59Z</time>
      </trkpt>
      <trkpt lat="42.8528" lon="0.10225">
        <ele>2302</ele>
        <time>2017-05-04T06:54:06Z</time>
      </trkpt>
      <trkpt lat="42.85271" lon="0.10257">
        <ele>2302</ele>
        <time>2017-05-04T06:54:36Z</time>
      </trkpt>
      <trkpt lat="42.85257" lon="0.1029">
        <ele>2299</ele>
        <time>2017-05-04T06:55:10Z</time>
      </trkpt>
      <trkpt lat="42.85249" lon="0.10302">
        <ele>2300</ele>
        <time>2017-05-04T06:55:23Z</time>
      </trkpt>
      <trkpt lat="42.85231" lon="0.10325">
        <ele>2299</ele>
        <time>2017-05-04T06:55:54Z</time>
      </trkpt>
      <trkpt lat="42.85224" lon="0.10333">
        <ele>2302</ele>
        <time>2017-05-04T06:56:09Z</time>
      </trkpt>
      <trkpt lat="42.85207" lon="0.10341">
        <ele>2304</ele>
        <time>2017-05-04T06:56:31Z</time>
      </trkpt>
      <trkpt lat="42.85204" lon="0.1034">
        <ele>2309</ele>
        <time>2017-05-04T06:57:01Z</time>
      </trkpt>
      <trkpt lat="42.85195" lon="0.10343">
        <ele>2310</ele>
        <time>2017-05-04T06:57:25Z</time>
      </trkpt>
      <trkpt lat="42.85177" lon="0.10349">
        <ele>2313</ele>
        <time>2017-05-04T06:57:57Z</time>
      </trkpt>
      <trkpt lat="42.85165" lon="0.10352">
        <ele>2318</ele>
        <time>2017-05-04T06:58:24Z</time>
      </trkpt>
      <trkpt lat="42.85162" lon="0.10355">
        <ele>2319</ele>
        <time>2017-05-04T06:58:33Z</time>
      </trkpt>
      <trkpt lat="42.85154" lon="0.10362">
        <ele>2320</ele>
        <time>2017-05-04T06:58:54Z</time>
      </trkpt>
      <trkpt lat="42.85151" lon="0.10363">
        <ele>2320</ele>
        <time>2017-05-04T06:58:58Z</time>
      </trkpt>
      <trkpt lat="42.85145" lon="0.10369">
        <ele>2321</ele>
        <time>2017-05-04T06:59:11Z</time>
      </trkpt>
      <trkpt lat="42.85144" lon="0.10373">
        <ele>2321</ele>
        <time>2017-05-04T06:59:25Z</time>
      </trkpt>
      <trkpt lat="42.85145" lon="0.10368">
        <ele>2328</ele>
        <time>2017-05-04T07:02:36Z</time>
      </trkpt>
      <trkpt lat="42.85144" lon="0.10363">
        <ele>2328</ele>
        <time>2017-05-04T07:02:41Z</time>
      </trkpt>
      <trkpt lat="42.85149" lon="0.1035">
        <ele>2336</ele>
        <time>2017-05-04T07:03:04Z</time>
      </trkpt>
      <trkpt lat="42.85152" lon="0.10345">
        <ele>2337</ele>
        <time>2017-05-04T07:03:21Z</time>
      </trkpt>
      <trkpt lat="42.85151" lon="0.1034">
        <ele>2344</ele>
        <time>2017-05-04T07:04:06Z</time>
      </trkpt>
      <trkpt lat="42.85148" lon="0.10342">
        <ele>2344</ele>
        <time>2017-05-04T07:04:29Z</time>
      </trkpt>
      <trkpt lat="42.85131" lon="0.10349">
        <ele>2343</ele>
        <time>2017-05-04T07:05:02Z</time>
      </trkpt>
      <trkpt lat="42.85123" lon="0.10355">
        <ele>2345</ele>
        <time>2017-05-04T07:05:21Z</time>
      </trkpt>
      <trkpt lat="42.85118" lon="0.10358">
        <ele>2346</ele>
        <time>2017-05-04T07:05:33Z</time>
      </trkpt>
      <trkpt lat="42.85107" lon="0.10371">
        <ele>2348</ele>
        <time>2017-05-04T07:06:02Z</time>
      </trkpt>
      <trkpt lat="42.85097" lon="0.10381">
        <ele>2350</ele>
        <time>2017-05-04T07:06:24Z</time>
      </trkpt>
      <trkpt lat="42.85095" lon="0.10383">
        <ele>2350</ele>
        <time>2017-05-04T07:06:29Z</time>
      </trkpt>
      <trkpt lat="42.85094" lon="0.10387">
        <ele>2352</ele>
        <time>2017-05-04T07:06:34Z</time>
      </trkpt>
      <trkpt lat="42.85091" lon="0.10389">
        <ele>2353</ele>
        <time>2017-05-04T07:06:45Z</time>
      </trkpt>
      <trkpt lat="42.85089" lon="0.10389">
        <ele>2354</ele>
        <time>2017-05-04T07:06:50Z</time>
      </trkpt>
      <trkpt lat="42.85087" lon="0.10393">
        <ele>2354</ele>
        <time>2017-05-04T07:06:57Z</time>
      </trkpt>
      <trkpt lat="42.85084" lon="0.10394">
        <ele>2355</ele>
        <time>2017-05-04T07:07:02Z</time>
      </trkpt>
      <trkpt lat="42.85081" lon="0.10394">
        <ele>2356</ele>
        <time>2017-05-04T07:07:06Z</time>
      </trkpt>
      <trkpt lat="42.85078" lon="0.10395">
        <ele>2357</ele>
        <time>2017-05-04T07:07:11Z</time>
      </trkpt>
      <trkpt lat="42.85077" lon="0.10399">
        <ele>2358</ele>
        <time>2017-05-04T07:07:17Z</time>
      </trkpt>
      <trkpt lat="42.85063" lon="0.10412">
        <ele>2360</ele>
        <time>2017-05-04T07:08:15Z</time>
      </trkpt>
      <trkpt lat="42.8504" lon="0.10416">
        <ele>2364</ele>
        <time>2017-05-04T07:09:08Z</time>
      </trkpt>
      <trkpt lat="42.85035" lon="0.10418">
        <ele>2365</ele>
        <time>2017-05-04T07:09:15Z</time>
      </trkpt>
      <trkpt lat="42.85022" lon="0.10428">
        <ele>2364</ele>
        <time>2017-05-04T07:09:32Z</time>
      </trkpt>
      <trkpt lat="42.85019" lon="0.1043">
        <ele>2364</ele>
        <time>2017-05-04T07:09:35Z</time>
      </trkpt>
      <trkpt lat="42.84996" lon="0.10451">
        <ele>2363</ele>
        <time>2017-05-04T07:10:07Z</time>
      </trkpt>
      <trkpt lat="42.84977" lon="0.10474">
        <ele>2369</ele>
        <time>2017-05-04T07:10:48Z</time>
      </trkpt>
      <trkpt lat="42.84975" lon="0.10479">
        <ele>2372</ele>
        <time>2017-05-04T07:10:58Z</time>
      </trkpt>
      <trkpt lat="42.84953" lon="0.10497">
        <ele>2376</ele>
        <time>2017-05-04T07:11:29Z</time>
      </trkpt>
      <trkpt lat="42.84932" lon="0.10515">
        <ele>2377</ele>
        <time>2017-05-04T07:12:02Z</time>
      </trkpt>
      <trkpt lat="42.84912" lon="0.10537">
        <ele>2377</ele>
        <time>2017-05-04T07:12:33Z</time>
      </trkpt>
      <trkpt lat="42.84903" lon="0.1055">
        <ele>2378</ele>
        <time>2017-05-04T07:12:51Z</time>
      </trkpt>
      <trkpt lat="42.84895" lon="0.10555">
        <ele>2380</ele>
        <time>2017-05-04T07:13:03Z</time>
      </trkpt>
      <trkpt lat="42.84894" lon="0.10558">
        <ele>2382</ele>
        <time>2017-05-04T07:13:12Z</time>
      </trkpt>
      <trkpt lat="42.84885" lon="0.10563">
        <ele>2384</ele>
        <time>2017-05-04T07:13:24Z</time>
      </trkpt>
      <trkpt lat="42.84884" lon="0.10567">
        <ele>2383</ele>
        <time>2017-05-04T07:13:35Z</time>
      </trkpt>
      <trkpt lat="42.84881" lon="0.10569">
        <ele>2384</ele>
        <time>2017-05-04T07:15:14Z</time>
      </trkpt>
      <trkpt lat="42.84858" lon="0.1058">
        <ele>2386</ele>
        <time>2017-05-04T07:15:40Z</time>
      </trkpt>
      <trkpt lat="42.84844" lon="0.10583">
        <ele>2386</ele>
        <time>2017-05-04T07:15:56Z</time>
      </trkpt>
      <trkpt lat="42.84831" lon="0.10592">
        <ele>2385</ele>
        <time>2017-05-04T07:16:10Z</time>
      </trkpt>
      <trkpt lat="42.84826" lon="0.106">
        <ele>2384</ele>
        <time>2017-05-04T07:16:18Z</time>
      </trkpt>
      <trkpt lat="42.84821" lon="0.10609">
        <ele>2383</ele>
        <time>2017-05-04T07:16:30Z</time>
      </trkpt>
      <trkpt lat="42.84821" lon="0.10617">
        <ele>2384</ele>
        <time>2017-05-04T07:16:39Z</time>
      </trkpt>
      <trkpt lat="42.84818" lon="0.10624">
        <ele>2385</ele>
        <time>2017-05-04T07:16:49Z</time>
      </trkpt>
      <trkpt lat="42.84813" lon="0.10635">
        <ele>2387</ele>
        <time>2017-05-04T07:17:05Z</time>
      </trkpt>
      <trkpt lat="42.84811" lon="0.10642">
        <ele>2389</ele>
        <time>2017-05-04T07:17:17Z</time>
      </trkpt>
      <trkpt lat="42.84803" lon="0.10648">
        <ele>2391</ele>
        <time>2017-05-04T07:17:33Z</time>
      </trkpt>
      <trkpt lat="42.84801" lon="0.10651">
        <ele>2392</ele>
        <time>2017-05-04T07:17:38Z</time>
      </trkpt>
      <trkpt lat="42.84788" lon="0.10655">
        <ele>2393</ele>
        <time>2017-05-04T07:18:00Z</time>
      </trkpt>
      <trkpt lat="42.84786" lon="0.1066">
        <ele>2396</ele>
        <time>2017-05-04T07:18:26Z</time>
      </trkpt>
      <trkpt lat="42.84779" lon="0.10674">
        <ele>2395</ele>
        <time>2017-05-04T07:18:45Z</time>
      </trkpt>
      <trkpt lat="42.84779" lon="0.10678">
        <ele>2394</ele>
        <time>2017-05-04T07:18:50Z</time>
      </trkpt>
      <trkpt lat="42.84776" lon="0.10681">
        <ele>2394</ele>
        <time>2017-05-04T07:18:56Z</time>
      </trkpt>
      <trkpt lat="42.84772" lon="0.10694">
        <ele>2400</ele>
        <time>2017-05-04T07:19:31Z</time>
      </trkpt>
      <trkpt lat="42.84759" lon="0.10706">
        <ele>2403</ele>
        <time>2017-05-04T07:19:58Z</time>
      </trkpt>
      <trkpt lat="42.84751" lon="0.10728">
        <ele>2408</ele>
        <time>2017-05-04T07:20:33Z</time>
      </trkpt>
      <trkpt lat="42.84748" lon="0.10731">
        <ele>2408</ele>
        <time>2017-05-04T07:20:39Z</time>
      </trkpt>
      <trkpt lat="42.84738" lon="0.10752">
        <ele>2412</ele>
        <time>2017-05-04T07:21:13Z</time>
      </trkpt>
      <trkpt lat="42.84738" lon="0.10756">
        <ele>2412</ele>
        <time>2017-05-04T07:21:19Z</time>
      </trkpt>
      <trkpt lat="42.84734" lon="0.10763">
        <ele>2412</ele>
        <time>2017-05-04T07:21:29Z</time>
      </trkpt>
      <trkpt lat="42.84726" lon="0.10774">
        <ele>2416</ele>
        <time>2017-05-04T07:21:53Z</time>
      </trkpt>
      <trkpt lat="42.84723" lon="0.1078">
        <ele>2419</ele>
        <time>2017-05-04T07:22:07Z</time>
      </trkpt>
      <trkpt lat="42.84722" lon="0.10784">
        <ele>2421</ele>
        <time>2017-05-04T07:22:12Z</time>
      </trkpt>
      <trkpt lat="42.84721" lon="0.10787">
        <ele>2421</ele>
        <time>2017-05-04T07:22:17Z</time>
      </trkpt>
      <trkpt lat="42.84719" lon="0.10785">
        <ele>2422</ele>
        <time>2017-05-04T07:22:23Z</time>
      </trkpt>
      <trkpt lat="42.84717" lon="0.10781">
        <ele>2424</ele>
        <time>2017-05-04T07:22:27Z</time>
      </trkpt>
      <trkpt lat="42.8471" lon="0.10774">
        <ele>2429</ele>
        <time>2017-05-04T07:22:42Z</time>
      </trkpt>
      <trkpt lat="42.84708" lon="0.10777">
        <ele>2430</ele>
        <time>2017-05-04T07:22:48Z</time>
      </trkpt>
      <trkpt lat="42.84708" lon="0.10781">
        <ele>2431</ele>
        <time>2017-05-04T07:22:53Z</time>
      </trkpt>
      <trkpt lat="42.84703" lon="0.10796">
        <ele>2433</ele>
        <time>2017-05-04T07:23:12Z</time>
      </trkpt>
      <trkpt lat="42.84702" lon="0.10822">
        <ele>2434</ele>
        <time>2017-05-04T07:23:50Z</time>
      </trkpt>
      <trkpt lat="42.84701" lon="0.10838">
        <ele>2437</ele>
        <time>2017-05-04T07:24:14Z</time>
      </trkpt>
      <trkpt lat="42.84698" lon="0.10853">
        <ele>2438</ele>
        <time>2017-05-04T07:24:39Z</time>
      </trkpt>
      <trkpt lat="42.847" lon="0.10857">
        <ele>2437</ele>
        <time>2017-05-04T07:24:44Z</time>
      </trkpt>
      <trkpt lat="42.84698" lon="0.1086">
        <ele>2439</ele>
        <time>2017-05-04T07:24:51Z</time>
      </trkpt>
      <trkpt lat="42.84696" lon="0.10861">
        <ele>2445</ele>
        <time>2017-05-04T07:25:04Z</time>
      </trkpt>
      <trkpt lat="42.84678" lon="0.10864">
        <ele>2452</ele>
        <time>2017-05-04T07:25:35Z</time>
      </trkpt>
      <trkpt lat="42.84675" lon="0.10865">
        <ele>2453</ele>
        <time>2017-05-04T07:25:40Z</time>
      </trkpt>
      <trkpt lat="42.84674" lon="0.10866">
        <ele>2454</ele>
        <time>2017-05-04T07:26:06Z</time>
      </trkpt>
      <trkpt lat="42.84676" lon="0.10861">
        <ele>2457</ele>
        <time>2017-05-04T07:29:57Z</time>
      </trkpt>
      <trkpt lat="42.84673" lon="0.10861">
        <ele>2460</ele>
        <time>2017-05-04T07:34:13Z</time>
      </trkpt>
      <trkpt lat="42.84675" lon="0.10864">
        <ele>2461</ele>
        <time>2017-05-04T07:34:58Z</time>
      </trkpt>
      <trkpt lat="42.84672" lon="0.10865">
        <ele>2461</ele>
        <time>2017-05-04T07:35:41Z</time>
      </trkpt>
      <trkpt lat="42.84667" lon="0.10869">
        <ele>2461</ele>
        <time>2017-05-04T07:35:53Z</time>
      </trkpt>
      <trkpt lat="42.8465" lon="0.10878">
        <ele>2460</ele>
        <time>2017-05-04T07:36:22Z</time>
      </trkpt>
      <trkpt lat="42.84644" lon="0.1088">
        <ele>2460</ele>
        <time>2017-05-04T07:36:31Z</time>
      </trkpt>
      <trkpt lat="42.84642" lon="0.1088">
        <ele>2460</ele>
        <time>2017-05-04T07:36:35Z</time>
      </trkpt>
      <trkpt lat="42.84626" lon="0.10885">
        <ele>2461</ele>
        <time>2017-05-04T07:37:08Z</time>
      </trkpt>
      <trkpt lat="42.84609" lon="0.1089">
        <ele>2467</ele>
        <time>2017-05-04T07:37:40Z</time>
      </trkpt>
      <trkpt lat="42.84606" lon="0.10893">
        <ele>2469</ele>
        <time>2017-05-04T07:37:46Z</time>
      </trkpt>
      <trkpt lat="42.84602" lon="0.10893">
        <ele>2470</ele>
        <time>2017-05-04T07:37:51Z</time>
      </trkpt>
      <trkpt lat="42.84599" lon="0.10896">
        <ele>2469</ele>
        <time>2017-05-04T07:38:00Z</time>
      </trkpt>
      <trkpt lat="42.84587" lon="0.10895">
        <ele>2468</ele>
        <time>2017-05-04T07:38:20Z</time>
      </trkpt>
      <trkpt lat="42.84584" lon="0.10895">
        <ele>2468</ele>
        <time>2017-05-04T07:38:26Z</time>
      </trkpt>
      <trkpt lat="42.8458" lon="0.10896">
        <ele>2473</ele>
        <time>2017-05-04T07:38:39Z</time>
      </trkpt>
      <trkpt lat="42.84577" lon="0.10896">
        <ele>2472</ele>
        <time>2017-05-04T07:38:43Z</time>
      </trkpt>
      <trkpt lat="42.84574" lon="0.10895">
        <ele>2473</ele>
        <time>2017-05-04T07:38:59Z</time>
      </trkpt>
      <trkpt lat="42.84556" lon="0.10898">
        <ele>2471</ele>
        <time>2017-05-04T07:39:30Z</time>
      </trkpt>
      <trkpt lat="42.84555" lon="0.10894">
        <ele>2469</ele>
        <time>2017-05-04T07:39:53Z</time>
      </trkpt>
      <trkpt lat="42.84552" lon="0.10872">
        <ele>2473</ele>
        <time>2017-05-04T07:40:24Z</time>
      </trkpt>
      <trkpt lat="42.84548" lon="0.10862">
        <ele>2475</ele>
        <time>2017-05-04T07:40:43Z</time>
      </trkpt>
      <trkpt lat="42.84548" lon="0.10846">
        <ele>2479</ele>
        <time>2017-05-04T07:41:03Z</time>
      </trkpt>
      <trkpt lat="42.84545" lon="0.10845">
        <ele>2480</ele>
        <time>2017-05-04T07:41:14Z</time>
      </trkpt>
      <trkpt lat="42.84542" lon="0.10845">
        <ele>2479</ele>
        <time>2017-05-04T07:41:18Z</time>
      </trkpt>
      <trkpt lat="42.84537" lon="0.10841">
        <ele>2479</ele>
        <time>2017-05-04T07:41:30Z</time>
      </trkpt>
      <trkpt lat="42.84534" lon="0.10839">
        <ele>2480</ele>
        <time>2017-05-04T07:41:34Z</time>
      </trkpt>
      <trkpt lat="42.84523" lon="0.10824">
        <ele>2483</ele>
        <time>2017-05-04T07:42:08Z</time>
      </trkpt>
      <trkpt lat="42.84515" lon="0.10809">
        <ele>2488</ele>
        <time>2017-05-04T07:42:42Z</time>
      </trkpt>
      <trkpt lat="42.84511" lon="0.10803">
        <ele>2491</ele>
        <time>2017-05-04T07:42:56Z</time>
      </trkpt>
      <trkpt lat="42.84506" lon="0.10799">
        <ele>2490</ele>
        <time>2017-05-04T07:43:12Z</time>
      </trkpt>
      <trkpt lat="42.84505" lon="0.10796">
        <ele>2491</ele>
        <time>2017-05-04T07:43:16Z</time>
      </trkpt>
      <trkpt lat="42.84503" lon="0.10793">
        <ele>2493</ele>
        <time>2017-05-04T07:43:23Z</time>
      </trkpt>
      <trkpt lat="42.84491" lon="0.10782">
        <ele>2495</ele>
        <time>2017-05-04T07:43:53Z</time>
      </trkpt>
      <trkpt lat="42.84488" lon="0.10781">
        <ele>2493</ele>
        <time>2017-05-04T07:43:57Z</time>
      </trkpt>
      <trkpt lat="42.84476" lon="0.1077">
        <ele>2495</ele>
        <time>2017-05-04T07:44:28Z</time>
      </trkpt>
      <trkpt lat="42.8446" lon="0.10761">
        <ele>2498</ele>
        <time>2017-05-04T07:45:01Z</time>
      </trkpt>
      <trkpt lat="42.84455" lon="0.10758">
        <ele>2499</ele>
        <time>2017-05-04T07:45:12Z</time>
      </trkpt>
      <trkpt lat="42.84452" lon="0.10758">
        <ele>2501</ele>
        <time>2017-05-04T07:45:19Z</time>
      </trkpt>
      <trkpt lat="42.84438" lon="0.10751">
        <ele>2508</ele>
        <time>2017-05-04T07:45:52Z</time>
      </trkpt>
      <trkpt lat="42.84435" lon="0.10747">
        <ele>2508</ele>
        <time>2017-05-04T07:46:00Z</time>
      </trkpt>
      <trkpt lat="42.84438" lon="0.10744">
        <ele>2510</ele>
        <time>2017-05-04T07:46:29Z</time>
      </trkpt>
      <trkpt lat="42.84442" lon="0.10739">
        <ele>2510</ele>
        <time>2017-05-04T07:46:39Z</time>
      </trkpt>
      <trkpt lat="42.84444" lon="0.10728">
        <ele>2512</ele>
        <time>2017-05-04T07:46:52Z</time>
      </trkpt>
      <trkpt lat="42.8445" lon="0.10714">
        <ele>2515</ele>
        <time>2017-05-04T07:47:18Z</time>
      </trkpt>
      <trkpt lat="42.84452" lon="0.10692">
        <ele>2516</ele>
        <time>2017-05-04T07:47:46Z</time>
      </trkpt>
      <trkpt lat="42.84457" lon="0.10698">
        <ele>2516</ele>
        <time>2017-05-04T07:47:54Z</time>
      </trkpt>
      <trkpt lat="42.84455" lon="0.107">
        <ele>2517</ele>
        <time>2017-05-04T07:48:03Z</time>
      </trkpt>
      <trkpt lat="42.84452" lon="0.10701">
        <ele>2518</ele>
        <time>2017-05-04T07:48:12Z</time>
      </trkpt>
      <trkpt lat="42.84446" lon="0.10698">
        <ele>2520</ele>
        <time>2017-05-04T07:48:23Z</time>
      </trkpt>
      <trkpt lat="42.84442" lon="0.10692">
        <ele>2526</ele>
        <time>2017-05-04T07:48:32Z</time>
      </trkpt>
      <trkpt lat="42.84436" lon="0.10679">
        <ele>2527</ele>
        <time>2017-05-04T07:48:48Z</time>
      </trkpt>
      <trkpt lat="42.84433" lon="0.10679">
        <ele>2529</ele>
        <time>2017-05-04T07:49:51Z</time>
      </trkpt>
      <trkpt lat="42.8443" lon="0.10679">
        <ele>2530</ele>
        <time>2017-05-04T07:49:55Z</time>
      </trkpt>
      <trkpt lat="42.84428" lon="0.10681">
        <ele>2532</ele>
        <time>2017-05-04T07:50:12Z</time>
      </trkpt>
      <trkpt lat="42.84428" lon="0.10676">
        <ele>2532</ele>
        <time>2017-05-04T07:50:30Z</time>
      </trkpt>
      <trkpt lat="42.8443" lon="0.10665">
        <ele>2535</ele>
        <time>2017-05-04T07:50:42Z</time>
      </trkpt>
      <trkpt lat="42.84427" lon="0.10665">
        <ele>2536</ele>
        <time>2017-05-04T07:50:50Z</time>
      </trkpt>
      <trkpt lat="42.84421" lon="0.10666">
        <ele>2537</ele>
        <time>2017-05-04T07:50:59Z</time>
      </trkpt>
      <trkpt lat="42.84418" lon="0.10667">
        <ele>2540</ele>
        <time>2017-05-04T07:51:05Z</time>
      </trkpt>
      <trkpt lat="42.84415" lon="0.10666">
        <ele>2540</ele>
        <time>2017-05-04T07:51:09Z</time>
      </trkpt>
      <trkpt lat="42.84399" lon="0.10653">
        <ele>2544</ele>
        <time>2017-05-04T07:51:39Z</time>
      </trkpt>
      <trkpt lat="42.84388" lon="0.10647">
        <ele>2546</ele>
        <time>2017-05-04T07:52:02Z</time>
      </trkpt>
      <trkpt lat="42.84385" lon="0.10647">
        <ele>2546</ele>
        <time>2017-05-04T07:52:07Z</time>
      </trkpt>
      <trkpt lat="42.84381" lon="0.10646">
        <ele>2547</ele>
        <time>2017-05-04T07:52:12Z</time>
      </trkpt>
      <trkpt lat="42.8437" lon="0.10646">
        <ele>2556</ele>
        <time>2017-05-04T07:52:47Z</time>
      </trkpt>
      <trkpt lat="42.84364" lon="0.10646">
        <ele>2557</ele>
        <time>2017-05-04T07:52:59Z</time>
      </trkpt>
      <trkpt lat="42.84366" lon="0.10649">
        <ele>2556</ele>
        <time>2017-05-04T07:53:09Z</time>
      </trkpt>
      <trkpt lat="42.84363" lon="0.1065">
        <ele>2557</ele>
        <time>2017-05-04T07:53:26Z</time>
      </trkpt>
      <trkpt lat="42.84353" lon="0.10649">
        <ele>2565</ele>
        <time>2017-05-04T07:53:48Z</time>
      </trkpt>
      <trkpt lat="42.84349" lon="0.10648">
        <ele>2566</ele>
        <time>2017-05-04T07:54:40Z</time>
      </trkpt>
      <trkpt lat="42.84346" lon="0.1065">
        <ele>2561</ele>
        <time>2017-05-04T07:56:07Z</time>
      </trkpt>
      <trkpt lat="42.84331" lon="0.10646">
        <ele>2562</ele>
        <time>2017-05-04T07:56:36Z</time>
      </trkpt>
      <trkpt lat="42.84325" lon="0.10647">
        <ele>2565</ele>
        <time>2017-05-04T07:56:52Z</time>
      </trkpt>
      <trkpt lat="42.84322" lon="0.10646">
        <ele>2566</ele>
        <time>2017-05-04T07:56:59Z</time>
      </trkpt>
      <trkpt lat="42.8431" lon="0.10646">
        <ele>2569</ele>
        <time>2017-05-04T07:57:29Z</time>
      </trkpt>
      <trkpt lat="42.84304" lon="0.10646">
        <ele>2570</ele>
        <time>2017-05-04T07:57:43Z</time>
      </trkpt>
      <trkpt lat="42.84302" lon="0.10647">
        <ele>2570</ele>
        <time>2017-05-04T07:57:50Z</time>
      </trkpt>
      <trkpt lat="42.84291" lon="0.10652">
        <ele>2575</ele>
        <time>2017-05-04T07:58:31Z</time>
      </trkpt>
      <trkpt lat="42.84285" lon="0.10653">
        <ele>2579</ele>
        <time>2017-05-04T07:58:52Z</time>
      </trkpt>
      <trkpt lat="42.84286" lon="0.10649">
        <ele>2582</ele>
        <time>2017-05-04T07:59:05Z</time>
      </trkpt>
      <trkpt lat="42.84288" lon="0.10641">
        <ele>2585</ele>
        <time>2017-05-04T07:59:16Z</time>
      </trkpt>
      <trkpt lat="42.8429" lon="0.10636">
        <ele>2587</ele>
        <time>2017-05-04T07:59:22Z</time>
      </trkpt>
      <trkpt lat="42.84287" lon="0.10635">
        <ele>2586</ele>
        <time>2017-05-04T08:00:35Z</time>
      </trkpt>
      <trkpt lat="42.84273" lon="0.10638">
        <ele>2589</ele>
        <time>2017-05-04T08:00:55Z</time>
      </trkpt>
      <trkpt lat="42.8426" lon="0.10648">
        <ele>2593</ele>
        <time>2017-05-04T08:01:21Z</time>
      </trkpt>
      <trkpt lat="42.84249" lon="0.1066">
        <ele>2598</ele>
        <time>2017-05-04T08:01:52Z</time>
      </trkpt>
      <trkpt lat="42.84244" lon="0.10664">
        <ele>2600</ele>
        <time>2017-05-04T08:02:05Z</time>
      </trkpt>
      <trkpt lat="42.84233" lon="0.10669">
        <ele>2601</ele>
        <time>2017-05-04T08:03:06Z</time>
      </trkpt>
      <trkpt lat="42.8422" lon="0.10687">
        <ele>2607</ele>
        <time>2017-05-04T08:03:39Z</time>
      </trkpt>
      <trkpt lat="42.84215" lon="0.10697">
        <ele>2609</ele>
        <time>2017-05-04T08:03:58Z</time>
      </trkpt>
      <trkpt lat="42.84213" lon="0.10704">
        <ele>2610</ele>
        <time>2017-05-04T08:04:09Z</time>
      </trkpt>
      <trkpt lat="42.8421" lon="0.10704">
        <ele>2610</ele>
        <time>2017-05-04T08:04:21Z</time>
      </trkpt>
      <trkpt lat="42.84207" lon="0.10697">
        <ele>2613</ele>
        <time>2017-05-04T08:04:33Z</time>
      </trkpt>
      <trkpt lat="42.84205" lon="0.10694">
        <ele>2614</ele>
        <time>2017-05-04T08:04:40Z</time>
      </trkpt>
      <trkpt lat="42.84202" lon="0.10693">
        <ele>2616</ele>
        <time>2017-05-04T08:04:46Z</time>
      </trkpt>
      <trkpt lat="42.84201" lon="0.10697">
        <ele>2616</ele>
        <time>2017-05-04T08:04:52Z</time>
      </trkpt>
      <trkpt lat="42.84198" lon="0.10703">
        <ele>2618</ele>
        <time>2017-05-04T08:05:03Z</time>
      </trkpt>
      <trkpt lat="42.84198" lon="0.10707">
        <ele>2617</ele>
        <time>2017-05-04T08:05:33Z</time>
      </trkpt>
      <trkpt lat="42.84194" lon="0.10718">
        <ele>2619</ele>
        <time>2017-05-04T08:05:51Z</time>
      </trkpt>
      <trkpt lat="42.84192" lon="0.10721">
        <ele>2621</ele>
        <time>2017-05-04T08:06:08Z</time>
      </trkpt>
      <trkpt lat="42.84187" lon="0.10739">
        <ele>2623</ele>
        <time>2017-05-04T08:06:41Z</time>
      </trkpt>
      <trkpt lat="42.84186" lon="0.10747">
        <ele>2624</ele>
        <time>2017-05-04T08:06:51Z</time>
      </trkpt>
      <trkpt lat="42.84185" lon="0.10768">
        <ele>2627</ele>
        <time>2017-05-04T08:07:21Z</time>
      </trkpt>
      <trkpt lat="42.84183" lon="0.10787">
        <ele>2630</ele>
        <time>2017-05-04T08:07:55Z</time>
      </trkpt>
      <trkpt lat="42.84181" lon="0.10791">
        <ele>2631</ele>
        <time>2017-05-04T08:08:04Z</time>
      </trkpt>
      <trkpt lat="42.84178" lon="0.10791">
        <ele>2632</ele>
        <time>2017-05-04T08:08:10Z</time>
      </trkpt>
      <trkpt lat="42.84178" lon="0.10791">
        <ele>2634</ele>
        <time>2017-05-04T08:11:13Z</time>
      </trkpt>
      <trkpt lat="42.84175" lon="0.1079">
        <ele>2635</ele>
        <time>2017-05-04T08:12:13Z</time>
      </trkpt>
      <trkpt lat="42.84172" lon="0.10788">
        <ele>2639</ele>
        <time>2017-05-04T08:12:18Z</time>
      </trkpt>
      <trkpt lat="42.84171" lon="0.10785">
        <ele>2639</ele>
        <time>2017-05-04T08:12:22Z</time>
      </trkpt>
      <trkpt lat="42.84166" lon="0.1078">
        <ele>2640</ele>
        <time>2017-05-04T08:12:32Z</time>
      </trkpt>
      <trkpt lat="42.84158" lon="0.10767">
        <ele>2638</ele>
        <time>2017-05-04T08:12:46Z</time>
      </trkpt>
      <trkpt lat="42.84154" lon="0.1076">
        <ele>2638</ele>
        <time>2017-05-04T08:12:53Z</time>
      </trkpt>
      <trkpt lat="42.84141" lon="0.10742">
        <ele>2638</ele>
        <time>2017-05-04T08:13:20Z</time>
      </trkpt>
      <trkpt lat="42.84135" lon="0.10734">
        <ele>2640</ele>
        <time>2017-05-04T08:13:50Z</time>
      </trkpt>
      <trkpt lat="42.84132" lon="0.10732">
        <ele>2640</ele>
        <time>2017-05-04T08:14:02Z</time>
      </trkpt>
      <trkpt lat="42.8413" lon="0.1073">
        <ele>2640</ele>
        <time>2017-05-04T08:14:09Z</time>
      </trkpt>
      <trkpt lat="42.84127" lon="0.10728">
        <ele>2641</ele>
        <time>2017-05-04T08:14:21Z</time>
      </trkpt>
      <trkpt lat="42.84112" lon="0.10723">
        <ele>2640</ele>
        <time>2017-05-04T08:14:37Z</time>
      </trkpt>
      <trkpt lat="42.84103" lon="0.10722">
        <ele>2640</ele>
        <time>2017-05-04T08:14:47Z</time>
      </trkpt>
      <trkpt lat="42.84084" lon="0.10722">
        <ele>2641</ele>
        <time>2017-05-04T08:15:10Z</time>
      </trkpt>
      <trkpt lat="42.8407" lon="0.10721">
        <ele>2642</ele>
        <time>2017-05-04T08:16:12Z</time>
      </trkpt>
      <trkpt lat="42.84052" lon="0.10719">
        <ele>2643</ele>
        <time>2017-05-04T08:16:31Z</time>
      </trkpt>
      <trkpt lat="42.84027" lon="0.10721">
        <ele>2646</ele>
        <time>2017-05-04T08:17:01Z</time>
      </trkpt>
      <trkpt lat="42.84012" lon="0.10722">
        <ele>2647</ele>
        <time>2017-05-04T08:17:19Z</time>
      </trkpt>
      <trkpt lat="42.84007" lon="0.10722">
        <ele>2647</ele>
        <time>2017-05-04T08:17:27Z</time>
      </trkpt>
      <trkpt lat="42.83993" lon="0.10715">
        <ele>2647</ele>
        <time>2017-05-04T08:17:45Z</time>
      </trkpt>
      <trkpt lat="42.83971" lon="0.10705">
        <ele>2647</ele>
        <time>2017-05-04T08:18:17Z</time>
      </trkpt>
      <trkpt lat="42.83968" lon="0.10704">
        <ele>2648</ele>
        <time>2017-05-04T08:18:27Z</time>
      </trkpt>
      <trkpt lat="42.83966" lon="0.10702">
        <ele>2651</ele>
        <time>2017-05-04T08:18:52Z</time>
      </trkpt>
      <trkpt lat="42.83946" lon="0.10697">
        <ele>2652</ele>
        <time>2017-05-04T08:19:24Z</time>
      </trkpt>
      <trkpt lat="42.8394" lon="0.10694">
        <ele>2653</ele>
        <time>2017-05-04T08:19:33Z</time>
      </trkpt>
      <trkpt lat="42.83938" lon="0.10691">
        <ele>2655</ele>
        <time>2017-05-04T08:19:50Z</time>
      </trkpt>
      <trkpt lat="42.83934" lon="0.10692">
        <ele>2654</ele>
        <time>2017-05-04T08:23:21Z</time>
      </trkpt>
      <trkpt lat="42.83932" lon="0.10691">
        <ele>2653</ele>
        <time>2017-05-04T08:23:24Z</time>
      </trkpt>
      <trkpt lat="42.83929" lon="0.1069">
        <ele>2653</ele>
        <time>2017-05-04T08:23:27Z</time>
      </trkpt>
      <trkpt lat="42.83902" lon="0.10681">
        <ele>2652</ele>
        <time>2017-05-04T08:23:57Z</time>
      </trkpt>
      <trkpt lat="42.839" lon="0.1068">
        <ele>2653</ele>
        <time>2017-05-04T08:24:01Z</time>
      </trkpt>
      <trkpt lat="42.83884" lon="0.10676">
        <ele>2653</ele>
        <time>2017-05-04T08:24:20Z</time>
      </trkpt>
      <trkpt lat="42.83858" lon="0.10665">
        <ele>2652</ele>
        <time>2017-05-04T08:24:50Z</time>
      </trkpt>
      <trkpt lat="42.83836" lon="0.10646">
        <ele>2651</ele>
        <time>2017-05-04T08:25:21Z</time>
      </trkpt>
      <trkpt lat="42.83833" lon="0.10645">
        <ele>2651</ele>
        <time>2017-05-04T08:25:25Z</time>
      </trkpt>
      <trkpt lat="42.83832" lon="0.10641">
        <ele>2651</ele>
        <time>2017-05-04T08:25:31Z</time>
      </trkpt>
      <trkpt lat="42.83829" lon="0.10639">
        <ele>2651</ele>
        <time>2017-05-04T08:25:42Z</time>
      </trkpt>
      <trkpt lat="42.8382" lon="0.10636">
        <ele>2650</ele>
        <time>2017-05-04T08:25:50Z</time>
      </trkpt>
      <trkpt lat="42.83813" lon="0.10628">
        <ele>2652</ele>
        <time>2017-05-04T08:26:01Z</time>
      </trkpt>
      <trkpt lat="42.83806" lon="0.10619">
        <ele>2653</ele>
        <time>2017-05-04T08:26:13Z</time>
      </trkpt>
      <trkpt lat="42.83802" lon="0.10619">
        <ele>2654</ele>
        <time>2017-05-04T08:26:16Z</time>
      </trkpt>
      <trkpt lat="42.838" lon="0.10616">
        <ele>2654</ele>
        <time>2017-05-04T08:26:20Z</time>
      </trkpt>
      <trkpt lat="42.83777" lon="0.10602">
        <ele>2656</ele>
        <time>2017-05-04T08:26:52Z</time>
      </trkpt>
      <trkpt lat="42.83774" lon="0.10595">
        <ele>2656</ele>
        <time>2017-05-04T08:27:01Z</time>
      </trkpt>
      <trkpt lat="42.83771" lon="0.10592">
        <ele>2659</ele>
        <time>2017-05-04T08:27:18Z</time>
      </trkpt>
      <trkpt lat="42.83772" lon="0.10588">
        <ele>2658</ele>
        <time>2017-05-04T08:28:17Z</time>
      </trkpt>
      <trkpt lat="42.83769" lon="0.10587">
        <ele>2657</ele>
        <time>2017-05-04T08:28:23Z</time>
      </trkpt>
      <trkpt lat="42.83763" lon="0.10585">
        <ele>2655</ele>
        <time>2017-05-04T08:28:32Z</time>
      </trkpt>
      <trkpt lat="42.8376" lon="0.10581">
        <ele>2655</ele>
        <time>2017-05-04T08:28:37Z</time>
      </trkpt>
      <trkpt lat="42.83741" lon="0.10572">
        <ele>2652</ele>
        <time>2017-05-04T08:28:56Z</time>
      </trkpt>
      <trkpt lat="42.83737" lon="0.10572">
        <ele>2652</ele>
        <time>2017-05-04T08:28:58Z</time>
      </trkpt>
      <trkpt lat="42.83734" lon="0.10569">
        <ele>2652</ele>
        <time>2017-05-04T08:29:02Z</time>
      </trkpt>
      <trkpt lat="42.83727" lon="0.10566">
        <ele>2650</ele>
        <time>2017-05-04T08:29:09Z</time>
      </trkpt>
      <trkpt lat="42.83724" lon="0.10561">
        <ele>2649</ele>
        <time>2017-05-04T08:29:20Z</time>
      </trkpt>
      <trkpt lat="42.83713" lon="0.10559">
        <ele>2648</ele>
        <time>2017-05-04T08:29:30Z</time>
      </trkpt>
      <trkpt lat="42.83685" lon="0.10546">
        <ele>2647</ele>
        <time>2017-05-04T08:30:02Z</time>
      </trkpt>
      <trkpt lat="42.83669" lon="0.10538">
        <ele>2646</ele>
        <time>2017-05-04T08:30:21Z</time>
      </trkpt>
      <trkpt lat="42.83668" lon="0.10535">
        <ele>2649</ele>
        <time>2017-05-04T08:30:25Z</time>
      </trkpt>
      <trkpt lat="42.83664" lon="0.10534">
        <ele>2651</ele>
        <time>2017-05-04T08:30:28Z</time>
      </trkpt>
      <trkpt lat="42.83661" lon="0.10527">
        <ele>2655</ele>
        <time>2017-05-04T08:30:39Z</time>
      </trkpt>
      <trkpt lat="42.83658" lon="0.10525">
        <ele>2659</ele>
        <time>2017-05-04T08:31:24Z</time>
      </trkpt>
      <trkpt lat="42.83656" lon="0.10523">
        <ele>2659</ele>
        <time>2017-05-04T08:31:28Z</time>
      </trkpt>
      <trkpt lat="42.83644" lon="0.10523">
        <ele>2659</ele>
        <time>2017-05-04T08:31:45Z</time>
      </trkpt>
      <trkpt lat="42.83635" lon="0.10521">
        <ele>2659</ele>
        <time>2017-05-04T08:31:57Z</time>
      </trkpt>
      <trkpt lat="42.83629" lon="0.10517">
        <ele>2659</ele>
        <time>2017-05-04T08:32:05Z</time>
      </trkpt>
      <trkpt lat="42.83616" lon="0.10494">
        <ele>2661</ele>
        <time>2017-05-04T08:32:33Z</time>
      </trkpt>
      <trkpt lat="42.83612" lon="0.10493">
        <ele>2661</ele>
        <time>2017-05-04T08:32:39Z</time>
      </trkpt>
      <trkpt lat="42.83594" lon="0.10493">
        <ele>2667</ele>
        <time>2017-05-04T08:33:11Z</time>
      </trkpt>
      <trkpt lat="42.83582" lon="0.1049">
        <ele>2670</ele>
        <time>2017-05-04T08:33:38Z</time>
      </trkpt>
      <trkpt lat="42.83577" lon="0.10495">
        <ele>2672</ele>
        <time>2017-05-04T08:33:50Z</time>
      </trkpt>
      <trkpt lat="42.83571" lon="0.10497">
        <ele>2674</ele>
        <time>2017-05-04T08:34:01Z</time>
      </trkpt>
      <trkpt lat="42.83569" lon="0.10499">
        <ele>2676</ele>
        <time>2017-05-04T08:34:13Z</time>
      </trkpt>
      <trkpt lat="42.8356" lon="0.10503">
        <ele>2679</ele>
        <time>2017-05-04T08:34:47Z</time>
      </trkpt>
      <trkpt lat="42.8355" lon="0.10515">
        <ele>2686</ele>
        <time>2017-05-04T08:35:22Z</time>
      </trkpt>
      <trkpt lat="42.8355" lon="0.10519">
        <ele>2686</ele>
        <time>2017-05-04T08:35:25Z</time>
      </trkpt>
      <trkpt lat="42.83545" lon="0.10525">
        <ele>2686</ele>
        <time>2017-05-04T08:35:37Z</time>
      </trkpt>
      <trkpt lat="42.83542" lon="0.10525">
        <ele>2687</ele>
        <time>2017-05-04T08:35:43Z</time>
      </trkpt>
      <trkpt lat="42.83536" lon="0.10533">
        <ele>2691</ele>
        <time>2017-05-04T08:36:03Z</time>
      </trkpt>
      <trkpt lat="42.83535" lon="0.10536">
        <ele>2691</ele>
        <time>2017-05-04T08:36:08Z</time>
      </trkpt>
      <trkpt lat="42.83532" lon="0.10538">
        <ele>2691</ele>
        <time>2017-05-04T08:36:15Z</time>
      </trkpt>
      <trkpt lat="42.83529" lon="0.10546">
        <ele>2690</ele>
        <time>2017-05-04T08:36:30Z</time>
      </trkpt>
      <trkpt lat="42.83528" lon="0.10551">
        <ele>2689</ele>
        <time>2017-05-04T08:36:38Z</time>
      </trkpt>
      <trkpt lat="42.83521" lon="0.10567">
        <ele>2692</ele>
        <time>2017-05-04T08:37:14Z</time>
      </trkpt>
      <trkpt lat="42.83517" lon="0.10587">
        <ele>2694</ele>
        <time>2017-05-04T08:37:50Z</time>
      </trkpt>
      <trkpt lat="42.83515" lon="0.10602">
        <ele>2700</ele>
        <time>2017-05-04T08:38:21Z</time>
      </trkpt>
      <trkpt lat="42.83514" lon="0.1061">
        <ele>2702</ele>
        <time>2017-05-04T08:38:32Z</time>
      </trkpt>
      <trkpt lat="42.83511" lon="0.10617">
        <ele>2708</ele>
        <time>2017-05-04T08:39:03Z</time>
      </trkpt>
      <trkpt lat="42.83511" lon="0.10629">
        <ele>2716</ele>
        <time>2017-05-04T08:39:30Z</time>
      </trkpt>
      <trkpt lat="42.83508" lon="0.10629">
        <ele>2716</ele>
        <time>2017-05-04T08:39:38Z</time>
      </trkpt>
      <trkpt lat="42.83506" lon="0.10628">
        <ele>2717</ele>
        <time>2017-05-04T08:39:42Z</time>
      </trkpt>
      <trkpt lat="42.83498" lon="0.10616">
        <ele>2719</ele>
        <time>2017-05-04T08:40:16Z</time>
      </trkpt>
      <trkpt lat="42.83494" lon="0.10612">
        <ele>2720</ele>
        <time>2017-05-04T08:40:28Z</time>
      </trkpt>
      <trkpt lat="42.83489" lon="0.10603">
        <ele>2723</ele>
        <time>2017-05-04T08:40:51Z</time>
      </trkpt>
      <trkpt lat="42.83484" lon="0.10594">
        <ele>2725</ele>
        <time>2017-05-04T08:41:16Z</time>
      </trkpt>
      <trkpt lat="42.83479" lon="0.10586">
        <ele>2729</ele>
        <time>2017-05-04T08:41:38Z</time>
      </trkpt>
      <trkpt lat="42.83475" lon="0.10576">
        <ele>2730</ele>
        <time>2017-05-04T08:41:58Z</time>
      </trkpt>
      <trkpt lat="42.8347" lon="0.10555">
        <ele>2734</ele>
        <time>2017-05-04T08:42:51Z</time>
      </trkpt>
      <trkpt lat="42.8347" lon="0.10542">
        <ele>2736</ele>
        <time>2017-05-04T08:43:24Z</time>
      </trkpt>
      <trkpt lat="42.83466" lon="0.10529">
        <ele>2738</ele>
        <time>2017-05-04T08:43:56Z</time>
      </trkpt>
      <trkpt lat="42.83465" lon="0.10526">
        <ele>2738</ele>
        <time>2017-05-04T08:44:00Z</time>
      </trkpt>
      <trkpt lat="42.8346" lon="0.10516">
        <ele>2738</ele>
        <time>2017-05-04T08:44:20Z</time>
      </trkpt>
      <trkpt lat="42.83459" lon="0.10513">
        <ele>2738</ele>
        <time>2017-05-04T08:44:33Z</time>
      </trkpt>
      <trkpt lat="42.83457" lon="0.10509">
        <ele>2740</ele>
        <time>2017-05-04T08:44:41Z</time>
      </trkpt>
      <trkpt lat="42.83457" lon="0.10493">
        <ele>2744</ele>
        <time>2017-05-04T08:45:17Z</time>
      </trkpt>
      <trkpt lat="42.83458" lon="0.10489">
        <ele>2744</ele>
        <time>2017-05-04T08:45:26Z</time>
      </trkpt>
      <trkpt lat="42.83456" lon="0.10469">
        <ele>2747</ele>
        <time>2017-05-04T08:46:03Z</time>
      </trkpt>
      <trkpt lat="42.83453" lon="0.10458">
        <ele>2750</ele>
        <time>2017-05-04T08:46:20Z</time>
      </trkpt>
      <trkpt lat="42.8345" lon="0.10452">
        <ele>2751</ele>
        <time>2017-05-04T08:46:30Z</time>
      </trkpt>
      <trkpt lat="42.83436" lon="0.10439">
        <ele>2753</ele>
        <time>2017-05-04T08:46:58Z</time>
      </trkpt>
      <trkpt lat="42.83433" lon="0.10431">
        <ele>2753</ele>
        <time>2017-05-04T08:47:11Z</time>
      </trkpt>
      <trkpt lat="42.83431" lon="0.10428">
        <ele>2752</ele>
        <time>2017-05-04T08:53:55Z</time>
      </trkpt>
      <trkpt lat="42.83429" lon="0.10423">
        <ele>2752</ele>
        <time>2017-05-04T08:54:00Z</time>
      </trkpt>
      <trkpt lat="42.83422" lon="0.10384">
        <ele>2752</ele>
        <time>2017-05-04T08:54:31Z</time>
      </trkpt>
      <trkpt lat="42.83423" lon="0.10363">
        <ele>2754</ele>
        <time>2017-05-04T08:54:49Z</time>
      </trkpt>
      <trkpt lat="42.83425" lon="0.10339">
        <ele>2756</ele>
        <time>2017-05-04T08:55:19Z</time>
      </trkpt>
      <trkpt lat="42.83426" lon="0.10331">
        <ele>2756</ele>
        <time>2017-05-04T08:55:28Z</time>
      </trkpt>
      <trkpt lat="42.83431" lon="0.10313">
        <ele>2758</ele>
        <time>2017-05-04T08:55:51Z</time>
      </trkpt>
      <trkpt lat="42.83431" lon="0.10309">
        <ele>2759</ele>
        <time>2017-05-04T08:55:55Z</time>
      </trkpt>
      <trkpt lat="42.8343" lon="0.10306">
        <ele>2759</ele>
        <time>2017-05-04T08:55:59Z</time>
      </trkpt>
      <trkpt lat="42.83426" lon="0.10299">
        <ele>2760</ele>
        <time>2017-05-04T08:56:10Z</time>
      </trkpt>
      <trkpt lat="42.83417" lon="0.10289">
        <ele>2761</ele>
        <time>2017-05-04T08:56:29Z</time>
      </trkpt>
      <trkpt lat="42.83409" lon="0.10283">
        <ele>2762</ele>
        <time>2017-05-04T08:56:46Z</time>
      </trkpt>
      <trkpt lat="42.83407" lon="0.1028">
        <ele>2763</ele>
        <time>2017-05-04T08:56:52Z</time>
      </trkpt>
      <trkpt lat="42.83402" lon="0.10277">
        <ele>2764</ele>
        <time>2017-05-04T08:57:06Z</time>
      </trkpt>
      <trkpt lat="42.834" lon="0.10273">
        <ele>2765</ele>
        <time>2017-05-04T08:57:11Z</time>
      </trkpt>
      <trkpt lat="42.83397" lon="0.10266">
        <ele>2767</ele>
        <time>2017-05-04T08:57:25Z</time>
      </trkpt>
      <trkpt lat="42.83396" lon="0.10263">
        <ele>2767</ele>
        <time>2017-05-04T08:57:33Z</time>
      </trkpt>
      <trkpt lat="42.83386" lon="0.10255">
        <ele>2770</ele>
        <time>2017-05-04T08:57:59Z</time>
      </trkpt>
      <trkpt lat="42.83375" lon="0.10243">
        <ele>2774</ele>
        <time>2017-05-04T08:58:26Z</time>
      </trkpt>
      <trkpt lat="42.83372" lon="0.1024">
        <ele>2774</ele>
        <time>2017-05-04T08:58:32Z</time>
      </trkpt>
      <trkpt lat="42.8337" lon="0.10232">
        <ele>2776</ele>
        <time>2017-05-04T08:58:45Z</time>
      </trkpt>
      <trkpt lat="42.83367" lon="0.10221">
        <ele>2777</ele>
        <time>2017-05-04T08:59:15Z</time>
      </trkpt>
      <trkpt lat="42.83365" lon="0.10214">
        <ele>2778</ele>
        <time>2017-05-04T08:59:23Z</time>
      </trkpt>
      <trkpt lat="42.83363" lon="0.10211">
        <ele>2780</ele>
        <time>2017-05-04T08:59:58Z</time>
      </trkpt>
      <trkpt lat="42.8336" lon="0.10211">
        <ele>2781</ele>
        <time>2017-05-04T09:00:02Z</time>
      </trkpt>
      <trkpt lat="42.83343" lon="0.10218">
        <ele>2784</ele>
        <time>2017-05-04T09:00:32Z</time>
      </trkpt>
      <trkpt lat="42.8334" lon="0.10219">
        <ele>2785</ele>
        <time>2017-05-04T09:00:37Z</time>
      </trkpt>
      <trkpt lat="42.83338" lon="0.10216">
        <ele>2786</ele>
        <time>2017-05-04T09:00:44Z</time>
      </trkpt>
      <trkpt lat="42.83335" lon="0.10209">
        <ele>2787</ele>
        <time>2017-05-04T09:00:53Z</time>
      </trkpt>
      <trkpt lat="42.83329" lon="0.10202">
        <ele>2788</ele>
        <time>2017-05-04T09:01:09Z</time>
      </trkpt>
      <trkpt lat="42.83321" lon="0.10196">
        <ele>2790</ele>
        <time>2017-05-04T09:01:33Z</time>
      </trkpt>
      <trkpt lat="42.83319" lon="0.10195">
        <ele>2790</ele>
        <time>2017-05-04T09:01:40Z</time>
      </trkpt>
      <trkpt lat="42.83316" lon="0.10198">
        <ele>2791</ele>
        <time>2017-05-04T09:01:47Z</time>
      </trkpt>
      <trkpt lat="42.83311" lon="0.10203">
        <ele>2792</ele>
        <time>2017-05-04T09:03:02Z</time>
      </trkpt>
      <trkpt lat="42.83304" lon="0.1021">
        <ele>2794</ele>
        <time>2017-05-04T09:03:28Z</time>
      </trkpt>
      <trkpt lat="42.83293" lon="0.10216">
        <ele>2797</ele>
        <time>2017-05-04T09:03:45Z</time>
      </trkpt>
      <trkpt lat="42.83282" lon="0.1022">
        <ele>2800</ele>
        <time>2017-05-04T09:04:07Z</time>
      </trkpt>
      <trkpt lat="42.83279" lon="0.10218">
        <ele>2801</ele>
        <time>2017-05-04T09:04:12Z</time>
      </trkpt>
      <trkpt lat="42.83278" lon="0.10215">
        <ele>2803</ele>
        <time>2017-05-04T09:04:18Z</time>
      </trkpt>
      <trkpt lat="42.83275" lon="0.10216">
        <ele>2804</ele>
        <time>2017-05-04T09:04:25Z</time>
      </trkpt>
      <trkpt lat="42.83272" lon="0.10218">
        <ele>2805</ele>
        <time>2017-05-04T09:04:30Z</time>
      </trkpt>
      <trkpt lat="42.83258" lon="0.1023">
        <ele>2809</ele>
        <time>2017-05-04T09:05:01Z</time>
      </trkpt>
      <trkpt lat="42.83252" lon="0.10232">
        <ele>2810</ele>
        <time>2017-05-04T09:05:14Z</time>
      </trkpt>
      <trkpt lat="42.83249" lon="0.10231">
        <ele>2810</ele>
        <time>2017-05-04T09:05:20Z</time>
      </trkpt>
      <trkpt lat="42.83243" lon="0.1023">
        <ele>2811</ele>
        <time>2017-05-04T09:05:29Z</time>
      </trkpt>
      <trkpt lat="42.83238" lon="0.10233">
        <ele>2812</ele>
        <time>2017-05-04T09:05:41Z</time>
      </trkpt>
      <trkpt lat="42.83224" lon="0.10238">
        <ele>2816</ele>
        <time>2017-05-04T09:06:07Z</time>
      </trkpt>
      <trkpt lat="42.83213" lon="0.10244">
        <ele>2818</ele>
        <time>2017-05-04T09:06:27Z</time>
      </trkpt>
      <trkpt lat="42.83211" lon="0.10244">
        <ele>2818</ele>
        <time>2017-05-04T09:06:34Z</time>
      </trkpt>
      <trkpt lat="42.83208" lon="0.10246">
        <ele>2820</ele>
        <time>2017-05-04T09:06:42Z</time>
      </trkpt>
      <trkpt lat="42.83204" lon="0.10247">
        <ele>2821</ele>
        <time>2017-05-04T09:07:25Z</time>
      </trkpt>
      <trkpt lat="42.83203" lon="0.10243">
        <ele>2821</ele>
        <time>2017-05-04T09:07:30Z</time>
      </trkpt>
      <trkpt lat="42.83201" lon="0.10237">
        <ele>2821</ele>
        <time>2017-05-04T09:07:44Z</time>
      </trkpt>
      <trkpt lat="42.83198" lon="0.10234">
        <ele>2821</ele>
        <time>2017-05-04T09:07:50Z</time>
      </trkpt>
      <trkpt lat="42.83192" lon="0.10232">
        <ele>2823</ele>
        <time>2017-05-04T09:08:02Z</time>
      </trkpt>
      <trkpt lat="42.8319" lon="0.10233">
        <ele>2823</ele>
        <time>2017-05-04T09:08:09Z</time>
      </trkpt>
      <trkpt lat="42.83188" lon="0.10237">
        <ele>2825</ele>
        <time>2017-05-04T09:08:15Z</time>
      </trkpt>
      <trkpt lat="42.83187" lon="0.1024">
        <ele>2825</ele>
        <time>2017-05-04T09:08:23Z</time>
      </trkpt>
      <trkpt lat="42.83182" lon="0.10245">
        <ele>2827</ele>
        <time>2017-05-04T09:08:34Z</time>
      </trkpt>
      <trkpt lat="42.8318" lon="0.10244">
        <ele>2828</ele>
        <time>2017-05-04T09:08:40Z</time>
      </trkpt>
      <trkpt lat="42.83177" lon="0.10241">
        <ele>2828</ele>
        <time>2017-05-04T09:08:45Z</time>
      </trkpt>
      <trkpt lat="42.83168" lon="0.10233">
        <ele>2831</ele>
        <time>2017-05-04T09:09:17Z</time>
      </trkpt>
      <trkpt lat="42.83165" lon="0.10234">
        <ele>2831</ele>
        <time>2017-05-04T09:09:23Z</time>
      </trkpt>
      <trkpt lat="42.83164" lon="0.10237">
        <ele>2832</ele>
        <time>2017-05-04T09:09:29Z</time>
      </trkpt>
      <trkpt lat="42.83163" lon="0.10241">
        <ele>2833</ele>
        <time>2017-05-04T09:09:37Z</time>
      </trkpt>
      <trkpt lat="42.8316" lon="0.10247">
        <ele>2835</ele>
        <time>2017-05-04T09:09:53Z</time>
      </trkpt>
      <trkpt lat="42.83155" lon="0.10251">
        <ele>2838</ele>
        <time>2017-05-04T09:10:15Z</time>
      </trkpt>
      <trkpt lat="42.83153" lon="0.10247">
        <ele>2838</ele>
        <time>2017-05-04T09:11:19Z</time>
      </trkpt>
      <trkpt lat="42.83146" lon="0.10239">
        <ele>2840</ele>
        <time>2017-05-04T09:11:36Z</time>
      </trkpt>
      <trkpt lat="42.83143" lon="0.10237">
        <ele>2841</ele>
        <time>2017-05-04T09:11:42Z</time>
      </trkpt>
      <trkpt lat="42.83141" lon="0.10235">
        <ele>2844</ele>
        <time>2017-05-04T09:11:53Z</time>
      </trkpt>
      <trkpt lat="42.83138" lon="0.10233">
        <ele>2844</ele>
        <time>2017-05-04T09:12:02Z</time>
      </trkpt>
      <trkpt lat="42.83133" lon="0.10231">
        <ele>2846</ele>
        <time>2017-05-04T09:12:39Z</time>
      </trkpt>
      <trkpt lat="42.83132" lon="0.10235">
        <ele>2848</ele>
        <time>2017-05-04T09:12:45Z</time>
      </trkpt>
      <trkpt lat="42.83126" lon="0.10253">
        <ele>2851</ele>
        <time>2017-05-04T09:13:23Z</time>
      </trkpt>
      <trkpt lat="42.8312" lon="0.10261">
        <ele>2852</ele>
        <time>2017-05-04T09:13:54Z</time>
      </trkpt>
      <trkpt lat="42.83119" lon="0.10256">
        <ele>2853</ele>
        <time>2017-05-04T09:14:00Z</time>
      </trkpt>
      <trkpt lat="42.83118" lon="0.10248">
        <ele>2853</ele>
        <time>2017-05-04T09:14:14Z</time>
      </trkpt>
      <trkpt lat="42.83118" lon="0.10244">
        <ele>2856</ele>
        <time>2017-05-04T09:14:27Z</time>
      </trkpt>
      <trkpt lat="42.83115" lon="0.10244">
        <ele>2856</ele>
        <time>2017-05-04T09:14:43Z</time>
      </trkpt>
      <trkpt lat="42.83113" lon="0.10247">
        <ele>2856</ele>
        <time>2017-05-04T09:14:59Z</time>
      </trkpt>
      <trkpt lat="42.8311" lon="0.10253">
        <ele>2859</ele>
        <time>2017-05-04T09:15:30Z</time>
      </trkpt>
      <trkpt lat="42.83108" lon="0.10251">
        <ele>2861</ele>
        <time>2017-05-04T09:15:48Z</time>
      </trkpt>
      <trkpt lat="42.8311" lon="0.10247">
        <ele>2860</ele>
        <time>2017-05-04T09:15:54Z</time>
      </trkpt>
      <trkpt lat="42.83108" lon="0.10245">
        <ele>2861</ele>
        <time>2017-05-04T09:16:14Z</time>
      </trkpt>
      <trkpt lat="42.83105" lon="0.10242">
        <ele>2863</ele>
        <time>2017-05-04T09:16:40Z</time>
      </trkpt>
      <trkpt lat="42.83104" lon="0.10246">
        <ele>2863</ele>
        <time>2017-05-04T09:16:51Z</time>
      </trkpt>
      <trkpt lat="42.83102" lon="0.10249">
        <ele>2863</ele>
        <time>2017-05-04T09:17:13Z</time>
      </trkpt>
      <trkpt lat="42.83101" lon="0.10252">
        <ele>2866</ele>
        <time>2017-05-04T09:17:37Z</time>
      </trkpt>
      <trkpt lat="42.83099" lon="0.10249">
        <ele>2866</ele>
        <time>2017-05-04T09:18:23Z</time>
      </trkpt>
      <trkpt lat="42.83096" lon="0.1025">
        <ele>2869</ele>
        <time>2017-05-04T09:18:34Z</time>
      </trkpt>
      <trkpt lat="42.83095" lon="0.10254">
        <ele>2870</ele>
        <time>2017-05-04T09:18:40Z</time>
      </trkpt>
      <trkpt lat="42.83093" lon="0.10257">
        <ele>2872</ele>
        <time>2017-05-04T09:18:49Z</time>
      </trkpt>
      <trkpt lat="42.8309" lon="0.10257">
        <ele>2872</ele>
        <time>2017-05-04T09:18:56Z</time>
      </trkpt>
      <trkpt lat="42.83087" lon="0.10257">
        <ele>2873</ele>
        <time>2017-05-04T09:19:07Z</time>
      </trkpt>
      <trkpt lat="42.83086" lon="0.10261">
        <ele>2873</ele>
        <time>2017-05-04T09:19:15Z</time>
      </trkpt>
      <trkpt lat="42.83084" lon="0.10265">
        <ele>2876</ele>
        <time>2017-05-04T09:19:22Z</time>
      </trkpt>
      <trkpt lat="42.83082" lon="0.10267">
        <ele>2876</ele>
        <time>2017-05-04T09:19:30Z</time>
      </trkpt>
      <trkpt lat="42.83079" lon="0.10267">
        <ele>2876</ele>
        <time>2017-05-04T09:19:36Z</time>
      </trkpt>
      <trkpt lat="42.83076" lon="0.10266">
        <ele>2876</ele>
        <time>2017-05-04T09:19:43Z</time>
      </trkpt>
      <trkpt lat="42.83073" lon="0.10265">
        <ele>2878</ele>
        <time>2017-05-04T09:19:51Z</time>
      </trkpt>
      <trkpt lat="42.83071" lon="0.10269">
        <ele>2879</ele>
        <time>2017-05-04T09:19:57Z</time>
      </trkpt>
      <trkpt lat="42.83067" lon="0.10274">
        <ele>2881</ele>
        <time>2017-05-04T09:20:16Z</time>
      </trkpt>
      <trkpt lat="42.83061" lon="0.10274">
        <ele>2883</ele>
        <time>2017-05-04T09:20:30Z</time>
      </trkpt>
      <trkpt lat="42.83059" lon="0.10276">
        <ele>2885</ele>
        <time>2017-05-04T09:20:36Z</time>
      </trkpt>
      <trkpt lat="42.83056" lon="0.10283">
        <ele>2886</ele>
        <time>2017-05-04T09:20:53Z</time>
      </trkpt>
      <trkpt lat="42.8305" lon="0.10286">
        <ele>2887</ele>
        <time>2017-05-04T09:21:04Z</time>
      </trkpt>
      <trkpt lat="42.83047" lon="0.10287">
        <ele>2888</ele>
        <time>2017-05-04T09:21:10Z</time>
      </trkpt>
      <trkpt lat="42.83033" lon="0.10286">
        <ele>2889</ele>
        <time>2017-05-04T09:21:35Z</time>
      </trkpt>
      <trkpt lat="42.8303" lon="0.10287">
        <ele>2890</ele>
        <time>2017-05-04T09:21:40Z</time>
      </trkpt>
      <trkpt lat="42.83029" lon="0.10291">
        <ele>2891</ele>
        <time>2017-05-04T09:21:45Z</time>
      </trkpt>
      <trkpt lat="42.83017" lon="0.1031">
        <ele>2894</ele>
        <time>2017-05-04T09:22:18Z</time>
      </trkpt>
      <trkpt lat="42.83015" lon="0.10313">
        <ele>2895</ele>
        <time>2017-05-04T09:22:23Z</time>
      </trkpt>
      <trkpt lat="42.83" lon="0.10324">
        <ele>2900</ele>
        <time>2017-05-04T09:22:54Z</time>
      </trkpt>
      <trkpt lat="42.82989" lon="0.10331">
        <ele>2902</ele>
        <time>2017-05-04T09:23:15Z</time>
      </trkpt>
      <trkpt lat="42.82982" lon="0.10338">
        <ele>2903</ele>
        <time>2017-05-04T09:23:30Z</time>
      </trkpt>
      <trkpt lat="42.82974" lon="0.10349">
        <ele>2904</ele>
        <time>2017-05-04T09:23:48Z</time>
      </trkpt>
      <trkpt lat="42.82963" lon="0.10373">
        <ele>2907</ele>
        <time>2017-05-04T09:24:19Z</time>
      </trkpt>
      <trkpt lat="42.82955" lon="0.1039">
        <ele>2908</ele>
        <time>2017-05-04T09:24:42Z</time>
      </trkpt>
      <trkpt lat="42.82948" lon="0.10417">
        <ele>2911</ele>
        <time>2017-05-04T09:25:17Z</time>
      </trkpt>
      <trkpt lat="42.82945" lon="0.10445">
        <ele>2913</ele>
        <time>2017-05-04T09:25:51Z</time>
      </trkpt>
      <trkpt lat="42.82946" lon="0.10458">
        <ele>2915</ele>
        <time>2017-05-04T09:26:09Z</time>
      </trkpt>
      <trkpt lat="42.82948" lon="0.10469">
        <ele>2916</ele>
        <time>2017-05-04T09:26:25Z</time>
      </trkpt>
      <trkpt lat="42.82946" lon="0.10467">
        <ele>2917</ele>
        <time>2017-05-04T09:27:27Z</time>
      </trkpt>
      <trkpt lat="42.82945" lon="0.10463">
        <ele>2916</ele>
        <time>2017-05-04T09:27:59Z</time>
      </trkpt>
      <trkpt lat="42.82944" lon="0.10459">
        <ele>2916</ele>
        <time>2017-05-04T09:28:28Z</time>
      </trkpt>
      <trkpt lat="42.82947" lon="0.1046">
        <ele>2916</ele>
        <time>2017-05-04T09:33:15Z</time>
      </trkpt>
      <trkpt lat="42.82947" lon="0.10464">
        <ele>2916</ele>
        <time>2017-05-04T09:33:21Z</time>
      </trkpt>
      <trkpt lat="42.82948" lon="0.10468">
        <ele>2916</ele>
        <time>2017-05-04T09:33:27Z</time>
      </trkpt>
      <trkpt lat="42.82951" lon="0.10479">
        <ele>2920</ele>
        <time>2017-05-04T09:33:51Z</time>
      </trkpt>
      <trkpt lat="42.82955" lon="0.10494">
        <ele>2923</ele>
        <time>2017-05-04T09:34:22Z</time>
      </trkpt>
      <trkpt lat="42.8296" lon="0.10505">
        <ele>2926</ele>
        <time>2017-05-04T09:34:50Z</time>
      </trkpt>
      <trkpt lat="42.8296" lon="0.10509">
        <ele>2927</ele>
        <time>2017-05-04T09:34:56Z</time>
      </trkpt>
      <trkpt lat="42.82958" lon="0.10511">
        <ele>2929</ele>
        <time>2017-05-04T09:35:18Z</time>
      </trkpt>
      <trkpt lat="42.82955" lon="0.10509">
        <ele>2929</ele>
        <time>2017-05-04T09:35:24Z</time>
      </trkpt>
      <trkpt lat="42.82952" lon="0.10509">
        <ele>2931</ele>
        <time>2017-05-04T09:35:34Z</time>
      </trkpt>
      <trkpt lat="42.82952" lon="0.10513">
        <ele>2932</ele>
        <time>2017-05-04T09:35:53Z</time>
      </trkpt>
      <trkpt lat="42.82955" lon="0.1052">
        <ele>2934</ele>
        <time>2017-05-04T09:36:06Z</time>
      </trkpt>
      <trkpt lat="42.82956" lon="0.10537">
        <ele>2938</ele>
        <time>2017-05-04T09:36:32Z</time>
      </trkpt>
      <trkpt lat="42.82957" lon="0.1054">
        <ele>2938</ele>
        <time>2017-05-04T09:36:38Z</time>
      </trkpt>
      <trkpt lat="42.82954" lon="0.1054">
        <ele>2939</ele>
        <time>2017-05-04T09:37:00Z</time>
      </trkpt>
      <trkpt lat="42.82951" lon="0.10538">
        <ele>2940</ele>
        <time>2017-05-04T09:37:15Z</time>
      </trkpt>
      <trkpt lat="42.82944" lon="0.10533">
        <ele>2942</ele>
        <time>2017-05-04T09:37:32Z</time>
      </trkpt>
      <trkpt lat="42.82941" lon="0.10535">
        <ele>2944</ele>
        <time>2017-05-04T09:37:53Z</time>
      </trkpt>
      <trkpt lat="42.82941" lon="0.10538">
        <ele>2945</ele>
        <time>2017-05-04T09:37:59Z</time>
      </trkpt>
      <trkpt lat="42.82943" lon="0.10551">
        <ele>2947</ele>
        <time>2017-05-04T09:38:27Z</time>
      </trkpt>
      <trkpt lat="42.82946" lon="0.10563">
        <ele>2950</ele>
        <time>2017-05-04T09:38:43Z</time>
      </trkpt>
      <trkpt lat="42.82943" lon="0.10564">
        <ele>2950</ele>
        <time>2017-05-04T09:38:56Z</time>
      </trkpt>
      <trkpt lat="42.8294" lon="0.10564">
        <ele>2952</ele>
        <time>2017-05-04T09:39:01Z</time>
      </trkpt>
      <trkpt lat="42.82935" lon="0.10562">
        <ele>2954</ele>
        <time>2017-05-04T09:39:10Z</time>
      </trkpt>
      <trkpt lat="42.82933" lon="0.10567">
        <ele>2954</ele>
        <time>2017-05-04T09:39:19Z</time>
      </trkpt>
      <trkpt lat="42.82934" lon="0.10571">
        <ele>2956</ele>
        <time>2017-05-04T09:39:27Z</time>
      </trkpt>
      <trkpt lat="42.82932" lon="0.10573">
        <ele>2957</ele>
        <time>2017-05-04T09:39:39Z</time>
      </trkpt>
      <trkpt lat="42.82923" lon="0.10574">
        <ele>2959</ele>
        <time>2017-05-04T09:39:57Z</time>
      </trkpt>
      <trkpt lat="42.82922" lon="0.10578">
        <ele>2959</ele>
        <time>2017-05-04T09:40:02Z</time>
      </trkpt>
      <trkpt lat="42.82915" lon="0.10595">
        <ele>2964</ele>
        <time>2017-05-04T09:40:36Z</time>
      </trkpt>
      <trkpt lat="42.82914" lon="0.10598">
        <ele>2965</ele>
        <time>2017-05-04T09:40:41Z</time>
      </trkpt>
      <trkpt lat="42.82913" lon="0.10602">
        <ele>2967</ele>
        <time>2017-05-04T09:41:27Z</time>
      </trkpt>
      <trkpt lat="42.82914" lon="0.10606">
        <ele>2967</ele>
        <time>2017-05-04T09:41:33Z</time>
      </trkpt>
      <trkpt lat="42.8292" lon="0.10616">
        <ele>2970</ele>
        <time>2017-05-04T09:41:49Z</time>
      </trkpt>
      <trkpt lat="42.82921" lon="0.1062">
        <ele>2970</ele>
        <time>2017-05-04T09:41:54Z</time>
      </trkpt>
      <trkpt lat="42.82919" lon="0.10624">
        <ele>2972</ele>
        <time>2017-05-04T09:42:00Z</time>
      </trkpt>
      <trkpt lat="42.82917" lon="0.10625">
        <ele>2972</ele>
        <time>2017-05-04T09:42:05Z</time>
      </trkpt>
      <trkpt lat="42.82909" lon="0.10631">
        <ele>2973</ele>
        <time>2017-05-04T09:42:28Z</time>
      </trkpt>
      <trkpt lat="42.82907" lon="0.10634">
        <ele>2973</ele>
        <time>2017-05-04T09:42:32Z</time>
      </trkpt>
      <trkpt lat="42.82908" lon="0.10642">
        <ele>2975</ele>
        <time>2017-05-04T09:42:42Z</time>
      </trkpt>
      <trkpt lat="42.8291" lon="0.1065">
        <ele>2977</ele>
        <time>2017-05-04T09:42:54Z</time>
      </trkpt>
      <trkpt lat="42.82912" lon="0.10666">
        <ele>2980</ele>
        <time>2017-05-04T09:43:17Z</time>
      </trkpt>
      <trkpt lat="42.82912" lon="0.1067">
        <ele>2980</ele>
        <time>2017-05-04T09:43:22Z</time>
      </trkpt>
      <trkpt lat="42.8291" lon="0.10672">
        <ele>2981</ele>
        <time>2017-05-04T09:43:29Z</time>
      </trkpt>
      <trkpt lat="42.82908" lon="0.10673">
        <ele>2981</ele>
        <time>2017-05-04T09:43:37Z</time>
      </trkpt>
      <trkpt lat="42.82893" lon="0.10677">
        <ele>2985</ele>
        <time>2017-05-04T09:44:08Z</time>
      </trkpt>
      <trkpt lat="42.82883" lon="0.10683">
        <ele>2988</ele>
        <time>2017-05-04T09:44:33Z</time>
      </trkpt>
      <trkpt lat="42.82884" lon="0.10686">
        <ele>2988</ele>
        <time>2017-05-04T09:44:40Z</time>
      </trkpt>
      <trkpt lat="42.82888" lon="0.10697">
        <ele>2992</ele>
        <time>2017-05-04T09:44:59Z</time>
      </trkpt>
      <trkpt lat="42.82891" lon="0.10708">
        <ele>2994</ele>
        <time>2017-05-04T09:45:20Z</time>
      </trkpt>
      <trkpt lat="42.82888" lon="0.10711">
        <ele>2995</ele>
        <time>2017-05-04T09:45:25Z</time>
      </trkpt>
      <trkpt lat="42.82883" lon="0.10711">
        <ele>2996</ele>
        <time>2017-05-04T09:45:37Z</time>
      </trkpt>
      <trkpt lat="42.82874" lon="0.10715">
        <ele>2997</ele>
        <time>2017-05-04T09:45:57Z</time>
      </trkpt>
      <trkpt lat="42.82873" lon="0.10718">
        <ele>2998</ele>
        <time>2017-05-04T09:46:11Z</time>
      </trkpt>
      <trkpt lat="42.82873" lon="0.10722">
        <ele>2999</ele>
        <time>2017-05-04T09:46:20Z</time>
      </trkpt>
      <trkpt lat="42.82873" lon="0.10735">
        <ele>3002</ele>
        <time>2017-05-04T09:46:36Z</time>
      </trkpt>
      <trkpt lat="42.8287" lon="0.10736">
        <ele>3002</ele>
        <time>2017-05-04T09:46:45Z</time>
      </trkpt>
      <trkpt lat="42.82862" lon="0.1074">
        <ele>3005</ele>
        <time>2017-05-04T09:47:04Z</time>
      </trkpt>
      <trkpt lat="42.82859" lon="0.1074">
        <ele>3005</ele>
        <time>2017-05-04T09:47:10Z</time>
      </trkpt>
      <trkpt lat="42.82857" lon="0.10743">
        <ele>3006</ele>
        <time>2017-05-04T09:47:18Z</time>
      </trkpt>
      <trkpt lat="42.82857" lon="0.10747">
        <ele>3007</ele>
        <time>2017-05-04T09:47:24Z</time>
      </trkpt>
      <trkpt lat="42.82858" lon="0.10751">
        <ele>3008</ele>
        <time>2017-05-04T09:47:30Z</time>
      </trkpt>
      <trkpt lat="42.82861" lon="0.10766">
        <ele>3012</ele>
        <time>2017-05-04T09:47:57Z</time>
      </trkpt>
      <trkpt lat="42.82863" lon="0.10769">
        <ele>3014</ele>
        <time>2017-05-04T09:48:04Z</time>
      </trkpt>
      <trkpt lat="42.8286" lon="0.10771">
        <ele>3014</ele>
        <time>2017-05-04T09:48:19Z</time>
      </trkpt>
      <trkpt lat="42.82857" lon="0.10772">
        <ele>3014</ele>
        <time>2017-05-04T09:48:23Z</time>
      </trkpt>
      <trkpt lat="42.8284" lon="0.1077">
        <ele>3018</ele>
        <time>2017-05-04T09:48:58Z</time>
      </trkpt>
      <trkpt lat="42.82828" lon="0.10771">
        <ele>3021</ele>
        <time>2017-05-04T09:49:20Z</time>
      </trkpt>
      <trkpt lat="42.82828" lon="0.10775">
        <ele>3021</ele>
        <time>2017-05-04T09:49:27Z</time>
      </trkpt>
      <trkpt lat="42.82828" lon="0.10783">
        <ele>3022</ele>
        <time>2017-05-04T09:49:52Z</time>
      </trkpt>
      <trkpt lat="42.82826" lon="0.10792">
        <ele>3023</ele>
        <time>2017-05-04T09:50:01Z</time>
      </trkpt>
      <trkpt lat="42.82823" lon="0.10793">
        <ele>3025</ele>
        <time>2017-05-04T09:50:56Z</time>
      </trkpt>
      <trkpt lat="42.82818" lon="0.1079">
        <ele>3025</ele>
        <time>2017-05-04T09:51:05Z</time>
      </trkpt>
      <trkpt lat="42.82813" lon="0.10785">
        <ele>3027</ele>
        <time>2017-05-04T09:51:17Z</time>
      </trkpt>
      <trkpt lat="42.82807" lon="0.10785">
        <ele>3028</ele>
        <time>2017-05-04T09:51:27Z</time>
      </trkpt>
      <trkpt lat="42.82805" lon="0.10783">
        <ele>3029</ele>
        <time>2017-05-04T09:51:32Z</time>
      </trkpt>
      <trkpt lat="42.82792" lon="0.10776">
        <ele>3034</ele>
        <time>2017-05-04T09:52:02Z</time>
      </trkpt>
      <trkpt lat="42.82785" lon="0.10772">
        <ele>3037</ele>
        <time>2017-05-04T09:53:00Z</time>
      </trkpt>
      <trkpt lat="42.82787" lon="0.10774">
        <ele>3038</ele>
        <time>2017-05-04T10:18:22Z</time>
      </trkpt>
      <trkpt lat="42.82796" lon="0.10779">
        <ele>3030</ele>
        <time>2017-05-04T10:18:34Z</time>
      </trkpt>
      <trkpt lat="42.82799" lon="0.10781">
        <ele>3030</ele>
        <time>2017-05-04T10:18:36Z</time>
      </trkpt>
      <trkpt lat="42.828" lon="0.10777">
        <ele>3028</ele>
        <time>2017-05-04T10:18:38Z</time>
      </trkpt>
      <trkpt lat="42.82802" lon="0.10772">
        <ele>3027</ele>
        <time>2017-05-04T10:19:59Z</time>
      </trkpt>
      <trkpt lat="42.82805" lon="0.10773">
        <ele>3026</ele>
        <time>2017-05-04T10:20:01Z</time>
      </trkpt>
      <trkpt lat="42.8281" lon="0.10774">
        <ele>3024</ele>
        <time>2017-05-04T10:21:18Z</time>
      </trkpt>
      <trkpt lat="42.82823" lon="0.10782">
        <ele>3020</ele>
        <time>2017-05-04T10:21:24Z</time>
      </trkpt>
      <trkpt lat="42.82827" lon="0.10778">
        <ele>3019</ele>
        <time>2017-05-04T10:21:26Z</time>
      </trkpt>
      <trkpt lat="42.82827" lon="0.10771">
        <ele>3018</ele>
        <time>2017-05-04T10:21:28Z</time>
      </trkpt>
      <trkpt lat="42.82833" lon="0.10769">
        <ele>3017</ele>
        <time>2017-05-04T10:21:30Z</time>
      </trkpt>
      <trkpt lat="42.82847" lon="0.10774">
        <ele>3013</ele>
        <time>2017-05-04T10:21:36Z</time>
      </trkpt>
      <trkpt lat="42.82861" lon="0.10768">
        <ele>3009</ele>
        <time>2017-05-04T10:21:42Z</time>
      </trkpt>
      <trkpt lat="42.8286" lon="0.10765">
        <ele>3008</ele>
        <time>2017-05-04T10:21:43Z</time>
      </trkpt>
      <trkpt lat="42.82856" lon="0.10755">
        <ele>3006</ele>
        <time>2017-05-04T10:21:46Z</time>
      </trkpt>
      <trkpt lat="42.82855" lon="0.10749">
        <ele>3005</ele>
        <time>2017-05-04T10:21:48Z</time>
      </trkpt>
      <trkpt lat="42.8286" lon="0.10748">
        <ele>3004</ele>
        <time>2017-05-04T10:21:50Z</time>
      </trkpt>
      <trkpt lat="42.82863" lon="0.10747">
        <ele>3003</ele>
        <time>2017-05-04T10:21:51Z</time>
      </trkpt>
      <trkpt lat="42.82865" lon="0.10743">
        <ele>3002</ele>
        <time>2017-05-04T10:21:52Z</time>
      </trkpt>
      <trkpt lat="42.82865" lon="0.10732">
        <ele>3000</ele>
        <time>2017-05-04T10:21:55Z</time>
      </trkpt>
      <trkpt lat="42.8287" lon="0.10732">
        <ele>2999</ele>
        <time>2017-05-04T10:21:57Z</time>
      </trkpt>
      <trkpt lat="42.82874" lon="0.10733">
        <ele>2998</ele>
        <time>2017-05-04T10:21:59Z</time>
      </trkpt>
      <trkpt lat="42.82876" lon="0.10729">
        <ele>2998</ele>
        <time>2017-05-04T10:22:06Z</time>
      </trkpt>
      <trkpt lat="42.82875" lon="0.10725">
        <ele>2997</ele>
        <time>2017-05-04T10:23:22Z</time>
      </trkpt>
      <trkpt lat="42.82873" lon="0.10716">
        <ele>2996</ele>
        <time>2017-05-04T10:23:24Z</time>
      </trkpt>
      <trkpt lat="42.82876" lon="0.10714">
        <ele>2995</ele>
        <time>2017-05-04T10:23:25Z</time>
      </trkpt>
      <trkpt lat="42.82883" lon="0.10713">
        <ele>2994</ele>
        <time>2017-05-04T10:23:27Z</time>
      </trkpt>
      <trkpt lat="42.82886" lon="0.1071">
        <ele>2993</ele>
        <time>2017-05-04T10:23:28Z</time>
      </trkpt>
      <trkpt lat="42.82885" lon="0.10706">
        <ele>2992</ele>
        <time>2017-05-04T10:23:29Z</time>
      </trkpt>
      <trkpt lat="42.82882" lon="0.107">
        <ele>2991</ele>
        <time>2017-05-04T10:23:31Z</time>
      </trkpt>
      <trkpt lat="42.82882" lon="0.10696">
        <ele>2990</ele>
        <time>2017-05-04T10:23:32Z</time>
      </trkpt>
      <trkpt lat="42.82884" lon="0.10693">
        <ele>2990</ele>
        <time>2017-05-04T10:23:33Z</time>
      </trkpt>
      <trkpt lat="42.82889" lon="0.10692">
        <ele>2988</ele>
        <time>2017-05-04T10:23:35Z</time>
      </trkpt>
      <trkpt lat="42.82891" lon="0.10688">
        <ele>2987</ele>
        <time>2017-05-04T10:23:36Z</time>
      </trkpt>
      <trkpt lat="42.8289" lon="0.10684">
        <ele>2987</ele>
        <time>2017-05-04T10:23:37Z</time>
      </trkpt>
      <trkpt lat="42.82886" lon="0.10679">
        <ele>2985</ele>
        <time>2017-05-04T10:23:39Z</time>
      </trkpt>
      <trkpt lat="42.82886" lon="0.10674">
        <ele>2985</ele>
        <time>2017-05-04T10:23:40Z</time>
      </trkpt>
      <trkpt lat="42.82889" lon="0.10672">
        <ele>2984</ele>
        <time>2017-05-04T10:23:41Z</time>
      </trkpt>
      <trkpt lat="42.82897" lon="0.1067">
        <ele>2982</ele>
        <time>2017-05-04T10:23:44Z</time>
      </trkpt>
      <trkpt lat="42.82898" lon="0.10666">
        <ele>2981</ele>
        <time>2017-05-04T10:23:45Z</time>
      </trkpt>
      <trkpt lat="42.82896" lon="0.10659">
        <ele>2979</ele>
        <time>2017-05-04T10:23:47Z</time>
      </trkpt>
      <trkpt lat="42.82898" lon="0.10655">
        <ele>2979</ele>
        <time>2017-05-04T10:23:48Z</time>
      </trkpt>
      <trkpt lat="42.82904" lon="0.10652">
        <ele>2977</ele>
        <time>2017-05-04T10:23:50Z</time>
      </trkpt>
      <trkpt lat="42.82905" lon="0.10647">
        <ele>2975</ele>
        <time>2017-05-04T10:23:51Z</time>
      </trkpt>
      <trkpt lat="42.82903" lon="0.10637">
        <ele>2974</ele>
        <time>2017-05-04T10:23:53Z</time>
      </trkpt>
      <trkpt lat="42.82905" lon="0.10633">
        <ele>2973</ele>
        <time>2017-05-04T10:23:54Z</time>
      </trkpt>
      <trkpt lat="42.82909" lon="0.1063">
        <ele>2972</ele>
        <time>2017-05-04T10:23:56Z</time>
      </trkpt>
      <trkpt lat="42.82912" lon="0.1062">
        <ele>2970</ele>
        <time>2017-05-04T10:23:59Z</time>
      </trkpt>
      <trkpt lat="42.82917" lon="0.10616">
        <ele>2969</ele>
        <time>2017-05-04T10:24:01Z</time>
      </trkpt>
      <trkpt lat="42.82928" lon="0.1061">
        <ele>2967</ele>
        <time>2017-05-04T10:24:05Z</time>
      </trkpt>
      <trkpt lat="42.8293" lon="0.10606">
        <ele>2966</ele>
        <time>2017-05-04T10:24:06Z</time>
      </trkpt>
      <trkpt lat="42.82929" lon="0.10602">
        <ele>2965</ele>
        <time>2017-05-04T10:24:18Z</time>
      </trkpt>
      <trkpt lat="42.82927" lon="0.10597">
        <ele>2964</ele>
        <time>2017-05-04T10:24:20Z</time>
      </trkpt>
      <trkpt lat="42.82925" lon="0.10594">
        <ele>2964</ele>
        <time>2017-05-04T10:24:21Z</time>
      </trkpt>
      <trkpt lat="42.82924" lon="0.1059">
        <ele>2963</ele>
        <time>2017-05-04T10:24:22Z</time>
      </trkpt>
      <trkpt lat="42.82928" lon="0.10586">
        <ele>2962</ele>
        <time>2017-05-04T10:24:24Z</time>
      </trkpt>
      <trkpt lat="42.82929" lon="0.10582">
        <ele>2960</ele>
        <time>2017-05-04T10:24:25Z</time>
      </trkpt>
      <trkpt lat="42.82928" lon="0.10579">
        <ele>2959</ele>
        <time>2017-05-04T10:24:26Z</time>
      </trkpt>
      <trkpt lat="42.82927" lon="0.10573">
        <ele>2958</ele>
        <time>2017-05-04T10:24:28Z</time>
      </trkpt>
      <trkpt lat="42.82932" lon="0.10572">
        <ele>2957</ele>
        <time>2017-05-04T10:24:30Z</time>
      </trkpt>
      <trkpt lat="42.82933" lon="0.10567">
        <ele>2956</ele>
        <time>2017-05-04T10:24:32Z</time>
      </trkpt>
      <trkpt lat="42.82934" lon="0.10564">
        <ele>2955</ele>
        <time>2017-05-04T10:25:34Z</time>
      </trkpt>
      <trkpt lat="42.82934" lon="0.10558">
        <ele>2953</ele>
        <time>2017-05-04T10:25:36Z</time>
      </trkpt>
      <trkpt lat="42.82937" lon="0.10558">
        <ele>2953</ele>
        <time>2017-05-04T10:25:37Z</time>
      </trkpt>
      <trkpt lat="42.8294" lon="0.10559">
        <ele>2951</ele>
        <time>2017-05-04T10:25:39Z</time>
      </trkpt>
      <trkpt lat="42.8294" lon="0.10554">
        <ele>2950</ele>
        <time>2017-05-04T10:25:41Z</time>
      </trkpt>
      <trkpt lat="42.82942" lon="0.10551">
        <ele>2949</ele>
        <time>2017-05-04T10:25:43Z</time>
      </trkpt>
      <trkpt lat="42.82946" lon="0.10553">
        <ele>2947</ele>
        <time>2017-05-04T10:25:45Z</time>
      </trkpt>
      <trkpt lat="42.82948" lon="0.1055">
        <ele>2946</ele>
        <time>2017-05-04T10:25:47Z</time>
      </trkpt>
      <trkpt lat="42.82948" lon="0.10545">
        <ele>2944</ele>
        <time>2017-05-04T10:25:50Z</time>
      </trkpt>
      <trkpt lat="42.82951" lon="0.10548">
        <ele>2943</ele>
        <time>2017-05-04T10:26:00Z</time>
      </trkpt>
      <trkpt lat="42.82951" lon="0.10544">
        <ele>2943</ele>
        <time>2017-05-04T10:26:02Z</time>
      </trkpt>
      <trkpt lat="42.82953" lon="0.1054">
        <ele>2942</ele>
        <time>2017-05-04T10:26:18Z</time>
      </trkpt>
      <trkpt lat="42.82952" lon="0.10535">
        <ele>2941</ele>
        <time>2017-05-04T10:26:20Z</time>
      </trkpt>
      <trkpt lat="42.82954" lon="0.1053">
        <ele>2940</ele>
        <time>2017-05-04T10:26:23Z</time>
      </trkpt>
      <trkpt lat="42.82958" lon="0.10532">
        <ele>2938</ele>
        <time>2017-05-04T10:26:26Z</time>
      </trkpt>
      <trkpt lat="42.82959" lon="0.10528">
        <ele>2937</ele>
        <time>2017-05-04T10:26:27Z</time>
      </trkpt>
      <trkpt lat="42.82959" lon="0.10518">
        <ele>2934</ele>
        <time>2017-05-04T10:26:30Z</time>
      </trkpt>
      <trkpt lat="42.82959" lon="0.10515">
        <ele>2932</ele>
        <time>2017-05-04T10:28:00Z</time>
      </trkpt>
      <trkpt lat="42.82957" lon="0.10506">
        <ele>2930</ele>
        <time>2017-05-04T10:28:04Z</time>
      </trkpt>
      <trkpt lat="42.82958" lon="0.10502">
        <ele>2929</ele>
        <time>2017-05-04T10:28:19Z</time>
      </trkpt>
      <trkpt lat="42.82954" lon="0.10485">
        <ele>2923</ele>
        <time>2017-05-04T10:28:37Z</time>
      </trkpt>
      <trkpt lat="42.82945" lon="0.10418">
        <ele>2913</ele>
        <time>2017-05-04T10:29:06Z</time>
      </trkpt>
      <trkpt lat="42.82949" lon="0.10408">
        <ele>2911</ele>
        <time>2017-05-04T10:29:10Z</time>
      </trkpt>
      <trkpt lat="42.82968" lon="0.10364">
        <ele>2907</ele>
        <time>2017-05-04T10:29:24Z</time>
      </trkpt>
      <trkpt lat="42.82984" lon="0.10338">
        <ele>2903</ele>
        <time>2017-05-04T10:29:45Z</time>
      </trkpt>
      <trkpt lat="42.82987" lon="0.10339">
        <ele>2903</ele>
        <time>2017-05-04T10:31:10Z</time>
      </trkpt>
      <trkpt lat="42.82987" lon="0.10344">
        <ele>2903</ele>
        <time>2017-05-04T10:31:12Z</time>
      </trkpt>
      <trkpt lat="42.82987" lon="0.10356">
        <ele>2902</ele>
        <time>2017-05-04T10:31:59Z</time>
      </trkpt>
      <trkpt lat="42.82989" lon="0.10396">
        <ele>2896</ele>
        <time>2017-05-04T10:32:15Z</time>
      </trkpt>
      <trkpt lat="42.82992" lon="0.10395">
        <ele>2895</ele>
        <time>2017-05-04T10:32:17Z</time>
      </trkpt>
      <trkpt lat="42.82995" lon="0.10396">
        <ele>2893</ele>
        <time>2017-05-04T10:32:19Z</time>
      </trkpt>
      <trkpt lat="42.82998" lon="0.10399">
        <ele>2892</ele>
        <time>2017-05-04T10:32:21Z</time>
      </trkpt>
      <trkpt lat="42.83001" lon="0.10396">
        <ele>2890</ele>
        <time>2017-05-04T10:32:23Z</time>
      </trkpt>
      <trkpt lat="42.83004" lon="0.104">
        <ele>2889</ele>
        <time>2017-05-04T10:32:25Z</time>
      </trkpt>
      <trkpt lat="42.83007" lon="0.104">
        <ele>2886</ele>
        <time>2017-05-04T10:32:27Z</time>
      </trkpt>
      <trkpt lat="42.8301" lon="0.10399">
        <ele>2884</ele>
        <time>2017-05-04T10:32:29Z</time>
      </trkpt>
      <trkpt lat="42.83011" lon="0.10405">
        <ele>2883</ele>
        <time>2017-05-04T10:32:31Z</time>
      </trkpt>
      <trkpt lat="42.83014" lon="0.10404">
        <ele>2881</ele>
        <time>2017-05-04T10:32:33Z</time>
      </trkpt>
      <trkpt lat="42.83018" lon="0.10403">
        <ele>2879</ele>
        <time>2017-05-04T10:33:28Z</time>
      </trkpt>
      <trkpt lat="42.83021" lon="0.10402">
        <ele>2878</ele>
        <time>2017-05-04T10:33:30Z</time>
      </trkpt>
      <trkpt lat="42.83022" lon="0.10407">
        <ele>2877</ele>
        <time>2017-05-04T10:33:32Z</time>
      </trkpt>
      <trkpt lat="42.83025" lon="0.10408">
        <ele>2874</ele>
        <time>2017-05-04T10:33:34Z</time>
      </trkpt>
      <trkpt lat="42.83026" lon="0.10402">
        <ele>2873</ele>
        <time>2017-05-04T10:33:36Z</time>
      </trkpt>
      <trkpt lat="42.8303" lon="0.10405">
        <ele>2871</ele>
        <time>2017-05-04T10:33:38Z</time>
      </trkpt>
      <trkpt lat="42.83031" lon="0.1041">
        <ele>2869</ele>
        <time>2017-05-04T10:33:40Z</time>
      </trkpt>
      <trkpt lat="42.83034" lon="0.10411">
        <ele>2869</ele>
        <time>2017-05-04T10:33:41Z</time>
      </trkpt>
      <trkpt lat="42.83036" lon="0.10407">
        <ele>2868</ele>
        <time>2017-05-04T10:33:42Z</time>
      </trkpt>
      <trkpt lat="42.83037" lon="0.10404">
        <ele>2866</ele>
        <time>2017-05-04T10:33:44Z</time>
      </trkpt>
      <trkpt lat="42.83039" lon="0.10406">
        <ele>2865</ele>
        <time>2017-05-04T10:33:46Z</time>
      </trkpt>
      <trkpt lat="42.83043" lon="0.10406">
        <ele>2863</ele>
        <time>2017-05-04T10:33:48Z</time>
      </trkpt>
      <trkpt lat="42.83044" lon="0.10403">
        <ele>2862</ele>
        <time>2017-05-04T10:33:49Z</time>
      </trkpt>
      <trkpt lat="42.83047" lon="0.10401">
        <ele>2860</ele>
        <time>2017-05-04T10:34:34Z</time>
      </trkpt>
      <trkpt lat="42.8305" lon="0.10401">
        <ele>2860</ele>
        <time>2017-05-04T10:34:37Z</time>
      </trkpt>
      <trkpt lat="42.83052" lon="0.10405">
        <ele>2857</ele>
        <time>2017-05-04T10:34:39Z</time>
      </trkpt>
      <trkpt lat="42.83055" lon="0.10402">
        <ele>2856</ele>
        <time>2017-05-04T10:34:41Z</time>
      </trkpt>
      <trkpt lat="42.83058" lon="0.10403">
        <ele>2855</ele>
        <time>2017-05-04T10:34:43Z</time>
      </trkpt>
      <trkpt lat="42.83058" lon="0.10407">
        <ele>2854</ele>
        <time>2017-05-04T10:34:45Z</time>
      </trkpt>
      <trkpt lat="42.83058" lon="0.10412">
        <ele>2852</ele>
        <time>2017-05-04T10:34:47Z</time>
      </trkpt>
      <trkpt lat="42.8306" lon="0.10417">
        <ele>2851</ele>
        <time>2017-05-04T10:34:50Z</time>
      </trkpt>
      <trkpt lat="42.83062" lon="0.10416">
        <ele>2850</ele>
        <time>2017-05-04T10:34:51Z</time>
      </trkpt>
      <trkpt lat="42.83064" lon="0.10412">
        <ele>2848</ele>
        <time>2017-05-04T10:34:53Z</time>
      </trkpt>
      <trkpt lat="42.83067" lon="0.10412">
        <ele>2847</ele>
        <time>2017-05-04T10:34:56Z</time>
      </trkpt>
      <trkpt lat="42.83066" lon="0.10416">
        <ele>2846</ele>
        <time>2017-05-04T10:34:57Z</time>
      </trkpt>
      <trkpt lat="42.8307" lon="0.10418">
        <ele>2843</ele>
        <time>2017-05-04T10:35:00Z</time>
      </trkpt>
      <trkpt lat="42.83071" lon="0.10414">
        <ele>2842</ele>
        <time>2017-05-04T10:35:02Z</time>
      </trkpt>
      <trkpt lat="42.83074" lon="0.10417">
        <ele>2840</ele>
        <time>2017-05-04T10:35:04Z</time>
      </trkpt>
      <trkpt lat="42.83076" lon="0.10419">
        <ele>2838</ele>
        <time>2017-05-04T10:35:07Z</time>
      </trkpt>
      <trkpt lat="42.8308" lon="0.10417">
        <ele>2833</ele>
        <time>2017-05-04T10:35:26Z</time>
      </trkpt>
      <trkpt lat="42.83081" lon="0.10421">
        <ele>2832</ele>
        <time>2017-05-04T10:35:28Z</time>
      </trkpt>
      <trkpt lat="42.83084" lon="0.10422">
        <ele>2830</ele>
        <time>2017-05-04T10:35:30Z</time>
      </trkpt>
      <trkpt lat="42.83087" lon="0.10419">
        <ele>2830</ele>
        <time>2017-05-04T10:36:21Z</time>
      </trkpt>
      <trkpt lat="42.83091" lon="0.10419">
        <ele>2830</ele>
        <time>2017-05-04T10:37:00Z</time>
      </trkpt>
      <trkpt lat="42.83094" lon="0.10416">
        <ele>2830</ele>
        <time>2017-05-04T10:37:02Z</time>
      </trkpt>
      <trkpt lat="42.83096" lon="0.10415">
        <ele>2827</ele>
        <time>2017-05-04T10:38:16Z</time>
      </trkpt>
      <trkpt lat="42.83099" lon="0.10411">
        <ele>2825</ele>
        <time>2017-05-04T10:39:01Z</time>
      </trkpt>
      <trkpt lat="42.83109" lon="0.1039">
        <ele>2819</ele>
        <time>2017-05-04T10:39:12Z</time>
      </trkpt>
      <trkpt lat="42.83118" lon="0.10374">
        <ele>2815</ele>
        <time>2017-05-04T10:40:14Z</time>
      </trkpt>
      <trkpt lat="42.83136" lon="0.1035">
        <ele>2808</ele>
        <time>2017-05-04T10:40:36Z</time>
      </trkpt>
      <trkpt lat="42.83149" lon="0.10338">
        <ele>2804</ele>
        <time>2017-05-04T10:40:46Z</time>
      </trkpt>
      <trkpt lat="42.83163" lon="0.10328">
        <ele>2802</ele>
        <time>2017-05-04T10:40:54Z</time>
      </trkpt>
      <trkpt lat="42.83179" lon="0.1032">
        <ele>2799</ele>
        <time>2017-05-04T10:41:04Z</time>
      </trkpt>
      <trkpt lat="42.83222" lon="0.10301">
        <ele>2792</ele>
        <time>2017-05-04T10:41:31Z</time>
      </trkpt>
      <trkpt lat="42.83226" lon="0.10299">
        <ele>2791</ele>
        <time>2017-05-04T10:41:33Z</time>
      </trkpt>
      <trkpt lat="42.83229" lon="0.10296">
        <ele>2790</ele>
        <time>2017-05-04T10:41:35Z</time>
      </trkpt>
      <trkpt lat="42.83266" lon="0.10275">
        <ele>2787</ele>
        <time>2017-05-04T10:42:06Z</time>
      </trkpt>
      <trkpt lat="42.83292" lon="0.10268">
        <ele>2784</ele>
        <time>2017-05-04T10:42:30Z</time>
      </trkpt>
      <trkpt lat="42.83335" lon="0.10251">
        <ele>2777</ele>
        <time>2017-05-04T10:43:00Z</time>
      </trkpt>
      <trkpt lat="42.83338" lon="0.1025">
        <ele>2778</ele>
        <time>2017-05-04T10:43:12Z</time>
      </trkpt>
      <trkpt lat="42.83342" lon="0.10252">
        <ele>2777</ele>
        <time>2017-05-04T10:43:14Z</time>
      </trkpt>
      <trkpt lat="42.83342" lon="0.10256">
        <ele>2776</ele>
        <time>2017-05-04T10:43:16Z</time>
      </trkpt>
      <trkpt lat="42.83346" lon="0.10255">
        <ele>2775</ele>
        <time>2017-05-04T10:43:18Z</time>
      </trkpt>
      <trkpt lat="42.83395" lon="0.10257">
        <ele>2766</ele>
        <time>2017-05-04T10:43:49Z</time>
      </trkpt>
      <trkpt lat="42.83399" lon="0.10266">
        <ele>2765</ele>
        <time>2017-05-04T10:43:53Z</time>
      </trkpt>
      <trkpt lat="42.83403" lon="0.10279">
        <ele>2762</ele>
        <time>2017-05-04T10:43:59Z</time>
      </trkpt>
      <trkpt lat="42.83401" lon="0.10285">
        <ele>2761</ele>
        <time>2017-05-04T10:44:01Z</time>
      </trkpt>
      <trkpt lat="42.83408" lon="0.10296">
        <ele>2760</ele>
        <time>2017-05-04T10:44:05Z</time>
      </trkpt>
      <trkpt lat="42.8341" lon="0.10299">
        <ele>2759</ele>
        <time>2017-05-04T10:44:06Z</time>
      </trkpt>
      <trkpt lat="42.83414" lon="0.10309">
        <ele>2757</ele>
        <time>2017-05-04T10:44:09Z</time>
      </trkpt>
      <trkpt lat="42.83418" lon="0.10331">
        <ele>2754</ele>
        <time>2017-05-04T10:44:13Z</time>
      </trkpt>
      <trkpt lat="42.83422" lon="0.10366">
        <ele>2753</ele>
        <time>2017-05-04T10:45:49Z</time>
      </trkpt>
      <trkpt lat="42.83425" lon="0.10365">
        <ele>2753</ele>
        <time>2017-05-04T10:56:41Z</time>
      </trkpt>
      <trkpt lat="42.83426" lon="0.10369">
        <ele>2753</ele>
        <time>2017-05-04T11:02:31Z</time>
      </trkpt>
      <trkpt lat="42.8344" lon="0.10381">
        <ele>2750</ele>
        <time>2017-05-04T11:03:05Z</time>
      </trkpt>
      <trkpt lat="42.83459" lon="0.10398">
        <ele>2745</ele>
        <time>2017-05-04T11:03:15Z</time>
      </trkpt>
      <trkpt lat="42.83463" lon="0.10396">
        <ele>2744</ele>
        <time>2017-05-04T11:03:17Z</time>
      </trkpt>
      <trkpt lat="42.83476" lon="0.10399">
        <ele>2740</ele>
        <time>2017-05-04T11:03:23Z</time>
      </trkpt>
      <trkpt lat="42.83478" lon="0.10395">
        <ele>2741</ele>
        <time>2017-05-04T11:04:23Z</time>
      </trkpt>
      <trkpt lat="42.83482" lon="0.10396">
        <ele>2741</ele>
        <time>2017-05-04T11:04:25Z</time>
      </trkpt>
      <trkpt lat="42.83485" lon="0.10394">
        <ele>2739</ele>
        <time>2017-05-04T11:04:27Z</time>
      </trkpt>
      <trkpt lat="42.83489" lon="0.10396">
        <ele>2738</ele>
        <time>2017-05-04T11:04:29Z</time>
      </trkpt>
      <trkpt lat="42.83489" lon="0.10401">
        <ele>2738</ele>
        <time>2017-05-04T11:04:31Z</time>
      </trkpt>
      <trkpt lat="42.83492" lon="0.104">
        <ele>2737</ele>
        <time>2017-05-04T11:04:33Z</time>
      </trkpt>
      <trkpt lat="42.83496" lon="0.10398">
        <ele>2735</ele>
        <time>2017-05-04T11:04:35Z</time>
      </trkpt>
      <trkpt lat="42.83497" lon="0.10401">
        <ele>2734</ele>
        <time>2017-05-04T11:05:29Z</time>
      </trkpt>
      <trkpt lat="42.835" lon="0.10402">
        <ele>2731</ele>
        <time>2017-05-04T11:06:08Z</time>
      </trkpt>
      <trkpt lat="42.83499" lon="0.10407">
        <ele>2731</ele>
        <time>2017-05-04T11:06:10Z</time>
      </trkpt>
      <trkpt lat="42.83502" lon="0.10408">
        <ele>2730</ele>
        <time>2017-05-04T11:06:12Z</time>
      </trkpt>
      <trkpt lat="42.83505" lon="0.10405">
        <ele>2728</ele>
        <time>2017-05-04T11:06:14Z</time>
      </trkpt>
      <trkpt lat="42.83509" lon="0.10406">
        <ele>2727</ele>
        <time>2017-05-04T11:06:16Z</time>
      </trkpt>
      <trkpt lat="42.83509" lon="0.10411">
        <ele>2725</ele>
        <time>2017-05-04T11:06:17Z</time>
      </trkpt>
      <trkpt lat="42.8351" lon="0.10415">
        <ele>2724</ele>
        <time>2017-05-04T11:06:19Z</time>
      </trkpt>
      <trkpt lat="42.83514" lon="0.10412">
        <ele>2723</ele>
        <time>2017-05-04T11:06:21Z</time>
      </trkpt>
      <trkpt lat="42.83517" lon="0.1041">
        <ele>2723</ele>
        <time>2017-05-04T11:07:28Z</time>
      </trkpt>
      <trkpt lat="42.83523" lon="0.10419">
        <ele>2720</ele>
        <time>2017-05-04T11:07:33Z</time>
      </trkpt>
      <trkpt lat="42.83526" lon="0.10416">
        <ele>2718</ele>
        <time>2017-05-04T11:07:35Z</time>
      </trkpt>
      <trkpt lat="42.83528" lon="0.10421">
        <ele>2717</ele>
        <time>2017-05-04T11:07:37Z</time>
      </trkpt>
      <trkpt lat="42.83531" lon="0.10422">
        <ele>2715</ele>
        <time>2017-05-04T11:07:39Z</time>
      </trkpt>
      <trkpt lat="42.83534" lon="0.10419">
        <ele>2713</ele>
        <time>2017-05-04T11:07:41Z</time>
      </trkpt>
      <trkpt lat="42.83536" lon="0.10424">
        <ele>2712</ele>
        <time>2017-05-04T11:07:43Z</time>
      </trkpt>
      <trkpt lat="42.8354" lon="0.10423">
        <ele>2710</ele>
        <time>2017-05-04T11:07:45Z</time>
      </trkpt>
      <trkpt lat="42.83543" lon="0.10421">
        <ele>2710</ele>
        <time>2017-05-04T11:07:47Z</time>
      </trkpt>
      <trkpt lat="42.83546" lon="0.10421">
        <ele>2708</ele>
        <time>2017-05-04T11:07:49Z</time>
      </trkpt>
      <trkpt lat="42.83547" lon="0.10426">
        <ele>2707</ele>
        <time>2017-05-04T11:07:51Z</time>
      </trkpt>
      <trkpt lat="42.83551" lon="0.10425">
        <ele>2705</ele>
        <time>2017-05-04T11:07:53Z</time>
      </trkpt>
      <trkpt lat="42.83554" lon="0.10429">
        <ele>2705</ele>
        <time>2017-05-04T11:07:55Z</time>
      </trkpt>
      <trkpt lat="42.83555" lon="0.10433">
        <ele>2702</ele>
        <time>2017-05-04T11:07:57Z</time>
      </trkpt>
      <trkpt lat="42.83558" lon="0.10432">
        <ele>2701</ele>
        <time>2017-05-04T11:08:09Z</time>
      </trkpt>
      <trkpt lat="42.83562" lon="0.1043">
        <ele>2700</ele>
        <time>2017-05-04T11:08:11Z</time>
      </trkpt>
      <trkpt lat="42.83566" lon="0.10431">
        <ele>2699</ele>
        <time>2017-05-04T11:08:14Z</time>
      </trkpt>
      <trkpt lat="42.83565" lon="0.10434">
        <ele>2698</ele>
        <time>2017-05-04T11:08:15Z</time>
      </trkpt>
      <trkpt lat="42.83567" lon="0.10437">
        <ele>2697</ele>
        <time>2017-05-04T11:08:17Z</time>
      </trkpt>
      <trkpt lat="42.8357" lon="0.10439">
        <ele>2695</ele>
        <time>2017-05-04T11:08:31Z</time>
      </trkpt>
      <trkpt lat="42.83581" lon="0.10434">
        <ele>2693</ele>
        <time>2017-05-04T11:08:38Z</time>
      </trkpt>
      <trkpt lat="42.83582" lon="0.10439">
        <ele>2691</ele>
        <time>2017-05-04T11:08:40Z</time>
      </trkpt>
      <trkpt lat="42.83581" lon="0.10444">
        <ele>2690</ele>
        <time>2017-05-04T11:08:42Z</time>
      </trkpt>
      <trkpt lat="42.83586" lon="0.10444">
        <ele>2688</ele>
        <time>2017-05-04T11:08:44Z</time>
      </trkpt>
      <trkpt lat="42.83626" lon="0.10441">
        <ele>2681</ele>
        <time>2017-05-04T11:09:14Z</time>
      </trkpt>
      <trkpt lat="42.83691" lon="0.10429">
        <ele>2674</ele>
        <time>2017-05-04T11:09:44Z</time>
      </trkpt>
      <trkpt lat="42.83753" lon="0.10442">
        <ele>2668</ele>
        <time>2017-05-04T11:10:24Z</time>
      </trkpt>
      <trkpt lat="42.83804" lon="0.10479">
        <ele>2663</ele>
        <time>2017-05-04T11:10:53Z</time>
      </trkpt>
      <trkpt lat="42.83805" lon="0.10491">
        <ele>2662</ele>
        <time>2017-05-04T11:11:06Z</time>
      </trkpt>
      <trkpt lat="42.83809" lon="0.10515">
        <ele>2664</ele>
        <time>2017-05-04T11:11:38Z</time>
      </trkpt>
      <trkpt lat="42.83814" lon="0.10526">
        <ele>2665</ele>
        <time>2017-05-04T11:11:53Z</time>
      </trkpt>
      <trkpt lat="42.83824" lon="0.10543">
        <ele>2666</ele>
        <time>2017-05-04T11:12:18Z</time>
      </trkpt>
      <trkpt lat="42.83836" lon="0.10552">
        <ele>2665</ele>
        <time>2017-05-04T11:12:34Z</time>
      </trkpt>
      <trkpt lat="42.83842" lon="0.10556">
        <ele>2666</ele>
        <time>2017-05-04T11:12:43Z</time>
      </trkpt>
      <trkpt lat="42.83859" lon="0.1059">
        <ele>2663</ele>
        <time>2017-05-04T11:13:02Z</time>
      </trkpt>
      <trkpt lat="42.83866" lon="0.10604">
        <ele>2661</ele>
        <time>2017-05-04T11:13:06Z</time>
      </trkpt>
      <trkpt lat="42.83896" lon="0.10641">
        <ele>2659</ele>
        <time>2017-05-04T11:13:37Z</time>
      </trkpt>
      <trkpt lat="42.8391" lon="0.10662">
        <ele>2655</ele>
        <time>2017-05-04T11:14:11Z</time>
      </trkpt>
      <trkpt lat="42.83938" lon="0.10691">
        <ele>2650</ele>
        <time>2017-05-04T11:14:28Z</time>
      </trkpt>
      <trkpt lat="42.83951" lon="0.10695">
        <ele>2648</ele>
        <time>2017-05-04T11:14:34Z</time>
      </trkpt>
      <trkpt lat="42.84028" lon="0.10713">
        <ele>2640</ele>
        <time>2017-05-04T11:15:04Z</time>
      </trkpt>
      <trkpt lat="42.84116" lon="0.10722">
        <ele>2635</ele>
        <time>2017-05-04T11:15:34Z</time>
      </trkpt>
      <trkpt lat="42.84161" lon="0.10719">
        <ele>2632</ele>
        <time>2017-05-04T11:16:05Z</time>
      </trkpt>
      <trkpt lat="42.84162" lon="0.10715">
        <ele>2633</ele>
        <time>2017-05-04T11:16:20Z</time>
      </trkpt>
      <trkpt lat="42.8417" lon="0.10714">
        <ele>2632</ele>
        <time>2017-05-04T11:16:24Z</time>
      </trkpt>
      <trkpt lat="42.84172" lon="0.10711">
        <ele>2631</ele>
        <time>2017-05-04T11:16:25Z</time>
      </trkpt>
      <trkpt lat="42.84175" lon="0.1071">
        <ele>2630</ele>
        <time>2017-05-04T11:16:26Z</time>
      </trkpt>
      <trkpt lat="42.84178" lon="0.10711">
        <ele>2629</ele>
        <time>2017-05-04T11:16:27Z</time>
      </trkpt>
      <trkpt lat="42.8418" lon="0.10708">
        <ele>2628</ele>
        <time>2017-05-04T11:16:28Z</time>
      </trkpt>
      <trkpt lat="42.84181" lon="0.10704">
        <ele>2627</ele>
        <time>2017-05-04T11:16:29Z</time>
      </trkpt>
      <trkpt lat="42.84184" lon="0.10703">
        <ele>2626</ele>
        <time>2017-05-04T11:16:30Z</time>
      </trkpt>
      <trkpt lat="42.84189" lon="0.10704">
        <ele>2624</ele>
        <time>2017-05-04T11:16:32Z</time>
      </trkpt>
      <trkpt lat="42.8419" lon="0.10701">
        <ele>2623</ele>
        <time>2017-05-04T11:16:33Z</time>
      </trkpt>
      <trkpt lat="42.84191" lon="0.10696">
        <ele>2622</ele>
        <time>2017-05-04T11:16:35Z</time>
      </trkpt>
      <trkpt lat="42.84193" lon="0.10694">
        <ele>2621</ele>
        <time>2017-05-04T11:16:36Z</time>
      </trkpt>
      <trkpt lat="42.84195" lon="0.10695">
        <ele>2621</ele>
        <time>2017-05-04T11:16:37Z</time>
      </trkpt>
      <trkpt lat="42.84199" lon="0.10699">
        <ele>2619</ele>
        <time>2017-05-04T11:16:39Z</time>
      </trkpt>
      <trkpt lat="42.84202" lon="0.10697">
        <ele>2618</ele>
        <time>2017-05-04T11:16:40Z</time>
      </trkpt>
      <trkpt lat="42.84206" lon="0.10689">
        <ele>2616</ele>
        <time>2017-05-04T11:16:42Z</time>
      </trkpt>
      <trkpt lat="42.84211" lon="0.10681">
        <ele>2613</ele>
        <time>2017-05-04T11:16:44Z</time>
      </trkpt>
      <trkpt lat="42.84213" lon="0.10678">
        <ele>2611</ele>
        <time>2017-05-04T11:17:08Z</time>
      </trkpt>
      <trkpt lat="42.84216" lon="0.10677">
        <ele>2610</ele>
        <time>2017-05-04T11:17:09Z</time>
      </trkpt>
      <trkpt lat="42.84232" lon="0.10665">
        <ele>2605</ele>
        <time>2017-05-04T11:17:13Z</time>
      </trkpt>
      <trkpt lat="42.84248" lon="0.10651">
        <ele>2599</ele>
        <time>2017-05-04T11:17:19Z</time>
      </trkpt>
      <trkpt lat="42.8425" lon="0.10655">
        <ele>2598</ele>
        <time>2017-05-04T11:17:21Z</time>
      </trkpt>
      <trkpt lat="42.84253" lon="0.10656">
        <ele>2595</ele>
        <time>2017-05-04T11:17:23Z</time>
      </trkpt>
      <trkpt lat="42.84255" lon="0.10654">
        <ele>2595</ele>
        <time>2017-05-04T11:17:24Z</time>
      </trkpt>
      <trkpt lat="42.84258" lon="0.10649">
        <ele>2593</ele>
        <time>2017-05-04T11:17:26Z</time>
      </trkpt>
      <trkpt lat="42.84265" lon="0.10647">
        <ele>2590</ele>
        <time>2017-05-04T11:17:47Z</time>
      </trkpt>
      <trkpt lat="42.84274" lon="0.10638">
        <ele>2588</ele>
        <time>2017-05-04T11:17:51Z</time>
      </trkpt>
      <trkpt lat="42.84287" lon="0.10633">
        <ele>2585</ele>
        <time>2017-05-04T11:17:56Z</time>
      </trkpt>
      <trkpt lat="42.84291" lon="0.10634">
        <ele>2584</ele>
        <time>2017-05-04T11:17:58Z</time>
      </trkpt>
      <trkpt lat="42.84298" lon="0.1063">
        <ele>2582</ele>
        <time>2017-05-04T11:18:03Z</time>
      </trkpt>
      <trkpt lat="42.84299" lon="0.10635">
        <ele>2581</ele>
        <time>2017-05-04T11:18:07Z</time>
      </trkpt>
      <trkpt lat="42.84303" lon="0.10635">
        <ele>2579</ele>
        <time>2017-05-04T11:18:09Z</time>
      </trkpt>
      <trkpt lat="42.84352" lon="0.10632">
        <ele>2565</ele>
        <time>2017-05-04T11:18:42Z</time>
      </trkpt>
      <trkpt lat="42.84404" lon="0.10642">
        <ele>2552</ele>
        <time>2017-05-04T11:19:12Z</time>
      </trkpt>
      <trkpt lat="42.84427" lon="0.1065">
        <ele>2548</ele>
        <time>2017-05-04T11:19:26Z</time>
      </trkpt>
      <trkpt lat="42.84427" lon="0.10654">
        <ele>2548</ele>
        <time>2017-05-04T11:19:27Z</time>
      </trkpt>
      <trkpt lat="42.8442" lon="0.10661">
        <ele>2546</ele>
        <time>2017-05-04T11:19:31Z</time>
      </trkpt>
      <trkpt lat="42.84419" lon="0.10667">
        <ele>2545</ele>
        <time>2017-05-04T11:19:33Z</time>
      </trkpt>
      <trkpt lat="42.84422" lon="0.10668">
        <ele>2545</ele>
        <time>2017-05-04T11:19:35Z</time>
      </trkpt>
      <trkpt lat="42.84431" lon="0.10667">
        <ele>2541</ele>
        <time>2017-05-04T11:19:39Z</time>
      </trkpt>
      <trkpt lat="42.84434" lon="0.1067">
        <ele>2540</ele>
        <time>2017-05-04T11:19:40Z</time>
      </trkpt>
      <trkpt lat="42.84433" lon="0.10676">
        <ele>2538</ele>
        <time>2017-05-04T11:19:42Z</time>
      </trkpt>
      <trkpt lat="42.84437" lon="0.10681">
        <ele>2537</ele>
        <time>2017-05-04T11:19:44Z</time>
      </trkpt>
      <trkpt lat="42.8445" lon="0.10687">
        <ele>2534</ele>
        <time>2017-05-04T11:19:49Z</time>
      </trkpt>
      <trkpt lat="42.84449" lon="0.1069">
        <ele>2534</ele>
        <time>2017-05-04T11:20:00Z</time>
      </trkpt>
      <trkpt lat="42.84446" lon="0.10701">
        <ele>2533</ele>
        <time>2017-05-04T11:20:04Z</time>
      </trkpt>
      <trkpt lat="42.84451" lon="0.10704">
        <ele>2531</ele>
        <time>2017-05-04T11:20:06Z</time>
      </trkpt>
      <trkpt lat="42.84459" lon="0.10705">
        <ele>2530</ele>
        <time>2017-05-04T11:20:20Z</time>
      </trkpt>
      <trkpt lat="42.84466" lon="0.10704">
        <ele>2528</ele>
        <time>2017-05-04T11:20:24Z</time>
      </trkpt>
      <trkpt lat="42.84465" lon="0.10711">
        <ele>2528</ele>
        <time>2017-05-04T11:20:26Z</time>
      </trkpt>
      <trkpt lat="42.84463" lon="0.10714">
        <ele>2526</ele>
        <time>2017-05-04T11:20:28Z</time>
      </trkpt>
      <trkpt lat="42.84463" lon="0.10718">
        <ele>2525</ele>
        <time>2017-05-04T11:20:30Z</time>
      </trkpt>
      <trkpt lat="42.84467" lon="0.10718">
        <ele>2524</ele>
        <time>2017-05-04T11:20:32Z</time>
      </trkpt>
      <trkpt lat="42.8447" lon="0.10721">
        <ele>2522</ele>
        <time>2017-05-04T11:20:34Z</time>
      </trkpt>
      <trkpt lat="42.84468" lon="0.10725">
        <ele>2522</ele>
        <time>2017-05-04T11:20:35Z</time>
      </trkpt>
      <trkpt lat="42.84465" lon="0.10729">
        <ele>2520</ele>
        <time>2017-05-04T11:20:37Z</time>
      </trkpt>
      <trkpt lat="42.84468" lon="0.10733">
        <ele>2519</ele>
        <time>2017-05-04T11:20:39Z</time>
      </trkpt>
      <trkpt lat="42.84471" lon="0.10733">
        <ele>2517</ele>
        <time>2017-05-04T11:20:41Z</time>
      </trkpt>
      <trkpt lat="42.84474" lon="0.10735">
        <ele>2516</ele>
        <time>2017-05-04T11:20:42Z</time>
      </trkpt>
      <trkpt lat="42.84474" lon="0.1074">
        <ele>2514</ele>
        <time>2017-05-04T11:20:43Z</time>
      </trkpt>
      <trkpt lat="42.84472" lon="0.10744">
        <ele>2513</ele>
        <time>2017-05-04T11:20:45Z</time>
      </trkpt>
      <trkpt lat="42.84475" lon="0.10749">
        <ele>2511</ele>
        <time>2017-05-04T11:20:47Z</time>
      </trkpt>
      <trkpt lat="42.84478" lon="0.1075">
        <ele>2510</ele>
        <time>2017-05-04T11:20:48Z</time>
      </trkpt>
      <trkpt lat="42.84479" lon="0.10754">
        <ele>2509</ele>
        <time>2017-05-04T11:20:49Z</time>
      </trkpt>
      <trkpt lat="42.84478" lon="0.10759">
        <ele>2508</ele>
        <time>2017-05-04T11:20:51Z</time>
      </trkpt>
      <trkpt lat="42.8448" lon="0.10764">
        <ele>2507</ele>
        <time>2017-05-04T11:20:53Z</time>
      </trkpt>
      <trkpt lat="42.84483" lon="0.10763">
        <ele>2507</ele>
        <time>2017-05-04T11:21:01Z</time>
      </trkpt>
      <trkpt lat="42.84497" lon="0.10771">
        <ele>2506</ele>
        <time>2017-05-04T11:21:09Z</time>
      </trkpt>
      <trkpt lat="42.84497" lon="0.10783">
        <ele>2504</ele>
        <time>2017-05-04T11:21:13Z</time>
      </trkpt>
      <trkpt lat="42.84504" lon="0.1079">
        <ele>2502</ele>
        <time>2017-05-04T11:21:16Z</time>
      </trkpt>
      <trkpt lat="42.84524" lon="0.10812">
        <ele>2496</ele>
        <time>2017-05-04T11:21:22Z</time>
      </trkpt>
      <trkpt lat="42.84543" lon="0.10853">
        <ele>2490</ele>
        <time>2017-05-04T11:21:32Z</time>
      </trkpt>
      <trkpt lat="42.84546" lon="0.10862">
        <ele>2490</ele>
        <time>2017-05-04T11:21:46Z</time>
      </trkpt>
      <trkpt lat="42.84545" lon="0.10875">
        <ele>2487</ele>
        <time>2017-05-04T11:21:49Z</time>
      </trkpt>
      <trkpt lat="42.84549" lon="0.1088">
        <ele>2485</ele>
        <time>2017-05-04T11:21:51Z</time>
      </trkpt>
      <trkpt lat="42.84557" lon="0.10877">
        <ele>2483</ele>
        <time>2017-05-04T11:21:54Z</time>
      </trkpt>
      <trkpt lat="42.84558" lon="0.10881">
        <ele>2483</ele>
        <time>2017-05-04T11:21:55Z</time>
      </trkpt>
      <trkpt lat="42.8456" lon="0.10886">
        <ele>2481</ele>
        <time>2017-05-04T11:21:57Z</time>
      </trkpt>
      <trkpt lat="42.84565" lon="0.10884">
        <ele>2480</ele>
        <time>2017-05-04T11:21:59Z</time>
      </trkpt>
      <trkpt lat="42.84567" lon="0.10892">
        <ele>2476</ele>
        <time>2017-05-04T11:22:53Z</time>
      </trkpt>
      <trkpt lat="42.84567" lon="0.10899">
        <ele>2474</ele>
        <time>2017-05-04T11:22:55Z</time>
      </trkpt>
      <trkpt lat="42.8457" lon="0.109">
        <ele>2473</ele>
        <time>2017-05-04T11:22:56Z</time>
      </trkpt>
      <trkpt lat="42.84597" lon="0.10895">
        <ele>2466</ele>
        <time>2017-05-04T11:23:05Z</time>
      </trkpt>
      <trkpt lat="42.84603" lon="0.10888">
        <ele>2465</ele>
        <time>2017-05-04T11:23:11Z</time>
      </trkpt>
      <trkpt lat="42.84603" lon="0.10887">
        <ele>2468</ele>
        <time>2017-05-04T11:29:52Z</time>
      </trkpt>
      <trkpt lat="42.84611" lon="0.10882">
        <ele>2467</ele>
        <time>2017-05-04T11:29:56Z</time>
      </trkpt>
      <trkpt lat="42.84629" lon="0.1087">
        <ele>2461</ele>
        <time>2017-05-04T11:30:01Z</time>
      </trkpt>
      <trkpt lat="42.84633" lon="0.1087">
        <ele>2461</ele>
        <time>2017-05-04T11:30:02Z</time>
      </trkpt>
      <trkpt lat="42.84636" lon="0.10868">
        <ele>2459</ele>
        <time>2017-05-04T11:30:03Z</time>
      </trkpt>
      <trkpt lat="42.84638" lon="0.10865">
        <ele>2458</ele>
        <time>2017-05-04T11:30:04Z</time>
      </trkpt>
      <trkpt lat="42.84642" lon="0.10864">
        <ele>2457</ele>
        <time>2017-05-04T11:30:05Z</time>
      </trkpt>
      <trkpt lat="42.84649" lon="0.10864">
        <ele>2455</ele>
        <time>2017-05-04T11:30:07Z</time>
      </trkpt>
      <trkpt lat="42.84652" lon="0.1086">
        <ele>2454</ele>
        <time>2017-05-04T11:30:09Z</time>
      </trkpt>
      <trkpt lat="42.84654" lon="0.10856">
        <ele>2453</ele>
        <time>2017-05-04T11:30:10Z</time>
      </trkpt>
      <trkpt lat="42.84657" lon="0.10855">
        <ele>2452</ele>
        <time>2017-05-04T11:30:11Z</time>
      </trkpt>
      <trkpt lat="42.84682" lon="0.10844">
        <ele>2446</ele>
        <time>2017-05-04T11:30:19Z</time>
      </trkpt>
      <trkpt lat="42.84683" lon="0.1084">
        <ele>2445</ele>
        <time>2017-05-04T11:30:20Z</time>
      </trkpt>
      <trkpt lat="42.84682" lon="0.10836">
        <ele>2445</ele>
        <time>2017-05-04T11:30:21Z</time>
      </trkpt>
      <trkpt lat="42.84682" lon="0.10832">
        <ele>2443</ele>
        <time>2017-05-04T11:30:22Z</time>
      </trkpt>
      <trkpt lat="42.84684" lon="0.10827">
        <ele>2442</ele>
        <time>2017-05-04T11:30:23Z</time>
      </trkpt>
      <trkpt lat="42.84691" lon="0.10822">
        <ele>2440</ele>
        <time>2017-05-04T11:30:26Z</time>
      </trkpt>
      <trkpt lat="42.84692" lon="0.10812">
        <ele>2439</ele>
        <time>2017-05-04T11:30:28Z</time>
      </trkpt>
      <trkpt lat="42.84697" lon="0.10795">
        <ele>2436</ele>
        <time>2017-05-04T11:30:31Z</time>
      </trkpt>
      <trkpt lat="42.84703" lon="0.10778">
        <ele>2434</ele>
        <time>2017-05-04T11:30:45Z</time>
      </trkpt>
      <trkpt lat="42.84707" lon="0.10778">
        <ele>2432</ele>
        <time>2017-05-04T11:30:46Z</time>
      </trkpt>
      <trkpt lat="42.84712" lon="0.10783">
        <ele>2430</ele>
        <time>2017-05-04T11:30:48Z</time>
      </trkpt>
      <trkpt lat="42.84716" lon="0.10783">
        <ele>2429</ele>
        <time>2017-05-04T11:30:49Z</time>
      </trkpt>
      <trkpt lat="42.84718" lon="0.10779">
        <ele>2428</ele>
        <time>2017-05-04T11:30:50Z</time>
      </trkpt>
      <trkpt lat="42.84727" lon="0.10755">
        <ele>2424</ele>
        <time>2017-05-04T11:32:31Z</time>
      </trkpt>
      <trkpt lat="42.84748" lon="0.10705">
        <ele>2418</ele>
        <time>2017-05-04T11:32:50Z</time>
      </trkpt>
      <trkpt lat="42.84751" lon="0.10697">
        <ele>2417</ele>
        <time>2017-05-04T11:32:54Z</time>
      </trkpt>
      <trkpt lat="42.84751" lon="0.10693">
        <ele>2417</ele>
        <time>2017-05-04T11:33:05Z</time>
      </trkpt>
      <trkpt lat="42.84752" lon="0.1069">
        <ele>2416</ele>
        <time>2017-05-04T11:33:25Z</time>
      </trkpt>
      <trkpt lat="42.84756" lon="0.10688">
        <ele>2415</ele>
        <time>2017-05-04T11:33:27Z</time>
      </trkpt>
      <trkpt lat="42.8476" lon="0.10694">
        <ele>2414</ele>
        <time>2017-05-04T11:33:30Z</time>
      </trkpt>
      <trkpt lat="42.84763" lon="0.10691">
        <ele>2413</ele>
        <time>2017-05-04T11:33:32Z</time>
      </trkpt>
      <trkpt lat="42.84766" lon="0.10693">
        <ele>2411</ele>
        <time>2017-05-04T11:33:34Z</time>
      </trkpt>
      <trkpt lat="42.84769" lon="0.10697">
        <ele>2409</ele>
        <time>2017-05-04T11:33:36Z</time>
      </trkpt>
      <trkpt lat="42.84771" lon="0.10695">
        <ele>2408</ele>
        <time>2017-05-04T11:33:37Z</time>
      </trkpt>
      <trkpt lat="42.84777" lon="0.10687">
        <ele>2406</ele>
        <time>2017-05-04T11:33:40Z</time>
      </trkpt>
      <trkpt lat="42.84779" lon="0.10687">
        <ele>2405</ele>
        <time>2017-05-04T11:33:42Z</time>
      </trkpt>
      <trkpt lat="42.84781" lon="0.10692">
        <ele>2403</ele>
        <time>2017-05-04T11:33:44Z</time>
      </trkpt>
      <trkpt lat="42.84784" lon="0.1069">
        <ele>2402</ele>
        <time>2017-05-04T11:33:45Z</time>
      </trkpt>
      <trkpt lat="42.84789" lon="0.10684">
        <ele>2400</ele>
        <time>2017-05-04T11:33:51Z</time>
      </trkpt>
      <trkpt lat="42.8479" lon="0.10676">
        <ele>2399</ele>
        <time>2017-05-04T11:33:54Z</time>
      </trkpt>
      <trkpt lat="42.84795" lon="0.10659">
        <ele>2396</ele>
        <time>2017-05-04T11:33:57Z</time>
      </trkpt>
      <trkpt lat="42.84804" lon="0.10643">
        <ele>2392</ele>
        <time>2017-05-04T11:34:01Z</time>
      </trkpt>
      <trkpt lat="42.84821" lon="0.1061">
        <ele>2386</ele>
        <time>2017-05-04T11:34:10Z</time>
      </trkpt>
      <trkpt lat="42.84836" lon="0.10589">
        <ele>2381</ele>
        <time>2017-05-04T11:34:15Z</time>
      </trkpt>
      <trkpt lat="42.84851" lon="0.10582">
        <ele>2381</ele>
        <time>2017-05-04T11:34:37Z</time>
      </trkpt>
      <trkpt lat="42.84881" lon="0.10563">
        <ele>2380</ele>
        <time>2017-05-04T11:35:22Z</time>
      </trkpt>
      <trkpt lat="42.84891" lon="0.10556">
        <ele>2378</ele>
        <time>2017-05-04T11:35:31Z</time>
      </trkpt>
      <trkpt lat="42.84903" lon="0.10547">
        <ele>2375</ele>
        <time>2017-05-04T11:35:36Z</time>
      </trkpt>
      <trkpt lat="42.84903" lon="0.10543">
        <ele>2376</ele>
        <time>2017-05-04T11:35:43Z</time>
      </trkpt>
      <trkpt lat="42.84919" lon="0.10529">
        <ele>2373</ele>
        <time>2017-05-04T11:36:13Z</time>
      </trkpt>
      <trkpt lat="42.84953" lon="0.10487">
        <ele>2371</ele>
        <time>2017-05-04T11:36:44Z</time>
      </trkpt>
      <trkpt lat="42.84952" lon="0.10484">
        <ele>2372</ele>
        <time>2017-05-04T11:40:38Z</time>
      </trkpt>
      <trkpt lat="42.84954" lon="0.1048">
        <ele>2371</ele>
        <time>2017-05-04T11:42:43Z</time>
      </trkpt>
      <trkpt lat="42.84957" lon="0.10478">
        <ele>2370</ele>
        <time>2017-05-04T11:42:47Z</time>
      </trkpt>
      <trkpt lat="42.84958" lon="0.10474">
        <ele>2369</ele>
        <time>2017-05-04T11:43:19Z</time>
      </trkpt>
      <trkpt lat="42.84964" lon="0.10467">
        <ele>2369</ele>
        <time>2017-05-04T11:43:25Z</time>
      </trkpt>
      <trkpt lat="42.84997" lon="0.10438">
        <ele>2361</ele>
        <time>2017-05-04T11:43:44Z</time>
      </trkpt>
      <trkpt lat="42.85059" lon="0.10398">
        <ele>2354</ele>
        <time>2017-05-04T11:44:17Z</time>
      </trkpt>
      <trkpt lat="42.85069" lon="0.10389">
        <ele>2351</ele>
        <time>2017-05-04T11:44:54Z</time>
      </trkpt>
      <trkpt lat="42.85077" lon="0.1038">
        <ele>2351</ele>
        <time>2017-05-04T11:45:01Z</time>
      </trkpt>
      <trkpt lat="42.85102" lon="0.10344">
        <ele>2349</ele>
        <time>2017-05-04T11:45:34Z</time>
      </trkpt>
      <trkpt lat="42.85104" lon="0.10341">
        <ele>2351</ele>
        <time>2017-05-04T11:45:42Z</time>
      </trkpt>
      <trkpt lat="42.85104" lon="0.10337">
        <ele>2351</ele>
        <time>2017-05-04T11:45:58Z</time>
      </trkpt>
      <trkpt lat="42.85106" lon="0.10334">
        <ele>2352</ele>
        <time>2017-05-04T11:46:03Z</time>
      </trkpt>
      <trkpt lat="42.85107" lon="0.1033">
        <ele>2353</ele>
        <time>2017-05-04T11:46:17Z</time>
      </trkpt>
      <trkpt lat="42.85114" lon="0.10318">
        <ele>2354</ele>
        <time>2017-05-04T11:46:39Z</time>
      </trkpt>
      <trkpt lat="42.85116" lon="0.10299">
        <ele>2354</ele>
        <time>2017-05-04T11:46:53Z</time>
      </trkpt>
      <trkpt lat="42.85118" lon="0.10297">
        <ele>2354</ele>
        <time>2017-05-04T11:47:06Z</time>
      </trkpt>
      <trkpt lat="42.85119" lon="0.10292">
        <ele>2354</ele>
        <time>2017-05-04T11:47:19Z</time>
      </trkpt>
      <trkpt lat="42.85125" lon="0.1028">
        <ele>2353</ele>
        <time>2017-05-04T11:47:23Z</time>
      </trkpt>
      <trkpt lat="42.85125" lon="0.10277">
        <ele>2353</ele>
        <time>2017-05-04T11:47:27Z</time>
      </trkpt>
      <trkpt lat="42.85125" lon="0.10273">
        <ele>2354</ele>
        <time>2017-05-04T11:47:32Z</time>
      </trkpt>
      <trkpt lat="42.85128" lon="0.10271">
        <ele>2354</ele>
        <time>2017-05-04T11:47:37Z</time>
      </trkpt>
      <trkpt lat="42.8513" lon="0.10264">
        <ele>2354</ele>
        <time>2017-05-04T11:47:47Z</time>
      </trkpt>
      <trkpt lat="42.85139" lon="0.10236">
        <ele>2353</ele>
        <time>2017-05-04T11:48:18Z</time>
      </trkpt>
      <trkpt lat="42.85145" lon="0.10225">
        <ele>2354</ele>
        <time>2017-05-04T11:48:30Z</time>
      </trkpt>
      <trkpt lat="42.85161" lon="0.10183">
        <ele>2353</ele>
        <time>2017-05-04T11:49:02Z</time>
      </trkpt>
      <trkpt lat="42.8518" lon="0.10135">
        <ele>2352</ele>
        <time>2017-05-04T11:49:33Z</time>
      </trkpt>
      <trkpt lat="42.85191" lon="0.10102">
        <ele>2349</ele>
        <time>2017-05-04T11:49:54Z</time>
      </trkpt>
      <trkpt lat="42.85203" lon="0.1007">
        <ele>2347</ele>
        <time>2017-05-04T11:50:03Z</time>
      </trkpt>
      <trkpt lat="42.85213" lon="0.10054">
        <ele>2347</ele>
        <time>2017-05-04T11:50:23Z</time>
      </trkpt>
      <trkpt lat="42.85226" lon="0.10043">
        <ele>2347</ele>
        <time>2017-05-04T11:50:55Z</time>
      </trkpt>
      <trkpt lat="42.85238" lon="0.10033">
        <ele>2346</ele>
        <time>2017-05-04T11:51:07Z</time>
      </trkpt>
      <trkpt lat="42.85246" lon="0.10022">
        <ele>2346</ele>
        <time>2017-05-04T11:51:25Z</time>
      </trkpt>
      <trkpt lat="42.85254" lon="0.10014">
        <ele>2345</ele>
        <time>2017-05-04T11:51:34Z</time>
      </trkpt>
      <trkpt lat="42.8527" lon="0.09999">
        <ele>2345</ele>
        <time>2017-05-04T11:51:59Z</time>
      </trkpt>
      <trkpt lat="42.85281" lon="0.09981">
        <ele>2343</ele>
        <time>2017-05-04T11:52:07Z</time>
      </trkpt>
      <trkpt lat="42.85283" lon="0.09978">
        <ele>2342</ele>
        <time>2017-05-04T11:52:16Z</time>
      </trkpt>
      <trkpt lat="42.85288" lon="0.09955">
        <ele>2343</ele>
        <time>2017-05-04T11:52:49Z</time>
      </trkpt>
      <trkpt lat="42.85289" lon="0.09951">
        <ele>2344</ele>
        <time>2017-05-04T11:53:18Z</time>
      </trkpt>
      <trkpt lat="42.85288" lon="0.09947">
        <ele>2345</ele>
        <time>2017-05-04T11:53:29Z</time>
      </trkpt>
      <trkpt lat="42.8529" lon="0.09944">
        <ele>2347</ele>
        <time>2017-05-04T11:53:34Z</time>
      </trkpt>
      <trkpt lat="42.85294" lon="0.09938">
        <ele>2347</ele>
        <time>2017-05-04T11:53:44Z</time>
      </trkpt>
      <trkpt lat="42.85303" lon="0.09932">
        <ele>2347</ele>
        <time>2017-05-04T11:53:54Z</time>
      </trkpt>
      <trkpt lat="42.85308" lon="0.09928">
        <ele>2348</ele>
        <time>2017-05-04T11:54:07Z</time>
      </trkpt>
      <trkpt lat="42.85309" lon="0.09931">
        <ele>2346</ele>
        <time>2017-05-04T11:55:33Z</time>
      </trkpt>
      <trkpt lat="42.85314" lon="0.09936">
        <ele>2345</ele>
        <time>2017-05-04T11:55:37Z</time>
      </trkpt>
      <trkpt lat="42.85317" lon="0.09939">
        <ele>2344</ele>
        <time>2017-05-04T11:55:58Z</time>
      </trkpt>
      <trkpt lat="42.85324" lon="0.09956">
        <ele>2341</ele>
        <time>2017-05-04T11:56:05Z</time>
      </trkpt>
      <trkpt lat="42.85328" lon="0.09957">
        <ele>2340</ele>
        <time>2017-05-04T11:56:07Z</time>
      </trkpt>
      <trkpt lat="42.8534" lon="0.0996">
        <ele>2338</ele>
        <time>2017-05-04T11:56:13Z</time>
      </trkpt>
      <trkpt lat="42.85343" lon="0.09964">
        <ele>2336</ele>
        <time>2017-05-04T11:56:15Z</time>
      </trkpt>
      <trkpt lat="42.85346" lon="0.09962">
        <ele>2335</ele>
        <time>2017-05-04T11:56:17Z</time>
      </trkpt>
      <trkpt lat="42.85353" lon="0.09966">
        <ele>2332</ele>
        <time>2017-05-04T11:56:21Z</time>
      </trkpt>
      <trkpt lat="42.85358" lon="0.09963">
        <ele>2331</ele>
        <time>2017-05-04T11:56:23Z</time>
      </trkpt>
      <trkpt lat="42.8536" lon="0.09967">
        <ele>2329</ele>
        <time>2017-05-04T11:56:25Z</time>
      </trkpt>
      <trkpt lat="42.85363" lon="0.09968">
        <ele>2329</ele>
        <time>2017-05-04T11:56:26Z</time>
      </trkpt>
      <trkpt lat="42.85369" lon="0.09963">
        <ele>2327</ele>
        <time>2017-05-04T11:56:28Z</time>
      </trkpt>
      <trkpt lat="42.85372" lon="0.09956">
        <ele>2325</ele>
        <time>2017-05-04T11:56:31Z</time>
      </trkpt>
      <trkpt lat="42.85376" lon="0.09955">
        <ele>2324</ele>
        <time>2017-05-04T11:57:14Z</time>
      </trkpt>
      <trkpt lat="42.85379" lon="0.09954">
        <ele>2323</ele>
        <time>2017-05-04T11:57:15Z</time>
      </trkpt>
      <trkpt lat="42.85382" lon="0.09955">
        <ele>2323</ele>
        <time>2017-05-04T11:57:16Z</time>
      </trkpt>
      <trkpt lat="42.85385" lon="0.09957">
        <ele>2321</ele>
        <time>2017-05-04T11:57:18Z</time>
      </trkpt>
      <trkpt lat="42.85386" lon="0.09952">
        <ele>2321</ele>
        <time>2017-05-04T11:57:20Z</time>
      </trkpt>
      <trkpt lat="42.85389" lon="0.0995">
        <ele>2319</ele>
        <time>2017-05-04T11:57:21Z</time>
      </trkpt>
      <trkpt lat="42.85393" lon="0.09953">
        <ele>2318</ele>
        <time>2017-05-04T11:57:23Z</time>
      </trkpt>
      <trkpt lat="42.85395" lon="0.0995">
        <ele>2316</ele>
        <time>2017-05-04T11:57:24Z</time>
      </trkpt>
      <trkpt lat="42.85396" lon="0.09942">
        <ele>2314</ele>
        <time>2017-05-04T11:57:26Z</time>
      </trkpt>
      <trkpt lat="42.85399" lon="0.0994">
        <ele>2313</ele>
        <time>2017-05-04T11:57:27Z</time>
      </trkpt>
      <trkpt lat="42.85402" lon="0.09942">
        <ele>2311</ele>
        <time>2017-05-04T11:57:28Z</time>
      </trkpt>
      <trkpt lat="42.85408" lon="0.09941">
        <ele>2310</ele>
        <time>2017-05-04T11:57:30Z</time>
      </trkpt>
      <trkpt lat="42.85409" lon="0.09934">
        <ele>2309</ele>
        <time>2017-05-04T11:57:32Z</time>
      </trkpt>
      <trkpt lat="42.85413" lon="0.09933">
        <ele>2308</ele>
        <time>2017-05-04T11:57:34Z</time>
      </trkpt>
      <trkpt lat="42.85416" lon="0.09928">
        <ele>2307</ele>
        <time>2017-05-04T11:57:36Z</time>
      </trkpt>
      <trkpt lat="42.85417" lon="0.09923">
        <ele>2306</ele>
        <time>2017-05-04T11:57:37Z</time>
      </trkpt>
      <trkpt lat="42.85421" lon="0.09923">
        <ele>2306</ele>
        <time>2017-05-04T11:57:38Z</time>
      </trkpt>
      <trkpt lat="42.85424" lon="0.09921">
        <ele>2304</ele>
        <time>2017-05-04T11:57:40Z</time>
      </trkpt>
      <trkpt lat="42.85424" lon="0.09915">
        <ele>2302</ele>
        <time>2017-05-04T11:57:42Z</time>
      </trkpt>
      <trkpt lat="42.85425" lon="0.09911">
        <ele>2301</ele>
        <time>2017-05-04T11:57:43Z</time>
      </trkpt>
      <trkpt lat="42.85432" lon="0.09911">
        <ele>2299</ele>
        <time>2017-05-04T11:57:47Z</time>
      </trkpt>
      <trkpt lat="42.85437" lon="0.09902">
        <ele>2296</ele>
        <time>2017-05-04T11:57:49Z</time>
      </trkpt>
      <trkpt lat="42.85445" lon="0.09884">
        <ele>2291</ele>
        <time>2017-05-04T11:58:26Z</time>
      </trkpt>
      <trkpt lat="42.85447" lon="0.09881">
        <ele>2288</ele>
        <time>2017-05-04T11:58:43Z</time>
      </trkpt>
      <trkpt lat="42.8545" lon="0.09874">
        <ele>2286</ele>
        <time>2017-05-04T11:58:45Z</time>
      </trkpt>
      <trkpt lat="42.8545" lon="0.09869">
        <ele>2285</ele>
        <time>2017-05-04T11:58:47Z</time>
      </trkpt>
      <trkpt lat="42.85453" lon="0.09866">
        <ele>2283</ele>
        <time>2017-05-04T11:58:49Z</time>
      </trkpt>
      <trkpt lat="42.85456" lon="0.09869">
        <ele>2282</ele>
        <time>2017-05-04T11:58:52Z</time>
      </trkpt>
      <trkpt lat="42.85458" lon="0.09866">
        <ele>2281</ele>
        <time>2017-05-04T11:58:53Z</time>
      </trkpt>
      <trkpt lat="42.8546" lon="0.09857">
        <ele>2278</ele>
        <time>2017-05-04T11:58:57Z</time>
      </trkpt>
      <trkpt lat="42.85464" lon="0.09859">
        <ele>2276</ele>
        <time>2017-05-04T11:59:00Z</time>
      </trkpt>
      <trkpt lat="42.85466" lon="0.0985">
        <ele>2272</ele>
        <time>2017-05-04T11:59:14Z</time>
      </trkpt>
      <trkpt lat="42.8547" lon="0.09847">
        <ele>2273</ele>
        <time>2017-05-04T12:00:00Z</time>
      </trkpt>
      <trkpt lat="42.85474" lon="0.09853">
        <ele>2271</ele>
        <time>2017-05-04T12:00:46Z</time>
      </trkpt>
      <trkpt lat="42.85478" lon="0.09854">
        <ele>2268</ele>
        <time>2017-05-04T12:00:49Z</time>
      </trkpt>
      <trkpt lat="42.8548" lon="0.09858">
        <ele>2266</ele>
        <time>2017-05-04T12:00:52Z</time>
      </trkpt>
      <trkpt lat="42.85483" lon="0.09858">
        <ele>2264</ele>
        <time>2017-05-04T12:00:54Z</time>
      </trkpt>
      <trkpt lat="42.85486" lon="0.09853">
        <ele>2264</ele>
        <time>2017-05-04T12:00:55Z</time>
      </trkpt>
      <trkpt lat="42.85484" lon="0.0985">
        <ele>2262</ele>
        <time>2017-05-04T12:00:56Z</time>
      </trkpt>
      <trkpt lat="42.85485" lon="0.09842">
        <ele>2259</ele>
        <time>2017-05-04T12:01:24Z</time>
      </trkpt>
      <trkpt lat="42.85488" lon="0.09844">
        <ele>2258</ele>
        <time>2017-05-04T12:01:25Z</time>
      </trkpt>
      <trkpt lat="42.85491" lon="0.09847">
        <ele>2256</ele>
        <time>2017-05-04T12:01:29Z</time>
      </trkpt>
      <trkpt lat="42.85493" lon="0.09841">
        <ele>2255</ele>
        <time>2017-05-04T12:01:31Z</time>
      </trkpt>
      <trkpt lat="42.85496" lon="0.09832">
        <ele>2251</ele>
        <time>2017-05-04T12:01:34Z</time>
      </trkpt>
      <trkpt lat="42.85495" lon="0.09827">
        <ele>2250</ele>
        <time>2017-05-04T12:01:36Z</time>
      </trkpt>
      <trkpt lat="42.8549" lon="0.09814">
        <ele>2246</ele>
        <time>2017-05-04T12:01:39Z</time>
      </trkpt>
      <trkpt lat="42.85491" lon="0.09809">
        <ele>2245</ele>
        <time>2017-05-04T12:01:41Z</time>
      </trkpt>
      <trkpt lat="42.85494" lon="0.09811">
        <ele>2244</ele>
        <time>2017-05-04T12:01:43Z</time>
      </trkpt>
      <trkpt lat="42.85497" lon="0.09814">
        <ele>2242</ele>
        <time>2017-05-04T12:01:45Z</time>
      </trkpt>
      <trkpt lat="42.855" lon="0.09812">
        <ele>2241</ele>
        <time>2017-05-04T12:02:11Z</time>
      </trkpt>
      <trkpt lat="42.85502" lon="0.09807">
        <ele>2238</ele>
        <time>2017-05-04T12:02:13Z</time>
      </trkpt>
      <trkpt lat="42.85505" lon="0.09812">
        <ele>2237</ele>
        <time>2017-05-04T12:02:15Z</time>
      </trkpt>
      <trkpt lat="42.8551" lon="0.09815">
        <ele>2234</ele>
        <time>2017-05-04T12:02:17Z</time>
      </trkpt>
      <trkpt lat="42.85513" lon="0.09813">
        <ele>2232</ele>
        <time>2017-05-04T12:02:19Z</time>
      </trkpt>
      <trkpt lat="42.85516" lon="0.0981">
        <ele>2231</ele>
        <time>2017-05-04T12:02:36Z</time>
      </trkpt>
      <trkpt lat="42.85519" lon="0.0981">
        <ele>2231</ele>
        <time>2017-05-04T12:02:37Z</time>
      </trkpt>
      <trkpt lat="42.85529" lon="0.09812">
        <ele>2230</ele>
        <time>2017-05-04T12:02:40Z</time>
      </trkpt>
      <trkpt lat="42.85536" lon="0.09806">
        <ele>2227</ele>
        <time>2017-05-04T12:02:44Z</time>
      </trkpt>
      <trkpt lat="42.85541" lon="0.09799">
        <ele>2225</ele>
        <time>2017-05-04T12:02:47Z</time>
      </trkpt>
      <trkpt lat="42.85538" lon="0.09798">
        <ele>2224</ele>
        <time>2017-05-04T12:02:57Z</time>
      </trkpt>
      <trkpt lat="42.85535" lon="0.09798">
        <ele>2222</ele>
        <time>2017-05-04T12:03:49Z</time>
      </trkpt>
      <trkpt lat="42.85532" lon="0.09796">
        <ele>2222</ele>
        <time>2017-05-04T12:03:52Z</time>
      </trkpt>
      <trkpt lat="42.85524" lon="0.09793">
        <ele>2219</ele>
        <time>2017-05-04T12:03:57Z</time>
      </trkpt>
      <trkpt lat="42.85521" lon="0.09789">
        <ele>2219</ele>
        <time>2017-05-04T12:03:59Z</time>
      </trkpt>
      <trkpt lat="42.85518" lon="0.09787">
        <ele>2219</ele>
        <time>2017-05-04T12:04:05Z</time>
      </trkpt>
      <trkpt lat="42.85518" lon="0.09781">
        <ele>2218</ele>
        <time>2017-05-04T12:04:48Z</time>
      </trkpt>
      <trkpt lat="42.85519" lon="0.09777">
        <ele>2216</ele>
        <time>2017-05-04T12:04:49Z</time>
      </trkpt>
      <trkpt lat="42.85523" lon="0.09776">
        <ele>2216</ele>
        <time>2017-05-04T12:04:50Z</time>
      </trkpt>
      <trkpt lat="42.85528" lon="0.09776">
        <ele>2214</ele>
        <time>2017-05-04T12:04:52Z</time>
      </trkpt>
      <trkpt lat="42.85529" lon="0.09771">
        <ele>2214</ele>
        <time>2017-05-04T12:04:53Z</time>
      </trkpt>
      <trkpt lat="42.85527" lon="0.09768">
        <ele>2213</ele>
        <time>2017-05-04T12:04:54Z</time>
      </trkpt>
      <trkpt lat="42.85526" lon="0.09757">
        <ele>2210</ele>
        <time>2017-05-04T12:04:57Z</time>
      </trkpt>
      <trkpt lat="42.85529" lon="0.09755">
        <ele>2209</ele>
        <time>2017-05-04T12:04:58Z</time>
      </trkpt>
      <trkpt lat="42.85537" lon="0.09757">
        <ele>2207</ele>
        <time>2017-05-04T12:05:01Z</time>
      </trkpt>
      <trkpt lat="42.85538" lon="0.09753">
        <ele>2206</ele>
        <time>2017-05-04T12:05:02Z</time>
      </trkpt>
      <trkpt lat="42.85554" lon="0.09718">
        <ele>2196</ele>
        <time>2017-05-04T12:05:10Z</time>
      </trkpt>
      <trkpt lat="42.85576" lon="0.09692">
        <ele>2188</ele>
        <time>2017-05-04T12:05:29Z</time>
      </trkpt>
      <trkpt lat="42.85579" lon="0.09691">
        <ele>2188</ele>
        <time>2017-05-04T12:05:30Z</time>
      </trkpt>
      <trkpt lat="42.85584" lon="0.09682">
        <ele>2185</ele>
        <time>2017-05-04T12:05:33Z</time>
      </trkpt>
      <trkpt lat="42.8559" lon="0.09669">
        <ele>2183</ele>
        <time>2017-05-04T12:05:36Z</time>
      </trkpt>
      <trkpt lat="42.85598" lon="0.09653">
        <ele>2179</ele>
        <time>2017-05-04T12:05:40Z</time>
      </trkpt>
      <trkpt lat="42.85608" lon="0.09649">
        <ele>2177</ele>
        <time>2017-05-04T12:05:43Z</time>
      </trkpt>
      <trkpt lat="42.85609" lon="0.09645">
        <ele>2175</ele>
        <time>2017-05-04T12:05:49Z</time>
      </trkpt>
      <trkpt lat="42.8563" lon="0.0965">
        <ele>2173</ele>
        <time>2017-05-04T12:05:58Z</time>
      </trkpt>
      <trkpt lat="42.85641" lon="0.09654">
        <ele>2171</ele>
        <time>2017-05-04T12:06:01Z</time>
      </trkpt>
      <trkpt lat="42.85644" lon="0.09649">
        <ele>2172</ele>
        <time>2017-05-04T12:06:37Z</time>
      </trkpt>
      <trkpt lat="42.85645" lon="0.0964">
        <ele>2171</ele>
        <time>2017-05-04T12:06:39Z</time>
      </trkpt>
      <trkpt lat="42.85649" lon="0.09639">
        <ele>2170</ele>
        <time>2017-05-04T12:06:40Z</time>
      </trkpt>
      <trkpt lat="42.85652" lon="0.09638">
        <ele>2169</ele>
        <time>2017-05-04T12:06:41Z</time>
      </trkpt>
      <trkpt lat="42.85656" lon="0.09634">
        <ele>2166</ele>
        <time>2017-05-04T12:06:43Z</time>
      </trkpt>
      <trkpt lat="42.85669" lon="0.09617">
        <ele>2159</ele>
        <time>2017-05-04T12:06:48Z</time>
      </trkpt>
      <trkpt lat="42.85673" lon="0.09615">
        <ele>2159</ele>
        <time>2017-05-04T12:06:49Z</time>
      </trkpt>
      <trkpt lat="42.85681" lon="0.09621">
        <ele>2156</ele>
        <time>2017-05-04T12:09:20Z</time>
      </trkpt>
      <trkpt lat="42.8569" lon="0.0962">
        <ele>2143</ele>
        <time>2017-05-04T12:09:52Z</time>
      </trkpt>
      <trkpt lat="42.85697" lon="0.09622">
        <ele>2142</ele>
        <time>2017-05-04T12:10:03Z</time>
      </trkpt>
      <trkpt lat="42.85703" lon="0.09618">
        <ele>2150</ele>
        <time>2017-05-04T12:10:15Z</time>
      </trkpt>
      <trkpt lat="42.85711" lon="0.09621">
        <ele>2150</ele>
        <time>2017-05-04T12:10:27Z</time>
      </trkpt>
      <trkpt lat="42.85722" lon="0.09618">
        <ele>2154</ele>
        <time>2017-05-04T12:10:50Z</time>
      </trkpt>
      <trkpt lat="42.85726" lon="0.09613">
        <ele>2154</ele>
        <time>2017-05-04T12:10:54Z</time>
      </trkpt>
      <trkpt lat="42.85742" lon="0.09609">
        <ele>2150</ele>
        <time>2017-05-04T12:11:00Z</time>
      </trkpt>
      <trkpt lat="42.85749" lon="0.09598">
        <ele>2150</ele>
        <time>2017-05-04T12:11:05Z</time>
      </trkpt>
      <trkpt lat="42.85754" lon="0.09588">
        <ele>2149</ele>
        <time>2017-05-04T12:11:09Z</time>
      </trkpt>
      <trkpt lat="42.85759" lon="0.09586">
        <ele>2147</ele>
        <time>2017-05-04T12:11:12Z</time>
      </trkpt>
      <trkpt lat="42.85761" lon="0.09573">
        <ele>2144</ele>
        <time>2017-05-04T12:11:15Z</time>
      </trkpt>
      <trkpt lat="42.85761" lon="0.09562">
        <ele>2142</ele>
        <time>2017-05-04T12:11:16Z</time>
      </trkpt>
      <trkpt lat="42.85772" lon="0.09543">
        <ele>2139</ele>
        <time>2017-05-04T12:11:19Z</time>
      </trkpt>
      <trkpt lat="42.85798" lon="0.09511">
        <ele>2140</ele>
        <time>2017-05-04T12:11:30Z</time>
      </trkpt>
      <trkpt lat="42.85814" lon="0.09477">
        <ele>2138</ele>
        <time>2017-05-04T12:11:52Z</time>
      </trkpt>
      <trkpt lat="42.85824" lon="0.09471">
        <ele>2138</ele>
        <time>2017-05-04T12:11:58Z</time>
      </trkpt>
      <trkpt lat="42.85849" lon="0.09456">
        <ele>2138</ele>
        <time>2017-05-04T12:12:30Z</time>
      </trkpt>
      <trkpt lat="42.85852" lon="0.09454">
        <ele>2137</ele>
        <time>2017-05-04T12:12:36Z</time>
      </trkpt>
      <trkpt lat="42.85853" lon="0.09451">
        <ele>2137</ele>
        <time>2017-05-04T12:12:40Z</time>
      </trkpt>
      <trkpt lat="42.85877" lon="0.09432">
        <ele>2133</ele>
        <time>2017-05-04T12:13:06Z</time>
      </trkpt>
      <trkpt lat="42.85888" lon="0.0942">
        <ele>2132</ele>
        <time>2017-05-04T12:13:09Z</time>
      </trkpt>
      <trkpt lat="42.85894" lon="0.0942">
        <ele>2135</ele>
        <time>2017-05-04T12:13:30Z</time>
      </trkpt>
      <trkpt lat="42.85904" lon="0.09408">
        <ele>2136</ele>
        <time>2017-05-04T12:13:43Z</time>
      </trkpt>
      <trkpt lat="42.85906" lon="0.09407">
        <ele>2135</ele>
        <time>2017-05-04T12:13:45Z</time>
      </trkpt>
      <trkpt lat="42.85914" lon="0.09395">
        <ele>2134</ele>
        <time>2017-05-04T12:13:55Z</time>
      </trkpt>
      <trkpt lat="42.85922" lon="0.09373">
        <ele>2130</ele>
        <time>2017-05-04T12:14:07Z</time>
      </trkpt>
      <trkpt lat="42.85922" lon="0.09367">
        <ele>2130</ele>
        <time>2017-05-04T12:14:29Z</time>
      </trkpt>
      <trkpt lat="42.85923" lon="0.09362">
        <ele>2129</ele>
        <time>2017-05-04T12:14:33Z</time>
      </trkpt>
      <trkpt lat="42.85923" lon="0.09359">
        <ele>2128</ele>
        <time>2017-05-04T12:14:42Z</time>
      </trkpt>
      <trkpt lat="42.85922" lon="0.09355">
        <ele>2131</ele>
        <time>2017-05-04T12:15:31Z</time>
      </trkpt>
      <trkpt lat="42.85925" lon="0.0935">
        <ele>2132</ele>
        <time>2017-05-04T12:15:35Z</time>
      </trkpt>
      <trkpt lat="42.85927" lon="0.09348">
        <ele>2131</ele>
        <time>2017-05-04T12:15:38Z</time>
      </trkpt>
      <trkpt lat="42.85928" lon="0.09342">
        <ele>2131</ele>
        <time>2017-05-04T12:15:50Z</time>
      </trkpt>
      <trkpt lat="42.85931" lon="0.09342">
        <ele>2129</ele>
        <time>2017-05-04T12:15:57Z</time>
      </trkpt>
      <trkpt lat="42.85936" lon="0.09329">
        <ele>2127</ele>
        <time>2017-05-04T12:16:00Z</time>
      </trkpt>
      <trkpt lat="42.85946" lon="0.0931">
        <ele>2119</ele>
        <time>2017-05-04T12:16:39Z</time>
      </trkpt>
      <trkpt lat="42.85949" lon="0.09295">
        <ele>2116</ele>
        <time>2017-05-04T12:16:49Z</time>
      </trkpt>
      <trkpt lat="42.85951" lon="0.09289">
        <ele>2116</ele>
        <time>2017-05-04T12:16:59Z</time>
      </trkpt>
      <trkpt lat="42.85953" lon="0.09286">
        <ele>2118</ele>
        <time>2017-05-04T12:17:04Z</time>
      </trkpt>
      <trkpt lat="42.85954" lon="0.09281">
        <ele>2120</ele>
        <time>2017-05-04T12:17:09Z</time>
      </trkpt>
      <trkpt lat="42.85952" lon="0.09273">
        <ele>2117</ele>
        <time>2017-05-04T12:17:16Z</time>
      </trkpt>
      <trkpt lat="42.85953" lon="0.09263">
        <ele>2118</ele>
        <time>2017-05-04T12:17:25Z</time>
      </trkpt>
      <trkpt lat="42.85952" lon="0.0926">
        <ele>2118</ele>
        <time>2017-05-04T12:17:27Z</time>
      </trkpt>
      <trkpt lat="42.85951" lon="0.09237">
        <ele>2115</ele>
        <time>2017-05-04T12:17:48Z</time>
      </trkpt>
      <trkpt lat="42.85942" lon="0.0922">
        <ele>2113</ele>
        <time>2017-05-04T12:17:53Z</time>
      </trkpt>
      <trkpt lat="42.85933" lon="0.09208">
        <ele>2111</ele>
        <time>2017-05-04T12:17:57Z</time>
      </trkpt>
      <trkpt lat="42.85933" lon="0.09203">
        <ele>2111</ele>
        <time>2017-05-04T12:17:58Z</time>
      </trkpt>
      <trkpt lat="42.85934" lon="0.09199">
        <ele>2110</ele>
        <time>2017-05-04T12:17:59Z</time>
      </trkpt>
      <trkpt lat="42.85942" lon="0.09183">
        <ele>2108</ele>
        <time>2017-05-04T12:18:02Z</time>
      </trkpt>
      <trkpt lat="42.85964" lon="0.09153">
        <ele>2111</ele>
        <time>2017-05-04T12:18:33Z</time>
      </trkpt>
      <trkpt lat="42.85963" lon="0.09148">
        <ele>2111</ele>
        <time>2017-05-04T12:18:45Z</time>
      </trkpt>
      <trkpt lat="42.85966" lon="0.09146">
        <ele>2109</ele>
        <time>2017-05-04T12:19:13Z</time>
      </trkpt>
      <trkpt lat="42.85972" lon="0.09144">
        <ele>2105</ele>
        <time>2017-05-04T12:19:27Z</time>
      </trkpt>
      <trkpt lat="42.85975" lon="0.09143">
        <ele>2104</ele>
        <time>2017-05-04T12:19:42Z</time>
      </trkpt>
      <trkpt lat="42.85989" lon="0.09128">
        <ele>2101</ele>
        <time>2017-05-04T12:19:55Z</time>
      </trkpt>
      <trkpt lat="42.85993" lon="0.09126">
        <ele>2101</ele>
        <time>2017-05-04T12:20:10Z</time>
      </trkpt>
      <trkpt lat="42.85997" lon="0.09129">
        <ele>2100</ele>
        <time>2017-05-04T12:20:16Z</time>
      </trkpt>
      <trkpt lat="42.86001" lon="0.09131">
        <ele>2100</ele>
        <time>2017-05-04T12:20:19Z</time>
      </trkpt>
      <trkpt lat="42.86016" lon="0.09143">
        <ele>2094</ele>
        <time>2017-05-04T12:20:46Z</time>
      </trkpt>
      <trkpt lat="42.86022" lon="0.09141">
        <ele>2095</ele>
        <time>2017-05-04T12:20:59Z</time>
      </trkpt>
      <trkpt lat="42.86026" lon="0.09145">
        <ele>2096</ele>
        <time>2017-05-04T12:21:19Z</time>
      </trkpt>
      <trkpt lat="42.86029" lon="0.09146">
        <ele>2105</ele>
        <time>2017-05-04T12:22:46Z</time>
      </trkpt>
      <trkpt lat="42.86031" lon="0.09148">
        <ele>2109</ele>
        <time>2017-05-04T12:25:40Z</time>
      </trkpt>
      <trkpt lat="42.86034" lon="0.09148">
        <ele>2104</ele>
        <time>2017-05-04T12:25:57Z</time>
      </trkpt>
      <trkpt lat="42.86036" lon="0.09145">
        <ele>2103</ele>
        <time>2017-05-04T12:26:00Z</time>
      </trkpt>
      <trkpt lat="42.86038" lon="0.09142">
        <ele>2104</ele>
        <time>2017-05-04T12:26:07Z</time>
      </trkpt>
      <trkpt lat="42.86043" lon="0.0914">
        <ele>2106</ele>
        <time>2017-05-04T12:26:22Z</time>
      </trkpt>
      <trkpt lat="42.86046" lon="0.09142">
        <ele>2107</ele>
        <time>2017-05-04T12:26:28Z</time>
      </trkpt>
      <trkpt lat="42.86048" lon="0.09139">
        <ele>2110</ele>
        <time>2017-05-04T12:26:36Z</time>
      </trkpt>
      <trkpt lat="42.86047" lon="0.09134">
        <ele>2111</ele>
        <time>2017-05-04T12:26:42Z</time>
      </trkpt>
      <trkpt lat="42.86048" lon="0.0913">
        <ele>2112</ele>
        <time>2017-05-04T12:26:47Z</time>
      </trkpt>
      <trkpt lat="42.86046" lon="0.09127">
        <ele>2112</ele>
        <time>2017-05-04T12:26:51Z</time>
      </trkpt>
      <trkpt lat="42.86047" lon="0.09123">
        <ele>2113</ele>
        <time>2017-05-04T12:26:57Z</time>
      </trkpt>
      <trkpt lat="42.8605" lon="0.09123">
        <ele>2113</ele>
        <time>2017-05-04T12:27:04Z</time>
      </trkpt>
      <trkpt lat="42.86052" lon="0.09121">
        <ele>2114</ele>
        <time>2017-05-04T12:27:12Z</time>
      </trkpt>
      <trkpt lat="42.86054" lon="0.09118">
        <ele>2114</ele>
        <time>2017-05-04T12:27:20Z</time>
      </trkpt>
      <trkpt lat="42.86057" lon="0.09116">
        <ele>2117</ele>
        <time>2017-05-04T12:27:30Z</time>
      </trkpt>
      <trkpt lat="42.8606" lon="0.09116">
        <ele>2117</ele>
        <time>2017-05-04T12:27:39Z</time>
      </trkpt>
      <trkpt lat="42.86061" lon="0.09112">
        <ele>2119</ele>
        <time>2017-05-04T12:27:54Z</time>
      </trkpt>
      <trkpt lat="42.8606" lon="0.09108">
        <ele>2123</ele>
        <time>2017-05-04T12:28:09Z</time>
      </trkpt>
      <trkpt lat="42.8606" lon="0.09104">
        <ele>2123</ele>
        <time>2017-05-04T12:28:15Z</time>
      </trkpt>
      <trkpt lat="42.86061" lon="0.09101">
        <ele>2125</ele>
        <time>2017-05-04T12:28:22Z</time>
      </trkpt>
      <trkpt lat="42.86061" lon="0.09097">
        <ele>2126</ele>
        <time>2017-05-04T12:28:27Z</time>
      </trkpt>
      <trkpt lat="42.8606" lon="0.09093">
        <ele>2128</ele>
        <time>2017-05-04T12:28:40Z</time>
      </trkpt>
      <trkpt lat="42.86062" lon="0.09091">
        <ele>2130</ele>
        <time>2017-05-04T12:28:58Z</time>
      </trkpt>
      <trkpt lat="42.86065" lon="0.09092">
        <ele>2130</ele>
        <time>2017-05-04T12:29:02Z</time>
      </trkpt>
      <trkpt lat="42.86074" lon="0.09095">
        <ele>2133</ele>
        <time>2017-05-04T12:29:28Z</time>
      </trkpt>
      <trkpt lat="42.86072" lon="0.09092">
        <ele>2134</ele>
        <time>2017-05-04T12:29:38Z</time>
      </trkpt>
      <trkpt lat="42.86075" lon="0.0909">
        <ele>2134</ele>
        <time>2017-05-04T12:29:47Z</time>
      </trkpt>
      <trkpt lat="42.86078" lon="0.0909">
        <ele>2136</ele>
        <time>2017-05-04T12:29:54Z</time>
      </trkpt>
      <trkpt lat="42.86077" lon="0.09086">
        <ele>2137</ele>
        <time>2017-05-04T12:30:07Z</time>
      </trkpt>
      <trkpt lat="42.86076" lon="0.09082">
        <ele>2137</ele>
        <time>2017-05-04T12:30:14Z</time>
      </trkpt>
      <trkpt lat="42.86076" lon="0.09078">
        <ele>2140</ele>
        <time>2017-05-04T12:30:21Z</time>
      </trkpt>
      <trkpt lat="42.86079" lon="0.0908">
        <ele>2142</ele>
        <time>2017-05-04T12:30:49Z</time>
      </trkpt>
      <trkpt lat="42.86085" lon="0.0908">
        <ele>2144</ele>
        <time>2017-05-04T12:31:00Z</time>
      </trkpt>
      <trkpt lat="42.86088" lon="0.09078">
        <ele>2144</ele>
        <time>2017-05-04T12:31:09Z</time>
      </trkpt>
      <trkpt lat="42.86086" lon="0.09074">
        <ele>2144</ele>
        <time>2017-05-04T12:31:15Z</time>
      </trkpt>
      <trkpt lat="42.86085" lon="0.0907">
        <ele>2146</ele>
        <time>2017-05-04T12:31:21Z</time>
      </trkpt>
      <trkpt lat="42.86087" lon="0.09067">
        <ele>2146</ele>
        <time>2017-05-04T12:31:28Z</time>
      </trkpt>
      <trkpt lat="42.8609" lon="0.09069">
        <ele>2146</ele>
        <time>2017-05-04T12:31:33Z</time>
      </trkpt>
      <trkpt lat="42.86093" lon="0.09068">
        <ele>2148</ele>
        <time>2017-05-04T12:31:43Z</time>
      </trkpt>
      <trkpt lat="42.86093" lon="0.09064">
        <ele>2149</ele>
        <time>2017-05-04T12:31:47Z</time>
      </trkpt>
      <trkpt lat="42.86088" lon="0.09057">
        <ele>2150</ele>
        <time>2017-05-04T12:32:29Z</time>
      </trkpt>
      <trkpt lat="42.86088" lon="0.09053">
        <ele>2150</ele>
        <time>2017-05-04T12:32:34Z</time>
      </trkpt>
      <trkpt lat="42.86091" lon="0.09048">
        <ele>2161</ele>
        <time>2017-05-04T12:35:36Z</time>
      </trkpt>
    </trkseg>
  </trk>
</gpx>